﻿<?xml version="1.0" encoding="utf-8"?><gpx creator="Garmin Desktop App" version="1.1" xsi:schemaLocation="http://www.topografix.com/GPX/1/1 http://www.topografix.com/GPX/1/1/gpx.xsd http://www.garmin.com/xmlschemas/WaypointExtension/v1 http://www8.garmin.com/xmlschemas/WaypointExtensionv1.xsd http://www.garmin.com/xmlschemas/TrackPointExtension/v1 http://www.garmin.com/xmlschemas/TrackPointExtensionv1.xsd http://www.garmin.com/xmlschemas/GpxExtensions/v3 http://www8.garmin.com/xmlschemas/GpxExtensionsv3.xsd http://www.garmin.com/xmlschemas/ActivityExtension/v1 http://www8.garmin.com/xmlschemas/ActivityExtensionv1.xsd http://www.garmin.com/xmlschemas/AdventuresExtensions/v1 http://www8.garmin.com/xmlschemas/AdventuresExtensionv1.xsd http://www.garmin.com/xmlschemas/PressureExtension/v1 http://www.garmin.com/xmlschemas/PressureExtensionv1.xsd http://www.garmin.com/xmlschemas/TripExtensions/v1 http://www.garmin.com/xmlschemas/TripExtensionsv1.xsd http://www.garmin.com/xmlschemas/TripMetaDataExtensions/v1 http://www.garmin.com/xmlschemas/TripMetaDataExtensionsv1.xsd http://www.garmin.com/xmlschemas/ViaPointTransportationModeExtensions/v1 http://www.garmin.com/xmlschemas/ViaPointTransportationModeExtensionsv1.xsd http://www.garmin.com/xmlschemas/CreationTimeExtensions/v1 http://www.garmin.com/xmlschemas/CreationTimeExtensionsv1.xsd" xmlns="http://www.topografix.com/GPX/1/1" xmlns:xsi="http://www.w3.org/2001/XMLSchema-instance" xmlns:wptx1="http://www.garmin.com/xmlschemas/WaypointExtension/v1" xmlns:gpxtrx="http://www.garmin.com/xmlschemas/GpxExtensions/v3" xmlns:gpxtpx="http://www.garmin.com/xmlschemas/TrackPointExtension/v1" xmlns:gpxx="http://www.garmin.com/xmlschemas/GpxExtensions/v3" xmlns:trp="http://www.garmin.com/xmlschemas/TripExtensions/v1" xmlns:adv="http://www.garmin.com/xmlschemas/AdventuresExtensions/v1" xmlns:prs="http://www.garmin.com/xmlschemas/PressureExtension/v1" xmlns:tmd="http://www.garmin.com/xmlschemas/TripMetaDataExtensions/v1" xmlns:vptm="http://www.garmin.com/xmlschemas/ViaPointTransportationModeExtensions/v1" xmlns:ctx="http://www.garmin.com/xmlschemas/CreationTimeExtension/v1">

  <metadata>
    <link href="http://www.garmin.com">
      <text>Garmin International</text>
    </link>
    <time>2014-03-10T18:48:49Z</time>
    <bounds maxlat="35.253582000732422" maxlon="24.058234691619873" minlat="35.205538272857666" minlon="23.972017765045166" />
  </metadata>

  <trk>
    <name>ACTIVE LOG 002</name>
    <extensions>
      <gpxx:TrackExtension>
        <gpxx:DisplayColor>DarkGray</gpxx:DisplayColor>
      </gpxx:TrackExtension>
    </extensions>
    <trkseg>
      <trkpt lat="35.20618200302124" lon="24.058234691619873">
        <ele>191.44</ele>
        <time>2011-06-15T05:58:22Z</time>
      </trkpt>
      <trkpt lat="35.206053256988525" lon="24.058234691619873">
        <ele>197.68799999999999</ele>
        <time>2011-06-15T05:59:00Z</time>
      </trkpt>
      <trkpt lat="35.205988883972168" lon="24.058234691619873">
        <ele>198.65000000000001</ele>
        <time>2011-06-15T05:59:07Z</time>
      </trkpt>
      <trkpt lat="35.205903053283691" lon="24.058213233947754">
        <ele>200.09200000000001</ele>
        <time>2011-06-15T05:59:15Z</time>
      </trkpt>
      <trkpt lat="35.205817222595215" lon="24.058191776275635">
        <ele>202.495</ele>
        <time>2011-06-15T05:59:30Z</time>
      </trkpt>
      <trkpt lat="35.205709934234619" lon="24.05806303024292">
        <ele>214.99199999999999</ele>
        <time>2011-06-15T06:00:09Z</time>
      </trkpt>
      <trkpt lat="35.205774307250977" lon="24.058020114898682">
        <ele>220.75999999999999</ele>
        <time>2011-06-15T06:00:41Z</time>
      </trkpt>
      <trkpt lat="35.205817222595215" lon="24.057977199554443">
        <ele>220.279</ele>
        <time>2011-06-15T06:00:48Z</time>
      </trkpt>
      <trkpt lat="35.205838680267334" lon="24.057977199554443">
        <ele>222.202</ele>
        <time>2011-06-15T06:01:08Z</time>
      </trkpt>
      <trkpt lat="35.205881595611572" lon="24.057891368865967">
        <ele>224.60499999999999</ele>
        <time>2011-06-15T06:01:24Z</time>
      </trkpt>
      <trkpt lat="35.205881595611572" lon="24.057891368865967">
        <ele>224.60499999999999</ele>
        <time>2011-06-15T06:01:26Z</time>
      </trkpt>
      <trkpt lat="35.205860137939453" lon="24.057826995849609">
        <ele>226.52799999999999</ele>
        <time>2011-06-15T06:01:41Z</time>
      </trkpt>
      <trkpt lat="35.205860137939453" lon="24.05780553817749">
        <ele>229.41200000000001</ele>
        <time>2011-06-15T06:01:51Z</time>
      </trkpt>
      <trkpt lat="35.205667018890381" lon="24.057741165161133">
        <ele>258.25099999999998</ele>
        <time>2011-06-15T06:03:28Z</time>
      </trkpt>
      <trkpt lat="35.205645561218262" lon="24.057633876800537">
        <ele>258.73200000000003</ele>
        <time>2011-06-15T06:03:41Z</time>
      </trkpt>
      <trkpt lat="35.205602645874023" lon="24.057548046112061">
        <ele>259.21300000000002</ele>
        <time>2011-06-15T06:03:53Z</time>
      </trkpt>
      <trkpt lat="35.205538272857666" lon="24.057483673095703">
        <ele>261.13499999999999</ele>
        <time>2011-06-15T06:04:11Z</time>
      </trkpt>
      <trkpt lat="35.205559730529785" lon="24.057462215423584">
        <ele>263.53899999999999</ele>
        <time>2011-06-15T06:04:29Z</time>
      </trkpt>
      <trkpt lat="35.205645561218262" lon="24.057376384735107">
        <ele>266.90300000000002</ele>
        <time>2011-06-15T06:04:40Z</time>
      </trkpt>
      <trkpt lat="35.2056884765625" lon="24.057376384735107">
        <ele>267.38400000000001</ele>
        <time>2011-06-15T06:04:50Z</time>
      </trkpt>
      <trkpt lat="35.205667018890381" lon="24.057376384735107">
        <ele>268.82600000000002</ele>
        <time>2011-06-15T06:05:25Z</time>
      </trkpt>
      <trkpt lat="35.205667018890381" lon="24.057376384735107">
        <ele>272.19</ele>
        <time>2011-06-15T06:06:05Z</time>
      </trkpt>
      <trkpt lat="35.205731391906738" lon="24.057354927062988">
        <ele>273.63200000000001</ele>
        <time>2011-06-15T06:07:30Z</time>
      </trkpt>
      <trkpt lat="35.205795764923096" lon="24.057333469390869">
        <ele>272.19</ele>
        <time>2011-06-15T06:07:37Z</time>
      </trkpt>
      <trkpt lat="35.205881595611572" lon="24.057269096374512">
        <ele>275.55500000000001</ele>
        <time>2011-06-15T06:07:47Z</time>
      </trkpt>
      <trkpt lat="35.205967426300049" lon="24.057226181030273">
        <ele>278.43900000000002</ele>
        <time>2011-06-15T06:08:00Z</time>
      </trkpt>
      <trkpt lat="35.206031799316406" lon="24.057226181030273">
        <ele>281.32299999999998</ele>
        <time>2011-06-15T06:08:13Z</time>
      </trkpt>
      <trkpt lat="35.206031799316406" lon="24.057204723358154">
        <ele>284.20699999999999</ele>
        <time>2011-06-15T06:08:46Z</time>
      </trkpt>
      <trkpt lat="35.206074714660645" lon="24.057140350341797">
        <ele>286.61000000000001</ele>
        <time>2011-06-15T06:08:56Z</time>
      </trkpt>
      <trkpt lat="35.206096172332764" lon="24.057140350341797">
        <ele>287.57100000000003</ele>
        <time>2011-06-15T06:08:59Z</time>
      </trkpt>
      <trkpt lat="35.206160545349121" lon="24.057140350341797">
        <ele>289.49400000000003</ele>
        <time>2011-06-15T06:09:06Z</time>
      </trkpt>
      <trkpt lat="35.206224918365479" lon="24.057118892669678">
        <ele>291.41699999999997</ele>
        <time>2011-06-15T06:09:14Z</time>
      </trkpt>
      <trkpt lat="35.206289291381836" lon="24.057033061981201">
        <ele>294.30099999999999</ele>
        <time>2011-06-15T06:09:28Z</time>
      </trkpt>
      <trkpt lat="35.206353664398193" lon="24.056968688964844">
        <ele>295.74299999999999</ele>
        <time>2011-06-15T06:09:38Z</time>
      </trkpt>
      <trkpt lat="35.206375122070312" lon="24.056990146636963">
        <ele>297.185</ele>
        <time>2011-06-15T06:10:53Z</time>
      </trkpt>
      <trkpt lat="35.206418037414551" lon="24.056990146636963">
        <ele>298.62700000000001</ele>
        <time>2011-06-15T06:10:59Z</time>
      </trkpt>
      <trkpt lat="35.206460952758789" lon="24.057033061981201">
        <ele>300.54899999999998</ele>
        <time>2011-06-15T06:11:07Z</time>
      </trkpt>
      <trkpt lat="35.206482410430908" lon="24.057075977325439">
        <ele>302.95299999999997</ele>
        <time>2011-06-15T06:11:16Z</time>
      </trkpt>
      <trkpt lat="35.206503868103027" lon="24.057033061981201">
        <ele>304.875</ele>
        <time>2011-06-15T06:11:22Z</time>
      </trkpt>
      <trkpt lat="35.206546783447266" lon="24.057033061981201">
        <ele>306.798</ele>
        <time>2011-06-15T06:11:34Z</time>
      </trkpt>
      <trkpt lat="35.206632614135742" lon="24.05705451965332">
        <ele>307.75900000000001</ele>
        <time>2011-06-15T06:11:46Z</time>
      </trkpt>
      <trkpt lat="35.2066969871521" lon="24.057075977325439">
        <ele>308.24000000000001</ele>
        <time>2011-06-15T06:11:53Z</time>
      </trkpt>
      <trkpt lat="35.206739902496338" lon="24.057097434997559">
        <ele>308.72000000000003</ele>
        <time>2011-06-15T06:11:59Z</time>
      </trkpt>
      <trkpt lat="35.206804275512695" lon="24.057097434997559">
        <ele>309.68200000000002</ele>
        <time>2011-06-15T06:12:08Z</time>
      </trkpt>
      <trkpt lat="35.206868648529053" lon="24.057097434997559">
        <ele>310.16199999999998</ele>
        <time>2011-06-15T06:12:13Z</time>
      </trkpt>
      <trkpt lat="35.206954479217529" lon="24.057033061981201">
        <ele>311.12400000000002</ele>
        <time>2011-06-15T06:12:25Z</time>
      </trkpt>
      <trkpt lat="35.206997394561768" lon="24.056968688964844">
        <ele>311.60399999999998</ele>
        <time>2011-06-15T06:12:31Z</time>
      </trkpt>
      <trkpt lat="35.207061767578125" lon="24.056947231292725">
        <ele>312.08499999999998</ele>
        <time>2011-06-15T06:12:38Z</time>
      </trkpt>
      <trkpt lat="35.207147598266602" lon="24.056990146636963">
        <ele>313.04700000000003</ele>
        <time>2011-06-15T06:12:48Z</time>
      </trkpt>
      <trkpt lat="35.207211971282959" lon="24.057011604309082">
        <ele>314.00799999999998</ele>
        <time>2011-06-15T06:12:57Z</time>
      </trkpt>
      <trkpt lat="35.207276344299316" lon="24.056990146636963">
        <ele>314.96899999999999</ele>
        <time>2011-06-15T06:13:07Z</time>
      </trkpt>
      <trkpt lat="35.207340717315674" lon="24.056947231292725">
        <ele>315.93000000000001</ele>
        <time>2011-06-15T06:13:16Z</time>
      </trkpt>
      <trkpt lat="35.207383632659912" lon="24.056904315948486">
        <ele>315.44999999999999</ele>
        <time>2011-06-15T06:13:34Z</time>
      </trkpt>
      <trkpt lat="35.20742654800415" lon="24.056947231292725">
        <ele>315.44999999999999</ele>
        <time>2011-06-15T06:13:42Z</time>
      </trkpt>
      <trkpt lat="35.207469463348389" lon="24.056990146636963">
        <ele>315.44999999999999</ele>
        <time>2011-06-15T06:13:47Z</time>
      </trkpt>
      <trkpt lat="35.207512378692627" lon="24.05705451965332">
        <ele>316.892</ele>
        <time>2011-06-15T06:13:52Z</time>
      </trkpt>
      <trkpt lat="35.207641124725342" lon="24.057033061981201">
        <ele>317.37200000000001</ele>
        <time>2011-06-15T06:14:03Z</time>
      </trkpt>
      <trkpt lat="35.20768404006958" lon="24.05705451965332">
        <ele>315.93000000000001</ele>
        <time>2011-06-15T06:14:08Z</time>
      </trkpt>
      <trkpt lat="35.207726955413818" lon="24.05705451965332">
        <ele>312.08499999999998</ele>
        <time>2011-06-15T06:14:28Z</time>
      </trkpt>
      <trkpt lat="35.207769870758057" lon="24.057075977325439">
        <ele>311.60399999999998</ele>
        <time>2011-06-15T06:14:33Z</time>
      </trkpt>
      <trkpt lat="35.207855701446533" lon="24.057075977325439">
        <ele>311.12400000000002</ele>
        <time>2011-06-15T06:14:42Z</time>
      </trkpt>
      <trkpt lat="35.207920074462891" lon="24.05705451965332">
        <ele>310.64299999999997</ele>
        <time>2011-06-15T06:14:53Z</time>
      </trkpt>
      <trkpt lat="35.208027362823486" lon="24.057075977325439">
        <ele>311.12400000000002</ele>
        <time>2011-06-15T06:15:22Z</time>
      </trkpt>
      <trkpt lat="35.208134651184082" lon="24.05705451965332">
        <ele>312.56599999999997</ele>
        <time>2011-06-15T06:15:33Z</time>
      </trkpt>
      <trkpt lat="35.208199024200439" lon="24.057075977325439">
        <ele>314.488</ele>
        <time>2011-06-15T06:15:43Z</time>
      </trkpt>
      <trkpt lat="35.208263397216797" lon="24.057097434997559">
        <ele>315.44999999999999</ele>
        <time>2011-06-15T06:15:51Z</time>
      </trkpt>
      <trkpt lat="35.208284854888916" lon="24.057097434997559">
        <ele>316.892</ele>
        <time>2011-06-15T06:15:57Z</time>
      </trkpt>
      <trkpt lat="35.208349227905273" lon="24.057118892669678">
        <ele>318.334</ele>
        <time>2011-06-15T06:16:05Z</time>
      </trkpt>
      <trkpt lat="35.20843505859375" lon="24.057075977325439">
        <ele>320.73700000000002</ele>
        <time>2011-06-15T06:16:17Z</time>
      </trkpt>
      <trkpt lat="35.208520889282227" lon="24.057097434997559">
        <ele>325.06299999999999</ele>
        <time>2011-06-15T06:16:33Z</time>
      </trkpt>
      <trkpt lat="35.208585262298584" lon="24.057033061981201">
        <ele>327.947</ele>
        <time>2011-06-15T06:16:49Z</time>
      </trkpt>
      <trkpt lat="35.208778381347656" lon="24.05705451965332">
        <ele>326.505</ele>
        <time>2011-06-15T06:17:08Z</time>
      </trkpt>
      <trkpt lat="35.208864212036133" lon="24.056968688964844">
        <ele>325.54399999999998</ele>
        <time>2011-06-15T06:17:23Z</time>
      </trkpt>
      <trkpt lat="35.208971500396729" lon="24.056904315948486">
        <ele>321.21800000000002</ele>
        <time>2011-06-15T06:17:39Z</time>
      </trkpt>
      <trkpt lat="35.208992958068848" lon="24.056882858276367">
        <ele>320.73700000000002</ele>
        <time>2011-06-15T06:17:40Z</time>
      </trkpt>
      <trkpt lat="35.209057331085205" lon="24.056861400604248">
        <ele>317.37200000000001</ele>
        <time>2011-06-15T06:17:49Z</time>
      </trkpt>
      <trkpt lat="35.209207534790039" lon="24.056711196899414">
        <ele>313.52699999999999</ele>
        <time>2011-06-15T06:18:14Z</time>
      </trkpt>
      <trkpt lat="35.209271907806396" lon="24.056646823883057">
        <ele>313.04700000000003</ele>
        <time>2011-06-15T06:18:25Z</time>
      </trkpt>
      <trkpt lat="35.209357738494873" lon="24.05656099319458">
        <ele>311.60399999999998</ele>
        <time>2011-06-15T06:18:38Z</time>
      </trkpt>
      <trkpt lat="35.209400653839111" lon="24.056475162506104">
        <ele>311.60399999999998</ele>
        <time>2011-06-15T06:18:47Z</time>
      </trkpt>
      <trkpt lat="35.20942211151123" lon="24.056389331817627">
        <ele>311.12400000000002</ele>
        <time>2011-06-15T06:18:59Z</time>
      </trkpt>
      <trkpt lat="35.20944356918335" lon="24.056260585784912">
        <ele>310.16199999999998</ele>
        <time>2011-06-15T06:19:09Z</time>
      </trkpt>
      <trkpt lat="35.20944356918335" lon="24.056174755096436">
        <ele>310.16199999999998</ele>
        <time>2011-06-15T06:19:17Z</time>
      </trkpt>
      <trkpt lat="35.20944356918335" lon="24.056024551391602">
        <ele>311.60399999999998</ele>
        <time>2011-06-15T06:19:28Z</time>
      </trkpt>
      <trkpt lat="35.209465026855469" lon="24.055981636047363">
        <ele>311.60399999999998</ele>
        <time>2011-06-15T06:19:34Z</time>
      </trkpt>
      <trkpt lat="35.209465026855469" lon="24.055917263031006">
        <ele>313.04700000000003</ele>
        <time>2011-06-15T06:19:56Z</time>
      </trkpt>
      <trkpt lat="35.209486484527588" lon="24.055852890014648">
        <ele>317.85300000000001</ele>
        <time>2011-06-15T06:20:44Z</time>
      </trkpt>
      <trkpt lat="35.209486484527588" lon="24.05580997467041">
        <ele>317.85300000000001</ele>
        <time>2011-06-15T06:20:49Z</time>
      </trkpt>
      <trkpt lat="35.209507942199707" lon="24.055767059326172">
        <ele>317.85300000000001</ele>
        <time>2011-06-15T06:20:53Z</time>
      </trkpt>
      <trkpt lat="35.209507942199707" lon="24.055724143981934">
        <ele>317.85300000000001</ele>
        <time>2011-06-15T06:20:56Z</time>
      </trkpt>
      <trkpt lat="35.209572315216064" lon="24.055616855621338">
        <ele>316.892</ele>
        <time>2011-06-15T06:21:06Z</time>
      </trkpt>
      <trkpt lat="35.209593772888184" lon="24.055616855621338">
        <ele>316.892</ele>
        <time>2011-06-15T06:21:07Z</time>
      </trkpt>
      <trkpt lat="35.209658145904541" lon="24.055595397949219">
        <ele>315.93000000000001</ele>
        <time>2011-06-15T06:21:16Z</time>
      </trkpt>
      <trkpt lat="35.209701061248779" lon="24.05555248260498">
        <ele>315.93000000000001</ele>
        <time>2011-06-15T06:21:24Z</time>
      </trkpt>
      <trkpt lat="35.209786891937256" lon="24.055531024932861">
        <ele>315.44999999999999</ele>
        <time>2011-06-15T06:21:33Z</time>
      </trkpt>
      <trkpt lat="35.209872722625732" lon="24.055466651916504">
        <ele>314.488</ele>
        <time>2011-06-15T06:21:47Z</time>
      </trkpt>
      <trkpt lat="35.209915637969971" lon="24.055402278900146">
        <ele>314.488</ele>
        <time>2011-06-15T06:21:56Z</time>
      </trkpt>
      <trkpt lat="35.20993709564209" lon="24.055337905883789">
        <ele>315.44999999999999</ele>
        <time>2011-06-15T06:22:10Z</time>
      </trkpt>
      <trkpt lat="35.210044384002686" lon="24.055294990539551">
        <ele>314.96899999999999</ele>
        <time>2011-06-15T06:22:33Z</time>
      </trkpt>
      <trkpt lat="35.210108757019043" lon="24.055230617523193">
        <ele>314.96899999999999</ele>
        <time>2011-06-15T06:22:44Z</time>
      </trkpt>
      <trkpt lat="35.2101731300354" lon="24.055144786834717">
        <ele>314.96899999999999</ele>
        <time>2011-06-15T06:22:57Z</time>
      </trkpt>
      <trkpt lat="35.210237503051758" lon="24.055101871490479">
        <ele>314.96899999999999</ele>
        <time>2011-06-15T06:23:05Z</time>
      </trkpt>
      <trkpt lat="35.210280418395996" lon="24.055037498474121">
        <ele>314.96899999999999</ele>
        <time>2011-06-15T06:23:14Z</time>
      </trkpt>
      <trkpt lat="35.210409164428711" lon="24.054908752441406">
        <ele>317.37200000000001</ele>
        <time>2011-06-15T06:23:45Z</time>
      </trkpt>
      <trkpt lat="35.21043062210083" lon="24.054887294769287">
        <ele>317.37200000000001</ele>
        <time>2011-06-15T06:23:49Z</time>
      </trkpt>
      <trkpt lat="35.210452079772949" lon="24.054844379425049">
        <ele>317.37200000000001</ele>
        <time>2011-06-15T06:23:55Z</time>
      </trkpt>
      <trkpt lat="35.210537910461426" lon="24.054780006408691">
        <ele>315.44999999999999</ele>
        <time>2011-06-15T06:24:04Z</time>
      </trkpt>
      <trkpt lat="35.210623741149902" lon="24.054758548736572">
        <ele>315.44999999999999</ele>
        <time>2011-06-15T06:24:18Z</time>
      </trkpt>
      <trkpt lat="35.210666656494141" lon="24.054737091064453">
        <ele>315.44999999999999</ele>
        <time>2011-06-15T06:24:28Z</time>
      </trkpt>
      <trkpt lat="35.210752487182617" lon="24.054672718048096">
        <ele>315.93000000000001</ele>
        <time>2011-06-15T06:24:39Z</time>
      </trkpt>
      <trkpt lat="35.210816860198975" lon="24.054629802703857">
        <ele>315.93000000000001</ele>
        <time>2011-06-15T06:24:48Z</time>
      </trkpt>
      <trkpt lat="35.210881233215332" lon="24.054543972015381">
        <ele>315.44999999999999</ele>
        <time>2011-06-15T06:25:08Z</time>
      </trkpt>
      <trkpt lat="35.210967063903809" lon="24.054479598999023">
        <ele>315.44999999999999</ele>
        <time>2011-06-15T06:25:22Z</time>
      </trkpt>
      <trkpt lat="35.211031436920166" lon="24.054415225982666">
        <ele>315.44999999999999</ele>
        <time>2011-06-15T06:25:46Z</time>
      </trkpt>
      <trkpt lat="35.211095809936523" lon="24.054415225982666">
        <ele>317.37200000000001</ele>
        <time>2011-06-15T06:26:05Z</time>
      </trkpt>
      <trkpt lat="35.211138725280762" lon="24.054415225982666">
        <ele>318.334</ele>
        <time>2011-06-15T06:26:16Z</time>
      </trkpt>
      <trkpt lat="35.211160182952881" lon="24.054393768310547">
        <ele>318.81400000000002</ele>
        <time>2011-06-15T06:26:23Z</time>
      </trkpt>
      <trkpt lat="35.211160182952881" lon="24.054350852966309">
        <ele>318.81400000000002</ele>
        <time>2011-06-15T06:26:26Z</time>
      </trkpt>
      <trkpt lat="35.211160182952881" lon="24.054265022277832">
        <ele>320.73700000000002</ele>
        <time>2011-06-15T06:26:41Z</time>
      </trkpt>
      <trkpt lat="35.211181640625" lon="24.054179191589355">
        <ele>320.73700000000002</ele>
        <time>2011-06-15T06:26:50Z</time>
      </trkpt>
      <trkpt lat="35.211181640625" lon="24.054114818572998">
        <ele>321.21800000000002</ele>
        <time>2011-06-15T06:26:54Z</time>
      </trkpt>
      <trkpt lat="35.211181640625" lon="24.054007530212402">
        <ele>324.10199999999998</ele>
        <time>2011-06-15T06:27:12Z</time>
      </trkpt>
      <trkpt lat="35.211203098297119" lon="24.053964614868164">
        <ele>324.58199999999999</ele>
        <time>2011-06-15T06:27:21Z</time>
      </trkpt>
      <trkpt lat="35.211246013641357" lon="24.053878784179688">
        <ele>325.54399999999998</ele>
        <time>2011-06-15T06:27:37Z</time>
      </trkpt>
      <trkpt lat="35.211310386657715" lon="24.05381441116333">
        <ele>327.46600000000001</ele>
        <time>2011-06-15T06:27:54Z</time>
      </trkpt>
      <trkpt lat="35.211353302001953" lon="24.053771495819092">
        <ele>327.947</ele>
        <time>2011-06-15T06:28:03Z</time>
      </trkpt>
      <trkpt lat="35.211417675018311" lon="24.053771495819092">
        <ele>328.90800000000002</ele>
        <time>2011-06-15T06:28:11Z</time>
      </trkpt>
      <trkpt lat="35.21143913269043" lon="24.053771495819092">
        <ele>328.90800000000002</ele>
        <time>2011-06-15T06:28:14Z</time>
      </trkpt>
      <trkpt lat="35.211524963378906" lon="24.053750038146973">
        <ele>329.87</ele>
        <time>2011-06-15T06:28:24Z</time>
      </trkpt>
      <trkpt lat="35.211610794067383" lon="24.053685665130615">
        <ele>330.83100000000002</ele>
        <time>2011-06-15T06:28:35Z</time>
      </trkpt>
      <trkpt lat="35.211653709411621" lon="24.053664207458496">
        <ele>330.35000000000002</ele>
        <time>2011-06-15T06:28:47Z</time>
      </trkpt>
      <trkpt lat="35.211718082427979" lon="24.053685665130615">
        <ele>330.83100000000002</ele>
        <time>2011-06-15T06:28:56Z</time>
      </trkpt>
      <trkpt lat="35.211739540100098" lon="24.053664207458496">
        <ele>331.31200000000001</ele>
        <time>2011-06-15T06:29:05Z</time>
      </trkpt>
      <trkpt lat="35.211696624755859" lon="24.0535569190979">
        <ele>330.83100000000002</ele>
        <time>2011-06-15T06:29:23Z</time>
      </trkpt>
      <trkpt lat="35.211739540100098" lon="24.053471088409424">
        <ele>330.35000000000002</ele>
        <time>2011-06-15T06:29:35Z</time>
      </trkpt>
      <trkpt lat="35.211803913116455" lon="24.053385257720947">
        <ele>328.90800000000002</ele>
        <time>2011-06-15T06:29:49Z</time>
      </trkpt>
      <trkpt lat="35.211846828460693" lon="24.053299427032471">
        <ele>327.947</ele>
        <time>2011-06-15T06:30:06Z</time>
      </trkpt>
      <trkpt lat="35.211911201477051" lon="24.053235054016113">
        <ele>327.947</ele>
        <time>2011-06-15T06:30:16Z</time>
      </trkpt>
      <trkpt lat="35.21193265914917" lon="24.053192138671875">
        <ele>327.46600000000001</ele>
        <time>2011-06-15T06:30:23Z</time>
      </trkpt>
      <trkpt lat="35.211954116821289" lon="24.053170680999756">
        <ele>327.46600000000001</ele>
        <time>2011-06-15T06:30:26Z</time>
      </trkpt>
      <trkpt lat="35.211954116821289" lon="24.053127765655518">
        <ele>326.98599999999999</ele>
        <time>2011-06-15T06:30:30Z</time>
      </trkpt>
      <trkpt lat="35.21193265914917" lon="24.05306339263916">
        <ele>327.46600000000001</ele>
        <time>2011-06-15T06:30:36Z</time>
      </trkpt>
      <trkpt lat="35.21193265914917" lon="24.052999019622803">
        <ele>328.428</ele>
        <time>2011-06-15T06:30:46Z</time>
      </trkpt>
      <trkpt lat="35.211975574493408" lon="24.052956104278564">
        <ele>329.38900000000001</ele>
        <time>2011-06-15T06:30:52Z</time>
      </trkpt>
      <trkpt lat="35.211975574493408" lon="24.052934646606445">
        <ele>329.87</ele>
        <time>2011-06-15T06:30:55Z</time>
      </trkpt>
      <trkpt lat="35.211997032165527" lon="24.052891731262207">
        <ele>329.87</ele>
        <time>2011-06-15T06:30:59Z</time>
      </trkpt>
      <trkpt lat="35.212018489837646" lon="24.052848815917969">
        <ele>330.35000000000002</ele>
        <time>2011-06-15T06:31:02Z</time>
      </trkpt>
      <trkpt lat="35.212039947509766" lon="24.052762985229492">
        <ele>329.38900000000001</ele>
        <time>2011-06-15T06:31:10Z</time>
      </trkpt>
      <trkpt lat="35.212039947509766" lon="24.052655696868896">
        <ele>328.90800000000002</ele>
        <time>2011-06-15T06:31:18Z</time>
      </trkpt>
      <trkpt lat="35.212039947509766" lon="24.052655696868896">
        <ele>328.428</ele>
        <time>2011-06-15T06:31:19Z</time>
      </trkpt>
      <trkpt lat="35.212061405181885" lon="24.052548408508301">
        <ele>328.428</ele>
        <time>2011-06-15T06:31:29Z</time>
      </trkpt>
      <trkpt lat="35.212082862854004" lon="24.052419662475586">
        <ele>328.90800000000002</ele>
        <time>2011-06-15T06:31:39Z</time>
      </trkpt>
      <trkpt lat="35.212082862854004" lon="24.052398204803467">
        <ele>329.38900000000001</ele>
        <time>2011-06-15T06:31:42Z</time>
      </trkpt>
      <trkpt lat="35.212125778198242" lon="24.052290916442871">
        <ele>330.35000000000002</ele>
        <time>2011-06-15T06:31:50Z</time>
      </trkpt>
      <trkpt lat="35.21216869354248" lon="24.052205085754395">
        <ele>330.83100000000002</ele>
        <time>2011-06-15T06:31:58Z</time>
      </trkpt>
      <trkpt lat="35.21216869354248" lon="24.052140712738037">
        <ele>331.79199999999997</ele>
        <time>2011-06-15T06:32:17Z</time>
      </trkpt>
      <trkpt lat="35.212233066558838" lon="24.052033424377441">
        <ele>332.75400000000002</ele>
        <time>2011-06-15T06:32:26Z</time>
      </trkpt>
      <trkpt lat="35.212318897247314" lon="24.051947593688965">
        <ele>333.71499999999997</ele>
        <time>2011-06-15T06:32:35Z</time>
      </trkpt>
      <trkpt lat="35.212361812591553" lon="24.051840305328369">
        <ele>333.71499999999997</ele>
        <time>2011-06-15T06:32:44Z</time>
      </trkpt>
      <trkpt lat="35.21242618560791" lon="24.051754474639893">
        <ele>333.23399999999998</ele>
        <time>2011-06-15T06:32:53Z</time>
      </trkpt>
      <trkpt lat="35.21242618560791" lon="24.051690101623535">
        <ele>333.23399999999998</ele>
        <time>2011-06-15T06:32:57Z</time>
      </trkpt>
      <trkpt lat="35.212361812591553" lon="24.051668643951416">
        <ele>334.19499999999999</ele>
        <time>2011-06-15T06:33:05Z</time>
      </trkpt>
      <trkpt lat="35.212361812591553" lon="24.051668643951416">
        <ele>337.07900000000001</ele>
        <time>2011-06-15T06:33:42Z</time>
      </trkpt>
      <trkpt lat="35.212361812591553" lon="24.051647186279297">
        <ele>341.40499999999997</ele>
        <time>2011-06-15T06:35:43Z</time>
      </trkpt>
      <trkpt lat="35.212361812591553" lon="24.051647186279297">
        <ele>341.40499999999997</ele>
        <time>2011-06-15T06:36:48Z</time>
      </trkpt>
      <trkpt lat="35.212361812591553" lon="24.051647186279297">
        <ele>340.92500000000001</ele>
        <time>2011-06-15T06:37:05Z</time>
      </trkpt>
      <trkpt lat="35.212361812591553" lon="24.051647186279297">
        <ele>342.36700000000002</ele>
        <time>2011-06-15T06:37:26Z</time>
      </trkpt>
      <trkpt lat="35.212361812591553" lon="24.051647186279297">
        <ele>341.88600000000002</ele>
        <time>2011-06-15T06:37:48Z</time>
      </trkpt>
      <trkpt lat="35.212361812591553" lon="24.051647186279297">
        <ele>341.88600000000002</ele>
        <time>2011-06-15T06:38:07Z</time>
      </trkpt>
      <trkpt lat="35.212361812591553" lon="24.051647186279297">
        <ele>342.36700000000002</ele>
        <time>2011-06-15T06:38:47Z</time>
      </trkpt>
      <trkpt lat="35.212340354919434" lon="24.051647186279297">
        <ele>343.80900000000003</ele>
        <time>2011-06-15T06:42:29Z</time>
      </trkpt>
      <trkpt lat="35.212340354919434" lon="24.051647186279297">
        <ele>344.76999999999998</ele>
        <time>2011-06-15T06:42:44Z</time>
      </trkpt>
      <trkpt lat="35.212361812591553" lon="24.051625728607178">
        <ele>346.21199999999999</ele>
        <time>2011-06-15T06:42:55Z</time>
      </trkpt>
      <trkpt lat="35.212361812591553" lon="24.051625728607178">
        <ele>346.69299999999998</ele>
        <time>2011-06-15T06:43:12Z</time>
      </trkpt>
      <trkpt lat="35.212361812591553" lon="24.051625728607178">
        <ele>347.654</ele>
        <time>2011-06-15T06:43:46Z</time>
      </trkpt>
      <trkpt lat="35.212383270263672" lon="24.051625728607178">
        <ele>347.654</ele>
        <time>2011-06-15T06:43:49Z</time>
      </trkpt>
      <trkpt lat="35.212383270263672" lon="24.051604270935059">
        <ele>347.173</ele>
        <time>2011-06-15T06:43:52Z</time>
      </trkpt>
      <trkpt lat="35.212383270263672" lon="24.051518440246582">
        <ele>345.25099999999998</ele>
        <time>2011-06-15T06:44:03Z</time>
      </trkpt>
      <trkpt lat="35.21242618560791" lon="24.051454067230225">
        <ele>340.92500000000001</ele>
        <time>2011-06-15T06:44:12Z</time>
      </trkpt>
      <trkpt lat="35.212404727935791" lon="24.051432609558105">
        <ele>339.00200000000001</ele>
        <time>2011-06-15T06:44:16Z</time>
      </trkpt>
      <trkpt lat="35.212404727935791" lon="24.051411151885986">
        <ele>337.56</ele>
        <time>2011-06-15T06:44:19Z</time>
      </trkpt>
      <trkpt lat="35.212340354919434" lon="24.051368236541748">
        <ele>336.11799999999999</ele>
        <time>2011-06-15T06:44:25Z</time>
      </trkpt>
      <trkpt lat="35.212297439575195" lon="24.05132532119751">
        <ele>335.637</ele>
        <time>2011-06-15T06:44:30Z</time>
      </trkpt>
      <trkpt lat="35.212297439575195" lon="24.051282405853271">
        <ele>335.15699999999998</ele>
        <time>2011-06-15T06:44:35Z</time>
      </trkpt>
      <trkpt lat="35.212340354919434" lon="24.051218032836914">
        <ele>334.19499999999999</ele>
        <time>2011-06-15T06:44:47Z</time>
      </trkpt>
      <trkpt lat="35.212297439575195" lon="24.051196575164795">
        <ele>333.71499999999997</ele>
        <time>2011-06-15T06:45:10Z</time>
      </trkpt>
      <trkpt lat="35.212297439575195" lon="24.051196575164795">
        <ele>335.15699999999998</ele>
        <time>2011-06-15T06:45:36Z</time>
      </trkpt>
      <trkpt lat="35.212297439575195" lon="24.051196575164795">
        <ele>334.67599999999999</ele>
        <time>2011-06-15T06:45:42Z</time>
      </trkpt>
      <trkpt lat="35.212361812591553" lon="24.051153659820557">
        <ele>335.15699999999998</ele>
        <time>2011-06-15T06:45:48Z</time>
      </trkpt>
      <trkpt lat="35.212404727935791" lon="24.05106782913208">
        <ele>334.67599999999999</ele>
        <time>2011-06-15T06:45:58Z</time>
      </trkpt>
      <trkpt lat="35.21242618560791" lon="24.05106782913208">
        <ele>334.67599999999999</ele>
        <time>2011-06-15T06:46:02Z</time>
      </trkpt>
      <trkpt lat="35.212447643280029" lon="24.051046371459961">
        <ele>335.15699999999998</ele>
        <time>2011-06-15T06:46:14Z</time>
      </trkpt>
      <trkpt lat="35.212469100952148" lon="24.05106782913208">
        <ele>336.11799999999999</ele>
        <time>2011-06-15T06:46:53Z</time>
      </trkpt>
      <trkpt lat="35.212512016296387" lon="24.051046371459961">
        <ele>337.56</ele>
        <time>2011-06-15T06:47:04Z</time>
      </trkpt>
      <trkpt lat="35.212512016296387" lon="24.051046371459961">
        <ele>337.07900000000001</ele>
        <time>2011-06-15T06:47:24Z</time>
      </trkpt>
      <trkpt lat="35.212597846984863" lon="24.050917625427246">
        <ele>336.11799999999999</ele>
        <time>2011-06-15T06:47:45Z</time>
      </trkpt>
      <trkpt lat="35.212640762329102" lon="24.050853252410889">
        <ele>335.637</ele>
        <time>2011-06-15T06:47:51Z</time>
      </trkpt>
      <trkpt lat="35.212662220001221" lon="24.05083179473877">
        <ele>334.67599999999999</ele>
        <time>2011-06-15T06:47:58Z</time>
      </trkpt>
      <trkpt lat="35.212705135345459" lon="24.050853252410889">
        <ele>333.23399999999998</ele>
        <time>2011-06-15T06:48:08Z</time>
      </trkpt>
      <trkpt lat="35.212769508361816" lon="24.050917625427246">
        <ele>330.83100000000002</ele>
        <time>2011-06-15T06:48:20Z</time>
      </trkpt>
      <trkpt lat="35.212812423706055" lon="24.050939083099365">
        <ele>329.38900000000001</ele>
        <time>2011-06-15T06:48:27Z</time>
      </trkpt>
      <trkpt lat="35.212876796722412" lon="24.050896167755127">
        <ele>328.428</ele>
        <time>2011-06-15T06:48:36Z</time>
      </trkpt>
      <trkpt lat="35.21291971206665" lon="24.050853252410889">
        <ele>326.98599999999999</ele>
        <time>2011-06-15T06:48:43Z</time>
      </trkpt>
      <trkpt lat="35.212984085083008" lon="24.050767421722412">
        <ele>325.54399999999998</ele>
        <time>2011-06-15T06:48:53Z</time>
      </trkpt>
      <trkpt lat="35.213069915771484" lon="24.05081033706665">
        <ele>322.66000000000003</ele>
        <time>2011-06-15T06:49:05Z</time>
      </trkpt>
      <trkpt lat="35.213155746459961" lon="24.050853252410889">
        <ele>317.85300000000001</ele>
        <time>2011-06-15T06:49:22Z</time>
      </trkpt>
      <trkpt lat="35.213198661804199" lon="24.05083179473877">
        <ele>316.411</ele>
        <time>2011-06-15T06:49:32Z</time>
      </trkpt>
      <trkpt lat="35.213263034820557" lon="24.05081033706665">
        <ele>315.44999999999999</ele>
        <time>2011-06-15T06:49:42Z</time>
      </trkpt>
      <trkpt lat="35.213391780853271" lon="24.050788879394531">
        <ele>314.96899999999999</ele>
        <time>2011-06-15T06:49:54Z</time>
      </trkpt>
      <trkpt lat="35.213413238525391" lon="24.050788879394531">
        <ele>314.96899999999999</ele>
        <time>2011-06-15T06:49:56Z</time>
      </trkpt>
      <trkpt lat="35.213477611541748" lon="24.050767421722412">
        <ele>314.488</ele>
        <time>2011-06-15T06:50:02Z</time>
      </trkpt>
      <trkpt lat="35.213584899902344" lon="24.050745964050293">
        <ele>314.96899999999999</ele>
        <time>2011-06-15T06:50:13Z</time>
      </trkpt>
      <trkpt lat="35.213606357574463" lon="24.050745964050293">
        <ele>314.96899999999999</ele>
        <time>2011-06-15T06:50:15Z</time>
      </trkpt>
      <trkpt lat="35.213606357574463" lon="24.050745964050293">
        <ele>314.96899999999999</ele>
        <time>2011-06-15T06:50:17Z</time>
      </trkpt>
      <trkpt lat="35.213692188262939" lon="24.050681591033936">
        <ele>313.52699999999999</ele>
        <time>2011-06-15T06:50:28Z</time>
      </trkpt>
      <trkpt lat="35.213713645935059" lon="24.050660133361816">
        <ele>313.04700000000003</ele>
        <time>2011-06-15T06:50:32Z</time>
      </trkpt>
      <trkpt lat="35.213799476623535" lon="24.050681591033936">
        <ele>310.64299999999997</ele>
        <time>2011-06-15T06:50:45Z</time>
      </trkpt>
      <trkpt lat="35.213906764984131" lon="24.050681591033936">
        <ele>310.16199999999998</ele>
        <time>2011-06-15T06:50:56Z</time>
      </trkpt>
      <trkpt lat="35.21392822265625" lon="24.050703048706055">
        <ele>309.68200000000002</ele>
        <time>2011-06-15T06:50:59Z</time>
      </trkpt>
      <trkpt lat="35.214014053344727" lon="24.050703048706055">
        <ele>309.20100000000002</ele>
        <time>2011-06-15T06:51:05Z</time>
      </trkpt>
      <trkpt lat="35.214035511016846" lon="24.050703048706055">
        <ele>309.20100000000002</ele>
        <time>2011-06-15T06:51:06Z</time>
      </trkpt>
      <trkpt lat="35.214078426361084" lon="24.050681591033936">
        <ele>309.20100000000002</ele>
        <time>2011-06-15T06:51:10Z</time>
      </trkpt>
      <trkpt lat="35.214142799377441" lon="24.050617218017578">
        <ele>308.72000000000003</ele>
        <time>2011-06-15T06:51:19Z</time>
      </trkpt>
      <trkpt lat="35.214250087738037" lon="24.050467014312744">
        <ele>307.75900000000001</ele>
        <time>2011-06-15T06:51:32Z</time>
      </trkpt>
      <trkpt lat="35.214250087738037" lon="24.050445556640625">
        <ele>307.75900000000001</ele>
        <time>2011-06-15T06:51:34Z</time>
      </trkpt>
      <trkpt lat="35.214357376098633" lon="24.050295352935791">
        <ele>308.24000000000001</ele>
        <time>2011-06-15T06:51:47Z</time>
      </trkpt>
      <trkpt lat="35.21442174911499" lon="24.050273895263672">
        <ele>307.279</ele>
        <time>2011-06-15T06:51:52Z</time>
      </trkpt>
      <trkpt lat="35.214464664459229" lon="24.050252437591553">
        <ele>306.798</ele>
        <time>2011-06-15T06:51:57Z</time>
      </trkpt>
      <trkpt lat="35.214614868164063" lon="24.050230979919434">
        <ele>307.279</ele>
        <time>2011-06-15T06:52:10Z</time>
      </trkpt>
      <trkpt lat="35.214722156524658" lon="24.050209522247314">
        <ele>305.83699999999999</ele>
        <time>2011-06-15T06:52:24Z</time>
      </trkpt>
      <trkpt lat="35.214765071868896" lon="24.050230979919434">
        <ele>302.95299999999997</ele>
        <time>2011-06-15T06:52:38Z</time>
      </trkpt>
      <trkpt lat="35.214893817901611" lon="24.05031681060791">
        <ele>295.262</ele>
        <time>2011-06-15T06:53:26Z</time>
      </trkpt>
      <trkpt lat="35.21491527557373" lon="24.050381183624268">
        <ele>293.81999999999999</ele>
        <time>2011-06-15T06:53:37Z</time>
      </trkpt>
      <trkpt lat="35.214893817901611" lon="24.050402641296387">
        <ele>293.81999999999999</ele>
        <time>2011-06-15T06:53:40Z</time>
      </trkpt>
      <trkpt lat="35.214958190917969" lon="24.050402641296387">
        <ele>290.45600000000002</ele>
        <time>2011-06-15T06:53:50Z</time>
      </trkpt>
      <trkpt lat="35.215022563934326" lon="24.050381183624268">
        <ele>287.09100000000001</ele>
        <time>2011-06-15T06:54:02Z</time>
      </trkpt>
      <trkpt lat="35.215086936950684" lon="24.050359725952148">
        <ele>285.649</ele>
        <time>2011-06-15T06:54:07Z</time>
      </trkpt>
      <trkpt lat="35.215129852294922" lon="24.050381183624268">
        <ele>284.20699999999999</ele>
        <time>2011-06-15T06:54:15Z</time>
      </trkpt>
      <trkpt lat="35.215151309967041" lon="24.050381183624268">
        <ele>284.68799999999999</ele>
        <time>2011-06-15T06:54:21Z</time>
      </trkpt>
      <trkpt lat="35.215194225311279" lon="24.050338268280029">
        <ele>285.16800000000001</ele>
        <time>2011-06-15T06:54:33Z</time>
      </trkpt>
      <trkpt lat="35.215258598327637" lon="24.05031681060791">
        <ele>282.28399999999999</ele>
        <time>2011-06-15T06:54:46Z</time>
      </trkpt>
      <trkpt lat="35.215258598327637" lon="24.050295352935791">
        <ele>281.80399999999997</ele>
        <time>2011-06-15T06:54:56Z</time>
      </trkpt>
      <trkpt lat="35.215280055999756" lon="24.050295352935791">
        <ele>280.84199999999998</ele>
        <time>2011-06-15T06:55:00Z</time>
      </trkpt>
      <trkpt lat="35.215344429016113" lon="24.050273895263672">
        <ele>280.36200000000002</ele>
        <time>2011-06-15T06:55:15Z</time>
      </trkpt>
      <trkpt lat="35.215408802032471" lon="24.050230979919434">
        <ele>280.36200000000002</ele>
        <time>2011-06-15T06:55:26Z</time>
      </trkpt>
      <trkpt lat="35.215473175048828" lon="24.050123691558838">
        <ele>275.55500000000001</ele>
        <time>2011-06-15T06:56:25Z</time>
      </trkpt>
      <trkpt lat="35.215451717376709" lon="24.050102233886719">
        <ele>276.036</ele>
        <time>2011-06-15T06:56:28Z</time>
      </trkpt>
      <trkpt lat="35.215451717376709" lon="24.0500807762146">
        <ele>277.47800000000001</ele>
        <time>2011-06-15T06:56:37Z</time>
      </trkpt>
      <trkpt lat="35.215494632720947" lon="24.049994945526123">
        <ele>275.55500000000001</ele>
        <time>2011-06-15T06:56:51Z</time>
      </trkpt>
      <trkpt lat="35.215537548065186" lon="24.049973487854004">
        <ele>272.19</ele>
        <time>2011-06-15T06:57:03Z</time>
      </trkpt>
      <trkpt lat="35.215537548065186" lon="24.050016403198242">
        <ele>272.19</ele>
        <time>2011-06-15T06:57:13Z</time>
      </trkpt>
      <trkpt lat="35.215644836425781" lon="24.049994945526123">
        <ele>274.113</ele>
        <time>2011-06-15T06:57:45Z</time>
      </trkpt>
      <trkpt lat="35.215644836425781" lon="24.050016403198242">
        <ele>274.113</ele>
        <time>2011-06-15T06:57:46Z</time>
      </trkpt>
      <trkpt lat="35.2156662940979" lon="24.050037860870361">
        <ele>274.113</ele>
        <time>2011-06-15T06:57:49Z</time>
      </trkpt>
      <trkpt lat="35.215709209442139" lon="24.05005931854248">
        <ele>275.55500000000001</ele>
        <time>2011-06-15T06:58:03Z</time>
      </trkpt>
      <trkpt lat="35.215730667114258" lon="24.0500807762146">
        <ele>273.63200000000001</ele>
        <time>2011-06-15T06:58:14Z</time>
      </trkpt>
      <trkpt lat="35.215795040130615" lon="24.050037860870361">
        <ele>270.74799999999999</ele>
        <time>2011-06-15T06:58:31Z</time>
      </trkpt>
      <trkpt lat="35.215752124786377" lon="24.049952030181885">
        <ele>265.94200000000001</ele>
        <time>2011-06-15T06:58:48Z</time>
      </trkpt>
      <trkpt lat="35.215773582458496" lon="24.049930572509766">
        <ele>262.09699999999998</ele>
        <time>2011-06-15T06:58:56Z</time>
      </trkpt>
      <trkpt lat="35.215730667114258" lon="24.049909114837646">
        <ele>254.887</ele>
        <time>2011-06-15T06:59:08Z</time>
      </trkpt>
      <trkpt lat="35.215709209442139" lon="24.049909114837646">
        <ele>254.40600000000001</ele>
        <time>2011-06-15T06:59:10Z</time>
      </trkpt>
      <trkpt lat="35.21568775177002" lon="24.049866199493408">
        <ele>252.00299999999999</ele>
        <time>2011-06-15T06:59:21Z</time>
      </trkpt>
      <trkpt lat="35.2156662940979" lon="24.049780368804932">
        <ele>252.00299999999999</ele>
        <time>2011-06-15T06:59:33Z</time>
      </trkpt>
      <trkpt lat="35.2156662940979" lon="24.049737453460693">
        <ele>249.119</ele>
        <time>2011-06-15T06:59:41Z</time>
      </trkpt>
      <trkpt lat="35.215644836425781" lon="24.049694538116455">
        <ele>251.52199999999999</ele>
        <time>2011-06-15T06:59:53Z</time>
      </trkpt>
      <trkpt lat="35.215709209442139" lon="24.049651622772217">
        <ele>253.44499999999999</ele>
        <time>2011-06-15T07:00:14Z</time>
      </trkpt>
      <trkpt lat="35.215709209442139" lon="24.049608707427979">
        <ele>253.44499999999999</ele>
        <time>2011-06-15T07:00:18Z</time>
      </trkpt>
      <trkpt lat="35.215730667114258" lon="24.049587249755859">
        <ele>253.44499999999999</ele>
        <time>2011-06-15T07:00:21Z</time>
      </trkpt>
      <trkpt lat="35.215730667114258" lon="24.049544334411621">
        <ele>253.44499999999999</ele>
        <time>2011-06-15T07:00:34Z</time>
      </trkpt>
      <trkpt lat="35.215752124786377" lon="24.049630165100098">
        <ele>250.56100000000001</ele>
        <time>2011-06-15T07:00:47Z</time>
      </trkpt>
      <trkpt lat="35.215752124786377" lon="24.049587249755859">
        <ele>249.119</ele>
        <time>2011-06-15T07:01:19Z</time>
      </trkpt>
      <trkpt lat="35.215709209442139" lon="24.049544334411621">
        <ele>249.59899999999999</ele>
        <time>2011-06-15T07:01:23Z</time>
      </trkpt>
      <trkpt lat="35.215752124786377" lon="24.049522876739502">
        <ele>250.56100000000001</ele>
        <time>2011-06-15T07:01:32Z</time>
      </trkpt>
      <trkpt lat="35.215752124786377" lon="24.049479961395264">
        <ele>251.041</ele>
        <time>2011-06-15T07:01:37Z</time>
      </trkpt>
      <trkpt lat="35.215730667114258" lon="24.049458503723145">
        <ele>253.92500000000001</ele>
        <time>2011-06-15T07:01:51Z</time>
      </trkpt>
      <trkpt lat="35.215709209442139" lon="24.049394130706787">
        <ele>254.40600000000001</ele>
        <time>2011-06-15T07:01:59Z</time>
      </trkpt>
      <trkpt lat="35.2156662940979" lon="24.04932975769043">
        <ele>254.887</ele>
        <time>2011-06-15T07:02:09Z</time>
      </trkpt>
      <trkpt lat="35.215644836425781" lon="24.049308300018311">
        <ele>253.92500000000001</ele>
        <time>2011-06-15T07:02:13Z</time>
      </trkpt>
      <trkpt lat="35.215580463409424" lon="24.049265384674072">
        <ele>253.44499999999999</ele>
        <time>2011-06-15T07:02:20Z</time>
      </trkpt>
      <trkpt lat="35.215537548065186" lon="24.049201011657715">
        <ele>252.964</ele>
        <time>2011-06-15T07:02:29Z</time>
      </trkpt>
      <trkpt lat="35.215559005737305" lon="24.049136638641357">
        <ele>253.92500000000001</ele>
        <time>2011-06-15T07:02:39Z</time>
      </trkpt>
      <trkpt lat="35.215494632720947" lon="24.049029350280762">
        <ele>255.36699999999999</ele>
        <time>2011-06-15T07:02:54Z</time>
      </trkpt>
      <trkpt lat="35.215451717376709" lon="24.048900604248047">
        <ele>254.887</ele>
        <time>2011-06-15T07:03:26Z</time>
      </trkpt>
      <trkpt lat="35.215451717376709" lon="24.048879146575928">
        <ele>253.44499999999999</ele>
        <time>2011-06-15T07:03:43Z</time>
      </trkpt>
      <trkpt lat="35.215451717376709" lon="24.048836231231689">
        <ele>252.964</ele>
        <time>2011-06-15T07:03:46Z</time>
      </trkpt>
      <trkpt lat="35.215408802032471" lon="24.048771858215332">
        <ele>253.92500000000001</ele>
        <time>2011-06-15T07:03:56Z</time>
      </trkpt>
      <trkpt lat="35.215365886688232" lon="24.048728942871094">
        <ele>256.32900000000001</ele>
        <time>2011-06-15T07:04:14Z</time>
      </trkpt>
      <trkpt lat="35.215387344360352" lon="24.048686027526855">
        <ele>255.84800000000001</ele>
        <time>2011-06-15T07:04:32Z</time>
      </trkpt>
      <trkpt lat="35.215408802032471" lon="24.048664569854736">
        <ele>257.77100000000002</ele>
        <time>2011-06-15T07:04:45Z</time>
      </trkpt>
      <trkpt lat="35.215408802032471" lon="24.048643112182617">
        <ele>262.09699999999998</ele>
        <time>2011-06-15T07:04:53Z</time>
      </trkpt>
      <trkpt lat="35.215494632720947" lon="24.048664569854736">
        <ele>265.94200000000001</ele>
        <time>2011-06-15T07:05:06Z</time>
      </trkpt>
      <trkpt lat="35.215537548065186" lon="24.048643112182617">
        <ele>270.26799999999997</ele>
        <time>2011-06-15T07:05:19Z</time>
      </trkpt>
      <trkpt lat="35.215516090393066" lon="24.04857873916626">
        <ele>271.70999999999998</ele>
        <time>2011-06-15T07:05:31Z</time>
      </trkpt>
      <trkpt lat="35.215516090393066" lon="24.048514366149902">
        <ele>272.19</ele>
        <time>2011-06-15T07:05:39Z</time>
      </trkpt>
      <trkpt lat="35.215516090393066" lon="24.048492908477783">
        <ele>274.113</ele>
        <time>2011-06-15T07:05:51Z</time>
      </trkpt>
      <trkpt lat="35.215559005737305" lon="24.048471450805664">
        <ele>274.113</ele>
        <time>2011-06-15T07:06:01Z</time>
      </trkpt>
      <trkpt lat="35.215580463409424" lon="24.048535823822021">
        <ele>274.113</ele>
        <time>2011-06-15T07:06:10Z</time>
      </trkpt>
      <trkpt lat="35.215623378753662" lon="24.048535823822021">
        <ele>273.15199999999999</ele>
        <time>2011-06-15T07:06:16Z</time>
      </trkpt>
      <trkpt lat="35.21568775177002" lon="24.048557281494141">
        <ele>270.74799999999999</ele>
        <time>2011-06-15T07:06:32Z</time>
      </trkpt>
      <trkpt lat="35.215709209442139" lon="24.048557281494141">
        <ele>270.74799999999999</ele>
        <time>2011-06-15T07:06:34Z</time>
      </trkpt>
      <trkpt lat="35.215752124786377" lon="24.048557281494141">
        <ele>269.30700000000002</ele>
        <time>2011-06-15T07:06:47Z</time>
      </trkpt>
      <trkpt lat="35.215408802032471" lon="24.048385620117188">
        <ele>273.63200000000001</ele>
        <time>2011-06-15T07:07:29Z</time>
      </trkpt>
      <trkpt lat="35.215473175048828" lon="24.048278331756592">
        <ele>274.59399999999999</ele>
        <time>2011-06-15T07:08:36Z</time>
      </trkpt>
      <trkpt lat="35.215451717376709" lon="24.048256874084473">
        <ele>276.51600000000002</ele>
        <time>2011-06-15T07:08:40Z</time>
      </trkpt>
      <trkpt lat="35.215473175048828" lon="24.048256874084473">
        <ele>275.07400000000001</ele>
        <time>2011-06-15T07:08:44Z</time>
      </trkpt>
      <trkpt lat="35.215451717376709" lon="24.048278331756592">
        <ele>278.92000000000002</ele>
        <time>2011-06-15T07:08:56Z</time>
      </trkpt>
      <trkpt lat="35.215516090393066" lon="24.048342704772949">
        <ele>278.92000000000002</ele>
        <time>2011-06-15T07:09:13Z</time>
      </trkpt>
      <trkpt lat="35.215451717376709" lon="24.048342704772949">
        <ele>280.36200000000002</ele>
        <time>2011-06-15T07:09:23Z</time>
      </trkpt>
      <trkpt lat="35.215365886688232" lon="24.048256874084473">
        <ele>286.13</ele>
        <time>2011-06-15T07:09:35Z</time>
      </trkpt>
      <trkpt lat="35.215365886688232" lon="24.048235416412354">
        <ele>287.09100000000001</ele>
        <time>2011-06-15T07:09:38Z</time>
      </trkpt>
      <trkpt lat="35.215408802032471" lon="24.048192501068115">
        <ele>287.09100000000001</ele>
        <time>2011-06-15T07:09:42Z</time>
      </trkpt>
      <trkpt lat="35.215451717376709" lon="24.048149585723877">
        <ele>290.45600000000002</ele>
        <time>2011-06-15T07:09:53Z</time>
      </trkpt>
      <trkpt lat="35.21543025970459" lon="24.048106670379639">
        <ele>290.45600000000002</ele>
        <time>2011-06-15T07:10:05Z</time>
      </trkpt>
      <trkpt lat="35.215494632720947" lon="24.0480637550354">
        <ele>288.53300000000002</ele>
        <time>2011-06-15T07:10:11Z</time>
      </trkpt>
      <trkpt lat="35.215580463409424" lon="24.0480637550354">
        <ele>287.09100000000001</ele>
        <time>2011-06-15T07:10:17Z</time>
      </trkpt>
      <trkpt lat="35.215623378753662" lon="24.0480637550354">
        <ele>287.57100000000003</ele>
        <time>2011-06-15T07:10:25Z</time>
      </trkpt>
      <trkpt lat="35.215644836425781" lon="24.0480637550354">
        <ele>290.45600000000002</ele>
        <time>2011-06-15T07:10:41Z</time>
      </trkpt>
      <trkpt lat="35.21568775177002" lon="24.048042297363281">
        <ele>289.49400000000003</ele>
        <time>2011-06-15T07:10:48Z</time>
      </trkpt>
      <trkpt lat="35.215644836425781" lon="24.047977924346924">
        <ele>286.13</ele>
        <time>2011-06-15T07:11:00Z</time>
      </trkpt>
      <trkpt lat="35.215644836425781" lon="24.047956466674805">
        <ele>285.649</ele>
        <time>2011-06-15T07:11:04Z</time>
      </trkpt>
      <trkpt lat="35.21568775177002" lon="24.047913551330566">
        <ele>281.80399999999997</ele>
        <time>2011-06-15T07:11:15Z</time>
      </trkpt>
      <trkpt lat="35.215795040130615" lon="24.047892093658447">
        <ele>279.39999999999998</ele>
        <time>2011-06-15T07:11:23Z</time>
      </trkpt>
      <trkpt lat="35.215795040130615" lon="24.047913551330566">
        <ele>279.39999999999998</ele>
        <time>2011-06-15T07:11:24Z</time>
      </trkpt>
      <trkpt lat="35.215859413146973" lon="24.047999382019043">
        <ele>278.92000000000002</ele>
        <time>2011-06-15T07:11:42Z</time>
      </trkpt>
      <trkpt lat="35.215816497802734" lon="24.047913551330566">
        <ele>281.32299999999998</ele>
        <time>2011-06-15T07:11:51Z</time>
      </trkpt>
      <trkpt lat="35.215752124786377" lon="24.047870635986328">
        <ele>287.57100000000003</ele>
        <time>2011-06-15T07:12:02Z</time>
      </trkpt>
      <trkpt lat="35.215773582458496" lon="24.047806262969971">
        <ele>289.01400000000001</ele>
        <time>2011-06-15T07:12:09Z</time>
      </trkpt>
      <trkpt lat="35.215816497802734" lon="24.04782772064209">
        <ele>292.37799999999999</ele>
        <time>2011-06-15T07:12:18Z</time>
      </trkpt>
      <trkpt lat="35.215795040130615" lon="24.047784805297852">
        <ele>294.78100000000001</ele>
        <time>2011-06-15T07:12:28Z</time>
      </trkpt>
      <trkpt lat="35.215795040130615" lon="24.047763347625732">
        <ele>296.22399999999999</ele>
        <time>2011-06-15T07:12:32Z</time>
      </trkpt>
      <trkpt lat="35.215816497802734" lon="24.047741889953613">
        <ele>304.39499999999998</ele>
        <time>2011-06-15T07:12:45Z</time>
      </trkpt>
      <trkpt lat="35.215752124786377" lon="24.047720432281494">
        <ele>309.68200000000002</ele>
        <time>2011-06-15T07:12:57Z</time>
      </trkpt>
      <trkpt lat="35.215730667114258" lon="24.047698974609375">
        <ele>311.60399999999998</ele>
        <time>2011-06-15T07:13:08Z</time>
      </trkpt>
      <trkpt lat="35.215795040130615" lon="24.047720432281494">
        <ele>314.00799999999998</ele>
        <time>2011-06-15T07:13:27Z</time>
      </trkpt>
      <trkpt lat="35.215816497802734" lon="24.047698974609375">
        <ele>316.411</ele>
        <time>2011-06-15T07:13:33Z</time>
      </trkpt>
      <trkpt lat="35.215773582458496" lon="24.047677516937256">
        <ele>318.334</ele>
        <time>2011-06-15T07:13:41Z</time>
      </trkpt>
      <trkpt lat="35.215730667114258" lon="24.047656059265137">
        <ele>321.21800000000002</ele>
        <time>2011-06-15T07:13:53Z</time>
      </trkpt>
      <trkpt lat="35.215730667114258" lon="24.047677516937256">
        <ele>323.13999999999999</ele>
        <time>2011-06-15T07:14:01Z</time>
      </trkpt>
      <trkpt lat="35.215752124786377" lon="24.047677516937256">
        <ele>323.13999999999999</ele>
        <time>2011-06-15T07:14:03Z</time>
      </trkpt>
      <trkpt lat="35.215773582458496" lon="24.047634601593018">
        <ele>325.06299999999999</ele>
        <time>2011-06-15T07:14:12Z</time>
      </trkpt>
      <trkpt lat="35.215837955474854" lon="24.04757022857666">
        <ele>327.947</ele>
        <time>2011-06-15T07:14:22Z</time>
      </trkpt>
      <trkpt lat="35.215859413146973" lon="24.04757022857666">
        <ele>328.428</ele>
        <time>2011-06-15T07:14:33Z</time>
      </trkpt>
      <trkpt lat="35.215795040130615" lon="24.047548770904541">
        <ele>335.15699999999998</ele>
        <time>2011-06-15T07:16:26Z</time>
      </trkpt>
      <trkpt lat="35.215773582458496" lon="24.047505855560303">
        <ele>334.67599999999999</ele>
        <time>2011-06-15T07:16:34Z</time>
      </trkpt>
      <trkpt lat="35.215752124786377" lon="24.047484397888184">
        <ele>335.637</ele>
        <time>2011-06-15T07:16:38Z</time>
      </trkpt>
      <trkpt lat="35.215773582458496" lon="24.047462940216064">
        <ele>336.11799999999999</ele>
        <time>2011-06-15T07:16:46Z</time>
      </trkpt>
      <trkpt lat="35.215816497802734" lon="24.047441482543945">
        <ele>335.15699999999998</ele>
        <time>2011-06-15T07:16:57Z</time>
      </trkpt>
      <trkpt lat="35.215837955474854" lon="24.047420024871826">
        <ele>335.15699999999998</ele>
        <time>2011-06-15T07:17:05Z</time>
      </trkpt>
      <trkpt lat="35.215837955474854" lon="24.04731273651123">
        <ele>334.19499999999999</ele>
        <time>2011-06-15T07:17:14Z</time>
      </trkpt>
      <trkpt lat="35.215837955474854" lon="24.047291278839111">
        <ele>333.71499999999997</ele>
        <time>2011-06-15T07:17:17Z</time>
      </trkpt>
      <trkpt lat="35.215837955474854" lon="24.047269821166992">
        <ele>332.27300000000002</ele>
        <time>2011-06-15T07:17:24Z</time>
      </trkpt>
      <trkpt lat="35.215837955474854" lon="24.047248363494873">
        <ele>331.79199999999997</ele>
        <time>2011-06-15T07:17:30Z</time>
      </trkpt>
      <trkpt lat="35.215837955474854" lon="24.047205448150635">
        <ele>331.79199999999997</ele>
        <time>2011-06-15T07:17:33Z</time>
      </trkpt>
      <trkpt lat="35.215795040130615" lon="24.047183990478516">
        <ele>332.75400000000002</ele>
        <time>2011-06-15T07:17:41Z</time>
      </trkpt>
      <trkpt lat="35.215795040130615" lon="24.047183990478516">
        <ele>333.23399999999998</ele>
        <time>2011-06-15T07:17:42Z</time>
      </trkpt>
      <trkpt lat="35.215752124786377" lon="24.047162532806396">
        <ele>334.67599999999999</ele>
        <time>2011-06-15T07:17:52Z</time>
      </trkpt>
      <trkpt lat="35.215752124786377" lon="24.047162532806396">
        <ele>334.67599999999999</ele>
        <time>2011-06-15T07:17:55Z</time>
      </trkpt>
      <trkpt lat="35.215773582458496" lon="24.047119617462158">
        <ele>335.637</ele>
        <time>2011-06-15T07:18:03Z</time>
      </trkpt>
      <trkpt lat="35.215795040130615" lon="24.047119617462158">
        <ele>334.67599999999999</ele>
        <time>2011-06-15T07:18:05Z</time>
      </trkpt>
      <trkpt lat="35.215816497802734" lon="24.047098159790039">
        <ele>331.79199999999997</ele>
        <time>2011-06-15T07:18:20Z</time>
      </trkpt>
      <trkpt lat="35.215795040130615" lon="24.047119617462158">
        <ele>338.041</ele>
        <time>2011-06-15T07:19:32Z</time>
      </trkpt>
      <trkpt lat="35.215816497802734" lon="24.04707670211792">
        <ele>337.56</ele>
        <time>2011-06-15T07:19:37Z</time>
      </trkpt>
      <trkpt lat="35.215816497802734" lon="24.047055244445801">
        <ele>337.56</ele>
        <time>2011-06-15T07:19:39Z</time>
      </trkpt>
      <trkpt lat="35.215816497802734" lon="24.046990871429443">
        <ele>337.56</ele>
        <time>2011-06-15T07:19:48Z</time>
      </trkpt>
      <trkpt lat="35.215816497802734" lon="24.046947956085205">
        <ele>340.92500000000001</ele>
        <time>2011-06-15T07:19:55Z</time>
      </trkpt>
      <trkpt lat="35.215795040130615" lon="24.046905040740967">
        <ele>342.36700000000002</ele>
        <time>2011-06-15T07:19:58Z</time>
      </trkpt>
      <trkpt lat="35.215795040130615" lon="24.046883583068848">
        <ele>342.36700000000002</ele>
        <time>2011-06-15T07:20:00Z</time>
      </trkpt>
      <trkpt lat="35.215795040130615" lon="24.046862125396729">
        <ele>342.36700000000002</ele>
        <time>2011-06-15T07:20:02Z</time>
      </trkpt>
      <trkpt lat="35.215816497802734" lon="24.04681921005249">
        <ele>342.84699999999998</ele>
        <time>2011-06-15T07:20:05Z</time>
      </trkpt>
      <trkpt lat="35.215816497802734" lon="24.046797752380371">
        <ele>343.32799999999997</ele>
        <time>2011-06-15T07:20:07Z</time>
      </trkpt>
      <trkpt lat="35.215859413146973" lon="24.046754837036133">
        <ele>338.52100000000002</ele>
        <time>2011-06-15T07:20:18Z</time>
      </trkpt>
      <trkpt lat="35.215902328491211" lon="24.046733379364014">
        <ele>337.56</ele>
        <time>2011-06-15T07:20:22Z</time>
      </trkpt>
      <trkpt lat="35.215966701507568" lon="24.046669006347656">
        <ele>336.11799999999999</ele>
        <time>2011-06-15T07:20:31Z</time>
      </trkpt>
      <trkpt lat="35.215966701507568" lon="24.046626091003418">
        <ele>335.15699999999998</ele>
        <time>2011-06-15T07:20:35Z</time>
      </trkpt>
      <trkpt lat="35.215988159179688" lon="24.046604633331299">
        <ele>334.19499999999999</ele>
        <time>2011-06-15T07:20:38Z</time>
      </trkpt>
      <trkpt lat="35.216009616851807" lon="24.04658317565918">
        <ele>333.71499999999997</ele>
        <time>2011-06-15T07:20:41Z</time>
      </trkpt>
      <trkpt lat="35.216052532196045" lon="24.046540260314941">
        <ele>333.23399999999998</ele>
        <time>2011-06-15T07:20:49Z</time>
      </trkpt>
      <trkpt lat="35.216052532196045" lon="24.046518802642822">
        <ele>331.79199999999997</ele>
        <time>2011-06-15T07:20:54Z</time>
      </trkpt>
      <trkpt lat="35.216073989868164" lon="24.046432971954346">
        <ele>330.83100000000002</ele>
        <time>2011-06-15T07:21:03Z</time>
      </trkpt>
      <trkpt lat="35.216116905212402" lon="24.046368598937988">
        <ele>331.31200000000001</ele>
        <time>2011-06-15T07:21:11Z</time>
      </trkpt>
      <trkpt lat="35.216116905212402" lon="24.046347141265869">
        <ele>331.31200000000001</ele>
        <time>2011-06-15T07:21:14Z</time>
      </trkpt>
      <trkpt lat="35.216095447540283" lon="24.046282768249512">
        <ele>329.38900000000001</ele>
        <time>2011-06-15T07:21:22Z</time>
      </trkpt>
      <trkpt lat="35.216052532196045" lon="24.046261310577393">
        <ele>331.79199999999997</ele>
        <time>2011-06-15T07:21:31Z</time>
      </trkpt>
      <trkpt lat="35.215988159179688" lon="24.046239852905273">
        <ele>336.11799999999999</ele>
        <time>2011-06-15T07:21:47Z</time>
      </trkpt>
      <trkpt lat="35.215945243835449" lon="24.046218395233154">
        <ele>338.041</ele>
        <time>2011-06-15T07:21:55Z</time>
      </trkpt>
      <trkpt lat="35.215945243835449" lon="24.046218395233154">
        <ele>338.041</ele>
        <time>2011-06-15T07:21:56Z</time>
      </trkpt>
      <trkpt lat="35.21592378616333" lon="24.046175479888916">
        <ele>339.96300000000002</ele>
        <time>2011-06-15T07:22:05Z</time>
      </trkpt>
      <trkpt lat="35.215902328491211" lon="24.046111106872559">
        <ele>340.44400000000002</ele>
        <time>2011-06-15T07:22:17Z</time>
      </trkpt>
      <trkpt lat="35.215902328491211" lon="24.046025276184082">
        <ele>342.36700000000002</ele>
        <time>2011-06-15T07:22:26Z</time>
      </trkpt>
      <trkpt lat="35.21592378616333" lon="24.045939445495605">
        <ele>343.80900000000003</ele>
        <time>2011-06-15T07:22:36Z</time>
      </trkpt>
      <trkpt lat="35.21592378616333" lon="24.045875072479248">
        <ele>342.36700000000002</ele>
        <time>2011-06-15T07:22:45Z</time>
      </trkpt>
      <trkpt lat="35.21592378616333" lon="24.04583215713501">
        <ele>341.88600000000002</ele>
        <time>2011-06-15T07:22:48Z</time>
      </trkpt>
      <trkpt lat="35.215859413146973" lon="24.045746326446533">
        <ele>339.483</ele>
        <time>2011-06-15T07:23:02Z</time>
      </trkpt>
      <trkpt lat="35.215837955474854" lon="24.045767784118652">
        <ele>341.88600000000002</ele>
        <time>2011-06-15T07:23:14Z</time>
      </trkpt>
      <trkpt lat="35.215773582458496" lon="24.045789241790771">
        <ele>348.13499999999999</ele>
        <time>2011-06-15T07:23:28Z</time>
      </trkpt>
      <trkpt lat="35.215709209442139" lon="24.045789241790771">
        <ele>350.53800000000001</ele>
        <time>2011-06-15T07:23:38Z</time>
      </trkpt>
      <trkpt lat="35.215644836425781" lon="24.045810699462891">
        <ele>351.49900000000002</ele>
        <time>2011-06-15T07:23:47Z</time>
      </trkpt>
      <trkpt lat="35.215644836425781" lon="24.045810699462891">
        <ele>351.98000000000002</ele>
        <time>2011-06-15T07:23:48Z</time>
      </trkpt>
      <trkpt lat="35.215601921081543" lon="24.04583215713501">
        <ele>352.94099999999997</ele>
        <time>2011-06-15T07:23:57Z</time>
      </trkpt>
      <trkpt lat="35.215601921081543" lon="24.04583215713501">
        <ele>355.82499999999999</ele>
        <time>2011-06-15T07:24:03Z</time>
      </trkpt>
      <trkpt lat="35.215623378753662" lon="24.045810699462891">
        <ele>355.82499999999999</ele>
        <time>2011-06-15T07:24:06Z</time>
      </trkpt>
      <trkpt lat="35.215644836425781" lon="24.045767784118652">
        <ele>356.30599999999998</ele>
        <time>2011-06-15T07:24:13Z</time>
      </trkpt>
      <trkpt lat="35.2156662940979" lon="24.045724868774414">
        <ele>353.42200000000003</ele>
        <time>2011-06-15T07:24:21Z</time>
      </trkpt>
      <trkpt lat="35.2156662940979" lon="24.045681953430176">
        <ele>361.11200000000002</ele>
        <time>2011-06-15T07:24:26Z</time>
      </trkpt>
      <trkpt lat="35.2156662940979" lon="24.045660495758057">
        <ele>363.03500000000003</ele>
        <time>2011-06-15T07:24:29Z</time>
      </trkpt>
      <trkpt lat="35.2156662940979" lon="24.045617580413818">
        <ele>363.51600000000002</ele>
        <time>2011-06-15T07:24:33Z</time>
      </trkpt>
      <trkpt lat="35.21568775177002" lon="24.045596122741699">
        <ele>364.95800000000003</ele>
        <time>2011-06-15T07:24:41Z</time>
      </trkpt>
      <trkpt lat="35.215709209442139" lon="24.04557466506958">
        <ele>364.95800000000003</ele>
        <time>2011-06-15T07:24:43Z</time>
      </trkpt>
      <trkpt lat="35.215709209442139" lon="24.045553207397461">
        <ele>365.43799999999999</ele>
        <time>2011-06-15T07:24:45Z</time>
      </trkpt>
      <trkpt lat="35.215752124786377" lon="24.045510292053223">
        <ele>366.88</ele>
        <time>2011-06-15T07:24:51Z</time>
      </trkpt>
      <trkpt lat="35.215752124786377" lon="24.045488834381104">
        <ele>367.84199999999998</ele>
        <time>2011-06-15T07:24:53Z</time>
      </trkpt>
      <trkpt lat="35.215773582458496" lon="24.045424461364746">
        <ele>369.76400000000001</ele>
        <time>2011-06-15T07:24:58Z</time>
      </trkpt>
      <trkpt lat="35.215709209442139" lon="24.045381546020508">
        <ele>372.64800000000002</ele>
        <time>2011-06-15T07:25:15Z</time>
      </trkpt>
      <trkpt lat="35.215709209442139" lon="24.04533863067627">
        <ele>372.64800000000002</ele>
        <time>2011-06-15T07:25:22Z</time>
      </trkpt>
      <trkpt lat="35.215730667114258" lon="24.045252799987793">
        <ele>374.57100000000003</ele>
        <time>2011-06-15T07:25:32Z</time>
      </trkpt>
      <trkpt lat="35.21568775177002" lon="24.045188426971436">
        <ele>376.97399999999999</ele>
        <time>2011-06-15T07:25:43Z</time>
      </trkpt>
      <trkpt lat="35.215709209442139" lon="24.045145511627197">
        <ele>378.416</ele>
        <time>2011-06-15T07:25:49Z</time>
      </trkpt>
      <trkpt lat="35.215730667114258" lon="24.045059680938721">
        <ele>379.37700000000001</ele>
        <time>2011-06-15T07:25:58Z</time>
      </trkpt>
      <trkpt lat="35.215752124786377" lon="24.045038223266602">
        <ele>377.45499999999998</ele>
        <time>2011-06-15T07:26:03Z</time>
      </trkpt>
      <trkpt lat="35.215795040130615" lon="24.044973850250244">
        <ele>375.05200000000002</ele>
        <time>2011-06-15T07:26:11Z</time>
      </trkpt>
      <trkpt lat="35.215816497802734" lon="24.044888019561768">
        <ele>373.12900000000002</ele>
        <time>2011-06-15T07:26:19Z</time>
      </trkpt>
      <trkpt lat="35.215816497802734" lon="24.044866561889648">
        <ele>369.76400000000001</ele>
        <time>2011-06-15T07:26:31Z</time>
      </trkpt>
      <trkpt lat="35.215795040130615" lon="24.044759273529053">
        <ele>365.43799999999999</ele>
        <time>2011-06-15T07:26:42Z</time>
      </trkpt>
      <trkpt lat="35.215773582458496" lon="24.044737815856934">
        <ele>367.84199999999998</ele>
        <time>2011-06-15T07:26:51Z</time>
      </trkpt>
      <trkpt lat="35.215752124786377" lon="24.044694900512695">
        <ele>370.245</ele>
        <time>2011-06-15T07:27:04Z</time>
      </trkpt>
      <trkpt lat="35.215709209442139" lon="24.044673442840576">
        <ele>374.57100000000003</ele>
        <time>2011-06-15T07:27:12Z</time>
      </trkpt>
      <trkpt lat="35.21568775177002" lon="24.044673442840576">
        <ele>376.01299999999998</ele>
        <time>2011-06-15T07:27:13Z</time>
      </trkpt>
      <trkpt lat="35.21568775177002" lon="24.044609069824219">
        <ele>379.858</ele>
        <time>2011-06-15T07:27:24Z</time>
      </trkpt>
      <trkpt lat="35.215709209442139" lon="24.044544696807861">
        <ele>381.30000000000001</ele>
        <time>2011-06-15T07:27:33Z</time>
      </trkpt>
      <trkpt lat="35.215644836425781" lon="24.044501781463623">
        <ele>382.74200000000002</ele>
        <time>2011-06-15T07:27:50Z</time>
      </trkpt>
      <trkpt lat="35.2156662940979" lon="24.044458866119385">
        <ele>386.58699999999999</ele>
        <time>2011-06-15T07:27:59Z</time>
      </trkpt>
      <trkpt lat="35.21568775177002" lon="24.044415950775146">
        <ele>387.54899999999998</ele>
        <time>2011-06-15T07:28:05Z</time>
      </trkpt>
      <trkpt lat="35.215709209442139" lon="24.044373035430908">
        <ele>390.91300000000001</ele>
        <time>2011-06-15T07:28:14Z</time>
      </trkpt>
      <trkpt lat="35.215709209442139" lon="24.044373035430908">
        <ele>391.875</ele>
        <time>2011-06-15T07:28:25Z</time>
      </trkpt>
      <trkpt lat="35.215709209442139" lon="24.04433012008667">
        <ele>391.875</ele>
        <time>2011-06-15T07:28:28Z</time>
      </trkpt>
      <trkpt lat="35.215730667114258" lon="24.044222831726074">
        <ele>391.39400000000001</ele>
        <time>2011-06-15T07:28:44Z</time>
      </trkpt>
      <trkpt lat="35.215752124786377" lon="24.044137001037598">
        <ele>392.35500000000002</ele>
        <time>2011-06-15T07:28:54Z</time>
      </trkpt>
      <trkpt lat="35.215709209442139" lon="24.04407262802124">
        <ele>392.83600000000001</ele>
        <time>2011-06-15T07:29:03Z</time>
      </trkpt>
      <trkpt lat="35.21568775177002" lon="24.044051170349121">
        <ele>391.39400000000001</ele>
        <time>2011-06-15T07:29:11Z</time>
      </trkpt>
      <trkpt lat="35.21568775177002" lon="24.043965339660645">
        <ele>391.875</ele>
        <time>2011-06-15T07:29:20Z</time>
      </trkpt>
      <trkpt lat="35.215709209442139" lon="24.043922424316406">
        <ele>392.35500000000002</ele>
        <time>2011-06-15T07:29:29Z</time>
      </trkpt>
      <trkpt lat="35.215730667114258" lon="24.043922424316406">
        <ele>392.83600000000001</ele>
        <time>2011-06-15T07:29:45Z</time>
      </trkpt>
      <trkpt lat="35.215730667114258" lon="24.043922424316406">
        <ele>393.79700000000003</ele>
        <time>2011-06-15T07:30:08Z</time>
      </trkpt>
      <trkpt lat="35.215773582458496" lon="24.043900966644287">
        <ele>395.72000000000003</ele>
        <time>2011-06-15T07:30:19Z</time>
      </trkpt>
      <trkpt lat="35.215795040130615" lon="24.043900966644287">
        <ele>398.60399999999998</ele>
        <time>2011-06-15T07:30:30Z</time>
      </trkpt>
      <trkpt lat="35.215795040130615" lon="24.04383659362793">
        <ele>400.04599999999999</ele>
        <time>2011-06-15T07:30:37Z</time>
      </trkpt>
      <trkpt lat="35.215795040130615" lon="24.043793678283691">
        <ele>402.93000000000001</ele>
        <time>2011-06-15T07:30:46Z</time>
      </trkpt>
      <trkpt lat="35.215795040130615" lon="24.043772220611572">
        <ele>403.41000000000003</ele>
        <time>2011-06-15T07:30:48Z</time>
      </trkpt>
      <trkpt lat="35.215773582458496" lon="24.043729305267334">
        <ele>404.37200000000001</ele>
        <time>2011-06-15T07:30:56Z</time>
      </trkpt>
      <trkpt lat="35.215752124786377" lon="24.043707847595215">
        <ele>407.73599999999999</ele>
        <time>2011-06-15T07:31:03Z</time>
      </trkpt>
      <trkpt lat="35.215752124786377" lon="24.043664932250977">
        <ele>410.62</ele>
        <time>2011-06-15T07:31:12Z</time>
      </trkpt>
      <trkpt lat="35.215752124786377" lon="24.043622016906738">
        <ele>409.65899999999999</ele>
        <time>2011-06-15T07:31:22Z</time>
      </trkpt>
      <trkpt lat="35.215730667114258" lon="24.043557643890381">
        <ele>410.13999999999999</ele>
        <time>2011-06-15T07:31:32Z</time>
      </trkpt>
      <trkpt lat="35.215752124786377" lon="24.043428897857666">
        <ele>409.65899999999999</ele>
        <time>2011-06-15T07:31:48Z</time>
      </trkpt>
      <trkpt lat="35.215752124786377" lon="24.043385982513428">
        <ele>410.13999999999999</ele>
        <time>2011-06-15T07:31:57Z</time>
      </trkpt>
      <trkpt lat="35.215773582458496" lon="24.043385982513428">
        <ele>410.62</ele>
        <time>2011-06-15T07:32:02Z</time>
      </trkpt>
      <trkpt lat="35.215795040130615" lon="24.043364524841309">
        <ele>411.101</ele>
        <time>2011-06-15T07:32:06Z</time>
      </trkpt>
      <trkpt lat="35.215795040130615" lon="24.043343067169189">
        <ele>412.06200000000001</ele>
        <time>2011-06-15T07:32:10Z</time>
      </trkpt>
      <trkpt lat="35.215816497802734" lon="24.043257236480713">
        <ele>413.98500000000001</ele>
        <time>2011-06-15T07:32:17Z</time>
      </trkpt>
      <trkpt lat="35.215837955474854" lon="24.043214321136475">
        <ele>414.46499999999997</ele>
        <time>2011-06-15T07:32:22Z</time>
      </trkpt>
      <trkpt lat="35.215837955474854" lon="24.043171405792236">
        <ele>414.46499999999997</ele>
        <time>2011-06-15T07:32:27Z</time>
      </trkpt>
      <trkpt lat="35.215816497802734" lon="24.043149948120117">
        <ele>413.98500000000001</ele>
        <time>2011-06-15T07:32:30Z</time>
      </trkpt>
      <trkpt lat="35.215816497802734" lon="24.04308557510376">
        <ele>413.98500000000001</ele>
        <time>2011-06-15T07:32:36Z</time>
      </trkpt>
      <trkpt lat="35.215816497802734" lon="24.042999744415283">
        <ele>413.50400000000002</ele>
        <time>2011-06-15T07:32:43Z</time>
      </trkpt>
      <trkpt lat="35.215816497802734" lon="24.042999744415283">
        <ele>413.50400000000002</ele>
        <time>2011-06-15T07:32:46Z</time>
      </trkpt>
      <trkpt lat="35.215837955474854" lon="24.042913913726807">
        <ele>412.54300000000001</ele>
        <time>2011-06-15T07:32:55Z</time>
      </trkpt>
      <trkpt lat="35.215795040130615" lon="24.042870998382568">
        <ele>414.94600000000003</ele>
        <time>2011-06-15T07:33:08Z</time>
      </trkpt>
      <trkpt lat="35.215795040130615" lon="24.042849540710449">
        <ele>415.90699999999998</ele>
        <time>2011-06-15T07:33:09Z</time>
      </trkpt>
      <trkpt lat="35.215795040130615" lon="24.042849540710449">
        <ele>421.19499999999999</ele>
        <time>2011-06-15T07:33:17Z</time>
      </trkpt>
      <trkpt lat="35.215816497802734" lon="24.042849540710449">
        <ele>422.15600000000001</ele>
        <time>2011-06-15T07:33:21Z</time>
      </trkpt>
      <trkpt lat="35.215837955474854" lon="24.042849540710449">
        <ele>424.07900000000001</ele>
        <time>2011-06-15T07:33:26Z</time>
      </trkpt>
      <trkpt lat="35.215816497802734" lon="24.042785167694092">
        <ele>428.88499999999999</ele>
        <time>2011-06-15T07:33:40Z</time>
      </trkpt>
      <trkpt lat="35.215816497802734" lon="24.042785167694092">
        <ele>428.88499999999999</ele>
        <time>2011-06-15T07:33:42Z</time>
      </trkpt>
      <trkpt lat="35.215795040130615" lon="24.042806625366211">
        <ele>428.40499999999997</ele>
        <time>2011-06-15T07:33:44Z</time>
      </trkpt>
      <trkpt lat="35.215795040130615" lon="24.042806625366211">
        <ele>427.44299999999998</ele>
        <time>2011-06-15T07:33:50Z</time>
      </trkpt>
      <trkpt lat="35.215816497802734" lon="24.042720794677734">
        <ele>426.48200000000003</ele>
        <time>2011-06-15T07:33:55Z</time>
      </trkpt>
      <trkpt lat="35.215837955474854" lon="24.042699337005615">
        <ele>426.00099999999998</ele>
        <time>2011-06-15T07:33:58Z</time>
      </trkpt>
      <trkpt lat="35.215880870819092" lon="24.042634963989258">
        <ele>426.96300000000002</ele>
        <time>2011-06-15T07:34:07Z</time>
      </trkpt>
      <trkpt lat="35.215902328491211" lon="24.0425705909729">
        <ele>426.96300000000002</ele>
        <time>2011-06-15T07:34:13Z</time>
      </trkpt>
      <trkpt lat="35.21592378616333" lon="24.042549133300781">
        <ele>428.40499999999997</ele>
        <time>2011-06-15T07:34:19Z</time>
      </trkpt>
      <trkpt lat="35.215945243835449" lon="24.042549133300781">
        <ele>427.92399999999998</ele>
        <time>2011-06-15T07:34:23Z</time>
      </trkpt>
      <trkpt lat="35.215988159179688" lon="24.042549133300781">
        <ele>425.04000000000002</ele>
        <time>2011-06-15T07:34:30Z</time>
      </trkpt>
      <trkpt lat="35.216009616851807" lon="24.042527675628662">
        <ele>423.11700000000002</ele>
        <time>2011-06-15T07:34:41Z</time>
      </trkpt>
      <trkpt lat="35.216009616851807" lon="24.042506217956543">
        <ele>424.07900000000001</ele>
        <time>2011-06-15T07:34:45Z</time>
      </trkpt>
      <trkpt lat="35.216052532196045" lon="24.042441844940186">
        <ele>424.07900000000001</ele>
        <time>2011-06-15T07:34:53Z</time>
      </trkpt>
      <trkpt lat="35.216095447540283" lon="24.042377471923828">
        <ele>422.15600000000001</ele>
        <time>2011-06-15T07:34:59Z</time>
      </trkpt>
      <trkpt lat="35.216138362884521" lon="24.042313098907471">
        <ele>422.15600000000001</ele>
        <time>2011-06-15T07:35:09Z</time>
      </trkpt>
      <trkpt lat="35.21618127822876" lon="24.042248725891113">
        <ele>423.11700000000002</ele>
        <time>2011-06-15T07:35:19Z</time>
      </trkpt>
      <trkpt lat="35.21618127822876" lon="24.042162895202637">
        <ele>423.59800000000001</ele>
        <time>2011-06-15T07:35:39Z</time>
      </trkpt>
      <trkpt lat="35.21618127822876" lon="24.042141437530518">
        <ele>424.55900000000003</ele>
        <time>2011-06-15T07:35:50Z</time>
      </trkpt>
      <trkpt lat="35.216224193572998" lon="24.042098522186279">
        <ele>426.00099999999998</ele>
        <time>2011-06-15T07:35:59Z</time>
      </trkpt>
      <trkpt lat="35.216224193572998" lon="24.042098522186279">
        <ele>426.48200000000003</ele>
        <time>2011-06-15T07:36:00Z</time>
      </trkpt>
      <trkpt lat="35.216245651245117" lon="24.04207706451416">
        <ele>427.92399999999998</ele>
        <time>2011-06-15T07:36:07Z</time>
      </trkpt>
      <trkpt lat="35.216288566589355" lon="24.042055606842041">
        <ele>429.84699999999998</ele>
        <time>2011-06-15T07:36:18Z</time>
      </trkpt>
      <trkpt lat="35.216310024261475" lon="24.042034149169922">
        <ele>431.28899999999999</ele>
        <time>2011-06-15T07:36:23Z</time>
      </trkpt>
      <trkpt lat="35.216374397277832" lon="24.042034149169922">
        <ele>439.94</ele>
        <time>2011-06-15T07:36:45Z</time>
      </trkpt>
      <trkpt lat="35.216374397277832" lon="24.042034149169922">
        <ele>443.30500000000001</ele>
        <time>2011-06-15T07:36:53Z</time>
      </trkpt>
      <trkpt lat="35.216460227966309" lon="24.041969776153564">
        <ele>448.59199999999998</ele>
        <time>2011-06-15T07:37:09Z</time>
      </trkpt>
      <trkpt lat="35.216524600982666" lon="24.041948318481445">
        <ele>449.07299999999998</ele>
        <time>2011-06-15T07:37:22Z</time>
      </trkpt>
      <trkpt lat="35.216588973999023" lon="24.041905403137207">
        <ele>449.07299999999998</ele>
        <time>2011-06-15T07:37:35Z</time>
      </trkpt>
      <trkpt lat="35.216588973999023" lon="24.041883945465088">
        <ele>449.55399999999997</ele>
        <time>2011-06-15T07:37:40Z</time>
      </trkpt>
      <trkpt lat="35.216631889343262" lon="24.041862487792969">
        <ele>450.99599999999998</ele>
        <time>2011-06-15T07:37:48Z</time>
      </trkpt>
      <trkpt lat="35.216653347015381" lon="24.04181957244873">
        <ele>450.99599999999998</ele>
        <time>2011-06-15T07:37:54Z</time>
      </trkpt>
      <trkpt lat="35.216653347015381" lon="24.041776657104492">
        <ele>450.51499999999999</ele>
        <time>2011-06-15T07:38:00Z</time>
      </trkpt>
      <trkpt lat="35.216696262359619" lon="24.041755199432373">
        <ele>446.18900000000002</ele>
        <time>2011-06-15T07:38:11Z</time>
      </trkpt>
      <trkpt lat="35.216760635375977" lon="24.041712284088135">
        <ele>443.786</ele>
        <time>2011-06-15T07:38:23Z</time>
      </trkpt>
      <trkpt lat="35.216760635375977" lon="24.041712284088135">
        <ele>443.786</ele>
        <time>2011-06-15T07:38:25Z</time>
      </trkpt>
      <trkpt lat="35.216846466064453" lon="24.041690826416016">
        <ele>443.786</ele>
        <time>2011-06-15T07:38:36Z</time>
      </trkpt>
      <trkpt lat="35.216867923736572" lon="24.041669368743896">
        <ele>446.18900000000002</ele>
        <time>2011-06-15T07:38:46Z</time>
      </trkpt>
      <trkpt lat="35.216910839080811" lon="24.041669368743896">
        <ele>457.24400000000003</ele>
        <time>2011-06-15T07:39:15Z</time>
      </trkpt>
      <trkpt lat="35.216910839080811" lon="24.041647911071777">
        <ele>461.089</ele>
        <time>2011-06-15T07:39:38Z</time>
      </trkpt>
      <trkpt lat="35.21693229675293" lon="24.041604995727539">
        <ele>461.56999999999999</ele>
        <time>2011-06-15T07:39:42Z</time>
      </trkpt>
      <trkpt lat="35.21693229675293" lon="24.041562080383301">
        <ele>462.05099999999999</ele>
        <time>2011-06-15T07:39:45Z</time>
      </trkpt>
      <trkpt lat="35.216975212097168" lon="24.04158353805542">
        <ele>464.45400000000001</ele>
        <time>2011-06-15T07:39:56Z</time>
      </trkpt>
      <trkpt lat="35.216975212097168" lon="24.041626453399658">
        <ele>465.416</ele>
        <time>2011-06-15T07:40:00Z</time>
      </trkpt>
      <trkpt lat="35.216996669769287" lon="24.041626453399658">
        <ele>466.37700000000001</ele>
        <time>2011-06-15T07:40:05Z</time>
      </trkpt>
      <trkpt lat="35.217039585113525" lon="24.041626453399658">
        <ele>471.18299999999999</ele>
        <time>2011-06-15T07:40:17Z</time>
      </trkpt>
      <trkpt lat="35.217103958129883" lon="24.041626453399658">
        <ele>474.548</ele>
        <time>2011-06-15T07:40:31Z</time>
      </trkpt>
      <trkpt lat="35.217103958129883" lon="24.041626453399658">
        <ele>476.471</ele>
        <time>2011-06-15T07:40:35Z</time>
      </trkpt>
      <trkpt lat="35.217125415802002" lon="24.041604995727539">
        <ele>482.23899999999998</ele>
        <time>2011-06-15T07:40:45Z</time>
      </trkpt>
      <trkpt lat="35.217125415802002" lon="24.04158353805542">
        <ele>483.19999999999999</ele>
        <time>2011-06-15T07:40:48Z</time>
      </trkpt>
      <trkpt lat="35.217146873474121" lon="24.041540622711182">
        <ele>485.12200000000001</ele>
        <time>2011-06-15T07:40:55Z</time>
      </trkpt>
      <trkpt lat="35.217189788818359" lon="24.041519165039063">
        <ele>486.56400000000002</ele>
        <time>2011-06-15T07:41:08Z</time>
      </trkpt>
      <trkpt lat="35.217189788818359" lon="24.041519165039063">
        <ele>488.48700000000002</ele>
        <time>2011-06-15T07:41:16Z</time>
      </trkpt>
      <trkpt lat="35.217189788818359" lon="24.041540622711182">
        <ele>489.44799999999998</ele>
        <time>2011-06-15T07:41:26Z</time>
      </trkpt>
      <trkpt lat="35.217189788818359" lon="24.041519165039063">
        <ele>490.88999999999999</ele>
        <time>2011-06-15T07:41:37Z</time>
      </trkpt>
      <trkpt lat="35.217211246490479" lon="24.041519165039063">
        <ele>490.88999999999999</ele>
        <time>2011-06-15T07:41:39Z</time>
      </trkpt>
      <trkpt lat="35.217254161834717" lon="24.041497707366943">
        <ele>490.88999999999999</ele>
        <time>2011-06-15T07:41:47Z</time>
      </trkpt>
      <trkpt lat="35.217232704162598" lon="24.041497707366943">
        <ele>493.774</ele>
        <time>2011-06-15T07:41:56Z</time>
      </trkpt>
      <trkpt lat="35.217254161834717" lon="24.041497707366943">
        <ele>496.178</ele>
        <time>2011-06-15T07:42:04Z</time>
      </trkpt>
      <trkpt lat="35.217275619506836" lon="24.041519165039063">
        <ele>499.54199999999997</ele>
        <time>2011-06-15T07:42:11Z</time>
      </trkpt>
      <trkpt lat="35.217297077178955" lon="24.041519165039063">
        <ele>503.86799999999999</ele>
        <time>2011-06-15T07:42:23Z</time>
      </trkpt>
      <trkpt lat="35.217297077178955" lon="24.041497707366943">
        <ele>511.55900000000003</ele>
        <time>2011-06-15T07:42:35Z</time>
      </trkpt>
      <trkpt lat="35.217339992523193" lon="24.041476249694824">
        <ele>518.76900000000001</ele>
        <time>2011-06-15T07:42:53Z</time>
      </trkpt>
      <trkpt lat="35.217361450195313" lon="24.041476249694824">
        <ele>519.73000000000002</ele>
        <time>2011-06-15T07:43:02Z</time>
      </trkpt>
      <trkpt lat="35.217404365539551" lon="24.041476249694824">
        <ele>518.28800000000001</ele>
        <time>2011-06-15T07:43:13Z</time>
      </trkpt>
      <trkpt lat="35.217404365539551" lon="24.041411876678467">
        <ele>518.28800000000001</ele>
        <time>2011-06-15T07:43:21Z</time>
      </trkpt>
      <trkpt lat="35.217404365539551" lon="24.04132604598999">
        <ele>517.327</ele>
        <time>2011-06-15T07:43:29Z</time>
      </trkpt>
      <trkpt lat="35.217447280883789" lon="24.041283130645752">
        <ele>519.24900000000002</ele>
        <time>2011-06-15T07:43:41Z</time>
      </trkpt>
      <trkpt lat="35.217511653900146" lon="24.041218757629395">
        <ele>519.24900000000002</ele>
        <time>2011-06-15T07:43:50Z</time>
      </trkpt>
      <trkpt lat="35.217576026916504" lon="24.041047096252441">
        <ele>520.69100000000003</ele>
        <time>2011-06-15T07:44:29Z</time>
      </trkpt>
      <trkpt lat="35.217490196228027" lon="24.041047096252441">
        <ele>520.21100000000001</ele>
        <time>2011-06-15T07:44:39Z</time>
      </trkpt>
      <trkpt lat="35.217533111572266" lon="24.040961265563965">
        <ele>517.327</ele>
        <time>2011-06-15T07:44:51Z</time>
      </trkpt>
      <trkpt lat="35.217576026916504" lon="24.040939807891846">
        <ele>518.28800000000001</ele>
        <time>2011-06-15T07:45:01Z</time>
      </trkpt>
      <trkpt lat="35.217618942260742" lon="24.040896892547607">
        <ele>518.28800000000001</ele>
        <time>2011-06-15T07:45:15Z</time>
      </trkpt>
      <trkpt lat="35.217597484588623" lon="24.040853977203369">
        <ele>521.65300000000002</ele>
        <time>2011-06-15T07:45:26Z</time>
      </trkpt>
      <trkpt lat="35.217597484588623" lon="24.04083251953125">
        <ele>522.61400000000003</ele>
        <time>2011-06-15T07:45:32Z</time>
      </trkpt>
      <trkpt lat="35.217597484588623" lon="24.040811061859131">
        <ele>523.09500000000003</ele>
        <time>2011-06-15T07:45:36Z</time>
      </trkpt>
      <trkpt lat="35.217597484588623" lon="24.040768146514893">
        <ele>524.53599999999994</ele>
        <time>2011-06-15T07:45:44Z</time>
      </trkpt>
      <trkpt lat="35.217618942260742" lon="24.040746688842773">
        <ele>525.49800000000005</ele>
        <time>2011-06-15T07:45:48Z</time>
      </trkpt>
      <trkpt lat="35.217618942260742" lon="24.040746688842773">
        <ele>528.86300000000006</ele>
        <time>2011-06-15T07:45:58Z</time>
      </trkpt>
      <trkpt lat="35.217618942260742" lon="24.040725231170654">
        <ele>527.90099999999995</ele>
        <time>2011-06-15T07:46:10Z</time>
      </trkpt>
      <trkpt lat="35.217640399932861" lon="24.040725231170654">
        <ele>527.41999999999996</ele>
        <time>2011-06-15T07:46:11Z</time>
      </trkpt>
      <trkpt lat="35.21766185760498" lon="24.040682315826416">
        <ele>527.90099999999995</ele>
        <time>2011-06-15T07:46:20Z</time>
      </trkpt>
      <trkpt lat="35.217640399932861" lon="24.040682315826416">
        <ele>525.49800000000005</ele>
        <time>2011-06-15T07:46:36Z</time>
      </trkpt>
      <trkpt lat="35.217640399932861" lon="24.040703773498535">
        <ele>525.49800000000005</ele>
        <time>2011-06-15T07:46:39Z</time>
      </trkpt>
      <trkpt lat="35.21766185760498" lon="24.040725231170654">
        <ele>526.94000000000005</ele>
        <time>2011-06-15T07:46:44Z</time>
      </trkpt>
      <trkpt lat="35.2176833152771" lon="24.040746688842773">
        <ele>529.34299999999996</ele>
        <time>2011-06-15T07:46:52Z</time>
      </trkpt>
      <trkpt lat="35.2176833152771" lon="24.040703773498535">
        <ele>528.86300000000006</ele>
        <time>2011-06-15T07:47:05Z</time>
      </trkpt>
      <trkpt lat="35.217726230621338" lon="24.040660858154297">
        <ele>528.38199999999995</ele>
        <time>2011-06-15T07:47:14Z</time>
      </trkpt>
      <trkpt lat="35.217747688293457" lon="24.040617942810059">
        <ele>528.86300000000006</ele>
        <time>2011-06-15T07:47:22Z</time>
      </trkpt>
      <trkpt lat="35.217769145965576" lon="24.04057502746582">
        <ele>528.86300000000006</ele>
        <time>2011-06-15T07:47:29Z</time>
      </trkpt>
      <trkpt lat="35.217769145965576" lon="24.040553569793701">
        <ele>528.38199999999995</ele>
        <time>2011-06-15T07:47:40Z</time>
      </trkpt>
      <trkpt lat="35.217747688293457" lon="24.040510654449463">
        <ele>528.38199999999995</ele>
        <time>2011-06-15T07:47:44Z</time>
      </trkpt>
      <trkpt lat="35.217726230621338" lon="24.040489196777344">
        <ele>527.41999999999996</ele>
        <time>2011-06-15T07:47:56Z</time>
      </trkpt>
      <trkpt lat="35.2176833152771" lon="24.040424823760986">
        <ele>528.86300000000006</ele>
        <time>2011-06-15T07:48:16Z</time>
      </trkpt>
      <trkpt lat="35.217704772949219" lon="24.040360450744629">
        <ele>527.90099999999995</ele>
        <time>2011-06-15T07:48:24Z</time>
      </trkpt>
      <trkpt lat="35.217704772949219" lon="24.040317535400391">
        <ele>529.34299999999996</ele>
        <time>2011-06-15T07:48:35Z</time>
      </trkpt>
      <trkpt lat="35.217747688293457" lon="24.040274620056152">
        <ele>530.78499999999997</ele>
        <time>2011-06-15T07:48:47Z</time>
      </trkpt>
      <trkpt lat="35.217769145965576" lon="24.040274620056152">
        <ele>530.78499999999997</ele>
        <time>2011-06-15T07:48:49Z</time>
      </trkpt>
      <trkpt lat="35.217790603637695" lon="24.040210247039795">
        <ele>533.18799999999999</ele>
        <time>2011-06-15T07:49:00Z</time>
      </trkpt>
      <trkpt lat="35.217812061309814" lon="24.040210247039795">
        <ele>533.66899999999998</ele>
        <time>2011-06-15T07:49:03Z</time>
      </trkpt>
      <trkpt lat="35.217790603637695" lon="24.040167331695557">
        <ele>532.70799999999997</ele>
        <time>2011-06-15T07:49:11Z</time>
      </trkpt>
      <trkpt lat="35.217812061309814" lon="24.040102958679199">
        <ele>533.18799999999999</ele>
        <time>2011-06-15T07:49:19Z</time>
      </trkpt>
      <trkpt lat="35.217812061309814" lon="24.040038585662842">
        <ele>533.18799999999999</ele>
        <time>2011-06-15T07:49:29Z</time>
      </trkpt>
      <trkpt lat="35.217812061309814" lon="24.040017127990723">
        <ele>533.66899999999998</ele>
        <time>2011-06-15T07:49:32Z</time>
      </trkpt>
      <trkpt lat="35.217833518981934" lon="24.039995670318604">
        <ele>533.18799999999999</ele>
        <time>2011-06-15T07:49:34Z</time>
      </trkpt>
      <trkpt lat="35.217854976654053" lon="24.039909839630127">
        <ele>531.74599999999998</ele>
        <time>2011-06-15T07:49:43Z</time>
      </trkpt>
      <trkpt lat="35.217854976654053" lon="24.039866924285889">
        <ele>531.26599999999996</ele>
        <time>2011-06-15T07:49:48Z</time>
      </trkpt>
      <trkpt lat="35.217854976654053" lon="24.03984546661377">
        <ele>531.74599999999998</ele>
        <time>2011-06-15T07:49:54Z</time>
      </trkpt>
      <trkpt lat="35.217897891998291" lon="24.03984546661377">
        <ele>532.70799999999997</ele>
        <time>2011-06-15T07:50:00Z</time>
      </trkpt>
      <trkpt lat="35.217940807342529" lon="24.03982400894165">
        <ele>535.59199999999998</ele>
        <time>2011-06-15T07:50:11Z</time>
      </trkpt>
      <trkpt lat="35.217940807342529" lon="24.039759635925293">
        <ele>536.553</ele>
        <time>2011-06-15T07:50:20Z</time>
      </trkpt>
      <trkpt lat="35.217940807342529" lon="24.039738178253174">
        <ele>536.072</ele>
        <time>2011-06-15T07:50:25Z</time>
      </trkpt>
      <trkpt lat="35.217962265014648" lon="24.039673805236816">
        <ele>537.995</ele>
        <time>2011-06-15T07:50:31Z</time>
      </trkpt>
      <trkpt lat="35.217983722686768" lon="24.039673805236816">
        <ele>539.91800000000001</ele>
        <time>2011-06-15T07:50:36Z</time>
      </trkpt>
      <trkpt lat="35.218005180358887" lon="24.039652347564697">
        <ele>540.87900000000002</ele>
        <time>2011-06-15T07:50:39Z</time>
      </trkpt>
      <trkpt lat="35.218069553375244" lon="24.039630889892578">
        <ele>543.76300000000003</ele>
        <time>2011-06-15T07:50:49Z</time>
      </trkpt>
      <trkpt lat="35.218091011047363" lon="24.03958797454834">
        <ele>547.12699999999995</ele>
        <time>2011-06-15T07:51:00Z</time>
      </trkpt>
      <trkpt lat="35.218091011047363" lon="24.03958797454834">
        <ele>550.01099999999997</ele>
        <time>2011-06-15T07:51:15Z</time>
      </trkpt>
      <trkpt lat="35.218112468719482" lon="24.039545059204102">
        <ele>554.81799999999998</ele>
        <time>2011-06-15T07:51:24Z</time>
      </trkpt>
      <trkpt lat="35.218112468719482" lon="24.039523601531982">
        <ele>556.25999999999999</ele>
        <time>2011-06-15T07:51:30Z</time>
      </trkpt>
      <trkpt lat="35.218155384063721" lon="24.039480686187744">
        <ele>557.702</ele>
        <time>2011-06-15T07:51:38Z</time>
      </trkpt>
      <trkpt lat="35.218133926391602" lon="24.039437770843506">
        <ele>558.66300000000001</ele>
        <time>2011-06-15T07:51:45Z</time>
      </trkpt>
      <trkpt lat="35.218133926391602" lon="24.039416313171387">
        <ele>559.14400000000001</ele>
        <time>2011-06-15T07:51:53Z</time>
      </trkpt>
      <trkpt lat="35.218155384063721" lon="24.039373397827148">
        <ele>560.58600000000001</ele>
        <time>2011-06-15T07:52:01Z</time>
      </trkpt>
      <trkpt lat="35.21817684173584" lon="24.03933048248291">
        <ele>560.10500000000002</ele>
        <time>2011-06-15T07:52:04Z</time>
      </trkpt>
      <trkpt lat="35.218198299407959" lon="24.039309024810791">
        <ele>560.10500000000002</ele>
        <time>2011-06-15T07:52:07Z</time>
      </trkpt>
      <trkpt lat="35.218219757080078" lon="24.039244651794434">
        <ele>559.625</ele>
        <time>2011-06-15T07:52:15Z</time>
      </trkpt>
      <trkpt lat="35.218219757080078" lon="24.039244651794434">
        <ele>558.66300000000001</ele>
        <time>2011-06-15T07:52:22Z</time>
      </trkpt>
      <trkpt lat="35.218262672424316" lon="24.039201736450195">
        <ele>559.625</ele>
        <time>2011-06-15T07:52:31Z</time>
      </trkpt>
      <trkpt lat="35.218348503112793" lon="24.0390944480896">
        <ele>552.41499999999996</ele>
        <time>2011-06-15T07:53:04Z</time>
      </trkpt>
      <trkpt lat="35.218327045440674" lon="24.039030075073242">
        <ele>550.97299999999996</ele>
        <time>2011-06-15T07:53:13Z</time>
      </trkpt>
      <trkpt lat="35.218348503112793" lon="24.039008617401123">
        <ele>550.97299999999996</ele>
        <time>2011-06-15T07:53:17Z</time>
      </trkpt>
      <trkpt lat="35.218369960784912" lon="24.038944244384766">
        <ele>551.93399999999997</ele>
        <time>2011-06-15T07:53:22Z</time>
      </trkpt>
      <trkpt lat="35.218369960784912" lon="24.038879871368408">
        <ele>552.41499999999996</ele>
        <time>2011-06-15T07:53:28Z</time>
      </trkpt>
      <trkpt lat="35.218369960784912" lon="24.038794040679932">
        <ele>553.85699999999997</ele>
        <time>2011-06-15T07:53:36Z</time>
      </trkpt>
      <trkpt lat="35.21841287612915" lon="24.038708209991455">
        <ele>556.74099999999999</ele>
        <time>2011-06-15T07:53:46Z</time>
      </trkpt>
      <trkpt lat="35.21843433380127" lon="24.038643836975098">
        <ele>558.18299999999999</ele>
        <time>2011-06-15T07:53:54Z</time>
      </trkpt>
      <trkpt lat="35.218455791473389" lon="24.03857946395874">
        <ele>560.58600000000001</ele>
        <time>2011-06-15T07:54:02Z</time>
      </trkpt>
      <trkpt lat="35.218477249145508" lon="24.038472175598145">
        <ele>565.39300000000003</ele>
        <time>2011-06-15T07:54:13Z</time>
      </trkpt>
      <trkpt lat="35.218477249145508" lon="24.038386344909668">
        <ele>568.75699999999995</ele>
        <time>2011-06-15T07:54:22Z</time>
      </trkpt>
      <trkpt lat="35.218498706817627" lon="24.038364887237549">
        <ele>569.71900000000005</ele>
        <time>2011-06-15T07:54:26Z</time>
      </trkpt>
      <trkpt lat="35.218498706817627" lon="24.038300514221191">
        <ele>575.00599999999997</ele>
        <time>2011-06-15T07:54:34Z</time>
      </trkpt>
      <trkpt lat="35.218477249145508" lon="24.038214683532715">
        <ele>577.88999999999999</ele>
        <time>2011-06-15T07:54:43Z</time>
      </trkpt>
      <trkpt lat="35.218477249145508" lon="24.038193225860596">
        <ele>578.851</ele>
        <time>2011-06-15T07:54:45Z</time>
      </trkpt>
      <trkpt lat="35.218477249145508" lon="24.038150310516357">
        <ele>581.73500000000001</ele>
        <time>2011-06-15T07:54:52Z</time>
      </trkpt>
      <trkpt lat="35.218498706817627" lon="24.038107395172119">
        <ele>582.21600000000001</ele>
        <time>2011-06-15T07:54:55Z</time>
      </trkpt>
      <trkpt lat="35.218541622161865" lon="24.038064479827881">
        <ele>581.73500000000001</ele>
        <time>2011-06-15T07:55:05Z</time>
      </trkpt>
      <trkpt lat="35.218541622161865" lon="24.038043022155762">
        <ele>581.73500000000001</ele>
        <time>2011-06-15T07:55:06Z</time>
      </trkpt>
      <trkpt lat="35.218541622161865" lon="24.038000106811523">
        <ele>581.73500000000001</ele>
        <time>2011-06-15T07:55:09Z</time>
      </trkpt>
      <trkpt lat="35.218541622161865" lon="24.037935733795166">
        <ele>580.774</ele>
        <time>2011-06-15T07:55:17Z</time>
      </trkpt>
      <trkpt lat="35.218563079833984" lon="24.037892818450928">
        <ele>581.25400000000002</ele>
        <time>2011-06-15T07:55:25Z</time>
      </trkpt>
      <trkpt lat="35.218541622161865" lon="24.037892818450928">
        <ele>581.25400000000002</ele>
        <time>2011-06-15T07:55:27Z</time>
      </trkpt>
      <trkpt lat="35.218563079833984" lon="24.03782844543457">
        <ele>579.33199999999999</ele>
        <time>2011-06-15T07:55:36Z</time>
      </trkpt>
      <trkpt lat="35.218563079833984" lon="24.037785530090332">
        <ele>577.40899999999999</ele>
        <time>2011-06-15T07:55:42Z</time>
      </trkpt>
      <trkpt lat="35.218541622161865" lon="24.037742614746094">
        <ele>577.88999999999999</ele>
        <time>2011-06-15T07:55:47Z</time>
      </trkpt>
      <trkpt lat="35.218563079833984" lon="24.037656784057617">
        <ele>578.37</ele>
        <time>2011-06-15T07:55:55Z</time>
      </trkpt>
      <trkpt lat="35.218563079833984" lon="24.037656784057617">
        <ele>578.37</ele>
        <time>2011-06-15T07:55:56Z</time>
      </trkpt>
      <trkpt lat="35.218563079833984" lon="24.037613868713379">
        <ele>578.37</ele>
        <time>2011-06-15T07:56:00Z</time>
      </trkpt>
      <trkpt lat="35.218563079833984" lon="24.037570953369141">
        <ele>578.37</ele>
        <time>2011-06-15T07:56:04Z</time>
      </trkpt>
      <trkpt lat="35.218563079833984" lon="24.037528038024902">
        <ele>578.37</ele>
        <time>2011-06-15T07:56:08Z</time>
      </trkpt>
      <trkpt lat="35.218563079833984" lon="24.037485122680664">
        <ele>578.37</ele>
        <time>2011-06-15T07:56:12Z</time>
      </trkpt>
      <trkpt lat="35.218563079833984" lon="24.037442207336426">
        <ele>578.37</ele>
        <time>2011-06-15T07:56:18Z</time>
      </trkpt>
      <trkpt lat="35.218563079833984" lon="24.037377834320068">
        <ele>577.40899999999999</ele>
        <time>2011-06-15T07:56:22Z</time>
      </trkpt>
      <trkpt lat="35.218541622161865" lon="24.03733491897583">
        <ele>575.48599999999999</ele>
        <time>2011-06-15T07:56:28Z</time>
      </trkpt>
      <trkpt lat="35.218520164489746" lon="24.037313461303711">
        <ele>575.00599999999997</ele>
        <time>2011-06-15T07:56:31Z</time>
      </trkpt>
      <trkpt lat="35.218520164489746" lon="24.037292003631592">
        <ele>575.00599999999997</ele>
        <time>2011-06-15T07:56:33Z</time>
      </trkpt>
      <trkpt lat="35.218498706817627" lon="24.037227630615234">
        <ele>577.88999999999999</ele>
        <time>2011-06-15T07:56:39Z</time>
      </trkpt>
      <trkpt lat="35.218477249145508" lon="24.037141799926758">
        <ele>579.81200000000001</ele>
        <time>2011-06-15T07:56:46Z</time>
      </trkpt>
      <trkpt lat="35.218498706817627" lon="24.0370774269104">
        <ele>582.21600000000001</ele>
        <time>2011-06-15T07:56:52Z</time>
      </trkpt>
      <trkpt lat="35.218520164489746" lon="24.037055969238281">
        <ele>582.69600000000003</ele>
        <time>2011-06-15T07:56:55Z</time>
      </trkpt>
      <trkpt lat="35.218520164489746" lon="24.037034511566162">
        <ele>583.17700000000002</ele>
        <time>2011-06-15T07:56:58Z</time>
      </trkpt>
      <trkpt lat="35.218498706817627" lon="24.036991596221924">
        <ele>584.13800000000003</ele>
        <time>2011-06-15T07:57:03Z</time>
      </trkpt>
      <trkpt lat="35.218477249145508" lon="24.036970138549805">
        <ele>584.61900000000003</ele>
        <time>2011-06-15T07:57:06Z</time>
      </trkpt>
      <trkpt lat="35.218498706817627" lon="24.036948680877686">
        <ele>584.13800000000003</ele>
        <time>2011-06-15T07:57:09Z</time>
      </trkpt>
      <trkpt lat="35.218498706817627" lon="24.036905765533447">
        <ele>584.61900000000003</ele>
        <time>2011-06-15T07:57:12Z</time>
      </trkpt>
      <trkpt lat="35.218520164489746" lon="24.036862850189209">
        <ele>585.10000000000002</ele>
        <time>2011-06-15T07:57:15Z</time>
      </trkpt>
      <trkpt lat="35.218498706817627" lon="24.036777019500732">
        <ele>586.06100000000004</ele>
        <time>2011-06-15T07:57:23Z</time>
      </trkpt>
      <trkpt lat="35.218498706817627" lon="24.036755561828613">
        <ele>586.54200000000003</ele>
        <time>2011-06-15T07:57:26Z</time>
      </trkpt>
      <trkpt lat="35.218520164489746" lon="24.036712646484375">
        <ele>587.02200000000005</ele>
        <time>2011-06-15T07:57:31Z</time>
      </trkpt>
      <trkpt lat="35.218584537506104" lon="24.036626815795898">
        <ele>587.98299999999995</ele>
        <time>2011-06-15T07:57:38Z</time>
      </trkpt>
      <trkpt lat="35.218584537506104" lon="24.03658390045166">
        <ele>588.46400000000006</ele>
        <time>2011-06-15T07:57:43Z</time>
      </trkpt>
      <trkpt lat="35.218605995178223" lon="24.036540985107422">
        <ele>588.46400000000006</ele>
        <time>2011-06-15T07:57:47Z</time>
      </trkpt>
      <trkpt lat="35.218648910522461" lon="24.036433696746826">
        <ele>590.38699999999994</ele>
        <time>2011-06-15T07:57:58Z</time>
      </trkpt>
      <trkpt lat="35.21867036819458" lon="24.03634786605835">
        <ele>591.82899999999995</ele>
        <time>2011-06-15T07:58:06Z</time>
      </trkpt>
      <trkpt lat="35.218691825866699" lon="24.03632640838623">
        <ele>592.30999999999995</ele>
        <time>2011-06-15T07:58:10Z</time>
      </trkpt>
      <trkpt lat="35.218713283538818" lon="24.036304950714111">
        <ele>592.30999999999995</ele>
        <time>2011-06-15T07:58:13Z</time>
      </trkpt>
      <trkpt lat="35.218713283538818" lon="24.036262035369873">
        <ele>594.71299999999997</ele>
        <time>2011-06-15T07:58:21Z</time>
      </trkpt>
      <trkpt lat="35.218713283538818" lon="24.036262035369873">
        <ele>594.71299999999997</ele>
        <time>2011-06-15T07:58:24Z</time>
      </trkpt>
      <trkpt lat="35.218734741210937" lon="24.036219120025635">
        <ele>596.15499999999997</ele>
        <time>2011-06-15T07:58:35Z</time>
      </trkpt>
      <trkpt lat="35.218777656555176" lon="24.036197662353516">
        <ele>596.63499999999999</ele>
        <time>2011-06-15T07:58:39Z</time>
      </trkpt>
      <trkpt lat="35.218799114227295" lon="24.036197662353516">
        <ele>597.59699999999998</ele>
        <time>2011-06-15T07:58:42Z</time>
      </trkpt>
      <trkpt lat="35.218799114227295" lon="24.036176204681396">
        <ele>598.077</ele>
        <time>2011-06-15T07:58:44Z</time>
      </trkpt>
      <trkpt lat="35.218820571899414" lon="24.036133289337158">
        <ele>599.03899999999999</ele>
        <time>2011-06-15T07:58:48Z</time>
      </trkpt>
      <trkpt lat="35.218799114227295" lon="24.036068916320801">
        <ele>599.51900000000001</ele>
        <time>2011-06-15T07:58:56Z</time>
      </trkpt>
      <trkpt lat="35.218777656555176" lon="24.036026000976563">
        <ele>598.55799999999999</ele>
        <time>2011-06-15T07:59:19Z</time>
      </trkpt>
      <trkpt lat="35.218777656555176" lon="24.035983085632324">
        <ele>598.55799999999999</ele>
        <time>2011-06-15T07:59:28Z</time>
      </trkpt>
      <trkpt lat="35.218777656555176" lon="24.035961627960205">
        <ele>598.55799999999999</ele>
        <time>2011-06-15T07:59:31Z</time>
      </trkpt>
      <trkpt lat="35.218756198883057" lon="24.035940170288086">
        <ele>598.55799999999999</ele>
        <time>2011-06-15T07:59:34Z</time>
      </trkpt>
      <trkpt lat="35.218756198883057" lon="24.035918712615967">
        <ele>598.077</ele>
        <time>2011-06-15T07:59:36Z</time>
      </trkpt>
      <trkpt lat="35.218734741210937" lon="24.035875797271729">
        <ele>598.55799999999999</ele>
        <time>2011-06-15T07:59:48Z</time>
      </trkpt>
      <trkpt lat="35.218756198883057" lon="24.03583288192749">
        <ele>598.077</ele>
        <time>2011-06-15T07:59:59Z</time>
      </trkpt>
      <trkpt lat="35.218756198883057" lon="24.03583288192749">
        <ele>598.55799999999999</ele>
        <time>2011-06-15T08:00:00Z</time>
      </trkpt>
      <trkpt lat="35.218799114227295" lon="24.035768508911133">
        <ele>600.96100000000001</ele>
        <time>2011-06-15T08:00:08Z</time>
      </trkpt>
      <trkpt lat="35.218799114227295" lon="24.035747051239014">
        <ele>601.44200000000001</ele>
        <time>2011-06-15T08:00:10Z</time>
      </trkpt>
      <trkpt lat="35.218820571899414" lon="24.035704135894775">
        <ele>601.44200000000001</ele>
        <time>2011-06-15T08:00:14Z</time>
      </trkpt>
      <trkpt lat="35.218842029571533" lon="24.035661220550537">
        <ele>600.96100000000001</ele>
        <time>2011-06-15T08:00:18Z</time>
      </trkpt>
      <trkpt lat="35.218842029571533" lon="24.035661220550537">
        <ele>600.48099999999999</ele>
        <time>2011-06-15T08:00:21Z</time>
      </trkpt>
      <trkpt lat="35.218863487243652" lon="24.035618305206299">
        <ele>600.96100000000001</ele>
        <time>2011-06-15T08:00:26Z</time>
      </trkpt>
      <trkpt lat="35.218863487243652" lon="24.035618305206299">
        <ele>600.96100000000001</ele>
        <time>2011-06-15T08:00:28Z</time>
      </trkpt>
      <trkpt lat="35.218863487243652" lon="24.035575389862061">
        <ele>601.44200000000001</ele>
        <time>2011-06-15T08:00:39Z</time>
      </trkpt>
      <trkpt lat="35.218949317932129" lon="24.035489559173584">
        <ele>603.36500000000001</ele>
        <time>2011-06-15T08:01:01Z</time>
      </trkpt>
      <trkpt lat="35.218970775604248" lon="24.035468101501465">
        <ele>603.36500000000001</ele>
        <time>2011-06-15T08:01:08Z</time>
      </trkpt>
      <trkpt lat="35.218970775604248" lon="24.035446643829346">
        <ele>604.32600000000002</ele>
        <time>2011-06-15T08:01:12Z</time>
      </trkpt>
      <trkpt lat="35.218992233276367" lon="24.035403728485107">
        <ele>604.32600000000002</ele>
        <time>2011-06-15T08:01:16Z</time>
      </trkpt>
      <trkpt lat="35.219035148620605" lon="24.035382270812988">
        <ele>603.84500000000003</ele>
        <time>2011-06-15T08:01:19Z</time>
      </trkpt>
      <trkpt lat="35.219035148620605" lon="24.03533935546875">
        <ele>607.21000000000004</ele>
        <time>2011-06-15T08:01:27Z</time>
      </trkpt>
      <trkpt lat="35.219056606292725" lon="24.035274982452393">
        <ele>610.09400000000005</ele>
        <time>2011-06-15T08:01:34Z</time>
      </trkpt>
      <trkpt lat="35.219056606292725" lon="24.035253524780273">
        <ele>611.05499999999995</ele>
        <time>2011-06-15T08:01:36Z</time>
      </trkpt>
      <trkpt lat="35.219078063964844" lon="24.035253524780273">
        <ele>611.05499999999995</ele>
        <time>2011-06-15T08:01:38Z</time>
      </trkpt>
      <trkpt lat="35.219099521636963" lon="24.035210609436035">
        <ele>611.53599999999994</ele>
        <time>2011-06-15T08:01:41Z</time>
      </trkpt>
      <trkpt lat="35.219120979309082" lon="24.035189151763916">
        <ele>611.05499999999995</ele>
        <time>2011-06-15T08:01:45Z</time>
      </trkpt>
      <trkpt lat="35.219142436981201" lon="24.035146236419678">
        <ele>611.53599999999994</ele>
        <time>2011-06-15T08:01:50Z</time>
      </trkpt>
      <trkpt lat="35.219185352325439" lon="24.03508186340332">
        <ele>612.49699999999996</ele>
        <time>2011-06-15T08:01:57Z</time>
      </trkpt>
      <trkpt lat="35.219185352325439" lon="24.035060405731201">
        <ele>612.49699999999996</ele>
        <time>2011-06-15T08:02:01Z</time>
      </trkpt>
      <trkpt lat="35.219249725341797" lon="24.034996032714844">
        <ele>613.93899999999996</ele>
        <time>2011-06-15T08:02:09Z</time>
      </trkpt>
      <trkpt lat="35.219292640686035" lon="24.034953117370605">
        <ele>613.93899999999996</ele>
        <time>2011-06-15T08:02:18Z</time>
      </trkpt>
      <trkpt lat="35.219314098358154" lon="24.034910202026367">
        <ele>612.97799999999995</ele>
        <time>2011-06-15T08:02:26Z</time>
      </trkpt>
      <trkpt lat="35.219399929046631" lon="24.03484582901001">
        <ele>611.05499999999995</ele>
        <time>2011-06-15T08:02:42Z</time>
      </trkpt>
      <trkpt lat="35.21942138671875" lon="24.034802913665771">
        <ele>611.53599999999994</ele>
        <time>2011-06-15T08:02:48Z</time>
      </trkpt>
      <trkpt lat="35.219399929046631" lon="24.034738540649414">
        <ele>613.45799999999997</ele>
        <time>2011-06-15T08:02:53Z</time>
      </trkpt>
      <trkpt lat="35.219357013702393" lon="24.034652709960937">
        <ele>613.93899999999996</ele>
        <time>2011-06-15T08:03:02Z</time>
      </trkpt>
      <trkpt lat="35.219292640686035" lon="24.034609794616699">
        <ele>614.89999999999998</ele>
        <time>2011-06-15T08:03:06Z</time>
      </trkpt>
      <trkpt lat="35.219292640686035" lon="24.034566879272461">
        <ele>613.93899999999996</ele>
        <time>2011-06-15T08:03:11Z</time>
      </trkpt>
      <trkpt lat="35.219271183013916" lon="24.034523963928223">
        <ele>612.49699999999996</ele>
        <time>2011-06-15T08:03:17Z</time>
      </trkpt>
      <trkpt lat="35.219249725341797" lon="24.034459590911865">
        <ele>611.05499999999995</ele>
        <time>2011-06-15T08:03:23Z</time>
      </trkpt>
      <trkpt lat="35.219185352325439" lon="24.034395217895508">
        <ele>610.09400000000005</ele>
        <time>2011-06-15T08:03:30Z</time>
      </trkpt>
      <trkpt lat="35.21916389465332" lon="24.03435230255127">
        <ele>610.09400000000005</ele>
        <time>2011-06-15T08:03:34Z</time>
      </trkpt>
      <trkpt lat="35.219120979309082" lon="24.034287929534912">
        <ele>611.05499999999995</ele>
        <time>2011-06-15T08:03:39Z</time>
      </trkpt>
      <trkpt lat="35.219120979309082" lon="24.034245014190674">
        <ele>611.53599999999994</ele>
        <time>2011-06-15T08:03:43Z</time>
      </trkpt>
      <trkpt lat="35.219078063964844" lon="24.034180641174316">
        <ele>612.97799999999995</ele>
        <time>2011-06-15T08:03:47Z</time>
      </trkpt>
      <trkpt lat="35.219078063964844" lon="24.034159183502197">
        <ele>612.97799999999995</ele>
        <time>2011-06-15T08:03:48Z</time>
      </trkpt>
      <trkpt lat="35.219078063964844" lon="24.034073352813721">
        <ele>613.45799999999997</ele>
        <time>2011-06-15T08:03:54Z</time>
      </trkpt>
      <trkpt lat="35.219078063964844" lon="24.033923149108887">
        <ele>613.93899999999996</ele>
        <time>2011-06-15T08:04:03Z</time>
      </trkpt>
      <trkpt lat="35.219078063964844" lon="24.033880233764648">
        <ele>613.93899999999996</ele>
        <time>2011-06-15T08:04:06Z</time>
      </trkpt>
      <trkpt lat="35.219078063964844" lon="24.03383731842041">
        <ele>613.93899999999996</ele>
        <time>2011-06-15T08:04:08Z</time>
      </trkpt>
      <trkpt lat="35.219078063964844" lon="24.033772945404053">
        <ele>614.41999999999996</ele>
        <time>2011-06-15T08:04:12Z</time>
      </trkpt>
      <trkpt lat="35.219078063964844" lon="24.033772945404053">
        <ele>614.89999999999998</ele>
        <time>2011-06-15T08:04:13Z</time>
      </trkpt>
      <trkpt lat="35.219056606292725" lon="24.033665657043457">
        <ele>617.30399999999997</ele>
        <time>2011-06-15T08:04:20Z</time>
      </trkpt>
      <trkpt lat="35.219056606292725" lon="24.033493995666504">
        <ele>617.30399999999997</ele>
        <time>2011-06-15T08:04:30Z</time>
      </trkpt>
      <trkpt lat="35.219056606292725" lon="24.033429622650146">
        <ele>616.82299999999998</ele>
        <time>2011-06-15T08:04:34Z</time>
      </trkpt>
      <trkpt lat="35.219056606292725" lon="24.03334379196167">
        <ele>617.78399999999999</ele>
        <time>2011-06-15T08:04:40Z</time>
      </trkpt>
      <trkpt lat="35.219035148620605" lon="24.033172130584717">
        <ele>617.30399999999997</ele>
        <time>2011-06-15T08:04:50Z</time>
      </trkpt>
      <trkpt lat="35.219035148620605" lon="24.033107757568359">
        <ele>617.30399999999997</ele>
        <time>2011-06-15T08:04:53Z</time>
      </trkpt>
      <trkpt lat="35.219056606292725" lon="24.032871723175049">
        <ele>617.78399999999999</ele>
        <time>2011-06-15T08:05:06Z</time>
      </trkpt>
      <trkpt lat="35.219056606292725" lon="24.032678604125977">
        <ele>617.30399999999997</ele>
        <time>2011-06-15T08:05:19Z</time>
      </trkpt>
      <trkpt lat="35.219078063964844" lon="24.0325927734375">
        <ele>617.30399999999997</ele>
        <time>2011-06-15T08:05:24Z</time>
      </trkpt>
      <trkpt lat="35.219099521636963" lon="24.032549858093262">
        <ele>616.82299999999998</ele>
        <time>2011-06-15T08:05:28Z</time>
      </trkpt>
      <trkpt lat="35.219120979309082" lon="24.032464027404785">
        <ele>617.30399999999997</ele>
        <time>2011-06-15T08:05:33Z</time>
      </trkpt>
      <trkpt lat="35.219142436981201" lon="24.032421112060547">
        <ele>617.78399999999999</ele>
        <time>2011-06-15T08:05:36Z</time>
      </trkpt>
      <trkpt lat="35.21916389465332" lon="24.032292366027832">
        <ele>617.30399999999997</ele>
        <time>2011-06-15T08:05:44Z</time>
      </trkpt>
      <trkpt lat="35.219185352325439" lon="24.032270908355713">
        <ele>617.30399999999997</ele>
        <time>2011-06-15T08:05:45Z</time>
      </trkpt>
      <trkpt lat="35.219206809997559" lon="24.032163619995117">
        <ele>617.30399999999997</ele>
        <time>2011-06-15T08:05:50Z</time>
      </trkpt>
      <trkpt lat="35.219206809997559" lon="24.031991958618164">
        <ele>617.78399999999999</ele>
        <time>2011-06-15T08:06:01Z</time>
      </trkpt>
      <trkpt lat="35.219206809997559" lon="24.031906127929688">
        <ele>617.78399999999999</ele>
        <time>2011-06-15T08:06:06Z</time>
      </trkpt>
      <trkpt lat="35.219206809997559" lon="24.031798839569092">
        <ele>618.74599999999998</ele>
        <time>2011-06-15T08:06:12Z</time>
      </trkpt>
      <trkpt lat="35.219249725341797" lon="24.031713008880615">
        <ele>619.226</ele>
        <time>2011-06-15T08:06:17Z</time>
      </trkpt>
      <trkpt lat="35.219271183013916" lon="24.031519889831543">
        <ele>619.70699999999999</ele>
        <time>2011-06-15T08:06:29Z</time>
      </trkpt>
      <trkpt lat="35.219271183013916" lon="24.031434059143066">
        <ele>619.226</ele>
        <time>2011-06-15T08:06:33Z</time>
      </trkpt>
      <trkpt lat="35.219292640686035" lon="24.031391143798828">
        <ele>618.74599999999998</ele>
        <time>2011-06-15T08:06:35Z</time>
      </trkpt>
      <trkpt lat="35.219292640686035" lon="24.031262397766113">
        <ele>619.226</ele>
        <time>2011-06-15T08:06:42Z</time>
      </trkpt>
      <trkpt lat="35.219292640686035" lon="24.031219482421875">
        <ele>619.226</ele>
        <time>2011-06-15T08:06:45Z</time>
      </trkpt>
      <trkpt lat="35.219271183013916" lon="24.031112194061279">
        <ele>620.18799999999999</ele>
        <time>2011-06-15T08:06:51Z</time>
      </trkpt>
      <trkpt lat="35.219271183013916" lon="24.030983448028564">
        <ele>620.66800000000001</ele>
        <time>2011-06-15T08:06:59Z</time>
      </trkpt>
      <trkpt lat="35.219249725341797" lon="24.030919075012207">
        <ele>620.66800000000001</ele>
        <time>2011-06-15T08:07:03Z</time>
      </trkpt>
      <trkpt lat="35.219249725341797" lon="24.030876159667969">
        <ele>620.18799999999999</ele>
        <time>2011-06-15T08:07:07Z</time>
      </trkpt>
      <trkpt lat="35.219249725341797" lon="24.03083324432373">
        <ele>620.18799999999999</ele>
        <time>2011-06-15T08:07:09Z</time>
      </trkpt>
      <trkpt lat="35.219271183013916" lon="24.03083324432373">
        <ele>618.26499999999999</ele>
        <time>2011-06-15T08:07:27Z</time>
      </trkpt>
      <trkpt lat="35.219249725341797" lon="24.03083324432373">
        <ele>618.26499999999999</ele>
        <time>2011-06-15T08:07:37Z</time>
      </trkpt>
      <trkpt lat="35.219120979309082" lon="24.030790328979492">
        <ele>619.226</ele>
        <time>2011-06-15T08:07:48Z</time>
      </trkpt>
      <trkpt lat="35.219078063964844" lon="24.030768871307373">
        <ele>619.226</ele>
        <time>2011-06-15T08:07:51Z</time>
      </trkpt>
      <trkpt lat="35.219035148620605" lon="24.030725955963135">
        <ele>619.226</ele>
        <time>2011-06-15T08:07:55Z</time>
      </trkpt>
      <trkpt lat="35.218949317932129" lon="24.030683040618896">
        <ele>618.74599999999998</ele>
        <time>2011-06-15T08:08:01Z</time>
      </trkpt>
      <trkpt lat="35.21892786026001" lon="24.030661582946777">
        <ele>618.26499999999999</ele>
        <time>2011-06-15T08:08:04Z</time>
      </trkpt>
      <trkpt lat="35.218842029571533" lon="24.030640125274658">
        <ele>617.78399999999999</ele>
        <time>2011-06-15T08:08:09Z</time>
      </trkpt>
      <trkpt lat="35.218691825866699" lon="24.030532836914063">
        <ele>617.30399999999997</ele>
        <time>2011-06-15T08:08:21Z</time>
      </trkpt>
      <trkpt lat="35.21867036819458" lon="24.030511379241943">
        <ele>617.78399999999999</ele>
        <time>2011-06-15T08:08:22Z</time>
      </trkpt>
      <trkpt lat="35.218584537506104" lon="24.030447006225586">
        <ele>618.26499999999999</ele>
        <time>2011-06-15T08:08:30Z</time>
      </trkpt>
      <trkpt lat="35.218498706817627" lon="24.030382633209229">
        <ele>617.78399999999999</ele>
        <time>2011-06-15T08:08:36Z</time>
      </trkpt>
      <trkpt lat="35.218477249145508" lon="24.03033971786499">
        <ele>616.82299999999998</ele>
        <time>2011-06-15T08:08:40Z</time>
      </trkpt>
      <trkpt lat="35.218455791473389" lon="24.030296802520752">
        <ele>615.86199999999997</ele>
        <time>2011-06-15T08:08:43Z</time>
      </trkpt>
      <trkpt lat="35.218369960784912" lon="24.030125141143799">
        <ele>612.97799999999995</ele>
        <time>2011-06-15T08:08:54Z</time>
      </trkpt>
      <trkpt lat="35.218284130096436" lon="24.030039310455322">
        <ele>610.57399999999996</ele>
        <time>2011-06-15T08:09:01Z</time>
      </trkpt>
      <trkpt lat="35.218262672424316" lon="24.029974937438965">
        <ele>610.09400000000005</ele>
        <time>2011-06-15T08:09:06Z</time>
      </trkpt>
      <trkpt lat="35.218198299407959" lon="24.029889106750488">
        <ele>610.57399999999996</ele>
        <time>2011-06-15T08:09:12Z</time>
      </trkpt>
      <trkpt lat="35.218133926391602" lon="24.029738903045654">
        <ele>611.05499999999995</ele>
        <time>2011-06-15T08:09:21Z</time>
      </trkpt>
      <trkpt lat="35.218091011047363" lon="24.029653072357178">
        <ele>610.09400000000005</ele>
        <time>2011-06-15T08:09:28Z</time>
      </trkpt>
      <trkpt lat="35.218005180358887" lon="24.029545783996582">
        <ele>608.65200000000004</ele>
        <time>2011-06-15T08:09:35Z</time>
      </trkpt>
      <trkpt lat="35.217962265014648" lon="24.029502868652344">
        <ele>609.13300000000004</ele>
        <time>2011-06-15T08:09:39Z</time>
      </trkpt>
      <trkpt lat="35.217940807342529" lon="24.029459953308105">
        <ele>608.65200000000004</ele>
        <time>2011-06-15T08:09:41Z</time>
      </trkpt>
      <trkpt lat="35.217854976654053" lon="24.029288291931152">
        <ele>609.13300000000004</ele>
        <time>2011-06-15T08:09:51Z</time>
      </trkpt>
      <trkpt lat="35.217854976654053" lon="24.029245376586914">
        <ele>609.13300000000004</ele>
        <time>2011-06-15T08:09:53Z</time>
      </trkpt>
      <trkpt lat="35.217833518981934" lon="24.029181003570557">
        <ele>609.61300000000006</ele>
        <time>2011-06-15T08:09:58Z</time>
      </trkpt>
      <trkpt lat="35.217833518981934" lon="24.029159545898438">
        <ele>609.13300000000004</ele>
        <time>2011-06-15T08:10:10Z</time>
      </trkpt>
      <trkpt lat="35.217812061309814" lon="24.029138088226318">
        <ele>608.65200000000004</ele>
        <time>2011-06-15T08:10:17Z</time>
      </trkpt>
      <trkpt lat="35.217790603637695" lon="24.029073715209961">
        <ele>608.65200000000004</ele>
        <time>2011-06-15T08:10:21Z</time>
      </trkpt>
      <trkpt lat="35.217726230621338" lon="24.028987884521484">
        <ele>609.61300000000006</ele>
        <time>2011-06-15T08:10:27Z</time>
      </trkpt>
      <trkpt lat="35.217704772949219" lon="24.028923511505127">
        <ele>609.61300000000006</ele>
        <time>2011-06-15T08:10:32Z</time>
      </trkpt>
      <trkpt lat="35.217576026916504" lon="24.028880596160889">
        <ele>607.69100000000003</ele>
        <time>2011-06-15T08:10:43Z</time>
      </trkpt>
      <trkpt lat="35.217533111572266" lon="24.02885913848877">
        <ele>607.21000000000004</ele>
        <time>2011-06-15T08:10:46Z</time>
      </trkpt>
      <trkpt lat="35.217447280883789" lon="24.02883768081665">
        <ele>606.24900000000002</ele>
        <time>2011-06-15T08:10:53Z</time>
      </trkpt>
      <trkpt lat="35.217404365539551" lon="24.028794765472412">
        <ele>606.24900000000002</ele>
        <time>2011-06-15T08:10:56Z</time>
      </trkpt>
      <trkpt lat="35.217361450195313" lon="24.028730392456055">
        <ele>606.24900000000002</ele>
        <time>2011-06-15T08:11:01Z</time>
      </trkpt>
      <trkpt lat="35.217297077178955" lon="24.02860164642334">
        <ele>605.76800000000003</ele>
        <time>2011-06-15T08:11:10Z</time>
      </trkpt>
      <trkpt lat="35.217275619506836" lon="24.028537273406982">
        <ele>603.84500000000003</ele>
        <time>2011-06-15T08:11:14Z</time>
      </trkpt>
      <trkpt lat="35.217254161834717" lon="24.028494358062744">
        <ele>602.88400000000001</ele>
        <time>2011-06-15T08:11:18Z</time>
      </trkpt>
      <trkpt lat="35.217232704162598" lon="24.028408527374268">
        <ele>603.36500000000001</ele>
        <time>2011-06-15T08:11:23Z</time>
      </trkpt>
      <trkpt lat="35.217232704162598" lon="24.028365612030029">
        <ele>603.36500000000001</ele>
        <time>2011-06-15T08:11:26Z</time>
      </trkpt>
      <trkpt lat="35.217232704162598" lon="24.028279781341553">
        <ele>604.32600000000002</ele>
        <time>2011-06-15T08:11:34Z</time>
      </trkpt>
      <trkpt lat="35.21716833114624" lon="24.028236865997314">
        <ele>603.36500000000001</ele>
        <time>2011-06-15T08:11:41Z</time>
      </trkpt>
      <trkpt lat="35.217103958129883" lon="24.028193950653076">
        <ele>601.923</ele>
        <time>2011-06-15T08:11:48Z</time>
      </trkpt>
      <trkpt lat="35.217082500457764" lon="24.028151035308838">
        <ele>600.96100000000001</ele>
        <time>2011-06-15T08:11:53Z</time>
      </trkpt>
      <trkpt lat="35.217018127441406" lon="24.0281081199646">
        <ele>597.59699999999998</ele>
        <time>2011-06-15T08:12:03Z</time>
      </trkpt>
      <trkpt lat="35.216996669769287" lon="24.02808666229248">
        <ele>596.15499999999997</ele>
        <time>2011-06-15T08:12:07Z</time>
      </trkpt>
      <trkpt lat="35.216975212097168" lon="24.028065204620361">
        <ele>596.15499999999997</ele>
        <time>2011-06-15T08:12:09Z</time>
      </trkpt>
      <trkpt lat="35.21693229675293" lon="24.028022289276123">
        <ele>596.15499999999997</ele>
        <time>2011-06-15T08:12:14Z</time>
      </trkpt>
      <trkpt lat="35.216846466064453" lon="24.028000831604004">
        <ele>597.11599999999999</ele>
        <time>2011-06-15T08:12:19Z</time>
      </trkpt>
      <trkpt lat="35.216846466064453" lon="24.027979373931885">
        <ele>597.59699999999998</ele>
        <time>2011-06-15T08:12:21Z</time>
      </trkpt>
      <trkpt lat="35.216825008392334" lon="24.027936458587646">
        <ele>599.03899999999999</ele>
        <time>2011-06-15T08:12:24Z</time>
      </trkpt>
      <trkpt lat="35.216846466064453" lon="24.027893543243408">
        <ele>600</ele>
        <time>2011-06-15T08:12:27Z</time>
      </trkpt>
      <trkpt lat="35.216825008392334" lon="24.027700424194336">
        <ele>602.88400000000001</ele>
        <time>2011-06-15T08:12:39Z</time>
      </trkpt>
      <trkpt lat="35.216825008392334" lon="24.027636051177979">
        <ele>602.88400000000001</ele>
        <time>2011-06-15T08:12:43Z</time>
      </trkpt>
      <trkpt lat="35.216803550720215" lon="24.027485847473145">
        <ele>602.88400000000001</ele>
        <time>2011-06-15T08:12:52Z</time>
      </trkpt>
      <trkpt lat="35.216782093048096" lon="24.027335643768311">
        <ele>603.84500000000003</ele>
        <time>2011-06-15T08:13:00Z</time>
      </trkpt>
      <trkpt lat="35.216782093048096" lon="24.027314186096191">
        <ele>604.32600000000002</ele>
        <time>2011-06-15T08:13:02Z</time>
      </trkpt>
      <trkpt lat="35.216803550720215" lon="24.027121067047119">
        <ele>605.28700000000003</ele>
        <time>2011-06-15T08:13:09Z</time>
      </trkpt>
      <trkpt lat="35.216803550720215" lon="24.026970863342285">
        <ele>604.80700000000002</ele>
        <time>2011-06-15T08:13:18Z</time>
      </trkpt>
      <trkpt lat="35.216803550720215" lon="24.026949405670166">
        <ele>604.80700000000002</ele>
        <time>2011-06-15T08:13:19Z</time>
      </trkpt>
      <trkpt lat="35.216803550720215" lon="24.026927947998047">
        <ele>605.28700000000003</ele>
        <time>2011-06-15T08:13:21Z</time>
      </trkpt>
      <trkpt lat="35.216803550720215" lon="24.026906490325928">
        <ele>605.76800000000003</ele>
        <time>2011-06-15T08:13:23Z</time>
      </trkpt>
      <trkpt lat="35.216803550720215" lon="24.026756286621094">
        <ele>605.76800000000003</ele>
        <time>2011-06-15T08:13:32Z</time>
      </trkpt>
      <trkpt lat="35.216803550720215" lon="24.026627540588379">
        <ele>606.24900000000002</ele>
        <time>2011-06-15T08:13:40Z</time>
      </trkpt>
      <trkpt lat="35.216803550720215" lon="24.02660608291626">
        <ele>605.76800000000003</ele>
        <time>2011-06-15T08:13:41Z</time>
      </trkpt>
      <trkpt lat="35.216782093048096" lon="24.026477336883545">
        <ele>605.76800000000003</ele>
        <time>2011-06-15T08:13:49Z</time>
      </trkpt>
      <trkpt lat="35.216782093048096" lon="24.026455879211426">
        <ele>605.76800000000003</ele>
        <time>2011-06-15T08:13:50Z</time>
      </trkpt>
      <trkpt lat="35.216782093048096" lon="24.026327133178711">
        <ele>604.80700000000002</ele>
        <time>2011-06-15T08:13:57Z</time>
      </trkpt>
      <trkpt lat="35.216782093048096" lon="24.026241302490234">
        <ele>604.32600000000002</ele>
        <time>2011-06-15T08:14:01Z</time>
      </trkpt>
      <trkpt lat="35.216782093048096" lon="24.026176929473877">
        <ele>602.88400000000001</ele>
        <time>2011-06-15T08:14:06Z</time>
      </trkpt>
      <trkpt lat="35.216739177703857" lon="24.026026725769043">
        <ele>602.40300000000002</ele>
        <time>2011-06-15T08:14:15Z</time>
      </trkpt>
      <trkpt lat="35.216739177703857" lon="24.025983810424805">
        <ele>602.88400000000001</ele>
        <time>2011-06-15T08:14:24Z</time>
      </trkpt>
      <trkpt lat="35.216739177703857" lon="24.025962352752686">
        <ele>603.36500000000001</ele>
        <time>2011-06-15T08:14:29Z</time>
      </trkpt>
      <trkpt lat="35.216696262359619" lon="24.025940895080566">
        <ele>603.36500000000001</ele>
        <time>2011-06-15T08:14:31Z</time>
      </trkpt>
      <trkpt lat="35.216696262359619" lon="24.025897979736328">
        <ele>599.03899999999999</ele>
        <time>2011-06-15T08:14:36Z</time>
      </trkpt>
      <trkpt lat="35.216696262359619" lon="24.025833606719971">
        <ele>598.55799999999999</ele>
        <time>2011-06-15T08:14:40Z</time>
      </trkpt>
      <trkpt lat="35.2166748046875" lon="24.025683403015137">
        <ele>599.03899999999999</ele>
        <time>2011-06-15T08:14:48Z</time>
      </trkpt>
      <trkpt lat="35.216696262359619" lon="24.025511741638184">
        <ele>599.51900000000001</ele>
        <time>2011-06-15T08:14:59Z</time>
      </trkpt>
      <trkpt lat="35.216717720031738" lon="24.02536153793335">
        <ele>598.55799999999999</ele>
        <time>2011-06-15T08:15:09Z</time>
      </trkpt>
      <trkpt lat="35.216739177703857" lon="24.025189876556396">
        <ele>599.03899999999999</ele>
        <time>2011-06-15T08:15:19Z</time>
      </trkpt>
      <trkpt lat="35.216739177703857" lon="24.025039672851563">
        <ele>599.51900000000001</ele>
        <time>2011-06-15T08:15:28Z</time>
      </trkpt>
      <trkpt lat="35.216717720031738" lon="24.024910926818848">
        <ele>600</ele>
        <time>2011-06-15T08:15:36Z</time>
      </trkpt>
      <trkpt lat="35.216696262359619" lon="24.024803638458252">
        <ele>599.51900000000001</ele>
        <time>2011-06-15T08:15:43Z</time>
      </trkpt>
      <trkpt lat="35.216653347015381" lon="24.024739265441895">
        <ele>599.51900000000001</ele>
        <time>2011-06-15T08:15:48Z</time>
      </trkpt>
      <trkpt lat="35.216631889343262" lon="24.024717807769775">
        <ele>599.03899999999999</ele>
        <time>2011-06-15T08:15:50Z</time>
      </trkpt>
      <trkpt lat="35.216588973999023" lon="24.024631977081299">
        <ele>599.51900000000001</ele>
        <time>2011-06-15T08:15:57Z</time>
      </trkpt>
      <trkpt lat="35.216546058654785" lon="24.024589061737061">
        <ele>599.51900000000001</ele>
        <time>2011-06-15T08:16:01Z</time>
      </trkpt>
      <trkpt lat="35.216481685638428" lon="24.024503231048584">
        <ele>599.03899999999999</ele>
        <time>2011-06-15T08:16:07Z</time>
      </trkpt>
      <trkpt lat="35.216460227966309" lon="24.024460315704346">
        <ele>599.03899999999999</ele>
        <time>2011-06-15T08:16:11Z</time>
      </trkpt>
      <trkpt lat="35.216352939605713" lon="24.024310111999512">
        <ele>600.48099999999999</ele>
        <time>2011-06-15T08:16:21Z</time>
      </trkpt>
      <trkpt lat="35.216310024261475" lon="24.024245738983154">
        <ele>600.96100000000001</ele>
        <time>2011-06-15T08:16:26Z</time>
      </trkpt>
      <trkpt lat="35.216288566589355" lon="24.024202823638916">
        <ele>600</ele>
        <time>2011-06-15T08:16:30Z</time>
      </trkpt>
      <trkpt lat="35.216224193572998" lon="24.024181365966797">
        <ele>599.03899999999999</ele>
        <time>2011-06-15T08:16:34Z</time>
      </trkpt>
      <trkpt lat="35.216116905212402" lon="24.024074077606201">
        <ele>599.03899999999999</ele>
        <time>2011-06-15T08:16:45Z</time>
      </trkpt>
      <trkpt lat="35.216052532196045" lon="24.024031162261963">
        <ele>598.55799999999999</ele>
        <time>2011-06-15T08:16:50Z</time>
      </trkpt>
      <trkpt lat="35.215988159179688" lon="24.023966789245605">
        <ele>598.55799999999999</ele>
        <time>2011-06-15T08:16:56Z</time>
      </trkpt>
      <trkpt lat="35.21592378616333" lon="24.023966789245605">
        <ele>599.03899999999999</ele>
        <time>2011-06-15T08:17:00Z</time>
      </trkpt>
      <trkpt lat="35.215880870819092" lon="24.023923873901367">
        <ele>599.03899999999999</ele>
        <time>2011-06-15T08:17:03Z</time>
      </trkpt>
      <trkpt lat="35.215795040130615" lon="24.02385950088501">
        <ele>599.03899999999999</ele>
        <time>2011-06-15T08:17:10Z</time>
      </trkpt>
      <trkpt lat="35.215730667114258" lon="24.023838043212891">
        <ele>599.03899999999999</ele>
        <time>2011-06-15T08:17:16Z</time>
      </trkpt>
      <trkpt lat="35.215709209442139" lon="24.023838043212891">
        <ele>599.03899999999999</ele>
        <time>2011-06-15T08:17:17Z</time>
      </trkpt>
      <trkpt lat="35.215644836425781" lon="24.023773670196533">
        <ele>598.55799999999999</ele>
        <time>2011-06-15T08:17:23Z</time>
      </trkpt>
      <trkpt lat="35.215601921081543" lon="24.023730754852295">
        <ele>599.03899999999999</ele>
        <time>2011-06-15T08:17:35Z</time>
      </trkpt>
      <trkpt lat="35.215580463409424" lon="24.023709297180176">
        <ele>598.55799999999999</ele>
        <time>2011-06-15T08:17:52Z</time>
      </trkpt>
      <trkpt lat="35.215473175048828" lon="24.02360200881958">
        <ele>598.077</ele>
        <time>2011-06-15T08:18:03Z</time>
      </trkpt>
      <trkpt lat="35.215408802032471" lon="24.023559093475342">
        <ele>597.11599999999999</ele>
        <time>2011-06-15T08:18:08Z</time>
      </trkpt>
      <trkpt lat="35.215344429016113" lon="24.023494720458984">
        <ele>596.63499999999999</ele>
        <time>2011-06-15T08:18:13Z</time>
      </trkpt>
      <trkpt lat="35.21517276763916" lon="24.023387432098389">
        <ele>597.11599999999999</ele>
        <time>2011-06-15T08:18:25Z</time>
      </trkpt>
      <trkpt lat="35.21517276763916" lon="24.023387432098389">
        <ele>597.59699999999998</ele>
        <time>2011-06-15T08:18:26Z</time>
      </trkpt>
      <trkpt lat="35.215086936950684" lon="24.02334451675415">
        <ele>597.11599999999999</ele>
        <time>2011-06-15T08:18:33Z</time>
      </trkpt>
      <trkpt lat="35.215022563934326" lon="24.023323059082031">
        <ele>596.63499999999999</ele>
        <time>2011-06-15T08:18:37Z</time>
      </trkpt>
      <trkpt lat="35.21493673324585" lon="24.023301601409912">
        <ele>595.67399999999998</ele>
        <time>2011-06-15T08:18:43Z</time>
      </trkpt>
      <trkpt lat="35.214893817901611" lon="24.023258686065674">
        <ele>595.19299999999998</ele>
        <time>2011-06-15T08:18:48Z</time>
      </trkpt>
      <trkpt lat="35.214765071868896" lon="24.023194313049316">
        <ele>596.15499999999997</ele>
        <time>2011-06-15T08:18:58Z</time>
      </trkpt>
      <trkpt lat="35.214743614196777" lon="24.023194313049316">
        <ele>596.63499999999999</ele>
        <time>2011-06-15T08:19:03Z</time>
      </trkpt>
      <trkpt lat="35.214700698852539" lon="24.023151397705078">
        <ele>597.59699999999998</ele>
        <time>2011-06-15T08:19:08Z</time>
      </trkpt>
      <trkpt lat="35.214657783508301" lon="24.02310848236084">
        <ele>597.59699999999998</ele>
        <time>2011-06-15T08:19:13Z</time>
      </trkpt>
      <trkpt lat="35.214593410491943" lon="24.023087024688721">
        <ele>596.15499999999997</ele>
        <time>2011-06-15T08:19:21Z</time>
      </trkpt>
      <trkpt lat="35.214507579803467" lon="24.022979736328125">
        <ele>594.71299999999997</ele>
        <time>2011-06-15T08:19:30Z</time>
      </trkpt>
      <trkpt lat="35.214464664459229" lon="24.022936820983887">
        <ele>594.23199999999997</ele>
        <time>2011-06-15T08:19:43Z</time>
      </trkpt>
      <trkpt lat="35.214464664459229" lon="24.022936820983887">
        <ele>593.75099999999998</ele>
        <time>2011-06-15T08:19:44Z</time>
      </trkpt>
      <trkpt lat="35.214357376098633" lon="24.022872447967529">
        <ele>592.30999999999995</ele>
        <time>2011-06-15T08:19:53Z</time>
      </trkpt>
      <trkpt lat="35.214335918426514" lon="24.02285099029541">
        <ele>592.30999999999995</ele>
        <time>2011-06-15T08:19:58Z</time>
      </trkpt>
      <trkpt lat="35.214293003082275" lon="24.022829532623291">
        <ele>592.30999999999995</ele>
        <time>2011-06-15T08:20:01Z</time>
      </trkpt>
      <trkpt lat="35.214142799377441" lon="24.022786617279053">
        <ele>593.27099999999996</ele>
        <time>2011-06-15T08:20:13Z</time>
      </trkpt>
      <trkpt lat="35.214121341705322" lon="24.022765159606934">
        <ele>594.23199999999997</ele>
        <time>2011-06-15T08:20:17Z</time>
      </trkpt>
      <trkpt lat="35.214014053344727" lon="24.022657871246338">
        <ele>593.75099999999998</ele>
        <time>2011-06-15T08:20:27Z</time>
      </trkpt>
      <trkpt lat="35.213971138000488" lon="24.022636413574219">
        <ele>594.71299999999997</ele>
        <time>2011-06-15T08:20:32Z</time>
      </trkpt>
      <trkpt lat="35.213863849639893" lon="24.022572040557861">
        <ele>595.19299999999998</ele>
        <time>2011-06-15T08:20:44Z</time>
      </trkpt>
      <trkpt lat="35.213756561279297" lon="24.022550582885742">
        <ele>593.75099999999998</ele>
        <time>2011-06-15T08:20:53Z</time>
      </trkpt>
      <trkpt lat="35.21367073059082" lon="24.022464752197266">
        <ele>591.82899999999995</ele>
        <time>2011-06-15T08:21:03Z</time>
      </trkpt>
      <trkpt lat="35.213649272918701" lon="24.022443294525146">
        <ele>591.82899999999995</ele>
        <time>2011-06-15T08:21:05Z</time>
      </trkpt>
      <trkpt lat="35.213627815246582" lon="24.022378921508789">
        <ele>590.86699999999996</ele>
        <time>2011-06-15T08:21:12Z</time>
      </trkpt>
      <trkpt lat="35.213584899902344" lon="24.02235746383667">
        <ele>589.90599999999995</ele>
        <time>2011-06-15T08:21:15Z</time>
      </trkpt>
      <trkpt lat="35.213541984558105" lon="24.02235746383667">
        <ele>588.94500000000005</ele>
        <time>2011-06-15T08:21:18Z</time>
      </trkpt>
      <trkpt lat="35.213456153869629" lon="24.022314548492432">
        <ele>588.46400000000006</ele>
        <time>2011-06-15T08:21:26Z</time>
      </trkpt>
      <trkpt lat="35.213348865509033" lon="24.022250175476074">
        <ele>586.06100000000004</ele>
        <time>2011-06-15T08:21:36Z</time>
      </trkpt>
      <trkpt lat="35.213305950164795" lon="24.022271633148193">
        <ele>585.10000000000002</ele>
        <time>2011-06-15T08:21:39Z</time>
      </trkpt>
      <trkpt lat="35.21317720413208" lon="24.022207260131836">
        <ele>583.65700000000004</ele>
        <time>2011-06-15T08:21:51Z</time>
      </trkpt>
      <trkpt lat="35.213091373443604" lon="24.022164344787598">
        <ele>582.69600000000003</ele>
        <time>2011-06-15T08:22:00Z</time>
      </trkpt>
      <trkpt lat="35.212984085083008" lon="24.022121429443359">
        <ele>582.21600000000001</ele>
        <time>2011-06-15T08:22:08Z</time>
      </trkpt>
      <trkpt lat="35.212876796722412" lon="24.022057056427002">
        <ele>581.25400000000002</ele>
        <time>2011-06-15T08:22:18Z</time>
      </trkpt>
      <trkpt lat="35.212855339050293" lon="24.022057056427002">
        <ele>581.73500000000001</ele>
        <time>2011-06-15T08:22:21Z</time>
      </trkpt>
      <trkpt lat="35.212812423706055" lon="24.022035598754883">
        <ele>582.21600000000001</ele>
        <time>2011-06-15T08:22:24Z</time>
      </trkpt>
      <trkpt lat="35.212790966033936" lon="24.022035598754883">
        <ele>582.21600000000001</ele>
        <time>2011-06-15T08:22:27Z</time>
      </trkpt>
      <trkpt lat="35.212662220001221" lon="24.021992683410645">
        <ele>582.69600000000003</ele>
        <time>2011-06-15T08:22:38Z</time>
      </trkpt>
      <trkpt lat="35.212533473968506" lon="24.021992683410645">
        <ele>582.69600000000003</ele>
        <time>2011-06-15T08:22:49Z</time>
      </trkpt>
      <trkpt lat="35.212447643280029" lon="24.021992683410645">
        <ele>582.69600000000003</ele>
        <time>2011-06-15T08:22:56Z</time>
      </trkpt>
      <trkpt lat="35.212297439575195" lon="24.022014141082764">
        <ele>583.17700000000002</ele>
        <time>2011-06-15T08:23:08Z</time>
      </trkpt>
      <trkpt lat="35.212275981903076" lon="24.022014141082764">
        <ele>582.69600000000003</ele>
        <time>2011-06-15T08:23:10Z</time>
      </trkpt>
      <trkpt lat="35.212211608886719" lon="24.021992683410645">
        <ele>583.17700000000002</ele>
        <time>2011-06-15T08:23:15Z</time>
      </trkpt>
      <trkpt lat="35.212082862854004" lon="24.021928310394287">
        <ele>582.21600000000001</ele>
        <time>2011-06-15T08:23:27Z</time>
      </trkpt>
      <trkpt lat="35.212018489837646" lon="24.021949768066406">
        <ele>582.21600000000001</ele>
        <time>2011-06-15T08:23:32Z</time>
      </trkpt>
      <trkpt lat="35.21193265914917" lon="24.021885395050049">
        <ele>580.774</ele>
        <time>2011-06-15T08:23:40Z</time>
      </trkpt>
      <trkpt lat="35.211911201477051" lon="24.02186393737793">
        <ele>581.25400000000002</ele>
        <time>2011-06-15T08:23:42Z</time>
      </trkpt>
      <trkpt lat="35.211846828460693" lon="24.021778106689453">
        <ele>579.81200000000001</ele>
        <time>2011-06-15T08:23:51Z</time>
      </trkpt>
      <trkpt lat="35.211825370788574" lon="24.021778106689453">
        <ele>579.33199999999999</ele>
        <time>2011-06-15T08:23:53Z</time>
      </trkpt>
      <trkpt lat="35.211782455444336" lon="24.021799564361572">
        <ele>578.37</ele>
        <time>2011-06-15T08:23:58Z</time>
      </trkpt>
      <trkpt lat="35.211696624755859" lon="24.021778106689453">
        <ele>577.88999999999999</ele>
        <time>2011-06-15T08:24:07Z</time>
      </trkpt>
      <trkpt lat="35.21167516708374" lon="24.021778106689453">
        <ele>576.928</ele>
        <time>2011-06-15T08:24:10Z</time>
      </trkpt>
      <trkpt lat="35.211632251739502" lon="24.021756649017334">
        <ele>575.00599999999997</ele>
        <time>2011-06-15T08:24:14Z</time>
      </trkpt>
      <trkpt lat="35.211524963378906" lon="24.021735191345215">
        <ele>571.15999999999997</ele>
        <time>2011-06-15T08:24:25Z</time>
      </trkpt>
      <trkpt lat="35.211524963378906" lon="24.021713733673096">
        <ele>571.15999999999997</ele>
        <time>2011-06-15T08:24:27Z</time>
      </trkpt>
      <trkpt lat="35.211482048034668" lon="24.021692276000977">
        <ele>570.67999999999995</ele>
        <time>2011-06-15T08:24:31Z</time>
      </trkpt>
      <trkpt lat="35.211374759674072" lon="24.021627902984619">
        <ele>569.71900000000005</ele>
        <time>2011-06-15T08:24:42Z</time>
      </trkpt>
      <trkpt lat="35.211353302001953" lon="24.021563529968262">
        <ele>569.71900000000005</ele>
        <time>2011-06-15T08:24:46Z</time>
      </trkpt>
      <trkpt lat="35.211353302001953" lon="24.021520614624023">
        <ele>570.19899999999996</ele>
        <time>2011-06-15T08:24:59Z</time>
      </trkpt>
      <trkpt lat="35.211353302001953" lon="24.021499156951904">
        <ele>570.67999999999995</ele>
        <time>2011-06-15T08:25:01Z</time>
      </trkpt>
      <trkpt lat="35.211374759674072" lon="24.021477699279785">
        <ele>569.71900000000005</ele>
        <time>2011-06-15T08:25:05Z</time>
      </trkpt>
      <trkpt lat="35.211374759674072" lon="24.021434783935547">
        <ele>569.71900000000005</ele>
        <time>2011-06-15T08:25:09Z</time>
      </trkpt>
      <trkpt lat="35.211374759674072" lon="24.021413326263428">
        <ele>568.27599999999995</ele>
        <time>2011-06-15T08:25:19Z</time>
      </trkpt>
      <trkpt lat="35.211374759674072" lon="24.021391868591309">
        <ele>568.27599999999995</ele>
        <time>2011-06-15T08:25:29Z</time>
      </trkpt>
      <trkpt lat="35.211374759674072" lon="24.021391868591309">
        <ele>568.75699999999995</ele>
        <time>2011-06-15T08:27:45Z</time>
      </trkpt>
      <trkpt lat="35.211396217346191" lon="24.021413326263428">
        <ele>572.12199999999996</ele>
        <time>2011-06-15T08:31:02Z</time>
      </trkpt>
      <trkpt lat="35.211417675018311" lon="24.021413326263428">
        <ele>570.19899999999996</ele>
        <time>2011-06-15T08:33:45Z</time>
      </trkpt>
      <trkpt lat="35.211396217346191" lon="24.021413326263428">
        <ele>570.67999999999995</ele>
        <time>2011-06-15T08:35:28Z</time>
      </trkpt>
      <trkpt lat="35.212318897247314" lon="24.021906852722168">
        <ele>587.02200000000005</ele>
        <time>2011-06-15T08:44:47Z</time>
      </trkpt>
      <trkpt lat="35.212318897247314" lon="24.02186393737793">
        <ele>587.98299999999995</ele>
        <time>2011-06-15T08:44:50Z</time>
      </trkpt>
      <trkpt lat="35.212383270263672" lon="24.02186393737793">
        <ele>586.54200000000003</ele>
        <time>2011-06-15T08:44:54Z</time>
      </trkpt>
      <trkpt lat="35.212361812591553" lon="24.02186393737793">
        <ele>584.61900000000003</ele>
        <time>2011-06-15T08:44:59Z</time>
      </trkpt>
      <trkpt lat="35.212512016296387" lon="24.021906852722168">
        <ele>589.42600000000004</ele>
        <time>2011-06-15T08:45:13Z</time>
      </trkpt>
      <trkpt lat="35.212576389312744" lon="24.021928310394287">
        <ele>587.02200000000005</ele>
        <time>2011-06-15T08:45:19Z</time>
      </trkpt>
      <trkpt lat="35.212640762329102" lon="24.021949768066406">
        <ele>587.02200000000005</ele>
        <time>2011-06-15T08:45:26Z</time>
      </trkpt>
      <trkpt lat="35.212662220001221" lon="24.021949768066406">
        <ele>587.02200000000005</ele>
        <time>2011-06-15T08:45:29Z</time>
      </trkpt>
      <trkpt lat="35.212705135345459" lon="24.021971225738525">
        <ele>587.02200000000005</ele>
        <time>2011-06-15T08:45:40Z</time>
      </trkpt>
      <trkpt lat="35.212748050689697" lon="24.021971225738525">
        <ele>588.46400000000006</ele>
        <time>2011-06-15T08:45:48Z</time>
      </trkpt>
      <trkpt lat="35.212769508361816" lon="24.021992683410645">
        <ele>588.94500000000005</ele>
        <time>2011-06-15T08:45:51Z</time>
      </trkpt>
      <trkpt lat="35.212812423706055" lon="24.021992683410645">
        <ele>590.86699999999996</ele>
        <time>2011-06-15T08:45:59Z</time>
      </trkpt>
      <trkpt lat="35.212833881378174" lon="24.022035598754883">
        <ele>591.82899999999995</ele>
        <time>2011-06-15T08:46:04Z</time>
      </trkpt>
      <trkpt lat="35.212876796722412" lon="24.022057056427002">
        <ele>593.75099999999998</ele>
        <time>2011-06-15T08:46:09Z</time>
      </trkpt>
      <trkpt lat="35.212876796722412" lon="24.022078514099121">
        <ele>594.23199999999997</ele>
        <time>2011-06-15T08:46:12Z</time>
      </trkpt>
      <trkpt lat="35.212962627410889" lon="24.02209997177124">
        <ele>594.71299999999997</ele>
        <time>2011-06-15T08:46:18Z</time>
      </trkpt>
      <trkpt lat="35.213027000427246" lon="24.022121429443359">
        <ele>595.19299999999998</ele>
        <time>2011-06-15T08:46:24Z</time>
      </trkpt>
      <trkpt lat="35.213134288787842" lon="24.022164344787598">
        <ele>596.63499999999999</ele>
        <time>2011-06-15T08:46:33Z</time>
      </trkpt>
      <trkpt lat="35.21317720413208" lon="24.022164344787598">
        <ele>597.59699999999998</ele>
        <time>2011-06-15T08:46:37Z</time>
      </trkpt>
      <trkpt lat="35.213220119476318" lon="24.022164344787598">
        <ele>598.077</ele>
        <time>2011-06-15T08:46:41Z</time>
      </trkpt>
      <trkpt lat="35.213263034820557" lon="24.022185802459717">
        <ele>597.59699999999998</ele>
        <time>2011-06-15T08:46:45Z</time>
      </trkpt>
      <trkpt lat="35.213284492492676" lon="24.022207260131836">
        <ele>597.11599999999999</ele>
        <time>2011-06-15T08:46:48Z</time>
      </trkpt>
      <trkpt lat="35.213348865509033" lon="24.022228717803955">
        <ele>596.15499999999997</ele>
        <time>2011-06-15T08:46:52Z</time>
      </trkpt>
      <trkpt lat="35.213370323181152" lon="24.022250175476074">
        <ele>595.19299999999998</ele>
        <time>2011-06-15T08:46:54Z</time>
      </trkpt>
      <trkpt lat="35.213391780853271" lon="24.022271633148193">
        <ele>594.23199999999997</ele>
        <time>2011-06-15T08:46:56Z</time>
      </trkpt>
      <trkpt lat="35.213456153869629" lon="24.022293090820313">
        <ele>594.71299999999997</ele>
        <time>2011-06-15T08:47:03Z</time>
      </trkpt>
      <trkpt lat="35.213477611541748" lon="24.022293090820313">
        <ele>595.67399999999998</ele>
        <time>2011-06-15T08:47:06Z</time>
      </trkpt>
      <trkpt lat="35.213541984558105" lon="24.02235746383667">
        <ele>596.63499999999999</ele>
        <time>2011-06-15T08:47:12Z</time>
      </trkpt>
      <trkpt lat="35.213606357574463" lon="24.022400379180908">
        <ele>594.23199999999997</ele>
        <time>2011-06-15T08:47:21Z</time>
      </trkpt>
      <trkpt lat="35.213627815246582" lon="24.022421836853027">
        <ele>594.23199999999997</ele>
        <time>2011-06-15T08:47:25Z</time>
      </trkpt>
      <trkpt lat="35.21367073059082" lon="24.022464752197266">
        <ele>594.23199999999997</ele>
        <time>2011-06-15T08:47:31Z</time>
      </trkpt>
      <trkpt lat="35.213692188262939" lon="24.022486209869385">
        <ele>594.71299999999997</ele>
        <time>2011-06-15T08:47:33Z</time>
      </trkpt>
      <trkpt lat="35.213713645935059" lon="24.022507667541504">
        <ele>595.67399999999998</ele>
        <time>2011-06-15T08:47:37Z</time>
      </trkpt>
      <trkpt lat="35.213820934295654" lon="24.022550582885742">
        <ele>597.11599999999999</ele>
        <time>2011-06-15T08:47:47Z</time>
      </trkpt>
      <trkpt lat="35.213885307312012" lon="24.02259349822998">
        <ele>597.59699999999998</ele>
        <time>2011-06-15T08:47:53Z</time>
      </trkpt>
      <trkpt lat="35.213949680328369" lon="24.0226149559021">
        <ele>598.077</ele>
        <time>2011-06-15T08:48:01Z</time>
      </trkpt>
      <trkpt lat="35.213971138000488" lon="24.0226149559021">
        <ele>597.59699999999998</ele>
        <time>2011-06-15T08:48:03Z</time>
      </trkpt>
      <trkpt lat="35.214035511016846" lon="24.022679328918457">
        <ele>594.71299999999997</ele>
        <time>2011-06-15T08:48:17Z</time>
      </trkpt>
      <trkpt lat="35.214142799377441" lon="24.022743701934814">
        <ele>594.71299999999997</ele>
        <time>2011-06-15T08:48:29Z</time>
      </trkpt>
      <trkpt lat="35.214228630065918" lon="24.022765159606934">
        <ele>596.15499999999997</ele>
        <time>2011-06-15T08:48:34Z</time>
      </trkpt>
      <trkpt lat="35.214271545410156" lon="24.022808074951172">
        <ele>598.55799999999999</ele>
        <time>2011-06-15T08:48:42Z</time>
      </trkpt>
      <trkpt lat="35.214293003082275" lon="24.022829532623291">
        <ele>598.55799999999999</ele>
        <time>2011-06-15T08:48:47Z</time>
      </trkpt>
      <trkpt lat="35.214335918426514" lon="24.022872447967529">
        <ele>599.03899999999999</ele>
        <time>2011-06-15T08:48:50Z</time>
      </trkpt>
      <trkpt lat="35.214464664459229" lon="24.022958278656006">
        <ele>599.51900000000001</ele>
        <time>2011-06-15T08:49:03Z</time>
      </trkpt>
      <trkpt lat="35.214486122131348" lon="24.022958278656006">
        <ele>599.51900000000001</ele>
        <time>2011-06-15T08:49:05Z</time>
      </trkpt>
      <trkpt lat="35.214571952819824" lon="24.023022651672363">
        <ele>598.55799999999999</ele>
        <time>2011-06-15T08:49:13Z</time>
      </trkpt>
      <trkpt lat="35.214614868164063" lon="24.023065567016602">
        <ele>598.077</ele>
        <time>2011-06-15T08:49:18Z</time>
      </trkpt>
      <trkpt lat="35.214636325836182" lon="24.023087024688721">
        <ele>599.03899999999999</ele>
        <time>2011-06-15T08:49:24Z</time>
      </trkpt>
      <trkpt lat="35.21467924118042" lon="24.02310848236084">
        <ele>599.03899999999999</ele>
        <time>2011-06-15T08:49:27Z</time>
      </trkpt>
      <trkpt lat="35.214722156524658" lon="24.023151397705078">
        <ele>600.48099999999999</ele>
        <time>2011-06-15T08:49:34Z</time>
      </trkpt>
      <trkpt lat="35.214743614196777" lon="24.023172855377197">
        <ele>600.48099999999999</ele>
        <time>2011-06-15T08:49:36Z</time>
      </trkpt>
      <trkpt lat="35.214765071868896" lon="24.023194313049316">
        <ele>601.44200000000001</ele>
        <time>2011-06-15T08:49:44Z</time>
      </trkpt>
      <trkpt lat="35.214850902557373" lon="24.023215770721436">
        <ele>601.923</ele>
        <time>2011-06-15T08:49:53Z</time>
      </trkpt>
      <trkpt lat="35.21493673324585" lon="24.023301601409912">
        <ele>601.44200000000001</ele>
        <time>2011-06-15T08:50:03Z</time>
      </trkpt>
      <trkpt lat="35.215022563934326" lon="24.023323059082031">
        <ele>601.44200000000001</ele>
        <time>2011-06-15T08:50:10Z</time>
      </trkpt>
      <trkpt lat="35.215129852294922" lon="24.02336597442627">
        <ele>601.44200000000001</ele>
        <time>2011-06-15T08:50:19Z</time>
      </trkpt>
      <trkpt lat="35.21517276763916" lon="24.02334451675415">
        <ele>601.44200000000001</ele>
        <time>2011-06-15T08:50:23Z</time>
      </trkpt>
      <trkpt lat="35.215237140655518" lon="24.023301601409912">
        <ele>602.88400000000001</ele>
        <time>2011-06-15T08:50:30Z</time>
      </trkpt>
      <trkpt lat="35.215258598327637" lon="24.023301601409912">
        <ele>603.36500000000001</ele>
        <time>2011-06-15T08:50:32Z</time>
      </trkpt>
      <trkpt lat="35.215322971343994" lon="24.023301601409912">
        <ele>603.84500000000003</ele>
        <time>2011-06-15T08:50:37Z</time>
      </trkpt>
      <trkpt lat="35.215408802032471" lon="24.023301601409912">
        <ele>604.32600000000002</ele>
        <time>2011-06-15T08:50:45Z</time>
      </trkpt>
      <trkpt lat="35.215473175048828" lon="24.023323059082031">
        <ele>605.28700000000003</ele>
        <time>2011-06-15T08:50:51Z</time>
      </trkpt>
      <trkpt lat="35.215494632720947" lon="24.02334451675415">
        <ele>606.24900000000002</ele>
        <time>2011-06-15T08:50:54Z</time>
      </trkpt>
      <trkpt lat="35.215580463409424" lon="24.023387432098389">
        <ele>605.76800000000003</ele>
        <time>2011-06-15T08:51:03Z</time>
      </trkpt>
      <trkpt lat="35.215644836425781" lon="24.023408889770508">
        <ele>605.28700000000003</ele>
        <time>2011-06-15T08:51:08Z</time>
      </trkpt>
      <trkpt lat="35.21568775177002" lon="24.023451805114746">
        <ele>604.32600000000002</ele>
        <time>2011-06-15T08:51:12Z</time>
      </trkpt>
      <trkpt lat="35.215752124786377" lon="24.023473262786865">
        <ele>604.32600000000002</ele>
        <time>2011-06-15T08:51:19Z</time>
      </trkpt>
      <trkpt lat="35.215816497802734" lon="24.023494720458984">
        <ele>604.80700000000002</ele>
        <time>2011-06-15T08:51:25Z</time>
      </trkpt>
      <trkpt lat="35.215816497802734" lon="24.023473262786865">
        <ele>604.80700000000002</ele>
        <time>2011-06-15T08:51:27Z</time>
      </trkpt>
      <trkpt lat="35.215880870819092" lon="24.023473262786865">
        <ele>603.84500000000003</ele>
        <time>2011-06-15T08:51:32Z</time>
      </trkpt>
      <trkpt lat="35.215988159179688" lon="24.023473262786865">
        <ele>602.40300000000002</ele>
        <time>2011-06-15T08:51:40Z</time>
      </trkpt>
      <trkpt lat="35.216031074523926" lon="24.023494720458984">
        <ele>602.88400000000001</ele>
        <time>2011-06-15T08:51:44Z</time>
      </trkpt>
      <trkpt lat="35.21618127822876" lon="24.023623466491699">
        <ele>601.923</ele>
        <time>2011-06-15T08:51:58Z</time>
      </trkpt>
      <trkpt lat="35.216202735900879" lon="24.023666381835938">
        <ele>600.96100000000001</ele>
        <time>2011-06-15T08:52:01Z</time>
      </trkpt>
      <trkpt lat="35.216245651245117" lon="24.023709297180176">
        <ele>600.96100000000001</ele>
        <time>2011-06-15T08:52:09Z</time>
      </trkpt>
      <trkpt lat="35.216331481933594" lon="24.023773670196533">
        <ele>600.48099999999999</ele>
        <time>2011-06-15T08:52:19Z</time>
      </trkpt>
      <trkpt lat="35.216374397277832" lon="24.023773670196533">
        <ele>600.96100000000001</ele>
        <time>2011-06-15T08:52:22Z</time>
      </trkpt>
      <trkpt lat="35.216438770294189" lon="24.023838043212891">
        <ele>600.48099999999999</ele>
        <time>2011-06-15T08:52:31Z</time>
      </trkpt>
      <trkpt lat="35.216460227966309" lon="24.023816585540771">
        <ele>600</ele>
        <time>2011-06-15T08:52:32Z</time>
      </trkpt>
      <trkpt lat="35.216481685638428" lon="24.023838043212891">
        <ele>600</ele>
        <time>2011-06-15T08:52:35Z</time>
      </trkpt>
      <trkpt lat="35.216524600982666" lon="24.023816585540771">
        <ele>600</ele>
        <time>2011-06-15T08:52:42Z</time>
      </trkpt>
      <trkpt lat="35.216567516326904" lon="24.023816585540771">
        <ele>599.51900000000001</ele>
        <time>2011-06-15T08:52:45Z</time>
      </trkpt>
      <trkpt lat="35.216610431671143" lon="24.023838043212891">
        <ele>599.03899999999999</ele>
        <time>2011-06-15T08:52:48Z</time>
      </trkpt>
      <trkpt lat="35.216610431671143" lon="24.023838043212891">
        <ele>599.03899999999999</ele>
        <time>2011-06-15T08:52:50Z</time>
      </trkpt>
      <trkpt lat="35.216696262359619" lon="24.02385950088501">
        <ele>599.51900000000001</ele>
        <time>2011-06-15T08:52:56Z</time>
      </trkpt>
      <trkpt lat="35.216739177703857" lon="24.023880958557129">
        <ele>600</ele>
        <time>2011-06-15T08:52:58Z</time>
      </trkpt>
      <trkpt lat="35.216803550720215" lon="24.023923873901367">
        <ele>601.44200000000001</ele>
        <time>2011-06-15T08:53:04Z</time>
      </trkpt>
      <trkpt lat="35.216889381408691" lon="24.023923873901367">
        <ele>602.88400000000001</ele>
        <time>2011-06-15T08:53:12Z</time>
      </trkpt>
      <trkpt lat="35.216910839080811" lon="24.023902416229248">
        <ele>602.40300000000002</ele>
        <time>2011-06-15T08:53:15Z</time>
      </trkpt>
      <trkpt lat="35.21693229675293" lon="24.023902416229248">
        <ele>601.923</ele>
        <time>2011-06-15T08:53:18Z</time>
      </trkpt>
      <trkpt lat="35.216953754425049" lon="24.023923873901367">
        <ele>601.44200000000001</ele>
        <time>2011-06-15T08:53:21Z</time>
      </trkpt>
      <trkpt lat="35.217018127441406" lon="24.023945331573486">
        <ele>600</ele>
        <time>2011-06-15T08:53:26Z</time>
      </trkpt>
      <trkpt lat="35.217061042785645" lon="24.023945331573486">
        <ele>599.51900000000001</ele>
        <time>2011-06-15T08:53:29Z</time>
      </trkpt>
      <trkpt lat="35.217146873474121" lon="24.023945331573486">
        <ele>597.59699999999998</ele>
        <time>2011-06-15T08:53:38Z</time>
      </trkpt>
      <trkpt lat="35.21716833114624" lon="24.023945331573486">
        <ele>597.11599999999999</ele>
        <time>2011-06-15T08:53:41Z</time>
      </trkpt>
      <trkpt lat="35.217211246490479" lon="24.023966789245605">
        <ele>596.15499999999997</ele>
        <time>2011-06-15T08:53:45Z</time>
      </trkpt>
      <trkpt lat="35.217275619506836" lon="24.023988246917725">
        <ele>595.67399999999998</ele>
        <time>2011-06-15T08:53:54Z</time>
      </trkpt>
      <trkpt lat="35.217339992523193" lon="24.024031162261963">
        <ele>594.71299999999997</ele>
        <time>2011-06-15T08:54:03Z</time>
      </trkpt>
      <trkpt lat="35.217361450195313" lon="24.024031162261963">
        <ele>594.23199999999997</ele>
        <time>2011-06-15T08:54:04Z</time>
      </trkpt>
      <trkpt lat="35.217382907867432" lon="24.024074077606201">
        <ele>593.27099999999996</ele>
        <time>2011-06-15T08:54:06Z</time>
      </trkpt>
      <trkpt lat="35.217404365539551" lon="24.024116992950439">
        <ele>591.34799999999996</ele>
        <time>2011-06-15T08:54:11Z</time>
      </trkpt>
      <trkpt lat="35.217468738555908" lon="24.024181365966797">
        <ele>585.58000000000004</ele>
        <time>2011-06-15T08:54:21Z</time>
      </trkpt>
      <trkpt lat="35.217490196228027" lon="24.024202823638916">
        <ele>584.13800000000003</ele>
        <time>2011-06-15T08:54:23Z</time>
      </trkpt>
      <trkpt lat="35.217533111572266" lon="24.024310111999512">
        <ele>580.29300000000001</ele>
        <time>2011-06-15T08:54:30Z</time>
      </trkpt>
      <trkpt lat="35.217576026916504" lon="24.024331569671631">
        <ele>577.88999999999999</ele>
        <time>2011-06-15T08:54:34Z</time>
      </trkpt>
      <trkpt lat="35.217618942260742" lon="24.024310111999512">
        <ele>575.48599999999999</ele>
        <time>2011-06-15T08:54:39Z</time>
      </trkpt>
      <trkpt lat="35.217640399932861" lon="24.024267196655273">
        <ele>573.08299999999997</ele>
        <time>2011-06-15T08:54:47Z</time>
      </trkpt>
      <trkpt lat="35.21766185760498" lon="24.024267196655273">
        <ele>572.60299999999995</ele>
        <time>2011-06-15T08:54:48Z</time>
      </trkpt>
      <trkpt lat="35.21766185760498" lon="24.024245738983154">
        <ele>572.12199999999996</ele>
        <time>2011-06-15T08:54:50Z</time>
      </trkpt>
      <trkpt lat="35.217704772949219" lon="24.024202823638916">
        <ele>571.64099999999996</ele>
        <time>2011-06-15T08:54:54Z</time>
      </trkpt>
      <trkpt lat="35.217769145965576" lon="24.024181365966797">
        <ele>571.15999999999997</ele>
        <time>2011-06-15T08:55:00Z</time>
      </trkpt>
      <trkpt lat="35.217833518981934" lon="24.024116992950439">
        <ele>570.67999999999995</ele>
        <time>2011-06-15T08:55:06Z</time>
      </trkpt>
      <trkpt lat="35.217876434326172" lon="24.024031162261963">
        <ele>570.19899999999996</ele>
        <time>2011-06-15T08:55:14Z</time>
      </trkpt>
      <trkpt lat="35.21791934967041" lon="24.023945331573486">
        <ele>572.60299999999995</ele>
        <time>2011-06-15T08:55:21Z</time>
      </trkpt>
      <trkpt lat="35.21791934967041" lon="24.023945331573486">
        <ele>572.60299999999995</ele>
        <time>2011-06-15T08:55:22Z</time>
      </trkpt>
      <trkpt lat="35.217940807342529" lon="24.023923873901367">
        <ele>572.60299999999995</ele>
        <time>2011-06-15T08:55:25Z</time>
      </trkpt>
      <trkpt lat="35.217983722686768" lon="24.023902416229248">
        <ele>575.48599999999999</ele>
        <time>2011-06-15T08:55:32Z</time>
      </trkpt>
      <trkpt lat="35.217983722686768" lon="24.02385950088501">
        <ele>580.774</ele>
        <time>2011-06-15T08:55:39Z</time>
      </trkpt>
      <trkpt lat="35.218005180358887" lon="24.023838043212891">
        <ele>585.58000000000004</ele>
        <time>2011-06-15T08:55:46Z</time>
      </trkpt>
      <trkpt lat="35.218048095703125" lon="24.023816585540771">
        <ele>587.02200000000005</ele>
        <time>2011-06-15T08:55:49Z</time>
      </trkpt>
      <trkpt lat="35.218112468719482" lon="24.023730754852295">
        <ele>590.86699999999996</ele>
        <time>2011-06-15T08:55:59Z</time>
      </trkpt>
      <trkpt lat="35.218155384063721" lon="24.023666381835938">
        <ele>592.78999999999996</ele>
        <time>2011-06-15T08:56:06Z</time>
      </trkpt>
      <trkpt lat="35.218155384063721" lon="24.023666381835938">
        <ele>593.27099999999996</ele>
        <time>2011-06-15T08:56:07Z</time>
      </trkpt>
      <trkpt lat="35.218198299407959" lon="24.023623466491699">
        <ele>595.19299999999998</ele>
        <time>2011-06-15T08:56:12Z</time>
      </trkpt>
      <trkpt lat="35.218219757080078" lon="24.02360200881958">
        <ele>595.67399999999998</ele>
        <time>2011-06-15T08:56:15Z</time>
      </trkpt>
      <trkpt lat="35.218241214752197" lon="24.023580551147461">
        <ele>596.63499999999999</ele>
        <time>2011-06-15T08:56:19Z</time>
      </trkpt>
      <trkpt lat="35.218241214752197" lon="24.023559093475342">
        <ele>600.96100000000001</ele>
        <time>2011-06-15T08:56:24Z</time>
      </trkpt>
      <trkpt lat="35.218305587768555" lon="24.023494720458984">
        <ele>605.28700000000003</ele>
        <time>2011-06-15T08:56:34Z</time>
      </trkpt>
      <trkpt lat="35.218348503112793" lon="24.023473262786865">
        <ele>606.72900000000004</ele>
        <time>2011-06-15T08:56:38Z</time>
      </trkpt>
      <trkpt lat="35.21841287612915" lon="24.023430347442627">
        <ele>608.65200000000004</ele>
        <time>2011-06-15T08:56:47Z</time>
      </trkpt>
      <trkpt lat="35.21843433380127" lon="24.023387432098389">
        <ele>608.65200000000004</ele>
        <time>2011-06-15T08:56:51Z</time>
      </trkpt>
      <trkpt lat="35.218477249145508" lon="24.02334451675415">
        <ele>608.17100000000005</ele>
        <time>2011-06-15T08:56:57Z</time>
      </trkpt>
      <trkpt lat="35.218498706817627" lon="24.02334451675415">
        <ele>608.65200000000004</ele>
        <time>2011-06-15T08:56:59Z</time>
      </trkpt>
      <trkpt lat="35.218541622161865" lon="24.023301601409912">
        <ele>609.61300000000006</ele>
        <time>2011-06-15T08:57:04Z</time>
      </trkpt>
      <trkpt lat="35.218584537506104" lon="24.023280143737793">
        <ele>610.09400000000005</ele>
        <time>2011-06-15T08:57:08Z</time>
      </trkpt>
      <trkpt lat="35.218648910522461" lon="24.023258686065674">
        <ele>611.53599999999994</ele>
        <time>2011-06-15T08:57:15Z</time>
      </trkpt>
      <trkpt lat="35.218713283538818" lon="24.023237228393555">
        <ele>612.49699999999996</ele>
        <time>2011-06-15T08:57:22Z</time>
      </trkpt>
      <trkpt lat="35.218777656555176" lon="24.023215770721436">
        <ele>613.45799999999997</ele>
        <time>2011-06-15T08:57:26Z</time>
      </trkpt>
      <trkpt lat="35.218799114227295" lon="24.023215770721436">
        <ele>613.93899999999996</ele>
        <time>2011-06-15T08:57:29Z</time>
      </trkpt>
      <trkpt lat="35.218820571899414" lon="24.023194313049316">
        <ele>613.93899999999996</ele>
        <time>2011-06-15T08:57:31Z</time>
      </trkpt>
      <trkpt lat="35.218863487243652" lon="24.023151397705078">
        <ele>613.93899999999996</ele>
        <time>2011-06-15T08:57:35Z</time>
      </trkpt>
      <trkpt lat="35.218906402587891" lon="24.023129940032959">
        <ele>613.93899999999996</ele>
        <time>2011-06-15T08:57:41Z</time>
      </trkpt>
      <trkpt lat="35.218970775604248" lon="24.023087024688721">
        <ele>612.97799999999995</ele>
        <time>2011-06-15T08:57:48Z</time>
      </trkpt>
      <trkpt lat="35.218992233276367" lon="24.023065567016602">
        <ele>612.01700000000005</ele>
        <time>2011-06-15T08:57:53Z</time>
      </trkpt>
      <trkpt lat="35.219013690948486" lon="24.023044109344482">
        <ele>612.01700000000005</ele>
        <time>2011-06-15T08:57:55Z</time>
      </trkpt>
      <trkpt lat="35.219078063964844" lon="24.023001194000244">
        <ele>613.45799999999997</ele>
        <time>2011-06-15T08:58:02Z</time>
      </trkpt>
      <trkpt lat="35.219120979309082" lon="24.022979736328125">
        <ele>612.97799999999995</ele>
        <time>2011-06-15T08:58:06Z</time>
      </trkpt>
      <trkpt lat="35.219228267669678" lon="24.022936820983887">
        <ele>612.97799999999995</ele>
        <time>2011-06-15T08:58:14Z</time>
      </trkpt>
      <trkpt lat="35.219292640686035" lon="24.022872447967529">
        <ele>613.93899999999996</ele>
        <time>2011-06-15T08:58:23Z</time>
      </trkpt>
      <trkpt lat="35.219378471374512" lon="24.02285099029541">
        <ele>615.86199999999997</ele>
        <time>2011-06-15T08:58:34Z</time>
      </trkpt>
      <trkpt lat="35.219464302062988" lon="24.022829532623291">
        <ele>617.30399999999997</ele>
        <time>2011-06-15T08:58:44Z</time>
      </trkpt>
      <trkpt lat="35.219528675079346" lon="24.022786617279053">
        <ele>618.26499999999999</ele>
        <time>2011-06-15T08:58:52Z</time>
      </trkpt>
      <trkpt lat="35.219635963439941" lon="24.022722244262695">
        <ele>619.70699999999999</ele>
        <time>2011-06-15T08:58:59Z</time>
      </trkpt>
      <trkpt lat="35.219657421112061" lon="24.022700786590576">
        <ele>620.66800000000001</ele>
        <time>2011-06-15T08:59:02Z</time>
      </trkpt>
      <trkpt lat="35.21967887878418" lon="24.022679328918457">
        <ele>622.11000000000001</ele>
        <time>2011-06-15T08:59:05Z</time>
      </trkpt>
      <trkpt lat="35.219764709472656" lon="24.022636413574219">
        <ele>622.59100000000001</ele>
        <time>2011-06-15T08:59:14Z</time>
      </trkpt>
      <trkpt lat="35.219786167144775" lon="24.02259349822998">
        <ele>621.63</ele>
        <time>2011-06-15T08:59:17Z</time>
      </trkpt>
      <trkpt lat="35.219829082489014" lon="24.022572040557861">
        <ele>622.59100000000001</ele>
        <time>2011-06-15T08:59:20Z</time>
      </trkpt>
      <trkpt lat="35.219893455505371" lon="24.022529125213623">
        <ele>624.51400000000001</ele>
        <time>2011-06-15T08:59:28Z</time>
      </trkpt>
      <trkpt lat="35.219936370849609" lon="24.022486209869385">
        <ele>624.99400000000003</ele>
        <time>2011-06-15T08:59:31Z</time>
      </trkpt>
      <trkpt lat="35.219957828521729" lon="24.022464752197266">
        <ele>624.99400000000003</ele>
        <time>2011-06-15T08:59:33Z</time>
      </trkpt>
      <trkpt lat="35.220065116882324" lon="24.02235746383667">
        <ele>628.35900000000004</ele>
        <time>2011-06-15T08:59:43Z</time>
      </trkpt>
      <trkpt lat="35.220150947570801" lon="24.022336006164551">
        <ele>629.80100000000004</ele>
        <time>2011-06-15T08:59:52Z</time>
      </trkpt>
      <trkpt lat="35.22017240524292" lon="24.022336006164551">
        <ele>630.28099999999995</ele>
        <time>2011-06-15T08:59:55Z</time>
      </trkpt>
      <trkpt lat="35.220193862915039" lon="24.022314548492432">
        <ele>630.28099999999995</ele>
        <time>2011-06-15T08:59:57Z</time>
      </trkpt>
      <trkpt lat="35.220236778259277" lon="24.022293090820313">
        <ele>630.28099999999995</ele>
        <time>2011-06-15T09:00:01Z</time>
      </trkpt>
      <trkpt lat="35.220322608947754" lon="24.022250175476074">
        <ele>630.28099999999995</ele>
        <time>2011-06-15T09:00:07Z</time>
      </trkpt>
      <trkpt lat="35.220344066619873" lon="24.022228717803955">
        <ele>631.72299999999996</ele>
        <time>2011-06-15T09:00:12Z</time>
      </trkpt>
      <trkpt lat="35.220344066619873" lon="24.022185802459717">
        <ele>631.72299999999996</ele>
        <time>2011-06-15T09:00:15Z</time>
      </trkpt>
      <trkpt lat="35.22040843963623" lon="24.022185802459717">
        <ele>632.20399999999995</ele>
        <time>2011-06-15T09:00:22Z</time>
      </trkpt>
      <trkpt lat="35.220451354980469" lon="24.022164344787598">
        <ele>632.20399999999995</ele>
        <time>2011-06-15T09:00:24Z</time>
      </trkpt>
      <trkpt lat="35.220515727996826" lon="24.022142887115479">
        <ele>631.72299999999996</ele>
        <time>2011-06-15T09:00:32Z</time>
      </trkpt>
      <trkpt lat="35.220558643341064" lon="24.022121429443359">
        <ele>631.24300000000005</ele>
        <time>2011-06-15T09:00:35Z</time>
      </trkpt>
      <trkpt lat="35.220580101013184" lon="24.022121429443359">
        <ele>631.24300000000005</ele>
        <time>2011-06-15T09:00:37Z</time>
      </trkpt>
      <trkpt lat="35.220623016357422" lon="24.022121429443359">
        <ele>631.24300000000005</ele>
        <time>2011-06-15T09:00:40Z</time>
      </trkpt>
      <trkpt lat="35.220623016357422" lon="24.022121429443359">
        <ele>631.72299999999996</ele>
        <time>2011-06-15T09:00:42Z</time>
      </trkpt>
      <trkpt lat="35.220687389373779" lon="24.02209997177124">
        <ele>634.60699999999997</ele>
        <time>2011-06-15T09:00:49Z</time>
      </trkpt>
      <trkpt lat="35.220751762390137" lon="24.02209997177124">
        <ele>636.52999999999997</ele>
        <time>2011-06-15T09:00:57Z</time>
      </trkpt>
      <trkpt lat="35.220794677734375" lon="24.02209997177124">
        <ele>636.04999999999995</ele>
        <time>2011-06-15T09:01:07Z</time>
      </trkpt>
      <trkpt lat="35.22092342376709" lon="24.022035598754883">
        <ele>637.01099999999997</ele>
        <time>2011-06-15T09:01:20Z</time>
      </trkpt>
      <trkpt lat="35.220987796783447" lon="24.022035598754883">
        <ele>636.52999999999997</ele>
        <time>2011-06-15T09:01:28Z</time>
      </trkpt>
      <trkpt lat="35.221052169799805" lon="24.022014141082764">
        <ele>635.56899999999996</ele>
        <time>2011-06-15T09:01:35Z</time>
      </trkpt>
      <trkpt lat="35.221073627471924" lon="24.022014141082764">
        <ele>636.04999999999995</ele>
        <time>2011-06-15T09:01:39Z</time>
      </trkpt>
      <trkpt lat="35.22118091583252" lon="24.022014141082764">
        <ele>634.60699999999997</ele>
        <time>2011-06-15T09:01:47Z</time>
      </trkpt>
      <trkpt lat="35.22118091583252" lon="24.022014141082764">
        <ele>634.60699999999997</ele>
        <time>2011-06-15T09:01:48Z</time>
      </trkpt>
      <trkpt lat="35.221223831176758" lon="24.022014141082764">
        <ele>634.12699999999995</ele>
        <time>2011-06-15T09:01:51Z</time>
      </trkpt>
      <trkpt lat="35.221288204193115" lon="24.021971225738525">
        <ele>633.64599999999996</ele>
        <time>2011-06-15T09:01:58Z</time>
      </trkpt>
      <trkpt lat="35.221309661865234" lon="24.021971225738525">
        <ele>633.16499999999996</ele>
        <time>2011-06-15T09:02:00Z</time>
      </trkpt>
      <trkpt lat="35.221374034881592" lon="24.021971225738525">
        <ele>634.12699999999995</ele>
        <time>2011-06-15T09:02:04Z</time>
      </trkpt>
      <trkpt lat="35.221438407897949" lon="24.021949768066406">
        <ele>635.08799999999997</ele>
        <time>2011-06-15T09:02:10Z</time>
      </trkpt>
      <trkpt lat="35.221459865570068" lon="24.021949768066406">
        <ele>635.08799999999997</ele>
        <time>2011-06-15T09:02:12Z</time>
      </trkpt>
      <trkpt lat="35.221524238586426" lon="24.021992683410645">
        <ele>635.56899999999996</ele>
        <time>2011-06-15T09:02:20Z</time>
      </trkpt>
      <trkpt lat="35.221588611602783" lon="24.021949768066406">
        <ele>637.01099999999997</ele>
        <time>2011-06-15T09:02:27Z</time>
      </trkpt>
      <trkpt lat="35.221652984619141" lon="24.021928310394287">
        <ele>637.49099999999999</ele>
        <time>2011-06-15T09:02:33Z</time>
      </trkpt>
      <trkpt lat="35.221738815307617" lon="24.021928310394287">
        <ele>638.45299999999997</ele>
        <time>2011-06-15T09:02:39Z</time>
      </trkpt>
      <trkpt lat="35.221824645996094" lon="24.021949768066406">
        <ele>639.41399999999999</ele>
        <time>2011-06-15T09:02:46Z</time>
      </trkpt>
      <trkpt lat="35.221846103668213" lon="24.021949768066406">
        <ele>639.41399999999999</ele>
        <time>2011-06-15T09:02:48Z</time>
      </trkpt>
      <trkpt lat="35.221931934356689" lon="24.021928310394287">
        <ele>637.97199999999998</ele>
        <time>2011-06-15T09:02:57Z</time>
      </trkpt>
      <trkpt lat="35.221996307373047" lon="24.021949768066406">
        <ele>637.01099999999997</ele>
        <time>2011-06-15T09:03:03Z</time>
      </trkpt>
      <trkpt lat="35.222017765045166" lon="24.021971225738525">
        <ele>637.01099999999997</ele>
        <time>2011-06-15T09:03:05Z</time>
      </trkpt>
      <trkpt lat="35.222125053405762" lon="24.021949768066406">
        <ele>637.97199999999998</ele>
        <time>2011-06-15T09:03:14Z</time>
      </trkpt>
      <trkpt lat="35.222189426422119" lon="24.021949768066406">
        <ele>638.45299999999997</ele>
        <time>2011-06-15T09:03:22Z</time>
      </trkpt>
      <trkpt lat="35.222210884094238" lon="24.021949768066406">
        <ele>637.97199999999998</ele>
        <time>2011-06-15T09:03:25Z</time>
      </trkpt>
      <trkpt lat="35.222275257110596" lon="24.021906852722168">
        <ele>637.97199999999998</ele>
        <time>2011-06-15T09:03:31Z</time>
      </trkpt>
      <trkpt lat="35.222339630126953" lon="24.02186393737793">
        <ele>638.93399999999997</ele>
        <time>2011-06-15T09:03:39Z</time>
      </trkpt>
      <trkpt lat="35.222404003143311" lon="24.021842479705811">
        <ele>640.375</ele>
        <time>2011-06-15T09:03:48Z</time>
      </trkpt>
      <trkpt lat="35.222446918487549" lon="24.021842479705811">
        <ele>642.298</ele>
        <time>2011-06-15T09:03:56Z</time>
      </trkpt>
      <trkpt lat="35.222468376159668" lon="24.021821022033691">
        <ele>643.74000000000001</ele>
        <time>2011-06-15T09:04:01Z</time>
      </trkpt>
      <trkpt lat="35.222511291503906" lon="24.021821022033691">
        <ele>646.14300000000003</ele>
        <time>2011-06-15T09:04:11Z</time>
      </trkpt>
      <trkpt lat="35.222554206848145" lon="24.021799564361572">
        <ele>646.62400000000002</ele>
        <time>2011-06-15T09:04:16Z</time>
      </trkpt>
      <trkpt lat="35.222597122192383" lon="24.021799564361572">
        <ele>646.62400000000002</ele>
        <time>2011-06-15T09:04:20Z</time>
      </trkpt>
      <trkpt lat="35.222682952880859" lon="24.021778106689453">
        <ele>646.14300000000003</ele>
        <time>2011-06-15T09:04:27Z</time>
      </trkpt>
      <trkpt lat="35.222725868225098" lon="24.021756649017334">
        <ele>646.14300000000003</ele>
        <time>2011-06-15T09:04:36Z</time>
      </trkpt>
      <trkpt lat="35.222768783569336" lon="24.021692276000977">
        <ele>647.10400000000004</ele>
        <time>2011-06-15T09:04:43Z</time>
      </trkpt>
      <trkpt lat="35.222833156585693" lon="24.021627902984619">
        <ele>650.46900000000005</ele>
        <time>2011-06-15T09:04:51Z</time>
      </trkpt>
      <trkpt lat="35.222854614257813" lon="24.021627902984619">
        <ele>652.87300000000005</ele>
        <time>2011-06-15T09:04:57Z</time>
      </trkpt>
      <trkpt lat="35.222897529602051" lon="24.021627902984619">
        <ele>656.23699999999997</ele>
        <time>2011-06-15T09:05:06Z</time>
      </trkpt>
      <trkpt lat="35.22291898727417" lon="24.0216064453125">
        <ele>656.71799999999996</ele>
        <time>2011-06-15T09:05:07Z</time>
      </trkpt>
      <trkpt lat="35.222940444946289" lon="24.0216064453125">
        <ele>657.67899999999997</ele>
        <time>2011-06-15T09:05:10Z</time>
      </trkpt>
      <trkpt lat="35.222983360290527" lon="24.021563529968262">
        <ele>661.524</ele>
        <time>2011-06-15T09:05:21Z</time>
      </trkpt>
      <trkpt lat="35.222983360290527" lon="24.021584987640381">
        <ele>664.40800000000002</ele>
        <time>2011-06-15T09:05:56Z</time>
      </trkpt>
      <trkpt lat="35.223004817962646" lon="24.021584987640381">
        <ele>664.40800000000002</ele>
        <time>2011-06-15T09:06:02Z</time>
      </trkpt>
      <trkpt lat="35.223069190979004" lon="24.021563529968262">
        <ele>664.40800000000002</ele>
        <time>2011-06-15T09:06:10Z</time>
      </trkpt>
      <trkpt lat="35.223090648651123" lon="24.021542072296143">
        <ele>664.88900000000001</ele>
        <time>2011-06-15T09:06:15Z</time>
      </trkpt>
      <trkpt lat="35.223133563995361" lon="24.021542072296143">
        <ele>665.37</ele>
        <time>2011-06-15T09:06:18Z</time>
      </trkpt>
      <trkpt lat="35.223133563995361" lon="24.021563529968262">
        <ele>665.37</ele>
        <time>2011-06-15T09:06:20Z</time>
      </trkpt>
      <trkpt lat="35.22315502166748" lon="24.021563529968262">
        <ele>666.33100000000002</ele>
        <time>2011-06-15T09:06:25Z</time>
      </trkpt>
      <trkpt lat="35.22315502166748" lon="24.021584987640381">
        <ele>667.29200000000003</ele>
        <time>2011-06-15T09:06:28Z</time>
      </trkpt>
      <trkpt lat="35.223197937011719" lon="24.021584987640381">
        <ele>668.25400000000002</ele>
        <time>2011-06-15T09:06:32Z</time>
      </trkpt>
      <trkpt lat="35.223219394683838" lon="24.021563529968262">
        <ele>668.25400000000002</ele>
        <time>2011-06-15T09:06:34Z</time>
      </trkpt>
      <trkpt lat="35.223262310028076" lon="24.021542072296143">
        <ele>670.17600000000004</ele>
        <time>2011-06-15T09:06:39Z</time>
      </trkpt>
      <trkpt lat="35.223305225372314" lon="24.021563529968262">
        <ele>670.65700000000004</ele>
        <time>2011-06-15T09:06:46Z</time>
      </trkpt>
      <trkpt lat="35.223348140716553" lon="24.021584987640381">
        <ele>670.65700000000004</ele>
        <time>2011-06-15T09:06:54Z</time>
      </trkpt>
      <trkpt lat="35.22341251373291" lon="24.0216064453125">
        <ele>670.65700000000004</ele>
        <time>2011-06-15T09:07:03Z</time>
      </trkpt>
      <trkpt lat="35.223433971405029" lon="24.0216064453125">
        <ele>670.17600000000004</ele>
        <time>2011-06-15T09:07:06Z</time>
      </trkpt>
      <trkpt lat="35.223455429077148" lon="24.0216064453125">
        <ele>670.17600000000004</ele>
        <time>2011-06-15T09:07:09Z</time>
      </trkpt>
      <trkpt lat="35.223498344421387" lon="24.0216064453125">
        <ele>671.61800000000005</ele>
        <time>2011-06-15T09:07:14Z</time>
      </trkpt>
      <trkpt lat="35.223562717437744" lon="24.0216064453125">
        <ele>673.05999999999995</ele>
        <time>2011-06-15T09:07:21Z</time>
      </trkpt>
      <trkpt lat="35.223584175109863" lon="24.021627902984619">
        <ele>673.05999999999995</ele>
        <time>2011-06-15T09:07:23Z</time>
      </trkpt>
      <trkpt lat="35.223627090454102" lon="24.0216064453125">
        <ele>674.50199999999995</ele>
        <time>2011-06-15T09:07:29Z</time>
      </trkpt>
      <trkpt lat="35.223648548126221" lon="24.0216064453125">
        <ele>675.46299999999997</ele>
        <time>2011-06-15T09:07:33Z</time>
      </trkpt>
      <trkpt lat="35.223712921142578" lon="24.0216064453125">
        <ele>675.46299999999997</ele>
        <time>2011-06-15T09:07:40Z</time>
      </trkpt>
      <trkpt lat="35.223755836486816" lon="24.021584987640381">
        <ele>675.94399999999996</ele>
        <time>2011-06-15T09:07:44Z</time>
      </trkpt>
      <trkpt lat="35.223777294158936" lon="24.021563529968262">
        <ele>677.38599999999997</ele>
        <time>2011-06-15T09:07:52Z</time>
      </trkpt>
      <trkpt lat="35.223798751831055" lon="24.021542072296143">
        <ele>677.86699999999996</ele>
        <time>2011-06-15T09:07:55Z</time>
      </trkpt>
      <trkpt lat="35.223841667175293" lon="24.021542072296143">
        <ele>678.34699999999998</ele>
        <time>2011-06-15T09:07:58Z</time>
      </trkpt>
      <trkpt lat="35.22390604019165" lon="24.021520614624023">
        <ele>680.75099999999998</ele>
        <time>2011-06-15T09:08:05Z</time>
      </trkpt>
      <trkpt lat="35.223970413208008" lon="24.021499156951904">
        <ele>683.63499999999999</ele>
        <time>2011-06-15T09:08:13Z</time>
      </trkpt>
      <trkpt lat="35.223991870880127" lon="24.021499156951904">
        <ele>684.11500000000001</ele>
        <time>2011-06-15T09:08:15Z</time>
      </trkpt>
      <trkpt lat="35.224077701568604" lon="24.021499156951904">
        <ele>686.51900000000001</ele>
        <time>2011-06-15T09:08:24Z</time>
      </trkpt>
      <trkpt lat="35.224099159240723" lon="24.021520614624023">
        <ele>687.48000000000002</ele>
        <time>2011-06-15T09:08:26Z</time>
      </trkpt>
      <trkpt lat="35.224120616912842" lon="24.021520614624023">
        <ele>687.48000000000002</ele>
        <time>2011-06-15T09:08:30Z</time>
      </trkpt>
      <trkpt lat="35.224184989929199" lon="24.021542072296143">
        <ele>688.44100000000003</ele>
        <time>2011-06-15T09:08:38Z</time>
      </trkpt>
      <trkpt lat="35.224270820617676" lon="24.021499156951904">
        <ele>688.44100000000003</ele>
        <time>2011-06-15T09:08:46Z</time>
      </trkpt>
      <trkpt lat="35.224335193634033" lon="24.021499156951904">
        <ele>688.92200000000003</ele>
        <time>2011-06-15T09:08:53Z</time>
      </trkpt>
      <trkpt lat="35.224356651306152" lon="24.021520614624023">
        <ele>689.40300000000002</ele>
        <time>2011-06-15T09:08:55Z</time>
      </trkpt>
      <trkpt lat="35.224399566650391" lon="24.021542072296143">
        <ele>689.40300000000002</ele>
        <time>2011-06-15T09:09:00Z</time>
      </trkpt>
      <trkpt lat="35.22442102432251" lon="24.021542072296143">
        <ele>690.36400000000003</ele>
        <time>2011-06-15T09:09:05Z</time>
      </trkpt>
      <trkpt lat="35.224506855010986" lon="24.021542072296143">
        <ele>691.32500000000005</ele>
        <time>2011-06-15T09:09:14Z</time>
      </trkpt>
      <trkpt lat="35.224592685699463" lon="24.021542072296143">
        <ele>690.84400000000005</ele>
        <time>2011-06-15T09:09:23Z</time>
      </trkpt>
      <trkpt lat="35.224635601043701" lon="24.021542072296143">
        <ele>690.84400000000005</ele>
        <time>2011-06-15T09:09:27Z</time>
      </trkpt>
      <trkpt lat="35.22465705871582" lon="24.021520614624023">
        <ele>691.32500000000005</ele>
        <time>2011-06-15T09:09:30Z</time>
      </trkpt>
      <trkpt lat="35.224699974060059" lon="24.021520614624023">
        <ele>691.80600000000004</ele>
        <time>2011-06-15T09:09:40Z</time>
      </trkpt>
      <trkpt lat="35.224742889404297" lon="24.021499156951904">
        <ele>696.61300000000006</ele>
        <time>2011-06-15T09:11:05Z</time>
      </trkpt>
      <trkpt lat="35.224785804748535" lon="24.021520614624023">
        <ele>697.57399999999996</ele>
        <time>2011-06-15T09:11:10Z</time>
      </trkpt>
      <trkpt lat="35.224828720092773" lon="24.021520614624023">
        <ele>699.01599999999996</ele>
        <time>2011-06-15T09:11:17Z</time>
      </trkpt>
      <trkpt lat="35.224893093109131" lon="24.021499156951904">
        <ele>701.89999999999998</ele>
        <time>2011-06-15T09:11:26Z</time>
      </trkpt>
      <trkpt lat="35.224957466125488" lon="24.021477699279785">
        <ele>703.82299999999998</ele>
        <time>2011-06-15T09:11:35Z</time>
      </trkpt>
      <trkpt lat="35.224978923797607" lon="24.021477699279785">
        <ele>702.86099999999999</ele>
        <time>2011-06-15T09:11:38Z</time>
      </trkpt>
      <trkpt lat="35.225000381469727" lon="24.021413326263428">
        <ele>704.303</ele>
        <time>2011-06-15T09:11:43Z</time>
      </trkpt>
      <trkpt lat="35.225043296813965" lon="24.021370410919189">
        <ele>706.226</ele>
        <time>2011-06-15T09:11:52Z</time>
      </trkpt>
      <trkpt lat="35.225086212158203" lon="24.021327495574951">
        <ele>706.70600000000002</ele>
        <time>2011-06-15T09:12:01Z</time>
      </trkpt>
      <trkpt lat="35.22517204284668" lon="24.021284580230713">
        <ele>707.66800000000001</ele>
        <time>2011-06-15T09:12:12Z</time>
      </trkpt>
      <trkpt lat="35.225236415863037" lon="24.021241664886475">
        <ele>710.55200000000002</ele>
        <time>2011-06-15T09:12:24Z</time>
      </trkpt>
      <trkpt lat="35.225257873535156" lon="24.021241664886475">
        <ele>711.03200000000004</ele>
        <time>2011-06-15T09:12:26Z</time>
      </trkpt>
      <trkpt lat="35.225279331207275" lon="24.021220207214355">
        <ele>712.95500000000004</ele>
        <time>2011-06-15T09:12:33Z</time>
      </trkpt>
      <trkpt lat="35.225322246551514" lon="24.021220207214355">
        <ele>714.39700000000005</ele>
        <time>2011-06-15T09:12:42Z</time>
      </trkpt>
      <trkpt lat="35.225365161895752" lon="24.021220207214355">
        <ele>715.35799999999995</ele>
        <time>2011-06-15T09:12:50Z</time>
      </trkpt>
      <trkpt lat="35.22540807723999" lon="24.021198749542236">
        <ele>716.79999999999995</ele>
        <time>2011-06-15T09:12:59Z</time>
      </trkpt>
      <trkpt lat="35.225429534912109" lon="24.021220207214355">
        <ele>716.79999999999995</ele>
        <time>2011-06-15T09:13:02Z</time>
      </trkpt>
      <trkpt lat="35.225450992584229" lon="24.021177291870117">
        <ele>719.20399999999995</ele>
        <time>2011-06-15T09:13:11Z</time>
      </trkpt>
      <trkpt lat="35.225472450256348" lon="24.021177291870117">
        <ele>719.20399999999995</ele>
        <time>2011-06-15T09:13:12Z</time>
      </trkpt>
      <trkpt lat="35.225536823272705" lon="24.021177291870117">
        <ele>720.64599999999996</ele>
        <time>2011-06-15T09:13:18Z</time>
      </trkpt>
      <trkpt lat="35.225558280944824" lon="24.021155834197998">
        <ele>722.08699999999999</ele>
        <time>2011-06-15T09:13:21Z</time>
      </trkpt>
      <trkpt lat="35.225622653961182" lon="24.021134376525879">
        <ele>724.00999999999999</ele>
        <time>2011-06-15T09:13:29Z</time>
      </trkpt>
      <trkpt lat="35.225644111633301" lon="24.021134376525879">
        <ele>724.49099999999999</ele>
        <time>2011-06-15T09:13:31Z</time>
      </trkpt>
      <trkpt lat="35.22566556930542" lon="24.021134376525879">
        <ele>724.971</ele>
        <time>2011-06-15T09:13:34Z</time>
      </trkpt>
      <trkpt lat="35.225729942321777" lon="24.02111291885376">
        <ele>725.93299999999999</ele>
        <time>2011-06-15T09:13:44Z</time>
      </trkpt>
      <trkpt lat="35.225772857666016" lon="24.02111291885376">
        <ele>725.452</ele>
        <time>2011-06-15T09:13:48Z</time>
      </trkpt>
      <trkpt lat="35.225815773010254" lon="24.021070003509521">
        <ele>724.971</ele>
        <time>2011-06-15T09:13:56Z</time>
      </trkpt>
      <trkpt lat="35.225880146026611" lon="24.021070003509521">
        <ele>722.08699999999999</ele>
        <time>2011-06-15T09:14:05Z</time>
      </trkpt>
      <trkpt lat="35.22590160369873" lon="24.021048545837402">
        <ele>722.08699999999999</ele>
        <time>2011-06-15T09:14:06Z</time>
      </trkpt>
      <trkpt lat="35.22592306137085" lon="24.021027088165283">
        <ele>723.04899999999998</ele>
        <time>2011-06-15T09:14:09Z</time>
      </trkpt>
      <trkpt lat="35.225987434387207" lon="24.020962715148926">
        <ele>724.49099999999999</ele>
        <time>2011-06-15T09:14:17Z</time>
      </trkpt>
      <trkpt lat="35.226051807403564" lon="24.020941257476807">
        <ele>723.52999999999997</ele>
        <time>2011-06-15T09:14:25Z</time>
      </trkpt>
      <trkpt lat="35.226073265075684" lon="24.020941257476807">
        <ele>723.52999999999997</ele>
        <time>2011-06-15T09:14:28Z</time>
      </trkpt>
      <trkpt lat="35.226116180419922" lon="24.020919799804688">
        <ele>723.52999999999997</ele>
        <time>2011-06-15T09:14:33Z</time>
      </trkpt>
      <trkpt lat="35.226137638092041" lon="24.020941257476807">
        <ele>723.52999999999997</ele>
        <time>2011-06-15T09:14:35Z</time>
      </trkpt>
      <trkpt lat="35.22615909576416" lon="24.020941257476807">
        <ele>722.56799999999998</ele>
        <time>2011-06-15T09:14:39Z</time>
      </trkpt>
      <trkpt lat="35.226223468780518" lon="24.020919799804688">
        <ele>723.04899999999998</ele>
        <time>2011-06-15T09:14:48Z</time>
      </trkpt>
      <trkpt lat="35.226223468780518" lon="24.020898342132568">
        <ele>723.52999999999997</ele>
        <time>2011-06-15T09:14:50Z</time>
      </trkpt>
      <trkpt lat="35.226244926452637" lon="24.020833969116211">
        <ele>723.52999999999997</ele>
        <time>2011-06-15T09:14:56Z</time>
      </trkpt>
      <trkpt lat="35.226287841796875" lon="24.020812511444092">
        <ele>725.452</ele>
        <time>2011-06-15T09:15:00Z</time>
      </trkpt>
      <trkpt lat="35.226309299468994" lon="24.020769596099854">
        <ele>727.375</ele>
        <time>2011-06-15T09:15:04Z</time>
      </trkpt>
      <trkpt lat="35.226395130157471" lon="24.020748138427734">
        <ele>731.22000000000003</ele>
        <time>2011-06-15T09:15:11Z</time>
      </trkpt>
      <trkpt lat="35.226438045501709" lon="24.020705223083496">
        <ele>734.10400000000004</ele>
        <time>2011-06-15T09:15:21Z</time>
      </trkpt>
      <trkpt lat="35.226502418518066" lon="24.020640850067139">
        <ele>737.94899999999996</ele>
        <time>2011-06-15T09:15:29Z</time>
      </trkpt>
      <trkpt lat="35.226502418518066" lon="24.020640850067139">
        <ele>738.42999999999995</ele>
        <time>2011-06-15T09:15:30Z</time>
      </trkpt>
      <trkpt lat="35.226545333862305" lon="24.020640850067139">
        <ele>743.71699999999998</ele>
        <time>2011-06-15T09:15:37Z</time>
      </trkpt>
      <trkpt lat="35.226588249206543" lon="24.020662307739258">
        <ele>746.601</ele>
        <time>2011-06-15T09:15:42Z</time>
      </trkpt>
      <trkpt lat="35.226609706878662" lon="24.020662307739258">
        <ele>748.04300000000001</ele>
        <time>2011-06-15T09:15:45Z</time>
      </trkpt>
      <trkpt lat="35.22667407989502" lon="24.020640850067139">
        <ele>748.524</ele>
        <time>2011-06-15T09:15:53Z</time>
      </trkpt>
      <trkpt lat="35.226716995239258" lon="24.020640850067139">
        <ele>748.524</ele>
        <time>2011-06-15T09:15:56Z</time>
      </trkpt>
      <trkpt lat="35.226759910583496" lon="24.020662307739258">
        <ele>748.524</ele>
        <time>2011-06-15T09:15:58Z</time>
      </trkpt>
      <trkpt lat="35.226845741271973" lon="24.020705223083496">
        <ele>748.524</ele>
        <time>2011-06-15T09:16:07Z</time>
      </trkpt>
      <trkpt lat="35.226888656616211" lon="24.020726680755615">
        <ele>747.56200000000001</ele>
        <time>2011-06-15T09:16:12Z</time>
      </trkpt>
      <trkpt lat="35.226953029632568" lon="24.020748138427734">
        <ele>747.56200000000001</ele>
        <time>2011-06-15T09:16:21Z</time>
      </trkpt>
      <trkpt lat="35.227017402648926" lon="24.020726680755615">
        <ele>749.96600000000001</ele>
        <time>2011-06-15T09:16:28Z</time>
      </trkpt>
      <trkpt lat="35.227081775665283" lon="24.020748138427734">
        <ele>757.65599999999995</ele>
        <time>2011-06-15T09:16:37Z</time>
      </trkpt>
      <trkpt lat="35.22716760635376" lon="24.020791053771973">
        <ele>765.34699999999998</ele>
        <time>2011-06-15T09:16:44Z</time>
      </trkpt>
      <trkpt lat="35.227210521697998" lon="24.020812511444092">
        <ele>772.07600000000002</ele>
        <time>2011-06-15T09:16:50Z</time>
      </trkpt>
      <trkpt lat="35.227253437042236" lon="24.020791053771973">
        <ele>774.96000000000004</ele>
        <time>2011-06-15T09:16:58Z</time>
      </trkpt>
      <trkpt lat="35.227296352386475" lon="24.020812511444092">
        <ele>774.96000000000004</ele>
        <time>2011-06-15T09:17:06Z</time>
      </trkpt>
      <trkpt lat="35.227360725402832" lon="24.020791053771973">
        <ele>774.96000000000004</ele>
        <time>2011-06-15T09:17:16Z</time>
      </trkpt>
      <trkpt lat="35.227425098419189" lon="24.020769596099854">
        <ele>773.99900000000002</ele>
        <time>2011-06-15T09:17:22Z</time>
      </trkpt>
      <trkpt lat="35.227489471435547" lon="24.020748138427734">
        <ele>772.55700000000002</ele>
        <time>2011-06-15T09:17:35Z</time>
      </trkpt>
      <trkpt lat="35.227510929107666" lon="24.020705223083496">
        <ele>772.07600000000002</ele>
        <time>2011-06-15T09:17:42Z</time>
      </trkpt>
      <trkpt lat="35.227575302124023" lon="24.020683765411377">
        <ele>771.11500000000001</ele>
        <time>2011-06-15T09:17:51Z</time>
      </trkpt>
      <trkpt lat="35.227575302124023" lon="24.020683765411377">
        <ele>770.63400000000001</ele>
        <time>2011-06-15T09:17:53Z</time>
      </trkpt>
      <trkpt lat="35.227639675140381" lon="24.020705223083496">
        <ele>769.673</ele>
        <time>2011-06-15T09:18:00Z</time>
      </trkpt>
      <trkpt lat="35.2276611328125" lon="24.020726680755615">
        <ele>769.673</ele>
        <time>2011-06-15T09:18:03Z</time>
      </trkpt>
      <trkpt lat="35.227704048156738" lon="24.020748138427734">
        <ele>769.673</ele>
        <time>2011-06-15T09:18:07Z</time>
      </trkpt>
      <trkpt lat="35.227746963500977" lon="24.020726680755615">
        <ele>771.59500000000003</ele>
        <time>2011-06-15T09:18:13Z</time>
      </trkpt>
      <trkpt lat="35.227789878845215" lon="24.020726680755615">
        <ele>773.99900000000002</ele>
        <time>2011-06-15T09:18:19Z</time>
      </trkpt>
      <trkpt lat="35.227832794189453" lon="24.020769596099854">
        <ele>778.32399999999996</ele>
        <time>2011-06-15T09:18:28Z</time>
      </trkpt>
      <trkpt lat="35.227897167205811" lon="24.020748138427734">
        <ele>773.99900000000002</ele>
        <time>2011-06-15T09:18:38Z</time>
      </trkpt>
      <trkpt lat="35.227875709533691" lon="24.020791053771973">
        <ele>772.55700000000002</ele>
        <time>2011-06-15T09:18:46Z</time>
      </trkpt>
      <trkpt lat="35.227854251861572" lon="24.020812511444092">
        <ele>772.55700000000002</ele>
        <time>2011-06-15T09:18:48Z</time>
      </trkpt>
      <trkpt lat="35.227875709533691" lon="24.020833969116211">
        <ele>773.99900000000002</ele>
        <time>2011-06-15T09:18:55Z</time>
      </trkpt>
      <trkpt lat="35.227940082550049" lon="24.020833969116211">
        <ele>772.55700000000002</ele>
        <time>2011-06-15T09:19:02Z</time>
      </trkpt>
      <trkpt lat="35.227940082550049" lon="24.020833969116211">
        <ele>769.19200000000001</ele>
        <time>2011-06-15T09:19:09Z</time>
      </trkpt>
      <trkpt lat="35.227961540222168" lon="24.020833969116211">
        <ele>769.19200000000001</ele>
        <time>2011-06-15T09:19:13Z</time>
      </trkpt>
      <trkpt lat="35.228004455566406" lon="24.020812511444092">
        <ele>768.71100000000001</ele>
        <time>2011-06-15T09:19:20Z</time>
      </trkpt>
      <trkpt lat="35.228090286254883" lon="24.020833969116211">
        <ele>767.26999999999998</ele>
        <time>2011-06-15T09:19:27Z</time>
      </trkpt>
      <trkpt lat="35.22815465927124" lon="24.020876884460449">
        <ele>767.26999999999998</ele>
        <time>2011-06-15T09:19:35Z</time>
      </trkpt>
      <trkpt lat="35.228240489959717" lon="24.020876884460449">
        <ele>765.82799999999997</ele>
        <time>2011-06-15T09:19:42Z</time>
      </trkpt>
      <trkpt lat="35.228326320648193" lon="24.020876884460449">
        <ele>766.30799999999999</ele>
        <time>2011-06-15T09:19:52Z</time>
      </trkpt>
      <trkpt lat="35.22841215133667" lon="24.020876884460449">
        <ele>766.78899999999999</ele>
        <time>2011-06-15T09:19:58Z</time>
      </trkpt>
      <trkpt lat="35.228433609008789" lon="24.020898342132568">
        <ele>766.78899999999999</ele>
        <time>2011-06-15T09:20:00Z</time>
      </trkpt>
      <trkpt lat="35.228519439697266" lon="24.020876884460449">
        <ele>768.23099999999999</ele>
        <time>2011-06-15T09:20:09Z</time>
      </trkpt>
      <trkpt lat="35.228605270385742" lon="24.020898342132568">
        <ele>768.23099999999999</ele>
        <time>2011-06-15T09:20:16Z</time>
      </trkpt>
      <trkpt lat="35.228626728057861" lon="24.020898342132568">
        <ele>769.19200000000001</ele>
        <time>2011-06-15T09:20:19Z</time>
      </trkpt>
      <trkpt lat="35.22864818572998" lon="24.020919799804688">
        <ele>769.19200000000001</ele>
        <time>2011-06-15T09:20:21Z</time>
      </trkpt>
      <trkpt lat="35.228691101074219" lon="24.020941257476807">
        <ele>769.673</ele>
        <time>2011-06-15T09:20:25Z</time>
      </trkpt>
      <trkpt lat="35.228755474090576" lon="24.020941257476807">
        <ele>771.11500000000001</ele>
        <time>2011-06-15T09:20:33Z</time>
      </trkpt>
      <trkpt lat="35.228819847106934" lon="24.021005630493164">
        <ele>773.51800000000003</ele>
        <time>2011-06-15T09:20:41Z</time>
      </trkpt>
      <trkpt lat="35.228927135467529" lon="24.021027088165283">
        <ele>774.96000000000004</ele>
        <time>2011-06-15T09:20:51Z</time>
      </trkpt>
      <trkpt lat="35.228948593139648" lon="24.021027088165283">
        <ele>774.96000000000004</ele>
        <time>2011-06-15T09:20:53Z</time>
      </trkpt>
      <trkpt lat="35.229012966156006" lon="24.021027088165283">
        <ele>774.47900000000004</ele>
        <time>2011-06-15T09:21:00Z</time>
      </trkpt>
      <trkpt lat="35.229055881500244" lon="24.021005630493164">
        <ele>774.47900000000004</ele>
        <time>2011-06-15T09:21:06Z</time>
      </trkpt>
      <trkpt lat="35.229120254516602" lon="24.020962715148926">
        <ele>776.40200000000004</ele>
        <time>2011-06-15T09:21:14Z</time>
      </trkpt>
      <trkpt lat="35.22916316986084" lon="24.020941257476807">
        <ele>776.88300000000004</ele>
        <time>2011-06-15T09:21:17Z</time>
      </trkpt>
      <trkpt lat="35.229270458221436" lon="24.020876884460449">
        <ele>777.84400000000005</ele>
        <time>2011-06-15T09:21:28Z</time>
      </trkpt>
      <trkpt lat="35.229313373565674" lon="24.020876884460449">
        <ele>778.80499999999995</ele>
        <time>2011-06-15T09:21:31Z</time>
      </trkpt>
      <trkpt lat="35.229313373565674" lon="24.020876884460449">
        <ele>778.80499999999995</ele>
        <time>2011-06-15T09:21:33Z</time>
      </trkpt>
      <trkpt lat="35.229356288909912" lon="24.020919799804688">
        <ele>778.32399999999996</ele>
        <time>2011-06-15T09:21:36Z</time>
      </trkpt>
      <trkpt lat="35.229291915893555" lon="24.020984172821045">
        <ele>776.88300000000004</ele>
        <time>2011-06-15T09:21:43Z</time>
      </trkpt>
      <trkpt lat="35.229249000549316" lon="24.021048545837402">
        <ele>775.44000000000005</ele>
        <time>2011-06-15T09:21:51Z</time>
      </trkpt>
      <trkpt lat="35.229184627532959" lon="24.021070003509521">
        <ele>777.36300000000006</ele>
        <time>2011-06-15T09:22:01Z</time>
      </trkpt>
      <trkpt lat="35.229141712188721" lon="24.021070003509521">
        <ele>776.88300000000004</ele>
        <time>2011-06-15T09:22:11Z</time>
      </trkpt>
      <trkpt lat="35.229098796844482" lon="24.021134376525879">
        <ele>754.77200000000005</ele>
        <time>2011-06-15T09:22:33Z</time>
      </trkpt>
      <trkpt lat="35.229120254516602" lon="24.021048545837402">
        <ele>782.65099999999995</ele>
        <time>2011-06-15T09:27:22Z</time>
      </trkpt>
      <trkpt lat="35.229141712188721" lon="24.021005630493164">
        <ele>781.20899999999995</ele>
        <time>2011-06-15T09:36:46Z</time>
      </trkpt>
      <trkpt lat="35.229227542877197" lon="24.021005630493164">
        <ele>778.80499999999995</ele>
        <time>2011-06-15T09:38:29Z</time>
      </trkpt>
      <trkpt lat="35.229270458221436" lon="24.020984172821045">
        <ele>778.32399999999996</ele>
        <time>2011-06-15T09:38:32Z</time>
      </trkpt>
      <trkpt lat="35.229334831237793" lon="24.020919799804688">
        <ele>776.88300000000004</ele>
        <time>2011-06-15T09:38:39Z</time>
      </trkpt>
      <trkpt lat="35.229356288909912" lon="24.020898342132568">
        <ele>776.40200000000004</ele>
        <time>2011-06-15T09:38:42Z</time>
      </trkpt>
      <trkpt lat="35.22942066192627" lon="24.020833969116211">
        <ele>775.92100000000005</ele>
        <time>2011-06-15T09:38:49Z</time>
      </trkpt>
      <trkpt lat="35.22942066192627" lon="24.020833969116211">
        <ele>775.44000000000005</ele>
        <time>2011-06-15T09:38:50Z</time>
      </trkpt>
      <trkpt lat="35.229442119598389" lon="24.020812511444092">
        <ele>774.96000000000004</ele>
        <time>2011-06-15T09:38:52Z</time>
      </trkpt>
      <trkpt lat="35.229463577270508" lon="24.020791053771973">
        <ele>774.96000000000004</ele>
        <time>2011-06-15T09:38:54Z</time>
      </trkpt>
      <trkpt lat="35.229527950286865" lon="24.020748138427734">
        <ele>774.96000000000004</ele>
        <time>2011-06-15T09:38:58Z</time>
      </trkpt>
      <trkpt lat="35.229635238647461" lon="24.020640850067139">
        <ele>775.92100000000005</ele>
        <time>2011-06-15T09:39:08Z</time>
      </trkpt>
      <trkpt lat="35.22965669631958" lon="24.020640850067139">
        <ele>775.92100000000005</ele>
        <time>2011-06-15T09:39:09Z</time>
      </trkpt>
      <trkpt lat="35.229721069335938" lon="24.020555019378662">
        <ele>773.51800000000003</ele>
        <time>2011-06-15T09:39:16Z</time>
      </trkpt>
      <trkpt lat="35.229721069335938" lon="24.020555019378662">
        <ele>773.51800000000003</ele>
        <time>2011-06-15T09:39:17Z</time>
      </trkpt>
      <trkpt lat="35.229763984680176" lon="24.020447731018066">
        <ele>770.15300000000002</ele>
        <time>2011-06-15T09:39:26Z</time>
      </trkpt>
      <trkpt lat="35.229785442352295" lon="24.020447731018066">
        <ele>770.15300000000002</ele>
        <time>2011-06-15T09:39:27Z</time>
      </trkpt>
      <trkpt lat="35.229806900024414" lon="24.020426273345947">
        <ele>769.19200000000001</ele>
        <time>2011-06-15T09:39:30Z</time>
      </trkpt>
      <trkpt lat="35.229806900024414" lon="24.020404815673828">
        <ele>765.82799999999997</ele>
        <time>2011-06-15T09:39:41Z</time>
      </trkpt>
      <trkpt lat="35.229828357696533" lon="24.020383358001709">
        <ele>765.82799999999997</ele>
        <time>2011-06-15T09:39:42Z</time>
      </trkpt>
      <trkpt lat="35.229828357696533" lon="24.02036190032959">
        <ele>765.82799999999997</ele>
        <time>2011-06-15T09:39:45Z</time>
      </trkpt>
      <trkpt lat="35.229849815368652" lon="24.020340442657471">
        <ele>765.82799999999997</ele>
        <time>2011-06-15T09:39:47Z</time>
      </trkpt>
      <trkpt lat="35.229892730712891" lon="24.020297527313232">
        <ele>766.78899999999999</ele>
        <time>2011-06-15T09:39:51Z</time>
      </trkpt>
      <trkpt lat="35.230000019073486" lon="24.020211696624756">
        <ele>764.38499999999999</ele>
        <time>2011-06-15T09:39:59Z</time>
      </trkpt>
      <trkpt lat="35.230021476745605" lon="24.020190238952637">
        <ele>763.90499999999997</ele>
        <time>2011-06-15T09:40:01Z</time>
      </trkpt>
      <trkpt lat="35.230064392089844" lon="24.02010440826416">
        <ele>761.02099999999996</ele>
        <time>2011-06-15T09:40:09Z</time>
      </trkpt>
      <trkpt lat="35.230064392089844" lon="24.020082950592041">
        <ele>761.02099999999996</ele>
        <time>2011-06-15T09:40:10Z</time>
      </trkpt>
      <trkpt lat="35.230128765106201" lon="24.019997119903564">
        <ele>760.53999999999996</ele>
        <time>2011-06-15T09:40:17Z</time>
      </trkpt>
      <trkpt lat="35.230214595794678" lon="24.019889831542969">
        <ele>760.53999999999996</ele>
        <time>2011-06-15T09:40:26Z</time>
      </trkpt>
      <trkpt lat="35.230300426483154" lon="24.019825458526611">
        <ele>761.98199999999997</ele>
        <time>2011-06-15T09:40:32Z</time>
      </trkpt>
      <trkpt lat="35.230364799499512" lon="24.019696712493896">
        <ele>762.46299999999997</ele>
        <time>2011-06-15T09:40:41Z</time>
      </trkpt>
      <trkpt lat="35.23040771484375" lon="24.019632339477539">
        <ele>762.94299999999998</ele>
        <time>2011-06-15T09:40:46Z</time>
      </trkpt>
      <trkpt lat="35.230493545532227" lon="24.019546508789063">
        <ele>763.42399999999998</ele>
        <time>2011-06-15T09:40:53Z</time>
      </trkpt>
      <trkpt lat="35.230515003204346" lon="24.019525051116943">
        <ele>763.42399999999998</ele>
        <time>2011-06-15T09:40:55Z</time>
      </trkpt>
      <trkpt lat="35.230515003204346" lon="24.019503593444824">
        <ele>763.42399999999998</ele>
        <time>2011-06-15T09:40:57Z</time>
      </trkpt>
      <trkpt lat="35.230600833892822" lon="24.019439220428467">
        <ele>765.34699999999998</ele>
        <time>2011-06-15T09:41:03Z</time>
      </trkpt>
      <trkpt lat="35.230708122253418" lon="24.019310474395752">
        <ele>767.75</ele>
        <time>2011-06-15T09:41:14Z</time>
      </trkpt>
      <trkpt lat="35.230772495269775" lon="24.019267559051514">
        <ele>767.26999999999998</ele>
        <time>2011-06-15T09:41:21Z</time>
      </trkpt>
      <trkpt lat="35.230793952941895" lon="24.019224643707275">
        <ele>767.26999999999998</ele>
        <time>2011-06-15T09:41:24Z</time>
      </trkpt>
      <trkpt lat="35.230858325958252" lon="24.019095897674561">
        <ele>766.30799999999999</ele>
        <time>2011-06-15T09:41:32Z</time>
      </trkpt>
      <trkpt lat="35.230944156646729" lon="24.019010066986084">
        <ele>765.82799999999997</ele>
        <time>2011-06-15T09:41:39Z</time>
      </trkpt>
      <trkpt lat="35.230944156646729" lon="24.018988609313965">
        <ele>766.30799999999999</ele>
        <time>2011-06-15T09:41:41Z</time>
      </trkpt>
      <trkpt lat="35.231029987335205" lon="24.018881320953369">
        <ele>768.71100000000001</ele>
        <time>2011-06-15T09:41:49Z</time>
      </trkpt>
      <trkpt lat="35.231115818023682" lon="24.018816947937012">
        <ele>769.673</ele>
        <time>2011-06-15T09:41:57Z</time>
      </trkpt>
      <trkpt lat="35.231180191040039" lon="24.018795490264893">
        <ele>771.11500000000001</ele>
        <time>2011-06-15T09:42:02Z</time>
      </trkpt>
      <trkpt lat="35.231287479400635" lon="24.018795490264893">
        <ele>773.03700000000003</ele>
        <time>2011-06-15T09:42:10Z</time>
      </trkpt>
      <trkpt lat="35.231351852416992" lon="24.018838405609131">
        <ele>773.51800000000003</ele>
        <time>2011-06-15T09:42:18Z</time>
      </trkpt>
      <trkpt lat="35.231459140777588" lon="24.018881320953369">
        <ele>774.47900000000004</ele>
        <time>2011-06-15T09:42:26Z</time>
      </trkpt>
      <trkpt lat="35.231480598449707" lon="24.018881320953369">
        <ele>774.96000000000004</ele>
        <time>2011-06-15T09:42:28Z</time>
      </trkpt>
      <trkpt lat="35.231502056121826" lon="24.018902778625488">
        <ele>775.44000000000005</ele>
        <time>2011-06-15T09:42:31Z</time>
      </trkpt>
      <trkpt lat="35.231609344482422" lon="24.018945693969727">
        <ele>775.44000000000005</ele>
        <time>2011-06-15T09:42:41Z</time>
      </trkpt>
      <trkpt lat="35.231609344482422" lon="24.018945693969727">
        <ele>775.44000000000005</ele>
        <time>2011-06-15T09:42:42Z</time>
      </trkpt>
      <trkpt lat="35.231609344482422" lon="24.018967151641846">
        <ele>775.44000000000005</ele>
        <time>2011-06-15T09:42:44Z</time>
      </trkpt>
      <trkpt lat="35.231609344482422" lon="24.018988609313965">
        <ele>777.84400000000005</ele>
        <time>2011-06-15T09:42:57Z</time>
      </trkpt>
      <trkpt lat="35.23165225982666" lon="24.018988609313965">
        <ele>778.80499999999995</ele>
        <time>2011-06-15T09:43:04Z</time>
      </trkpt>
      <trkpt lat="35.231673717498779" lon="24.018988609313965">
        <ele>778.80499999999995</ele>
        <time>2011-06-15T09:43:06Z</time>
      </trkpt>
      <trkpt lat="35.231673717498779" lon="24.018988609313965">
        <ele>778.80499999999995</ele>
        <time>2011-06-15T09:43:08Z</time>
      </trkpt>
      <trkpt lat="35.231759548187256" lon="24.019010066986084">
        <ele>778.32399999999996</ele>
        <time>2011-06-15T09:43:15Z</time>
      </trkpt>
      <trkpt lat="35.231802463531494" lon="24.019010066986084">
        <ele>778.80499999999995</ele>
        <time>2011-06-15T09:43:20Z</time>
      </trkpt>
      <trkpt lat="35.231845378875732" lon="24.019010066986084">
        <ele>779.76599999999996</ele>
        <time>2011-06-15T09:43:24Z</time>
      </trkpt>
      <trkpt lat="35.23190975189209" lon="24.018967151641846">
        <ele>782.16999999999996</ele>
        <time>2011-06-15T09:43:38Z</time>
      </trkpt>
      <trkpt lat="35.23190975189209" lon="24.018945693969727">
        <ele>782.16999999999996</ele>
        <time>2011-06-15T09:43:44Z</time>
      </trkpt>
      <trkpt lat="35.231952667236328" lon="24.018881320953369">
        <ele>779.76599999999996</ele>
        <time>2011-06-15T09:43:55Z</time>
      </trkpt>
      <trkpt lat="35.231995582580566" lon="24.01885986328125">
        <ele>777.36300000000006</ele>
        <time>2011-06-15T09:44:03Z</time>
      </trkpt>
      <trkpt lat="35.232017040252686" lon="24.018816947937012">
        <ele>775.44000000000005</ele>
        <time>2011-06-15T09:44:08Z</time>
      </trkpt>
      <trkpt lat="35.232038497924805" lon="24.018774032592773">
        <ele>773.99900000000002</ele>
        <time>2011-06-15T09:44:11Z</time>
      </trkpt>
      <trkpt lat="35.232059955596924" lon="24.018731117248535">
        <ele>773.03700000000003</ele>
        <time>2011-06-15T09:44:14Z</time>
      </trkpt>
      <trkpt lat="35.232102870941162" lon="24.018666744232178">
        <ele>771.59500000000003</ele>
        <time>2011-06-15T09:44:18Z</time>
      </trkpt>
      <trkpt lat="35.232102870941162" lon="24.018645286560059">
        <ele>771.59500000000003</ele>
        <time>2011-06-15T09:44:20Z</time>
      </trkpt>
      <trkpt lat="35.232124328613281" lon="24.018580913543701">
        <ele>771.11500000000001</ele>
        <time>2011-06-15T09:44:24Z</time>
      </trkpt>
      <trkpt lat="35.2321457862854" lon="24.018559455871582">
        <ele>770.63400000000001</ele>
        <time>2011-06-15T09:44:25Z</time>
      </trkpt>
      <trkpt lat="35.232210159301758" lon="24.018473625183105">
        <ele>772.55700000000002</ele>
        <time>2011-06-15T09:44:33Z</time>
      </trkpt>
      <trkpt lat="35.232338905334473" lon="24.018430709838867">
        <ele>771.11500000000001</ele>
        <time>2011-06-15T09:44:43Z</time>
      </trkpt>
      <trkpt lat="35.232424736022949" lon="24.018409252166748">
        <ele>771.11500000000001</ele>
        <time>2011-06-15T09:44:49Z</time>
      </trkpt>
      <trkpt lat="35.232446193695068" lon="24.018387794494629">
        <ele>770.63400000000001</ele>
        <time>2011-06-15T09:44:51Z</time>
      </trkpt>
      <trkpt lat="35.232489109039307" lon="24.018301963806152">
        <ele>770.63400000000001</ele>
        <time>2011-06-15T09:44:58Z</time>
      </trkpt>
      <trkpt lat="35.232489109039307" lon="24.018216133117676">
        <ele>769.19200000000001</ele>
        <time>2011-06-15T09:45:08Z</time>
      </trkpt>
      <trkpt lat="35.232489109039307" lon="24.018194675445557">
        <ele>768.71100000000001</ele>
        <time>2011-06-15T09:45:09Z</time>
      </trkpt>
      <trkpt lat="35.232489109039307" lon="24.018130302429199">
        <ele>767.75</ele>
        <time>2011-06-15T09:45:13Z</time>
      </trkpt>
      <trkpt lat="35.232532024383545" lon="24.018001556396484">
        <ele>764.86599999999999</ele>
        <time>2011-06-15T09:45:22Z</time>
      </trkpt>
      <trkpt lat="35.232532024383545" lon="24.017980098724365">
        <ele>764.38499999999999</ele>
        <time>2011-06-15T09:45:24Z</time>
      </trkpt>
      <trkpt lat="35.232574939727783" lon="24.017915725708008">
        <ele>763.42399999999998</ele>
        <time>2011-06-15T09:45:29Z</time>
      </trkpt>
      <trkpt lat="35.232617855072021" lon="24.017894268035889">
        <ele>763.90499999999997</ele>
        <time>2011-06-15T09:45:33Z</time>
      </trkpt>
      <trkpt lat="35.23266077041626" lon="24.01785135269165">
        <ele>764.38499999999999</ele>
        <time>2011-06-15T09:45:37Z</time>
      </trkpt>
      <trkpt lat="35.232725143432617" lon="24.017808437347412">
        <ele>763.90499999999997</ele>
        <time>2011-06-15T09:45:42Z</time>
      </trkpt>
      <trkpt lat="35.232768058776855" lon="24.017786979675293">
        <ele>763.42399999999998</ele>
        <time>2011-06-15T09:45:46Z</time>
      </trkpt>
      <trkpt lat="35.232810974121094" lon="24.017765522003174">
        <ele>763.42399999999998</ele>
        <time>2011-06-15T09:45:49Z</time>
      </trkpt>
      <trkpt lat="35.232853889465332" lon="24.017744064331055">
        <ele>762.94299999999998</ele>
        <time>2011-06-15T09:45:52Z</time>
      </trkpt>
      <trkpt lat="35.232875347137451" lon="24.017722606658936">
        <ele>761.98199999999997</ele>
        <time>2011-06-15T09:45:55Z</time>
      </trkpt>
      <trkpt lat="35.232961177825928" lon="24.017722606658936">
        <ele>761.50099999999998</ele>
        <time>2011-06-15T09:46:01Z</time>
      </trkpt>
      <trkpt lat="35.233025550842285" lon="24.017744064331055">
        <ele>761.98199999999997</ele>
        <time>2011-06-15T09:46:05Z</time>
      </trkpt>
      <trkpt lat="35.233089923858643" lon="24.017786979675293">
        <ele>761.98199999999997</ele>
        <time>2011-06-15T09:46:11Z</time>
      </trkpt>
      <trkpt lat="35.233154296875" lon="24.01787281036377">
        <ele>760.53999999999996</ele>
        <time>2011-06-15T09:46:19Z</time>
      </trkpt>
      <trkpt lat="35.233218669891357" lon="24.017958641052246">
        <ele>760.05899999999997</ele>
        <time>2011-06-15T09:46:25Z</time>
      </trkpt>
      <trkpt lat="35.233283042907715" lon="24.017980098724365">
        <ele>758.61699999999996</ele>
        <time>2011-06-15T09:46:31Z</time>
      </trkpt>
      <trkpt lat="35.233325958251953" lon="24.018001556396484">
        <ele>757.65599999999995</ele>
        <time>2011-06-15T09:46:36Z</time>
      </trkpt>
      <trkpt lat="35.233390331268311" lon="24.018023014068604">
        <ele>756.69500000000005</ele>
        <time>2011-06-15T09:46:42Z</time>
      </trkpt>
      <trkpt lat="35.233497619628906" lon="24.018087387084961">
        <ele>754.77200000000005</ele>
        <time>2011-06-15T09:46:50Z</time>
      </trkpt>
      <trkpt lat="35.233540534973145" lon="24.01810884475708">
        <ele>753.81100000000004</ele>
        <time>2011-06-15T09:46:54Z</time>
      </trkpt>
      <trkpt lat="35.233604907989502" lon="24.018087387084961">
        <ele>752.85000000000002</ele>
        <time>2011-06-15T09:47:00Z</time>
      </trkpt>
      <trkpt lat="35.23364782333374" lon="24.018065929412842">
        <ele>753.81100000000004</ele>
        <time>2011-06-15T09:47:05Z</time>
      </trkpt>
      <trkpt lat="35.233669281005859" lon="24.018023014068604">
        <ele>753.81100000000004</ele>
        <time>2011-06-15T09:47:08Z</time>
      </trkpt>
      <trkpt lat="35.233712196350098" lon="24.018001556396484">
        <ele>755.25300000000004</ele>
        <time>2011-06-15T09:47:12Z</time>
      </trkpt>
      <trkpt lat="35.233733654022217" lon="24.018001556396484">
        <ele>756.21400000000006</ele>
        <time>2011-06-15T09:47:15Z</time>
      </trkpt>
      <trkpt lat="35.233776569366455" lon="24.017980098724365">
        <ele>758.13699999999994</ele>
        <time>2011-06-15T09:47:18Z</time>
      </trkpt>
      <trkpt lat="35.233776569366455" lon="24.017915725708008">
        <ele>761.02099999999996</ele>
        <time>2011-06-15T09:47:25Z</time>
      </trkpt>
      <trkpt lat="35.233798027038574" lon="24.017915725708008">
        <ele>761.50099999999998</ele>
        <time>2011-06-15T09:47:26Z</time>
      </trkpt>
      <trkpt lat="35.233840942382812" lon="24.01787281036377">
        <ele>763.90499999999997</ele>
        <time>2011-06-15T09:47:32Z</time>
      </trkpt>
      <trkpt lat="35.233883857727051" lon="24.017829895019531">
        <ele>767.26999999999998</ele>
        <time>2011-06-15T09:47:40Z</time>
      </trkpt>
      <trkpt lat="35.23390531539917" lon="24.017808437347412">
        <ele>769.673</ele>
        <time>2011-06-15T09:47:48Z</time>
      </trkpt>
      <trkpt lat="35.23390531539917" lon="24.017786979675293">
        <ele>770.15300000000002</ele>
        <time>2011-06-15T09:47:49Z</time>
      </trkpt>
      <trkpt lat="35.233926773071289" lon="24.017765522003174">
        <ele>773.51800000000003</ele>
        <time>2011-06-15T09:47:55Z</time>
      </trkpt>
      <trkpt lat="35.233926773071289" lon="24.017744064331055">
        <ele>774.96000000000004</ele>
        <time>2011-06-15T09:47:57Z</time>
      </trkpt>
      <trkpt lat="35.233948230743408" lon="24.017744064331055">
        <ele>778.80499999999995</ele>
        <time>2011-06-15T09:48:03Z</time>
      </trkpt>
      <trkpt lat="35.233991146087646" lon="24.017679691314697">
        <ele>782.65099999999995</ele>
        <time>2011-06-15T09:48:12Z</time>
      </trkpt>
      <trkpt lat="35.234012603759766" lon="24.01761531829834">
        <ele>784.09299999999996</ele>
        <time>2011-06-15T09:48:17Z</time>
      </trkpt>
      <trkpt lat="35.234055519104004" lon="24.017593860626221">
        <ele>785.53399999999999</ele>
        <time>2011-06-15T09:48:23Z</time>
      </trkpt>
      <trkpt lat="35.234098434448242" lon="24.017508029937744">
        <ele>785.53399999999999</ele>
        <time>2011-06-15T09:48:33Z</time>
      </trkpt>
      <trkpt lat="35.23414134979248" lon="24.017443656921387">
        <ele>784.57299999999998</ele>
        <time>2011-06-15T09:48:40Z</time>
      </trkpt>
      <trkpt lat="35.2341628074646" lon="24.01735782623291">
        <ele>782.65099999999995</ele>
        <time>2011-06-15T09:48:46Z</time>
      </trkpt>
      <trkpt lat="35.234184265136719" lon="24.017336368560791">
        <ele>781.68899999999996</ele>
        <time>2011-06-15T09:48:51Z</time>
      </trkpt>
      <trkpt lat="35.234205722808838" lon="24.017271995544434">
        <ele>780.72799999999995</ele>
        <time>2011-06-15T09:48:58Z</time>
      </trkpt>
      <trkpt lat="35.234205722808838" lon="24.017250537872314">
        <ele>780.24699999999996</ele>
        <time>2011-06-15T09:49:00Z</time>
      </trkpt>
      <trkpt lat="35.234227180480957" lon="24.017207622528076">
        <ele>779.76599999999996</ele>
        <time>2011-06-15T09:49:07Z</time>
      </trkpt>
      <trkpt lat="35.234227180480957" lon="24.017186164855957">
        <ele>779.28599999999994</ele>
        <time>2011-06-15T09:49:10Z</time>
      </trkpt>
      <trkpt lat="35.234248638153076" lon="24.017143249511719">
        <ele>778.80499999999995</ele>
        <time>2011-06-15T09:49:14Z</time>
      </trkpt>
      <trkpt lat="35.234291553497314" lon="24.01710033416748">
        <ele>776.40200000000004</ele>
        <time>2011-06-15T09:49:20Z</time>
      </trkpt>
      <trkpt lat="35.234313011169434" lon="24.017078876495361">
        <ele>774.96000000000004</ele>
        <time>2011-06-15T09:49:22Z</time>
      </trkpt>
      <trkpt lat="35.234355926513672" lon="24.017035961151123">
        <ele>772.55700000000002</ele>
        <time>2011-06-15T09:49:26Z</time>
      </trkpt>
      <trkpt lat="35.234355926513672" lon="24.017014503479004">
        <ele>771.59500000000003</ele>
        <time>2011-06-15T09:49:28Z</time>
      </trkpt>
      <trkpt lat="35.234377384185791" lon="24.016993045806885">
        <ele>769.673</ele>
        <time>2011-06-15T09:49:32Z</time>
      </trkpt>
      <trkpt lat="35.23439884185791" lon="24.016950130462646">
        <ele>769.19200000000001</ele>
        <time>2011-06-15T09:49:38Z</time>
      </trkpt>
      <trkpt lat="35.234441757202148" lon="24.016928672790527">
        <ele>770.15300000000002</ele>
        <time>2011-06-15T09:49:42Z</time>
      </trkpt>
      <trkpt lat="35.234463214874268" lon="24.016842842102051">
        <ele>769.673</ele>
        <time>2011-06-15T09:49:49Z</time>
      </trkpt>
      <trkpt lat="35.234527587890625" lon="24.016778469085693">
        <ele>769.673</ele>
        <time>2011-06-15T09:49:54Z</time>
      </trkpt>
      <trkpt lat="35.234527587890625" lon="24.016778469085693">
        <ele>770.63400000000001</ele>
        <time>2011-06-15T09:49:56Z</time>
      </trkpt>
      <trkpt lat="35.234549045562744" lon="24.016735553741455">
        <ele>771.11500000000001</ele>
        <time>2011-06-15T09:49:59Z</time>
      </trkpt>
      <trkpt lat="35.234549045562744" lon="24.016671180725098">
        <ele>770.63400000000001</ele>
        <time>2011-06-15T09:50:07Z</time>
      </trkpt>
      <trkpt lat="35.234527587890625" lon="24.016649723052979">
        <ele>770.63400000000001</ele>
        <time>2011-06-15T09:50:10Z</time>
      </trkpt>
      <trkpt lat="35.234549045562744" lon="24.016585350036621">
        <ele>770.63400000000001</ele>
        <time>2011-06-15T09:50:19Z</time>
      </trkpt>
      <trkpt lat="35.234549045562744" lon="24.016563892364502">
        <ele>770.15300000000002</ele>
        <time>2011-06-15T09:50:20Z</time>
      </trkpt>
      <trkpt lat="35.234549045562744" lon="24.016520977020264">
        <ele>771.11500000000001</ele>
        <time>2011-06-15T09:50:24Z</time>
      </trkpt>
      <trkpt lat="35.234570503234863" lon="24.016520977020264">
        <ele>771.11500000000001</ele>
        <time>2011-06-15T09:50:26Z</time>
      </trkpt>
      <trkpt lat="35.234591960906982" lon="24.016478061676025">
        <ele>770.15300000000002</ele>
        <time>2011-06-15T09:50:29Z</time>
      </trkpt>
      <trkpt lat="35.234591960906982" lon="24.016435146331787">
        <ele>769.19200000000001</ele>
        <time>2011-06-15T09:50:32Z</time>
      </trkpt>
      <trkpt lat="35.234613418579102" lon="24.01637077331543">
        <ele>765.34699999999998</ele>
        <time>2011-06-15T09:50:39Z</time>
      </trkpt>
      <trkpt lat="35.234634876251221" lon="24.016306400299072">
        <ele>761.50099999999998</ele>
        <time>2011-06-15T09:50:48Z</time>
      </trkpt>
      <trkpt lat="35.234634876251221" lon="24.016284942626953">
        <ele>761.50099999999998</ele>
        <time>2011-06-15T09:50:49Z</time>
      </trkpt>
      <trkpt lat="35.234677791595459" lon="24.016242027282715">
        <ele>761.50099999999998</ele>
        <time>2011-06-15T09:50:54Z</time>
      </trkpt>
      <trkpt lat="35.234742164611816" lon="24.016177654266357">
        <ele>765.34699999999998</ele>
        <time>2011-06-15T09:51:02Z</time>
      </trkpt>
      <trkpt lat="35.234763622283936" lon="24.016177654266357">
        <ele>765.82799999999997</ele>
        <time>2011-06-15T09:51:04Z</time>
      </trkpt>
      <trkpt lat="35.234806537628174" lon="24.016134738922119">
        <ele>767.26999999999998</ele>
        <time>2011-06-15T09:51:11Z</time>
      </trkpt>
      <trkpt lat="35.234849452972412" lon="24.01611328125">
        <ele>768.71100000000001</ele>
        <time>2011-06-15T09:51:17Z</time>
      </trkpt>
      <trkpt lat="35.23489236831665" lon="24.016091823577881">
        <ele>771.11500000000001</ele>
        <time>2011-06-15T09:51:22Z</time>
      </trkpt>
      <trkpt lat="35.23491382598877" lon="24.016070365905762">
        <ele>773.03700000000003</ele>
        <time>2011-06-15T09:51:27Z</time>
      </trkpt>
      <trkpt lat="35.234956741333008" lon="24.016005992889404">
        <ele>777.36300000000006</ele>
        <time>2011-06-15T09:51:35Z</time>
      </trkpt>
      <trkpt lat="35.234978199005127" lon="24.015984535217285">
        <ele>777.36300000000006</ele>
        <time>2011-06-15T09:51:38Z</time>
      </trkpt>
      <trkpt lat="35.234999656677246" lon="24.015963077545166">
        <ele>777.84400000000005</ele>
        <time>2011-06-15T09:51:44Z</time>
      </trkpt>
      <trkpt lat="35.234999656677246" lon="24.015963077545166">
        <ele>778.32399999999996</ele>
        <time>2011-06-15T09:51:45Z</time>
      </trkpt>
      <trkpt lat="35.235064029693604" lon="24.015920162200928">
        <ele>779.76599999999996</ele>
        <time>2011-06-15T09:51:52Z</time>
      </trkpt>
      <trkpt lat="35.235085487365723" lon="24.015877246856689">
        <ele>781.20899999999995</ele>
        <time>2011-06-15T09:51:58Z</time>
      </trkpt>
      <trkpt lat="35.235106945037842" lon="24.015834331512451">
        <ele>784.57299999999998</ele>
        <time>2011-06-15T09:52:05Z</time>
      </trkpt>
      <trkpt lat="35.235128402709961" lon="24.015812873840332">
        <ele>786.01499999999999</ele>
        <time>2011-06-15T09:52:08Z</time>
      </trkpt>
      <trkpt lat="35.235171318054199" lon="24.015769958496094">
        <ele>786.49599999999998</ele>
        <time>2011-06-15T09:52:17Z</time>
      </trkpt>
      <trkpt lat="35.235278606414795" lon="24.015641212463379">
        <ele>798.03200000000004</ele>
        <time>2011-06-15T09:53:57Z</time>
      </trkpt>
      <trkpt lat="35.235342979431152" lon="24.015576839447021">
        <ele>798.51199999999994</ele>
        <time>2011-06-15T09:54:04Z</time>
      </trkpt>
      <trkpt lat="35.235364437103271" lon="24.015533924102783">
        <ele>798.99300000000005</ele>
        <time>2011-06-15T09:54:09Z</time>
      </trkpt>
      <trkpt lat="35.235428810119629" lon="24.015469551086426">
        <ele>798.99300000000005</ele>
        <time>2011-06-15T09:54:18Z</time>
      </trkpt>
      <trkpt lat="35.235493183135986" lon="24.015405178070068">
        <ele>799.95399999999995</ele>
        <time>2011-06-15T09:54:29Z</time>
      </trkpt>
      <trkpt lat="35.235536098480225" lon="24.015383720397949">
        <ele>799.47400000000005</ele>
        <time>2011-06-15T09:54:34Z</time>
      </trkpt>
      <trkpt lat="35.235579013824463" lon="24.01536226272583">
        <ele>799.95399999999995</ele>
        <time>2011-06-15T09:54:37Z</time>
      </trkpt>
      <trkpt lat="35.235621929168701" lon="24.015276432037354">
        <ele>799.95399999999995</ele>
        <time>2011-06-15T09:54:47Z</time>
      </trkpt>
      <trkpt lat="35.235664844512939" lon="24.015233516693115">
        <ele>799.47400000000005</ele>
        <time>2011-06-15T09:54:52Z</time>
      </trkpt>
      <trkpt lat="35.235707759857178" lon="24.015147686004639">
        <ele>798.99300000000005</ele>
        <time>2011-06-15T09:55:02Z</time>
      </trkpt>
      <trkpt lat="35.235772132873535" lon="24.015083312988281">
        <ele>800.91600000000005</ele>
        <time>2011-06-15T09:55:11Z</time>
      </trkpt>
      <trkpt lat="35.235836505889893" lon="24.015040397644043">
        <ele>802.83799999999997</ele>
        <time>2011-06-15T09:55:18Z</time>
      </trkpt>
      <trkpt lat="35.235857963562012" lon="24.015018939971924">
        <ele>802.83799999999997</ele>
        <time>2011-06-15T09:55:20Z</time>
      </trkpt>
      <trkpt lat="35.235943794250488" lon="24.014933109283447">
        <ele>801.87699999999995</ele>
        <time>2011-06-15T09:55:32Z</time>
      </trkpt>
      <trkpt lat="35.235986709594727" lon="24.014890193939209">
        <ele>802.83799999999997</ele>
        <time>2011-06-15T09:55:47Z</time>
      </trkpt>
      <trkpt lat="35.236051082611084" lon="24.014825820922852">
        <ele>803.79999999999995</ele>
        <time>2011-06-15T09:55:57Z</time>
      </trkpt>
      <trkpt lat="35.236093997955322" lon="24.014739990234375">
        <ele>805.24099999999999</ele>
        <time>2011-06-15T09:56:05Z</time>
      </trkpt>
      <trkpt lat="35.236115455627441" lon="24.014697074890137">
        <ele>807.16399999999999</ele>
        <time>2011-06-15T09:56:13Z</time>
      </trkpt>
      <trkpt lat="35.236222743988037" lon="24.014568328857422">
        <ele>811.49000000000001</ele>
        <time>2011-06-15T09:56:26Z</time>
      </trkpt>
      <trkpt lat="35.236308574676514" lon="24.014461040496826">
        <ele>812.45100000000002</ele>
        <time>2011-06-15T09:56:39Z</time>
      </trkpt>
      <trkpt lat="35.236330032348633" lon="24.014439582824707">
        <ele>813.89300000000003</ele>
        <time>2011-06-15T09:56:43Z</time>
      </trkpt>
      <trkpt lat="35.236480236053467" lon="24.014310836791992">
        <ele>819.66099999999994</ele>
        <time>2011-06-15T09:57:04Z</time>
      </trkpt>
      <trkpt lat="35.236523151397705" lon="24.014267921447754">
        <ele>820.14200000000005</ele>
        <time>2011-06-15T09:57:10Z</time>
      </trkpt>
      <trkpt lat="35.236630439758301" lon="24.014160633087158">
        <ele>823.02599999999995</ele>
        <time>2011-06-15T09:57:21Z</time>
      </trkpt>
      <trkpt lat="35.236630439758301" lon="24.014160633087158">
        <ele>823.50699999999995</ele>
        <time>2011-06-15T09:57:22Z</time>
      </trkpt>
      <trkpt lat="35.236630439758301" lon="24.01411771774292">
        <ele>823.50699999999995</ele>
        <time>2011-06-15T09:57:24Z</time>
      </trkpt>
      <trkpt lat="35.236737728118896" lon="24.014074802398682">
        <ele>825.90999999999997</ele>
        <time>2011-06-15T09:57:34Z</time>
      </trkpt>
      <trkpt lat="35.236780643463135" lon="24.014031887054443">
        <ele>828.79399999999998</ele>
        <time>2011-06-15T09:57:42Z</time>
      </trkpt>
      <trkpt lat="35.236823558807373" lon="24.013967514038086">
        <ele>831.678</ele>
        <time>2011-06-15T09:57:50Z</time>
      </trkpt>
      <trkpt lat="35.23688793182373" lon="24.01386022567749">
        <ele>836.00400000000002</ele>
        <time>2011-06-15T09:58:03Z</time>
      </trkpt>
      <trkpt lat="35.236930847167969" lon="24.013817310333252">
        <ele>836.00400000000002</ele>
        <time>2011-06-15T09:58:13Z</time>
      </trkpt>
      <trkpt lat="35.236995220184326" lon="24.013731479644775">
        <ele>829.755</ele>
        <time>2011-06-15T09:58:26Z</time>
      </trkpt>
      <trkpt lat="35.237059593200684" lon="24.01362419128418">
        <ele>829.755</ele>
        <time>2011-06-15T09:58:38Z</time>
      </trkpt>
      <trkpt lat="35.237166881561279" lon="24.013602733612061">
        <ele>831.197</ele>
        <time>2011-06-15T09:58:49Z</time>
      </trkpt>
      <trkpt lat="35.237166881561279" lon="24.013602733612061">
        <ele>831.197</ele>
        <time>2011-06-15T09:58:50Z</time>
      </trkpt>
      <trkpt lat="35.237209796905518" lon="24.013538360595703">
        <ele>832.15800000000002</ele>
        <time>2011-06-15T09:58:59Z</time>
      </trkpt>
      <trkpt lat="35.237274169921875" lon="24.013495445251465">
        <ele>835.52300000000002</ele>
        <time>2011-06-15T09:59:09Z</time>
      </trkpt>
      <trkpt lat="35.237317085266113" lon="24.013431072235107">
        <ele>837.92600000000004</ele>
        <time>2011-06-15T09:59:16Z</time>
      </trkpt>
      <trkpt lat="35.237338542938232" lon="24.01336669921875">
        <ele>841.77099999999996</ele>
        <time>2011-06-15T09:59:23Z</time>
      </trkpt>
      <trkpt lat="35.237381458282471" lon="24.013280868530273">
        <ele>846.57799999999997</ele>
        <time>2011-06-15T09:59:34Z</time>
      </trkpt>
      <trkpt lat="35.237424373626709" lon="24.013237953186035">
        <ele>848.01999999999998</ele>
        <time>2011-06-15T09:59:39Z</time>
      </trkpt>
      <trkpt lat="35.237424373626709" lon="24.013216495513916">
        <ele>848.98099999999999</ele>
        <time>2011-06-15T09:59:42Z</time>
      </trkpt>
      <trkpt lat="35.237445831298828" lon="24.013152122497559">
        <ele>850.42399999999998</ele>
        <time>2011-06-15T09:59:50Z</time>
      </trkpt>
      <trkpt lat="35.237488746643066" lon="24.013087749481201">
        <ele>851.38499999999999</ele>
        <time>2011-06-15T09:59:55Z</time>
      </trkpt>
      <trkpt lat="35.237510204315186" lon="24.013066291809082">
        <ele>852.346</ele>
        <time>2011-06-15T09:59:59Z</time>
      </trkpt>
      <trkpt lat="35.237574577331543" lon="24.013001918792725">
        <ele>854.26900000000001</ele>
        <time>2011-06-15T10:00:07Z</time>
      </trkpt>
      <trkpt lat="35.237617492675781" lon="24.012937545776367">
        <ele>858.11400000000003</ele>
        <time>2011-06-15T10:00:19Z</time>
      </trkpt>
      <trkpt lat="35.237681865692139" lon="24.012851715087891">
        <ele>861.95899999999995</ele>
        <time>2011-06-15T10:00:33Z</time>
      </trkpt>
      <trkpt lat="35.237724781036377" lon="24.012787342071533">
        <ele>864.36300000000006</ele>
        <time>2011-06-15T10:00:42Z</time>
      </trkpt>
      <trkpt lat="35.237789154052734" lon="24.012701511383057">
        <ele>864.84299999999996</ele>
        <time>2011-06-15T10:00:50Z</time>
      </trkpt>
      <trkpt lat="35.237810611724854" lon="24.012680053710938">
        <ele>865.32399999999996</ele>
        <time>2011-06-15T10:00:52Z</time>
      </trkpt>
      <trkpt lat="35.237832069396973" lon="24.01261568069458">
        <ele>866.76599999999996</ele>
        <time>2011-06-15T10:00:59Z</time>
      </trkpt>
      <trkpt lat="35.23789644241333" lon="24.012529850006104">
        <ele>866.76599999999996</ele>
        <time>2011-06-15T10:01:08Z</time>
      </trkpt>
      <trkpt lat="35.237960815429688" lon="24.012444019317627">
        <ele>866.28499999999997</ele>
        <time>2011-06-15T10:01:22Z</time>
      </trkpt>
      <trkpt lat="35.238025188446045" lon="24.012336730957031">
        <ele>864.84299999999996</ele>
        <time>2011-06-15T10:01:33Z</time>
      </trkpt>
      <trkpt lat="35.23815393447876" lon="24.012165069580078">
        <ele>866.28499999999997</ele>
        <time>2011-06-15T10:01:55Z</time>
      </trkpt>
      <trkpt lat="35.238196849822998" lon="24.012100696563721">
        <ele>865.32399999999996</ele>
        <time>2011-06-15T10:02:04Z</time>
      </trkpt>
      <trkpt lat="35.238218307495117" lon="24.012057781219482">
        <ele>865.32399999999996</ele>
        <time>2011-06-15T10:02:07Z</time>
      </trkpt>
      <trkpt lat="35.238261222839355" lon="24.012014865875244">
        <ele>866.28499999999997</ele>
        <time>2011-06-15T10:02:12Z</time>
      </trkpt>
      <trkpt lat="35.238304138183594" lon="24.011929035186768">
        <ele>868.68799999999999</ele>
        <time>2011-06-15T10:02:20Z</time>
      </trkpt>
      <trkpt lat="35.238325595855713" lon="24.011907577514648">
        <ele>869.64999999999998</ele>
        <time>2011-06-15T10:02:24Z</time>
      </trkpt>
      <trkpt lat="35.238368511199951" lon="24.011821746826172">
        <ele>871.09199999999998</ele>
        <time>2011-06-15T10:02:33Z</time>
      </trkpt>
      <trkpt lat="35.23838996887207" lon="24.011778831481934">
        <ele>871.572</ele>
        <time>2011-06-15T10:02:39Z</time>
      </trkpt>
      <trkpt lat="35.238432884216309" lon="24.011714458465576">
        <ele>871.09199999999998</ele>
        <time>2011-06-15T10:02:47Z</time>
      </trkpt>
      <trkpt lat="35.238475799560547" lon="24.011650085449219">
        <ele>870.13</ele>
        <time>2011-06-15T10:02:55Z</time>
      </trkpt>
      <trkpt lat="35.238497257232666" lon="24.01160717010498">
        <ele>870.13</ele>
        <time>2011-06-15T10:03:00Z</time>
      </trkpt>
      <trkpt lat="35.238561630249023" lon="24.011542797088623">
        <ele>868.68799999999999</ele>
        <time>2011-06-15T10:03:09Z</time>
      </trkpt>
      <trkpt lat="35.238583087921143" lon="24.011499881744385">
        <ele>868.68799999999999</ele>
        <time>2011-06-15T10:03:18Z</time>
      </trkpt>
      <trkpt lat="35.238583087921143" lon="24.011414051055908">
        <ele>873.01400000000001</ele>
        <time>2011-06-15T10:03:32Z</time>
      </trkpt>
      <trkpt lat="35.238604545593262" lon="24.011392593383789">
        <ele>876.86000000000001</ele>
        <time>2011-06-15T10:03:48Z</time>
      </trkpt>
      <trkpt lat="35.238626003265381" lon="24.011349678039551">
        <ele>877.34100000000001</ele>
        <time>2011-06-15T10:03:54Z</time>
      </trkpt>
      <trkpt lat="35.238626003265381" lon="24.011328220367432">
        <ele>877.34100000000001</ele>
        <time>2011-06-15T10:03:56Z</time>
      </trkpt>
      <trkpt lat="35.238626003265381" lon="24.011263847351074">
        <ele>877.34100000000001</ele>
        <time>2011-06-15T10:04:01Z</time>
      </trkpt>
      <trkpt lat="35.238626003265381" lon="24.011263847351074">
        <ele>877.34100000000001</ele>
        <time>2011-06-15T10:04:04Z</time>
      </trkpt>
      <trkpt lat="35.238690376281738" lon="24.011156558990479">
        <ele>878.78200000000004</ele>
        <time>2011-06-15T10:04:16Z</time>
      </trkpt>
      <trkpt lat="35.238776206970215" lon="24.011070728302002">
        <ele>878.78200000000004</ele>
        <time>2011-06-15T10:04:27Z</time>
      </trkpt>
      <trkpt lat="35.238862037658691" lon="24.011027812957764">
        <ele>876.86000000000001</ele>
        <time>2011-06-15T10:04:37Z</time>
      </trkpt>
      <trkpt lat="35.238862037658691" lon="24.011027812957764">
        <ele>876.37900000000002</ele>
        <time>2011-06-15T10:04:38Z</time>
      </trkpt>
      <trkpt lat="35.238926410675049" lon="24.010963439941406">
        <ele>878.78200000000004</ele>
        <time>2011-06-15T10:04:48Z</time>
      </trkpt>
      <trkpt lat="35.238990783691406" lon="24.010920524597168">
        <ele>877.34100000000001</ele>
        <time>2011-06-15T10:04:55Z</time>
      </trkpt>
      <trkpt lat="35.239055156707764" lon="24.010834693908691">
        <ele>879.26300000000003</ele>
        <time>2011-06-15T10:05:06Z</time>
      </trkpt>
      <trkpt lat="35.239162445068359" lon="24.010705947875977">
        <ele>888.87599999999998</ele>
        <time>2011-06-15T10:05:26Z</time>
      </trkpt>
      <trkpt lat="35.239248275756836" lon="24.010641574859619">
        <ele>894.64400000000001</ele>
        <time>2011-06-15T10:05:39Z</time>
      </trkpt>
      <trkpt lat="35.239226818084717" lon="24.010598659515381">
        <ele>896.08600000000001</ele>
        <time>2011-06-15T10:05:47Z</time>
      </trkpt>
      <trkpt lat="35.239205360412598" lon="24.010534286499023">
        <ele>897.52800000000002</ele>
        <time>2011-06-15T10:05:57Z</time>
      </trkpt>
      <trkpt lat="35.239183902740479" lon="24.010448455810547">
        <ele>900.89300000000003</ele>
        <time>2011-06-15T10:06:06Z</time>
      </trkpt>
      <trkpt lat="35.239183902740479" lon="24.010426998138428">
        <ele>902.81500000000005</ele>
        <time>2011-06-15T10:06:09Z</time>
      </trkpt>
      <trkpt lat="35.239183902740479" lon="24.01036262512207">
        <ele>907.62199999999996</ele>
        <time>2011-06-15T10:06:17Z</time>
      </trkpt>
      <trkpt lat="35.239205360412598" lon="24.010298252105713">
        <ele>910.98699999999997</ele>
        <time>2011-06-15T10:06:34Z</time>
      </trkpt>
      <trkpt lat="35.239226818084717" lon="24.010255336761475">
        <ele>910.50599999999997</ele>
        <time>2011-06-15T10:06:45Z</time>
      </trkpt>
      <trkpt lat="35.239248275756836" lon="24.010233879089355">
        <ele>910.98699999999997</ele>
        <time>2011-06-15T10:06:48Z</time>
      </trkpt>
      <trkpt lat="35.239248275756836" lon="24.010190963745117">
        <ele>910.98699999999997</ele>
        <time>2011-06-15T10:06:56Z</time>
      </trkpt>
      <trkpt lat="35.239248275756836" lon="24.010169506072998">
        <ele>910.98699999999997</ele>
        <time>2011-06-15T10:06:57Z</time>
      </trkpt>
      <trkpt lat="35.239291191101074" lon="24.010105133056641">
        <ele>910.50599999999997</ele>
        <time>2011-06-15T10:07:05Z</time>
      </trkpt>
      <trkpt lat="35.239312648773193" lon="24.009997844696045">
        <ele>911.46699999999998</ele>
        <time>2011-06-15T10:07:14Z</time>
      </trkpt>
      <trkpt lat="35.239312648773193" lon="24.009890556335449">
        <ele>910.50599999999997</ele>
        <time>2011-06-15T10:07:25Z</time>
      </trkpt>
      <trkpt lat="35.239355564117432" lon="24.009804725646973">
        <ele>910.50599999999997</ele>
        <time>2011-06-15T10:07:35Z</time>
      </trkpt>
      <trkpt lat="35.239377021789551" lon="24.009718894958496">
        <ele>911.94799999999998</ele>
        <time>2011-06-15T10:07:44Z</time>
      </trkpt>
      <trkpt lat="35.23939847946167" lon="24.009697437286377">
        <ele>912.428</ele>
        <time>2011-06-15T10:07:47Z</time>
      </trkpt>
      <trkpt lat="35.23939847946167" lon="24.009654521942139">
        <ele>912.428</ele>
        <time>2011-06-15T10:07:50Z</time>
      </trkpt>
      <trkpt lat="35.239462852478027" lon="24.009525775909424">
        <ele>911.46699999999998</ele>
        <time>2011-06-15T10:08:01Z</time>
      </trkpt>
      <trkpt lat="35.239484310150146" lon="24.009461402893066">
        <ele>911.46699999999998</ele>
        <time>2011-06-15T10:08:07Z</time>
      </trkpt>
      <trkpt lat="35.239505767822266" lon="24.009418487548828">
        <ele>911.94799999999998</ele>
        <time>2011-06-15T10:08:12Z</time>
      </trkpt>
      <trkpt lat="35.239505767822266" lon="24.00937557220459">
        <ele>911.94799999999998</ele>
        <time>2011-06-15T10:08:14Z</time>
      </trkpt>
      <trkpt lat="35.239548683166504" lon="24.009289741516113">
        <ele>911.94799999999998</ele>
        <time>2011-06-15T10:08:23Z</time>
      </trkpt>
      <trkpt lat="35.239548683166504" lon="24.009246826171875">
        <ele>911.94799999999998</ele>
        <time>2011-06-15T10:08:26Z</time>
      </trkpt>
      <trkpt lat="35.239548683166504" lon="24.009182453155518">
        <ele>911.94799999999998</ele>
        <time>2011-06-15T10:08:30Z</time>
      </trkpt>
      <trkpt lat="35.239548683166504" lon="24.009139537811279">
        <ele>911.94799999999998</ele>
        <time>2011-06-15T10:08:34Z</time>
      </trkpt>
      <trkpt lat="35.239527225494385" lon="24.009096622467041">
        <ele>911.94799999999998</ele>
        <time>2011-06-15T10:08:39Z</time>
      </trkpt>
      <trkpt lat="35.239527225494385" lon="24.009075164794922">
        <ele>911.94799999999998</ele>
        <time>2011-06-15T10:08:42Z</time>
      </trkpt>
      <trkpt lat="35.239527225494385" lon="24.009053707122803">
        <ele>912.428</ele>
        <time>2011-06-15T10:08:44Z</time>
      </trkpt>
      <trkpt lat="35.239548683166504" lon="24.008967876434326">
        <ele>913.87</ele>
        <time>2011-06-15T10:08:51Z</time>
      </trkpt>
      <trkpt lat="35.239548683166504" lon="24.00888204574585">
        <ele>911.94799999999998</ele>
        <time>2011-06-15T10:09:04Z</time>
      </trkpt>
      <trkpt lat="35.239570140838623" lon="24.00888204574585">
        <ele>911.94799999999998</ele>
        <time>2011-06-15T10:09:38Z</time>
      </trkpt>
      <trkpt lat="35.239591598510742" lon="24.008796215057373">
        <ele>911.94799999999998</ele>
        <time>2011-06-15T10:09:46Z</time>
      </trkpt>
      <trkpt lat="35.239591598510742" lon="24.008774757385254">
        <ele>911.46699999999998</ele>
        <time>2011-06-15T10:09:49Z</time>
      </trkpt>
      <trkpt lat="35.239591598510742" lon="24.008688926696777">
        <ele>909.54499999999996</ele>
        <time>2011-06-15T10:09:55Z</time>
      </trkpt>
      <trkpt lat="35.239591598510742" lon="24.008646011352539">
        <ele>908.58299999999997</ele>
        <time>2011-06-15T10:09:58Z</time>
      </trkpt>
      <trkpt lat="35.239613056182861" lon="24.00862455368042">
        <ele>907.62199999999996</ele>
        <time>2011-06-15T10:10:01Z</time>
      </trkpt>
      <trkpt lat="35.239613056182861" lon="24.008581638336182">
        <ele>906.65999999999997</ele>
        <time>2011-06-15T10:10:04Z</time>
      </trkpt>
      <trkpt lat="35.2396559715271" lon="24.008538722991943">
        <ele>905.69899999999996</ele>
        <time>2011-06-15T10:10:12Z</time>
      </trkpt>
      <trkpt lat="35.239677429199219" lon="24.008474349975586">
        <ele>906.17999999999995</ele>
        <time>2011-06-15T10:10:22Z</time>
      </trkpt>
      <trkpt lat="35.239677429199219" lon="24.008431434631348">
        <ele>907.14099999999996</ele>
        <time>2011-06-15T10:10:26Z</time>
      </trkpt>
      <trkpt lat="35.239698886871338" lon="24.008388519287109">
        <ele>908.58299999999997</ele>
        <time>2011-06-15T10:10:31Z</time>
      </trkpt>
      <trkpt lat="35.239698886871338" lon="24.008302688598633">
        <ele>910.50599999999997</ele>
        <time>2011-06-15T10:10:40Z</time>
      </trkpt>
      <trkpt lat="35.239698886871338" lon="24.008216857910156">
        <ele>911.94799999999998</ele>
        <time>2011-06-15T10:10:49Z</time>
      </trkpt>
      <trkpt lat="35.239698886871338" lon="24.008152484893799">
        <ele>912.428</ele>
        <time>2011-06-15T10:10:57Z</time>
      </trkpt>
      <trkpt lat="35.239698886871338" lon="24.008109569549561">
        <ele>913.38999999999999</ele>
        <time>2011-06-15T10:11:00Z</time>
      </trkpt>
      <trkpt lat="35.239741802215576" lon="24.008002281188965">
        <ele>922.04200000000003</ele>
        <time>2011-06-15T10:11:19Z</time>
      </trkpt>
      <trkpt lat="35.239741802215576" lon="24.008002281188965">
        <ele>922.52200000000005</ele>
        <time>2011-06-15T10:11:20Z</time>
      </trkpt>
      <trkpt lat="35.239763259887695" lon="24.008002281188965">
        <ele>923.48400000000004</ele>
        <time>2011-06-15T10:11:22Z</time>
      </trkpt>
      <trkpt lat="35.239741802215576" lon="24.007937908172607">
        <ele>927.80999999999995</ele>
        <time>2011-06-15T10:11:31Z</time>
      </trkpt>
      <trkpt lat="35.239720344543457" lon="24.00787353515625">
        <ele>929.73199999999997</ele>
        <time>2011-06-15T10:12:06Z</time>
      </trkpt>
      <trkpt lat="35.239698886871338" lon="24.007787704467773">
        <ele>930.69399999999996</ele>
        <time>2011-06-15T10:12:22Z</time>
      </trkpt>
      <trkpt lat="35.239677429199219" lon="24.007744789123535">
        <ele>931.17399999999998</ele>
        <time>2011-06-15T10:12:30Z</time>
      </trkpt>
      <trkpt lat="35.239698886871338" lon="24.007680416107178">
        <ele>932.13499999999999</ele>
        <time>2011-06-15T10:12:39Z</time>
      </trkpt>
      <trkpt lat="35.239698886871338" lon="24.007594585418701">
        <ele>932.61599999999999</ele>
        <time>2011-06-15T10:12:49Z</time>
      </trkpt>
      <trkpt lat="35.239720344543457" lon="24.007551670074463">
        <ele>933.09699999999998</ele>
        <time>2011-06-15T10:12:56Z</time>
      </trkpt>
      <trkpt lat="35.239720344543457" lon="24.007465839385986">
        <ele>933.577</ele>
        <time>2011-06-15T10:13:06Z</time>
      </trkpt>
      <trkpt lat="35.239720344543457" lon="24.007358551025391">
        <ele>934.53899999999999</ele>
        <time>2011-06-15T10:13:20Z</time>
      </trkpt>
      <trkpt lat="35.239741802215576" lon="24.007251262664795">
        <ele>935.01999999999998</ele>
        <time>2011-06-15T10:13:34Z</time>
      </trkpt>
      <trkpt lat="35.239741802215576" lon="24.007186889648438">
        <ele>935.01999999999998</ele>
        <time>2011-06-15T10:13:38Z</time>
      </trkpt>
      <trkpt lat="35.239763259887695" lon="24.007101058959961">
        <ele>936.46100000000001</ele>
        <time>2011-06-15T10:13:49Z</time>
      </trkpt>
      <trkpt lat="35.239806175231934" lon="24.006950855255127">
        <ele>940.30700000000002</ele>
        <time>2011-06-15T10:14:06Z</time>
      </trkpt>
      <trkpt lat="35.239784717559814" lon="24.00688648223877">
        <ele>943.67100000000005</ele>
        <time>2011-06-15T10:14:18Z</time>
      </trkpt>
      <trkpt lat="35.239806175231934" lon="24.006843566894531">
        <ele>944.63300000000004</ele>
        <time>2011-06-15T10:14:21Z</time>
      </trkpt>
      <trkpt lat="35.239849090576172" lon="24.006736278533936">
        <ele>947.99699999999996</ele>
        <time>2011-06-15T10:14:33Z</time>
      </trkpt>
      <trkpt lat="35.239849090576172" lon="24.006714820861816">
        <ele>947.99699999999996</ele>
        <time>2011-06-15T10:14:35Z</time>
      </trkpt>
      <trkpt lat="35.239870548248291" lon="24.00662899017334">
        <ele>950.40099999999995</ele>
        <time>2011-06-15T10:14:46Z</time>
      </trkpt>
      <trkpt lat="35.23989200592041" lon="24.006564617156982">
        <ele>955.20699999999999</ele>
        <time>2011-06-15T10:14:58Z</time>
      </trkpt>
      <trkpt lat="35.239934921264648" lon="24.006543159484863">
        <ele>956.649</ele>
        <time>2011-06-15T10:15:03Z</time>
      </trkpt>
      <trkpt lat="35.239934921264648" lon="24.006500244140625">
        <ele>959.05200000000002</ele>
        <time>2011-06-15T10:15:09Z</time>
      </trkpt>
      <trkpt lat="35.239956378936768" lon="24.006435871124268">
        <ele>962.41700000000003</ele>
        <time>2011-06-15T10:15:17Z</time>
      </trkpt>
      <trkpt lat="35.23989200592041" lon="24.006307125091553">
        <ele>966.26199999999994</ele>
        <time>2011-06-15T10:15:40Z</time>
      </trkpt>
      <trkpt lat="35.239849090576172" lon="24.006242752075195">
        <ele>963.85900000000004</ele>
        <time>2011-06-15T10:15:46Z</time>
      </trkpt>
      <trkpt lat="35.239849090576172" lon="24.006178379058838">
        <ele>962.41700000000003</ele>
        <time>2011-06-15T10:15:50Z</time>
      </trkpt>
      <trkpt lat="35.239849090576172" lon="24.006156921386719">
        <ele>961.45600000000002</ele>
        <time>2011-06-15T10:15:52Z</time>
      </trkpt>
      <trkpt lat="35.239849090576172" lon="24.006092548370361">
        <ele>959.53300000000002</ele>
        <time>2011-06-15T10:15:55Z</time>
      </trkpt>
      <trkpt lat="35.239849090576172" lon="24.006028175354004">
        <ele>958.09100000000001</ele>
        <time>2011-06-15T10:16:00Z</time>
      </trkpt>
      <trkpt lat="35.239827632904053" lon="24.006006717681885">
        <ele>956.649</ele>
        <time>2011-06-15T10:16:04Z</time>
      </trkpt>
      <trkpt lat="35.239784717559814" lon="24.005942344665527">
        <ele>954.726</ele>
        <time>2011-06-15T10:16:13Z</time>
      </trkpt>
      <trkpt lat="35.239741802215576" lon="24.005835056304932">
        <ele>952.80399999999997</ele>
        <time>2011-06-15T10:16:25Z</time>
      </trkpt>
      <trkpt lat="35.239741802215576" lon="24.005813598632813">
        <ele>952.80399999999997</ele>
        <time>2011-06-15T10:16:26Z</time>
      </trkpt>
      <trkpt lat="35.239698886871338" lon="24.005749225616455">
        <ele>951.84299999999996</ele>
        <time>2011-06-15T10:16:31Z</time>
      </trkpt>
      <trkpt lat="35.239677429199219" lon="24.005663394927979">
        <ele>949.43899999999996</ele>
        <time>2011-06-15T10:16:39Z</time>
      </trkpt>
      <trkpt lat="35.239698886871338" lon="24.005641937255859">
        <ele>949.43899999999996</ele>
        <time>2011-06-15T10:16:40Z</time>
      </trkpt>
      <trkpt lat="35.239698886871338" lon="24.005470275878906">
        <ele>950.40099999999995</ele>
        <time>2011-06-15T10:16:49Z</time>
      </trkpt>
      <trkpt lat="35.239698886871338" lon="24.005427360534668">
        <ele>952.32299999999998</ele>
        <time>2011-06-15T10:16:56Z</time>
      </trkpt>
      <trkpt lat="35.239698886871338" lon="24.005405902862549">
        <ele>952.80399999999997</ele>
        <time>2011-06-15T10:16:58Z</time>
      </trkpt>
      <trkpt lat="35.239698886871338" lon="24.005362987518311">
        <ele>953.28399999999999</ele>
        <time>2011-06-15T10:17:00Z</time>
      </trkpt>
      <trkpt lat="35.239720344543457" lon="24.005320072174072">
        <ele>954.24599999999998</ele>
        <time>2011-06-15T10:17:04Z</time>
      </trkpt>
      <trkpt lat="35.239741802215576" lon="24.005277156829834">
        <ele>954.24599999999998</ele>
        <time>2011-06-15T10:17:08Z</time>
      </trkpt>
      <trkpt lat="35.239763259887695" lon="24.005234241485596">
        <ele>954.726</ele>
        <time>2011-06-15T10:17:13Z</time>
      </trkpt>
      <trkpt lat="35.239763259887695" lon="24.005191326141357">
        <ele>955.20699999999999</ele>
        <time>2011-06-15T10:17:17Z</time>
      </trkpt>
      <trkpt lat="35.239806175231934" lon="24.005084037780762">
        <ele>958.09100000000001</ele>
        <time>2011-06-15T10:17:27Z</time>
      </trkpt>
      <trkpt lat="35.239784717559814" lon="24.004933834075928">
        <ele>961.93700000000001</ele>
        <time>2011-06-15T10:17:38Z</time>
      </trkpt>
      <trkpt lat="35.239784717559814" lon="24.004912376403809">
        <ele>962.89800000000002</ele>
        <time>2011-06-15T10:17:40Z</time>
      </trkpt>
      <trkpt lat="35.239763259887695" lon="24.004848003387451">
        <ele>964.34000000000003</ele>
        <time>2011-06-15T10:17:45Z</time>
      </trkpt>
      <trkpt lat="35.239763259887695" lon="24.004783630371094">
        <ele>966.74300000000005</ele>
        <time>2011-06-15T10:17:53Z</time>
      </trkpt>
      <trkpt lat="35.239741802215576" lon="24.004697799682617">
        <ele>970.10699999999997</ele>
        <time>2011-06-15T10:18:05Z</time>
      </trkpt>
      <trkpt lat="35.239741802215576" lon="24.004611968994141">
        <ele>969.14599999999996</ele>
        <time>2011-06-15T10:18:15Z</time>
      </trkpt>
      <trkpt lat="35.239720344543457" lon="24.004569053649902">
        <ele>970.10699999999997</ele>
        <time>2011-06-15T10:18:33Z</time>
      </trkpt>
      <trkpt lat="35.239698886871338" lon="24.004504680633545">
        <ele>972.99199999999996</ele>
        <time>2011-06-15T10:18:43Z</time>
      </trkpt>
      <trkpt lat="35.239677429199219" lon="24.004483222961426">
        <ele>973.47199999999998</ele>
        <time>2011-06-15T10:18:46Z</time>
      </trkpt>
      <trkpt lat="35.2396559715271" lon="24.004461765289307">
        <ele>974.43399999999997</ele>
        <time>2011-06-15T10:18:51Z</time>
      </trkpt>
      <trkpt lat="35.23963451385498" lon="24.004333019256592">
        <ele>975.39499999999998</ele>
        <time>2011-06-15T10:19:01Z</time>
      </trkpt>
      <trkpt lat="35.23963451385498" lon="24.004333019256592">
        <ele>975.875</ele>
        <time>2011-06-15T10:19:03Z</time>
      </trkpt>
      <trkpt lat="35.23963451385498" lon="24.004290103912354">
        <ele>976.35599999999999</ele>
        <time>2011-06-15T10:19:05Z</time>
      </trkpt>
      <trkpt lat="35.239613056182861" lon="24.004204273223877">
        <ele>978.279</ele>
        <time>2011-06-15T10:19:12Z</time>
      </trkpt>
      <trkpt lat="35.239613056182861" lon="24.004182815551758">
        <ele>978.279</ele>
        <time>2011-06-15T10:19:18Z</time>
      </trkpt>
      <trkpt lat="35.239613056182861" lon="24.004096984863281">
        <ele>977.798</ele>
        <time>2011-06-15T10:19:27Z</time>
      </trkpt>
      <trkpt lat="35.23963451385498" lon="24.004032611846924">
        <ele>978.279</ele>
        <time>2011-06-15T10:19:34Z</time>
      </trkpt>
      <trkpt lat="35.239677429199219" lon="24.003968238830566">
        <ele>980.68200000000002</ele>
        <time>2011-06-15T10:19:42Z</time>
      </trkpt>
      <trkpt lat="35.239698886871338" lon="24.003925323486328">
        <ele>982.60500000000002</ele>
        <time>2011-06-15T10:19:47Z</time>
      </trkpt>
      <trkpt lat="35.239698886871338" lon="24.003903865814209">
        <ele>982.60500000000002</ele>
        <time>2011-06-15T10:19:49Z</time>
      </trkpt>
      <trkpt lat="35.239720344543457" lon="24.003839492797852">
        <ele>984.04700000000003</ele>
        <time>2011-06-15T10:19:55Z</time>
      </trkpt>
      <trkpt lat="35.239720344543457" lon="24.003753662109375">
        <ele>985.00800000000004</ele>
        <time>2011-06-15T10:20:02Z</time>
      </trkpt>
      <trkpt lat="35.239741802215576" lon="24.003732204437256">
        <ele>984.52700000000004</ele>
        <time>2011-06-15T10:20:05Z</time>
      </trkpt>
      <trkpt lat="35.239784717559814" lon="24.003667831420898">
        <ele>984.04700000000003</ele>
        <time>2011-06-15T10:20:13Z</time>
      </trkpt>
      <trkpt lat="35.239827632904053" lon="24.003646373748779">
        <ele>983.08500000000004</ele>
        <time>2011-06-15T10:20:19Z</time>
      </trkpt>
      <trkpt lat="35.239870548248291" lon="24.003539085388184">
        <ele>983.08500000000004</ele>
        <time>2011-06-15T10:20:30Z</time>
      </trkpt>
      <trkpt lat="35.239827632904053" lon="24.003474712371826">
        <ele>985.48900000000003</ele>
        <time>2011-06-15T10:20:46Z</time>
      </trkpt>
      <trkpt lat="35.239870548248291" lon="24.00338888168335">
        <ele>985.00800000000004</ele>
        <time>2011-06-15T10:20:54Z</time>
      </trkpt>
      <trkpt lat="35.239870548248291" lon="24.00336742401123">
        <ele>984.04700000000003</ele>
        <time>2011-06-15T10:20:57Z</time>
      </trkpt>
      <trkpt lat="35.23989200592041" lon="24.00336742401123">
        <ele>983.56600000000003</ele>
        <time>2011-06-15T10:20:59Z</time>
      </trkpt>
      <trkpt lat="35.239977836608887" lon="24.003324508666992">
        <ele>978.75999999999999</ele>
        <time>2011-06-15T10:21:11Z</time>
      </trkpt>
      <trkpt lat="35.240085124969482" lon="24.003260135650635">
        <ele>976.35599999999999</ele>
        <time>2011-06-15T10:21:25Z</time>
      </trkpt>
      <trkpt lat="35.240085124969482" lon="24.003217220306396">
        <ele>975.875</ele>
        <time>2011-06-15T10:21:27Z</time>
      </trkpt>
      <trkpt lat="35.240128040313721" lon="24.003195762634277">
        <ele>974.43399999999997</ele>
        <time>2011-06-15T10:21:33Z</time>
      </trkpt>
      <trkpt lat="35.240192413330078" lon="24.003088474273682">
        <ele>972.99199999999996</ele>
        <time>2011-06-15T10:21:44Z</time>
      </trkpt>
      <trkpt lat="35.240235328674316" lon="24.003045558929443">
        <ele>972.51099999999997</ele>
        <time>2011-06-15T10:21:49Z</time>
      </trkpt>
      <trkpt lat="35.240235328674316" lon="24.002959728240967">
        <ele>972.99199999999996</ele>
        <time>2011-06-15T10:21:56Z</time>
      </trkpt>
      <trkpt lat="35.240213871002197" lon="24.00287389755249">
        <ele>972.02999999999997</ele>
        <time>2011-06-15T10:22:03Z</time>
      </trkpt>
      <trkpt lat="35.240213871002197" lon="24.002852439880371">
        <ele>971.54899999999998</ele>
        <time>2011-06-15T10:22:05Z</time>
      </trkpt>
      <trkpt lat="35.240192413330078" lon="24.002788066864014">
        <ele>970.58799999999997</ele>
        <time>2011-06-15T10:22:13Z</time>
      </trkpt>
      <trkpt lat="35.240192413330078" lon="24.002745151519775">
        <ele>971.54899999999998</ele>
        <time>2011-06-15T10:22:19Z</time>
      </trkpt>
      <trkpt lat="35.240170955657959" lon="24.00263786315918">
        <ele>971.54899999999998</ele>
        <time>2011-06-15T10:22:26Z</time>
      </trkpt>
      <trkpt lat="35.240170955657959" lon="24.00263786315918">
        <ele>971.54899999999998</ele>
        <time>2011-06-15T10:22:27Z</time>
      </trkpt>
      <trkpt lat="35.24014949798584" lon="24.002573490142822">
        <ele>970.58799999999997</ele>
        <time>2011-06-15T10:22:31Z</time>
      </trkpt>
      <trkpt lat="35.240170955657959" lon="24.002509117126465">
        <ele>970.10699999999997</ele>
        <time>2011-06-15T10:22:36Z</time>
      </trkpt>
      <trkpt lat="35.24014949798584" lon="24.002487659454346">
        <ele>969.62699999999995</ele>
        <time>2011-06-15T10:22:44Z</time>
      </trkpt>
      <trkpt lat="35.24014949798584" lon="24.002466201782227">
        <ele>969.62699999999995</ele>
        <time>2011-06-15T10:22:47Z</time>
      </trkpt>
      <trkpt lat="35.240128040313721" lon="24.002444744110107">
        <ele>969.62699999999995</ele>
        <time>2011-06-15T10:22:50Z</time>
      </trkpt>
      <trkpt lat="35.240106582641602" lon="24.002401828765869">
        <ele>974.43399999999997</ele>
        <time>2011-06-15T10:23:01Z</time>
      </trkpt>
      <trkpt lat="35.240085124969482" lon="24.00238037109375">
        <ele>974.91399999999999</ele>
        <time>2011-06-15T10:23:04Z</time>
      </trkpt>
      <trkpt lat="35.240042209625244" lon="24.002337455749512">
        <ele>977.31799999999998</ele>
        <time>2011-06-15T10:23:14Z</time>
      </trkpt>
      <trkpt lat="35.240063667297363" lon="24.002294540405273">
        <ele>980.20100000000002</ele>
        <time>2011-06-15T10:23:27Z</time>
      </trkpt>
      <trkpt lat="35.240020751953125" lon="24.002273082733154">
        <ele>981.16300000000001</ele>
        <time>2011-06-15T10:23:34Z</time>
      </trkpt>
      <trkpt lat="35.239999294281006" lon="24.002230167388916">
        <ele>982.60500000000002</ele>
        <time>2011-06-15T10:23:43Z</time>
      </trkpt>
      <trkpt lat="35.239977836608887" lon="24.002187252044678">
        <ele>985.00800000000004</ele>
        <time>2011-06-15T10:23:53Z</time>
      </trkpt>
      <trkpt lat="35.23989200592041" lon="24.002165794372559">
        <ele>987.41099999999994</ele>
        <time>2011-06-15T10:24:07Z</time>
      </trkpt>
      <trkpt lat="35.239870548248291" lon="24.002144336700439">
        <ele>986.45000000000005</ele>
        <time>2011-06-15T10:24:15Z</time>
      </trkpt>
      <trkpt lat="35.239827632904053" lon="24.00212287902832">
        <ele>985.96900000000005</ele>
        <time>2011-06-15T10:24:23Z</time>
      </trkpt>
      <trkpt lat="35.239806175231934" lon="24.002079963684082">
        <ele>985.00800000000004</ele>
        <time>2011-06-15T10:24:33Z</time>
      </trkpt>
      <trkpt lat="35.239784717559814" lon="24.002037048339844">
        <ele>985.48900000000003</ele>
        <time>2011-06-15T10:24:45Z</time>
      </trkpt>
      <trkpt lat="35.239763259887695" lon="24.002037048339844">
        <ele>986.92999999999995</ele>
        <time>2011-06-15T10:24:50Z</time>
      </trkpt>
      <trkpt lat="35.239741802215576" lon="24.001994132995605">
        <ele>987.89200000000005</ele>
        <time>2011-06-15T10:24:55Z</time>
      </trkpt>
      <trkpt lat="35.239698886871338" lon="24.001951217651367">
        <ele>990.29499999999996</ele>
        <time>2011-06-15T10:25:01Z</time>
      </trkpt>
      <trkpt lat="35.239698886871338" lon="24.001929759979248">
        <ele>991.73699999999997</ele>
        <time>2011-06-15T10:25:07Z</time>
      </trkpt>
      <trkpt lat="35.239677429199219" lon="24.001908302307129">
        <ele>994.14099999999996</ele>
        <time>2011-06-15T10:25:11Z</time>
      </trkpt>
      <trkpt lat="35.239677429199219" lon="24.00188684463501">
        <ele>994.62099999999998</ele>
        <time>2011-06-15T10:25:13Z</time>
      </trkpt>
      <trkpt lat="35.239677429199219" lon="24.001865386962891">
        <ele>997.98599999999999</ele>
        <time>2011-06-15T10:25:21Z</time>
      </trkpt>
      <trkpt lat="35.239677429199219" lon="24.001843929290771">
        <ele>1000.87</ele>
        <time>2011-06-15T10:25:28Z</time>
      </trkpt>
      <trkpt lat="35.239677429199219" lon="24.001801013946533">
        <ele>1003.273</ele>
        <time>2011-06-15T10:25:42Z</time>
      </trkpt>
      <trkpt lat="35.239720344543457" lon="24.001779556274414">
        <ele>1004.235</ele>
        <time>2011-06-15T10:26:02Z</time>
      </trkpt>
      <trkpt lat="35.239741802215576" lon="24.001801013946533">
        <ele>1004.235</ele>
        <time>2011-06-15T10:26:12Z</time>
      </trkpt>
      <trkpt lat="35.239806175231934" lon="24.001736640930176">
        <ele>1006.157</ele>
        <time>2011-06-15T10:26:20Z</time>
      </trkpt>
      <trkpt lat="35.239827632904053" lon="24.001736640930176">
        <ele>1008.08</ele>
        <time>2011-06-15T10:26:39Z</time>
      </trkpt>
      <trkpt lat="35.239870548248291" lon="24.001801013946533">
        <ele>1005.677</ele>
        <time>2011-06-15T10:26:50Z</time>
      </trkpt>
      <trkpt lat="35.239870548248291" lon="24.001801013946533">
        <ele>1004.715</ele>
        <time>2011-06-15T10:26:52Z</time>
      </trkpt>
      <trkpt lat="35.239913463592529" lon="24.001822471618652">
        <ele>999.90800000000002</ele>
        <time>2011-06-15T10:27:03Z</time>
      </trkpt>
      <trkpt lat="35.240020751953125" lon="24.001908302307129">
        <ele>992.69899999999996</ele>
        <time>2011-06-15T10:27:43Z</time>
      </trkpt>
      <trkpt lat="35.240128040313721" lon="24.001972675323486">
        <ele>988.85400000000004</ele>
        <time>2011-06-15T10:27:59Z</time>
      </trkpt>
      <trkpt lat="35.240170955657959" lon="24.001951217651367">
        <ele>985.00800000000004</ele>
        <time>2011-06-15T10:28:12Z</time>
      </trkpt>
      <trkpt lat="35.240213871002197" lon="24.001972675323486">
        <ele>983.56600000000003</ele>
        <time>2011-06-15T10:28:17Z</time>
      </trkpt>
      <trkpt lat="35.240321159362793" lon="24.001972675323486">
        <ele>980.68200000000002</ele>
        <time>2011-06-15T10:28:35Z</time>
      </trkpt>
      <trkpt lat="35.240428447723389" lon="24.001994132995605">
        <ele>978.75999999999999</ele>
        <time>2011-06-15T10:28:59Z</time>
      </trkpt>
      <trkpt lat="35.240449905395508" lon="24.001994132995605">
        <ele>975.875</ele>
        <time>2011-06-15T10:29:06Z</time>
      </trkpt>
      <trkpt lat="35.240535736083984" lon="24.001994132995605">
        <ele>973.95299999999997</ele>
        <time>2011-06-15T10:29:15Z</time>
      </trkpt>
      <trkpt lat="35.240578651428223" lon="24.002037048339844">
        <ele>972.02999999999997</ele>
        <time>2011-06-15T10:29:26Z</time>
      </trkpt>
      <trkpt lat="35.240664482116699" lon="24.002101421356201">
        <ele>968.66600000000005</ele>
        <time>2011-06-15T10:29:37Z</time>
      </trkpt>
      <trkpt lat="35.240728855133057" lon="24.00212287902832">
        <ele>968.66600000000005</ele>
        <time>2011-06-15T10:29:42Z</time>
      </trkpt>
      <trkpt lat="35.240836143493652" lon="24.002187252044678">
        <ele>969.62699999999995</ele>
        <time>2011-06-15T10:29:51Z</time>
      </trkpt>
      <trkpt lat="35.240943431854248" lon="24.002165794372559">
        <ele>970.10699999999997</ele>
        <time>2011-06-15T10:30:02Z</time>
      </trkpt>
      <trkpt lat="35.240943431854248" lon="24.002165794372559">
        <ele>970.58799999999997</ele>
        <time>2011-06-15T10:30:03Z</time>
      </trkpt>
      <trkpt lat="35.241007804870605" lon="24.002165794372559">
        <ele>972.02999999999997</ele>
        <time>2011-06-15T10:30:12Z</time>
      </trkpt>
      <trkpt lat="35.241072177886963" lon="24.00212287902832">
        <ele>972.99199999999996</ele>
        <time>2011-06-15T10:30:23Z</time>
      </trkpt>
      <trkpt lat="35.241093635559082" lon="24.002101421356201">
        <ele>974.43399999999997</ele>
        <time>2011-06-15T10:30:26Z</time>
      </trkpt>
      <trkpt lat="35.241179466247559" lon="24.002079963684082">
        <ele>977.31799999999998</ele>
        <time>2011-06-15T10:30:39Z</time>
      </trkpt>
      <trkpt lat="35.241265296936035" lon="24.002015590667725">
        <ele>978.279</ele>
        <time>2011-06-15T10:30:58Z</time>
      </trkpt>
      <trkpt lat="35.241308212280273" lon="24.002015590667725">
        <ele>977.798</ele>
        <time>2011-06-15T10:31:07Z</time>
      </trkpt>
      <trkpt lat="35.241372585296631" lon="24.002037048339844">
        <ele>977.798</ele>
        <time>2011-06-15T10:31:14Z</time>
      </trkpt>
      <trkpt lat="35.241479873657227" lon="24.002079963684082">
        <ele>977.798</ele>
        <time>2011-06-15T10:31:24Z</time>
      </trkpt>
      <trkpt lat="35.241587162017822" lon="24.002144336700439">
        <ele>976.83699999999999</ele>
        <time>2011-06-15T10:31:34Z</time>
      </trkpt>
      <trkpt lat="35.24165153503418" lon="24.002144336700439">
        <ele>976.35599999999999</ele>
        <time>2011-06-15T10:31:39Z</time>
      </trkpt>
      <trkpt lat="35.241694450378418" lon="24.00212287902832">
        <ele>976.35599999999999</ele>
        <time>2011-06-15T10:31:45Z</time>
      </trkpt>
      <trkpt lat="35.241737365722656" lon="24.002058506011963">
        <ele>975.39499999999998</ele>
        <time>2011-06-15T10:31:52Z</time>
      </trkpt>
      <trkpt lat="35.241844654083252" lon="24.002037048339844">
        <ele>972.02999999999997</ele>
        <time>2011-06-15T10:32:06Z</time>
      </trkpt>
      <trkpt lat="35.241930484771729" lon="24.001972675323486">
        <ele>967.70399999999995</ele>
        <time>2011-06-15T10:32:16Z</time>
      </trkpt>
      <trkpt lat="35.241994857788086" lon="24.001908302307129">
        <ele>966.74300000000005</ele>
        <time>2011-06-15T10:32:23Z</time>
      </trkpt>
      <trkpt lat="35.242059230804443" lon="24.001865386962891">
        <ele>966.26199999999994</ele>
        <time>2011-06-15T10:32:27Z</time>
      </trkpt>
      <trkpt lat="35.242123603820801" lon="24.001843929290771">
        <ele>965.78200000000004</ele>
        <time>2011-06-15T10:32:35Z</time>
      </trkpt>
      <trkpt lat="35.242166519165039" lon="24.001843929290771">
        <ele>964.82000000000005</ele>
        <time>2011-06-15T10:32:39Z</time>
      </trkpt>
      <trkpt lat="35.242230892181396" lon="24.001865386962891">
        <ele>965.78200000000004</ele>
        <time>2011-06-15T10:32:46Z</time>
      </trkpt>
      <trkpt lat="35.242295265197754" lon="24.001865386962891">
        <ele>964.82000000000005</ele>
        <time>2011-06-15T10:32:51Z</time>
      </trkpt>
      <trkpt lat="35.242316722869873" lon="24.001865386962891">
        <ele>964.82000000000005</ele>
        <time>2011-06-15T10:32:53Z</time>
      </trkpt>
      <trkpt lat="35.242338180541992" lon="24.001843929290771">
        <ele>966.26199999999994</ele>
        <time>2011-06-15T10:33:00Z</time>
      </trkpt>
      <trkpt lat="35.242359638214111" lon="24.001822471618652">
        <ele>967.22400000000005</ele>
        <time>2011-06-15T10:33:03Z</time>
      </trkpt>
      <trkpt lat="35.24240255355835" lon="24.001736640930176">
        <ele>969.14599999999996</ele>
        <time>2011-06-15T10:33:12Z</time>
      </trkpt>
      <trkpt lat="35.242424011230469" lon="24.001693725585938">
        <ele>970.10699999999997</ele>
        <time>2011-06-15T10:33:16Z</time>
      </trkpt>
      <trkpt lat="35.242445468902588" lon="24.001672267913818">
        <ele>970.10699999999997</ele>
        <time>2011-06-15T10:33:19Z</time>
      </trkpt>
      <trkpt lat="35.242445468902588" lon="24.001650810241699">
        <ele>970.10699999999997</ele>
        <time>2011-06-15T10:33:22Z</time>
      </trkpt>
      <trkpt lat="35.242531299591064" lon="24.001586437225342">
        <ele>970.58799999999997</ele>
        <time>2011-06-15T10:33:29Z</time>
      </trkpt>
      <trkpt lat="35.242552757263184" lon="24.001586437225342">
        <ele>970.58799999999997</ele>
        <time>2011-06-15T10:33:30Z</time>
      </trkpt>
      <trkpt lat="35.242617130279541" lon="24.001522064208984">
        <ele>971.06899999999996</ele>
        <time>2011-06-15T10:33:41Z</time>
      </trkpt>
      <trkpt lat="35.242660045623779" lon="24.001457691192627">
        <ele>973.95299999999997</ele>
        <time>2011-06-15T10:33:55Z</time>
      </trkpt>
      <trkpt lat="35.242724418640137" lon="24.00137186050415">
        <ele>975.39499999999998</ele>
        <time>2011-06-15T10:34:04Z</time>
      </trkpt>
      <trkpt lat="35.242745876312256" lon="24.001350402832031">
        <ele>977.31799999999998</ele>
        <time>2011-06-15T10:34:13Z</time>
      </trkpt>
      <trkpt lat="35.242810249328613" lon="24.001350402832031">
        <ele>979.721</ele>
        <time>2011-06-15T10:34:26Z</time>
      </trkpt>
      <trkpt lat="35.242874622344971" lon="24.001307487487793">
        <ele>975.875</ele>
        <time>2011-06-15T10:34:34Z</time>
      </trkpt>
      <trkpt lat="35.24289608001709" lon="24.001307487487793">
        <ele>974.91399999999999</ele>
        <time>2011-06-15T10:34:38Z</time>
      </trkpt>
      <trkpt lat="35.242917537689209" lon="24.001328945159912">
        <ele>975.39499999999998</ele>
        <time>2011-06-15T10:34:42Z</time>
      </trkpt>
      <trkpt lat="35.242960453033447" lon="24.001307487487793">
        <ele>975.875</ele>
        <time>2011-06-15T10:34:46Z</time>
      </trkpt>
      <trkpt lat="35.242981910705566" lon="24.001307487487793">
        <ele>976.35599999999999</ele>
        <time>2011-06-15T10:34:50Z</time>
      </trkpt>
      <trkpt lat="35.243003368377686" lon="24.001286029815674">
        <ele>976.35599999999999</ele>
        <time>2011-06-15T10:34:54Z</time>
      </trkpt>
      <trkpt lat="35.243046283721924" lon="24.001286029815674">
        <ele>977.31799999999998</ele>
        <time>2011-06-15T10:35:01Z</time>
      </trkpt>
      <trkpt lat="35.2431321144104" lon="24.001264572143555">
        <ele>977.31799999999998</ele>
        <time>2011-06-15T10:35:12Z</time>
      </trkpt>
      <trkpt lat="35.2431321144104" lon="24.001264572143555">
        <ele>977.798</ele>
        <time>2011-06-15T10:35:16Z</time>
      </trkpt>
      <trkpt lat="35.243196487426758" lon="24.001200199127197">
        <ele>978.75999999999999</ele>
        <time>2011-06-15T10:35:28Z</time>
      </trkpt>
      <trkpt lat="35.243260860443115" lon="24.001157283782959">
        <ele>978.75999999999999</ele>
        <time>2011-06-15T10:35:42Z</time>
      </trkpt>
      <trkpt lat="35.243282318115234" lon="24.001157283782959">
        <ele>979.721</ele>
        <time>2011-06-15T10:35:46Z</time>
      </trkpt>
      <trkpt lat="35.243346691131592" lon="24.001157283782959">
        <ele>981.64300000000003</ele>
        <time>2011-06-15T10:35:56Z</time>
      </trkpt>
      <trkpt lat="35.243368148803711" lon="24.001178741455078">
        <ele>982.12400000000002</ele>
        <time>2011-06-15T10:35:58Z</time>
      </trkpt>
      <trkpt lat="35.243411064147949" lon="24.001157283782959">
        <ele>984.52700000000004</ele>
        <time>2011-06-15T10:36:05Z</time>
      </trkpt>
      <trkpt lat="35.243432521820068" lon="24.001178741455078">
        <ele>985.96900000000005</ele>
        <time>2011-06-15T10:36:08Z</time>
      </trkpt>
      <trkpt lat="35.243475437164307" lon="24.001200199127197">
        <ele>988.85400000000004</ele>
        <time>2011-06-15T10:36:16Z</time>
      </trkpt>
      <trkpt lat="35.243539810180664" lon="24.001243114471436">
        <ele>989.33399999999995</ele>
        <time>2011-06-15T10:36:26Z</time>
      </trkpt>
      <trkpt lat="35.243539810180664" lon="24.001264572143555">
        <ele>988.85400000000004</ele>
        <time>2011-06-15T10:36:31Z</time>
      </trkpt>
      <trkpt lat="35.243561267852783" lon="24.001243114471436">
        <ele>987.89200000000005</ele>
        <time>2011-06-15T10:36:34Z</time>
      </trkpt>
      <trkpt lat="35.243582725524902" lon="24.001243114471436">
        <ele>986.92999999999995</ele>
        <time>2011-06-15T10:36:38Z</time>
      </trkpt>
      <trkpt lat="35.243604183197021" lon="24.001264572143555">
        <ele>985.96900000000005</ele>
        <time>2011-06-15T10:36:40Z</time>
      </trkpt>
      <trkpt lat="35.243668556213379" lon="24.001307487487793">
        <ele>985.00800000000004</ele>
        <time>2011-06-15T10:36:47Z</time>
      </trkpt>
      <trkpt lat="35.243668556213379" lon="24.001307487487793">
        <ele>984.52700000000004</ele>
        <time>2011-06-15T10:36:48Z</time>
      </trkpt>
      <trkpt lat="35.243711471557617" lon="24.001328945159912">
        <ele>985.00800000000004</ele>
        <time>2011-06-15T10:36:53Z</time>
      </trkpt>
      <trkpt lat="35.243754386901855" lon="24.001414775848389">
        <ele>987.89200000000005</ele>
        <time>2011-06-15T10:37:04Z</time>
      </trkpt>
      <trkpt lat="35.243797302246094" lon="24.001500606536865">
        <ele>991.73699999999997</ele>
        <time>2011-06-15T10:37:17Z</time>
      </trkpt>
      <trkpt lat="35.243818759918213" lon="24.001522064208984">
        <ele>992.69899999999996</ele>
        <time>2011-06-15T10:37:21Z</time>
      </trkpt>
      <trkpt lat="35.243861675262451" lon="24.001564979553223">
        <ele>994.62099999999998</ele>
        <time>2011-06-15T10:37:29Z</time>
      </trkpt>
      <trkpt lat="35.243840217590332" lon="24.001715183258057">
        <ele>997.024</ele>
        <time>2011-06-15T10:37:58Z</time>
      </trkpt>
      <trkpt lat="35.243861675262451" lon="24.001779556274414">
        <ele>997.505</ele>
        <time>2011-06-15T10:38:08Z</time>
      </trkpt>
      <trkpt lat="35.243904590606689" lon="24.001908302307129">
        <ele>997.024</ele>
        <time>2011-06-15T10:38:22Z</time>
      </trkpt>
      <trkpt lat="35.243904590606689" lon="24.001951217651367">
        <ele>996.06299999999999</ele>
        <time>2011-06-15T10:38:28Z</time>
      </trkpt>
      <trkpt lat="35.243926048278809" lon="24.001972675323486">
        <ele>995.58299999999997</ele>
        <time>2011-06-15T10:38:30Z</time>
      </trkpt>
      <trkpt lat="35.243968963623047" lon="24.002251625061035">
        <ele>1005.677</ele>
        <time>2011-06-15T10:38:51Z</time>
      </trkpt>
      <trkpt lat="35.243947505950928" lon="24.002337455749512">
        <ele>1009.522</ele>
        <time>2011-06-15T10:39:18Z</time>
      </trkpt>
      <trkpt lat="35.243947505950928" lon="24.002358913421631">
        <ele>1009.0410000000001</ele>
        <time>2011-06-15T10:39:21Z</time>
      </trkpt>
      <trkpt lat="35.243990421295166" lon="24.002401828765869">
        <ele>1010.002</ele>
        <time>2011-06-15T10:39:28Z</time>
      </trkpt>
      <trkpt lat="35.244011878967285" lon="24.002466201782227">
        <ele>1010.4829999999999</ele>
        <time>2011-06-15T10:39:32Z</time>
      </trkpt>
      <trkpt lat="35.244011878967285" lon="24.002509117126465">
        <ele>1010.002</ele>
        <time>2011-06-15T10:39:36Z</time>
      </trkpt>
      <trkpt lat="35.244033336639404" lon="24.002530574798584">
        <ele>1010.002</ele>
        <time>2011-06-15T10:39:39Z</time>
      </trkpt>
      <trkpt lat="35.244033336639404" lon="24.00263786315918">
        <ele>1011.444</ele>
        <time>2011-06-15T10:39:50Z</time>
      </trkpt>
      <trkpt lat="35.244054794311523" lon="24.002723693847656">
        <ele>1012.4059999999999</ele>
        <time>2011-06-15T10:40:00Z</time>
      </trkpt>
      <trkpt lat="35.244054794311523" lon="24.002809524536133">
        <ele>1014.809</ele>
        <time>2011-06-15T10:40:13Z</time>
      </trkpt>
      <trkpt lat="35.244054794311523" lon="24.002852439880371">
        <ele>1015.29</ele>
        <time>2011-06-15T10:40:17Z</time>
      </trkpt>
      <trkpt lat="35.244033336639404" lon="24.002938270568848">
        <ele>1016.731</ele>
        <time>2011-06-15T10:40:35Z</time>
      </trkpt>
      <trkpt lat="35.244076251983643" lon="24.003024101257324">
        <ele>1019.135</ele>
        <time>2011-06-15T10:40:45Z</time>
      </trkpt>
      <trkpt lat="35.244162082672119" lon="24.003088474273682">
        <ele>1019.135</ele>
        <time>2011-06-15T10:40:54Z</time>
      </trkpt>
      <trkpt lat="35.244204998016357" lon="24.00313138961792">
        <ele>1019.615</ele>
        <time>2011-06-15T10:40:58Z</time>
      </trkpt>
      <trkpt lat="35.244269371032715" lon="24.003195762634277">
        <ele>1019.135</ele>
        <time>2011-06-15T10:41:08Z</time>
      </trkpt>
      <trkpt lat="35.244312286376953" lon="24.003195762634277">
        <ele>1019.135</ele>
        <time>2011-06-15T10:41:12Z</time>
      </trkpt>
      <trkpt lat="35.244355201721191" lon="24.003174304962158">
        <ele>1018.654</ele>
        <time>2011-06-15T10:41:17Z</time>
      </trkpt>
      <trkpt lat="35.244462490081787" lon="24.003152847290039">
        <ele>1022.019</ele>
        <time>2011-06-15T10:41:24Z</time>
      </trkpt>
      <trkpt lat="35.244569778442383" lon="24.00313138961792">
        <ele>1027.306</ele>
        <time>2011-06-15T10:41:34Z</time>
      </trkpt>
      <trkpt lat="35.244655609130859" lon="24.003109931945801">
        <ele>1031.6320000000001</ele>
        <time>2011-06-15T10:41:46Z</time>
      </trkpt>
      <trkpt lat="35.244655609130859" lon="24.003109931945801">
        <ele>1032.1130000000001</ele>
        <time>2011-06-15T10:41:47Z</time>
      </trkpt>
      <trkpt lat="35.244719982147217" lon="24.003088474273682">
        <ele>1030.671</ele>
        <time>2011-06-15T10:41:54Z</time>
      </trkpt>
      <trkpt lat="35.244762897491455" lon="24.003067016601563">
        <ele>1034.5160000000001</ele>
        <time>2011-06-15T10:42:01Z</time>
      </trkpt>
      <trkpt lat="35.244870185852051" lon="24.003002643585205">
        <ele>1039.3230000000001</ele>
        <time>2011-06-15T10:42:10Z</time>
      </trkpt>
      <trkpt lat="35.244913101196289" lon="24.002981185913086">
        <ele>1040.2840000000001</ele>
        <time>2011-06-15T10:42:17Z</time>
      </trkpt>
      <trkpt lat="35.244998931884766" lon="24.002981185913086">
        <ele>1040.2840000000001</ele>
        <time>2011-06-15T10:42:23Z</time>
      </trkpt>
      <trkpt lat="35.245063304901123" lon="24.002938270568848">
        <ele>1041.2449999999999</ele>
        <time>2011-06-15T10:42:31Z</time>
      </trkpt>
      <trkpt lat="35.245084762573242" lon="24.002938270568848">
        <ele>1041.2449999999999</ele>
        <time>2011-06-15T10:42:33Z</time>
      </trkpt>
      <trkpt lat="35.2451491355896" lon="24.002852439880371">
        <ele>1037.4000000000001</ele>
        <time>2011-06-15T10:42:39Z</time>
      </trkpt>
      <trkpt lat="35.245213508605957" lon="24.002809524536133">
        <ele>1036.9190000000001</ele>
        <time>2011-06-15T10:42:43Z</time>
      </trkpt>
      <trkpt lat="35.245256423950195" lon="24.002809524536133">
        <ele>1036.4390000000001</ele>
        <time>2011-06-15T10:42:46Z</time>
      </trkpt>
      <trkpt lat="35.245299339294434" lon="24.002809524536133">
        <ele>1035.9580000000001</ele>
        <time>2011-06-15T10:42:50Z</time>
      </trkpt>
      <trkpt lat="35.245406627655029" lon="24.002766609191895">
        <ele>1034.5160000000001</ele>
        <time>2011-06-15T10:43:03Z</time>
      </trkpt>
      <trkpt lat="35.245492458343506" lon="24.002745151519775">
        <ele>1034.5160000000001</ele>
        <time>2011-06-15T10:43:11Z</time>
      </trkpt>
      <trkpt lat="35.245578289031982" lon="24.002766609191895">
        <ele>1033.0740000000001</ele>
        <time>2011-06-15T10:43:21Z</time>
      </trkpt>
      <trkpt lat="35.245578289031982" lon="24.002766609191895">
        <ele>1033.0740000000001</ele>
        <time>2011-06-15T10:43:23Z</time>
      </trkpt>
      <trkpt lat="35.245599746704102" lon="24.002788066864014">
        <ele>1032.5930000000001</ele>
        <time>2011-06-15T10:43:25Z</time>
      </trkpt>
      <trkpt lat="35.245664119720459" lon="24.002830982208252">
        <ele>1032.1130000000001</ele>
        <time>2011-06-15T10:43:32Z</time>
      </trkpt>
      <trkpt lat="35.245707035064697" lon="24.002788066864014">
        <ele>1032.5930000000001</ele>
        <time>2011-06-15T10:43:36Z</time>
      </trkpt>
      <trkpt lat="35.245749950408936" lon="24.002745151519775">
        <ele>1032.1130000000001</ele>
        <time>2011-06-15T10:43:42Z</time>
      </trkpt>
      <trkpt lat="35.245835781097412" lon="24.002745151519775">
        <ele>1031.1510000000001</ele>
        <time>2011-06-15T10:43:49Z</time>
      </trkpt>
      <trkpt lat="35.245835781097412" lon="24.002745151519775">
        <ele>1031.1510000000001</ele>
        <time>2011-06-15T10:43:51Z</time>
      </trkpt>
      <trkpt lat="35.24587869644165" lon="24.002723693847656">
        <ele>1031.1510000000001</ele>
        <time>2011-06-15T10:43:54Z</time>
      </trkpt>
      <trkpt lat="35.245943069458008" lon="24.002745151519775">
        <ele>1031.1510000000001</ele>
        <time>2011-06-15T10:44:02Z</time>
      </trkpt>
      <trkpt lat="35.246028900146484" lon="24.002788066864014">
        <ele>1031.6320000000001</ele>
        <time>2011-06-15T10:44:12Z</time>
      </trkpt>
      <trkpt lat="35.246093273162842" lon="24.002766609191895">
        <ele>1031.6320000000001</ele>
        <time>2011-06-15T10:44:20Z</time>
      </trkpt>
      <trkpt lat="35.246157646179199" lon="24.002766609191895">
        <ele>1032.1130000000001</ele>
        <time>2011-06-15T10:44:27Z</time>
      </trkpt>
      <trkpt lat="35.246264934539795" lon="24.002659320831299">
        <ele>1029.229</ele>
        <time>2011-06-15T10:44:37Z</time>
      </trkpt>
      <trkpt lat="35.246329307556152" lon="24.002616405487061">
        <ele>1026.825</ele>
        <time>2011-06-15T10:44:46Z</time>
      </trkpt>
      <trkpt lat="35.246415138244629" lon="24.002573490142822">
        <ele>1023.461</ele>
        <time>2011-06-15T10:44:56Z</time>
      </trkpt>
      <trkpt lat="35.246479511260986" lon="24.002530574798584">
        <ele>1022.5</ele>
        <time>2011-06-15T10:45:01Z</time>
      </trkpt>
      <trkpt lat="35.246565341949463" lon="24.002444744110107">
        <ele>1019.615</ele>
        <time>2011-06-15T10:45:11Z</time>
      </trkpt>
      <trkpt lat="35.246672630310059" lon="24.002315998077393">
        <ele>1015.29</ele>
        <time>2011-06-15T10:45:25Z</time>
      </trkpt>
      <trkpt lat="35.246801376342773" lon="24.002230167388916">
        <ele>1015.29</ele>
        <time>2011-06-15T10:45:41Z</time>
      </trkpt>
      <trkpt lat="35.246822834014893" lon="24.002144336700439">
        <ele>1017.212</ele>
        <time>2011-06-15T10:46:04Z</time>
      </trkpt>
      <trkpt lat="35.246844291687012" lon="24.00212287902832">
        <ele>1018.654</ele>
        <time>2011-06-15T10:46:08Z</time>
      </trkpt>
      <trkpt lat="35.246865749359131" lon="24.00212287902832">
        <ele>1019.615</ele>
        <time>2011-06-15T10:46:10Z</time>
      </trkpt>
      <trkpt lat="35.246930122375488" lon="24.002079963684082">
        <ele>1023.461</ele>
        <time>2011-06-15T10:46:19Z</time>
      </trkpt>
      <trkpt lat="35.246994495391846" lon="24.002058506011963">
        <ele>1021.058</ele>
        <time>2011-06-15T10:46:35Z</time>
      </trkpt>
      <trkpt lat="35.246994495391846" lon="24.002058506011963">
        <ele>1019.135</ele>
        <time>2011-06-15T10:46:40Z</time>
      </trkpt>
      <trkpt lat="35.246994495391846" lon="24.002079963684082">
        <ele>1019.615</ele>
        <time>2011-06-15T10:46:42Z</time>
      </trkpt>
      <trkpt lat="35.247058868408203" lon="24.002015590667725">
        <ele>1029.7090000000001</ele>
        <time>2011-06-15T10:48:52Z</time>
      </trkpt>
      <trkpt lat="35.247101783752441" lon="24.002037048339844">
        <ele>1040.7639999999999</ele>
        <time>2011-06-15T10:49:43Z</time>
      </trkpt>
      <trkpt lat="35.247123241424561" lon="24.002037048339844">
        <ele>1040.7639999999999</ele>
        <time>2011-06-15T10:49:52Z</time>
      </trkpt>
      <trkpt lat="35.247187614440918" lon="24.002037048339844">
        <ele>1041.2449999999999</ele>
        <time>2011-06-15T10:50:00Z</time>
      </trkpt>
      <trkpt lat="35.247251987457275" lon="24.001994132995605">
        <ele>1042.6869999999999</ele>
        <time>2011-06-15T10:50:08Z</time>
      </trkpt>
      <trkpt lat="35.247273445129395" lon="24.001994132995605">
        <ele>1043.1679999999999</ele>
        <time>2011-06-15T10:50:15Z</time>
      </trkpt>
      <trkpt lat="35.247337818145752" lon="24.001994132995605">
        <ele>1044.6099999999999</ele>
        <time>2011-06-15T10:50:29Z</time>
      </trkpt>
      <trkpt lat="35.24738073348999" lon="24.001951217651367">
        <ele>1045.0899999999999</ele>
        <time>2011-06-15T10:50:41Z</time>
      </trkpt>
      <trkpt lat="35.247445106506348" lon="24.001951217651367">
        <ele>1047.4939999999999</ele>
        <time>2011-06-15T10:50:53Z</time>
      </trkpt>
      <trkpt lat="35.247488021850586" lon="24.00188684463501">
        <ele>1049.8969999999999</ele>
        <time>2011-06-15T10:51:02Z</time>
      </trkpt>
      <trkpt lat="35.247573852539062" lon="24.001801013946533">
        <ele>1047.9739999999999</ele>
        <time>2011-06-15T10:51:13Z</time>
      </trkpt>
      <trkpt lat="35.24763822555542" lon="24.001736640930176">
        <ele>1048.4549999999999</ele>
        <time>2011-06-15T10:51:29Z</time>
      </trkpt>
      <trkpt lat="35.247659683227539" lon="24.001650810241699">
        <ele>1048.4549999999999</ele>
        <time>2011-06-15T10:51:35Z</time>
      </trkpt>
      <trkpt lat="35.247681140899658" lon="24.001607894897461">
        <ele>1047.4939999999999</ele>
        <time>2011-06-15T10:51:38Z</time>
      </trkpt>
      <trkpt lat="35.247745513916016" lon="24.001543521881104">
        <ele>1044.6099999999999</ele>
        <time>2011-06-15T10:51:51Z</time>
      </trkpt>
      <trkpt lat="35.247766971588135" lon="24.001543521881104">
        <ele>1044.6099999999999</ele>
        <time>2011-06-15T10:51:52Z</time>
      </trkpt>
      <trkpt lat="35.247831344604492" lon="24.001522064208984">
        <ele>1046.5319999999999</ele>
        <time>2011-06-15T10:52:02Z</time>
      </trkpt>
      <trkpt lat="35.247852802276611" lon="24.001500606536865">
        <ele>1046.5319999999999</ele>
        <time>2011-06-15T10:52:12Z</time>
      </trkpt>
      <trkpt lat="35.247960090637207" lon="24.001414775848389">
        <ele>1050.8579999999999</ele>
        <time>2011-06-15T10:52:30Z</time>
      </trkpt>
      <trkpt lat="35.248045921325684" lon="24.00139331817627">
        <ele>1049.8969999999999</ele>
        <time>2011-06-15T10:52:43Z</time>
      </trkpt>
      <trkpt lat="35.248067378997803" lon="24.00137186050415">
        <ele>1050.3779999999999</ele>
        <time>2011-06-15T10:52:44Z</time>
      </trkpt>
      <trkpt lat="35.248088836669922" lon="24.001350402832031">
        <ele>1050.8579999999999</ele>
        <time>2011-06-15T10:52:48Z</time>
      </trkpt>
      <trkpt lat="35.248174667358398" lon="24.001307487487793">
        <ele>1049.8969999999999</ele>
        <time>2011-06-15T10:52:57Z</time>
      </trkpt>
      <trkpt lat="35.248196125030518" lon="24.001286029815674">
        <ele>1048.9359999999999</ele>
        <time>2011-06-15T10:53:00Z</time>
      </trkpt>
      <trkpt lat="35.248217582702637" lon="24.001286029815674">
        <ele>1048.4549999999999</ele>
        <time>2011-06-15T10:53:02Z</time>
      </trkpt>
      <trkpt lat="35.248303413391113" lon="24.001221656799316">
        <ele>1045.5709999999999</ele>
        <time>2011-06-15T10:53:10Z</time>
      </trkpt>
      <trkpt lat="35.248324871063232" lon="24.001221656799316">
        <ele>1045.0899999999999</ele>
        <time>2011-06-15T10:53:12Z</time>
      </trkpt>
      <trkpt lat="35.248432159423828" lon="24.001221656799316">
        <ele>1042.6869999999999</ele>
        <time>2011-06-15T10:53:20Z</time>
      </trkpt>
      <trkpt lat="35.248496532440186" lon="24.001243114471436">
        <ele>1039.3230000000001</ele>
        <time>2011-06-15T10:53:27Z</time>
      </trkpt>
      <trkpt lat="35.248560905456543" lon="24.001243114471436">
        <ele>1034.5160000000001</ele>
        <time>2011-06-15T10:53:34Z</time>
      </trkpt>
      <trkpt lat="35.2486252784729" lon="24.001243114471436">
        <ele>1034.9970000000001</ele>
        <time>2011-06-15T10:53:40Z</time>
      </trkpt>
      <trkpt lat="35.248711109161377" lon="24.001243114471436">
        <ele>1033.5540000000001</ele>
        <time>2011-06-15T10:53:49Z</time>
      </trkpt>
      <trkpt lat="35.248818397521973" lon="24.001221656799316">
        <ele>1030.671</ele>
        <time>2011-06-15T10:54:08Z</time>
      </trkpt>
      <trkpt lat="35.24888277053833" lon="24.001200199127197">
        <ele>1030.671</ele>
        <time>2011-06-15T10:54:17Z</time>
      </trkpt>
      <trkpt lat="35.248925685882568" lon="24.001221656799316">
        <ele>1030.1900000000001</ele>
        <time>2011-06-15T10:54:35Z</time>
      </trkpt>
      <trkpt lat="35.248925685882568" lon="24.001200199127197">
        <ele>1030.1900000000001</ele>
        <time>2011-06-15T10:54:40Z</time>
      </trkpt>
      <trkpt lat="35.248904228210449" lon="24.001157283782959">
        <ele>1031.6320000000001</ele>
        <time>2011-06-15T10:55:02Z</time>
      </trkpt>
      <trkpt lat="35.248925685882568" lon="24.001157283782959">
        <ele>1039.3230000000001</ele>
        <time>2011-06-15T10:57:32Z</time>
      </trkpt>
      <trkpt lat="35.248968601226807" lon="24.001157283782959">
        <ele>1037.8810000000001</ele>
        <time>2011-06-15T10:58:05Z</time>
      </trkpt>
      <trkpt lat="35.248968601226807" lon="24.001092910766602">
        <ele>1034.9970000000001</ele>
        <time>2011-06-15T10:58:14Z</time>
      </trkpt>
      <trkpt lat="35.249011516571045" lon="24.001092910766602">
        <ele>1037.4000000000001</ele>
        <time>2011-06-15T10:58:31Z</time>
      </trkpt>
      <trkpt lat="35.249032974243164" lon="24.001114368438721">
        <ele>1036.9190000000001</ele>
        <time>2011-06-15T10:58:45Z</time>
      </trkpt>
      <trkpt lat="35.249075889587402" lon="24.001114368438721">
        <ele>1035.9580000000001</ele>
        <time>2011-06-15T10:59:01Z</time>
      </trkpt>
      <trkpt lat="35.249097347259521" lon="24.001092910766602">
        <ele>1034.5160000000001</ele>
        <time>2011-06-15T10:59:15Z</time>
      </trkpt>
      <trkpt lat="35.249118804931641" lon="24.001092910766602">
        <ele>1034.0350000000001</ele>
        <time>2011-06-15T10:59:22Z</time>
      </trkpt>
      <trkpt lat="35.249161720275879" lon="24.00113582611084">
        <ele>1031.1510000000001</ele>
        <time>2011-06-15T10:59:42Z</time>
      </trkpt>
      <trkpt lat="35.249247550964355" lon="24.001092910766602">
        <ele>1032.1130000000001</ele>
        <time>2011-06-15T11:00:03Z</time>
      </trkpt>
      <trkpt lat="35.249269008636475" lon="24.001114368438721">
        <ele>1030.671</ele>
        <time>2011-06-15T11:00:16Z</time>
      </trkpt>
      <trkpt lat="35.249290466308594" lon="24.001092910766602">
        <ele>1029.229</ele>
        <time>2011-06-15T11:00:26Z</time>
      </trkpt>
      <trkpt lat="35.24937629699707" lon="24.001114368438721">
        <ele>1027.787</ele>
        <time>2011-06-15T11:00:48Z</time>
      </trkpt>
      <trkpt lat="35.249397754669189" lon="24.00113582611084">
        <ele>1027.787</ele>
        <time>2011-06-15T11:00:50Z</time>
      </trkpt>
      <trkpt lat="35.249397754669189" lon="24.00113582611084">
        <ele>1027.787</ele>
        <time>2011-06-15T11:00:53Z</time>
      </trkpt>
      <trkpt lat="35.249397754669189" lon="24.001092910766602">
        <ele>1026.825</ele>
        <time>2011-06-15T11:01:00Z</time>
      </trkpt>
      <trkpt lat="35.249462127685547" lon="24.00113582611084">
        <ele>1023.941</ele>
        <time>2011-06-15T11:01:17Z</time>
      </trkpt>
      <trkpt lat="35.249483585357666" lon="24.001114368438721">
        <ele>1022.019</ele>
        <time>2011-06-15T11:01:27Z</time>
      </trkpt>
      <trkpt lat="35.249526500701904" lon="24.001071453094482">
        <ele>1022.019</ele>
        <time>2011-06-15T11:01:40Z</time>
      </trkpt>
      <trkpt lat="35.249569416046143" lon="24.001114368438721">
        <ele>1023.461</ele>
        <time>2011-06-15T11:01:47Z</time>
      </trkpt>
      <trkpt lat="35.249612331390381" lon="24.001092910766602">
        <ele>1023.941</ele>
        <time>2011-06-15T11:01:54Z</time>
      </trkpt>
      <trkpt lat="35.249612331390381" lon="24.001092910766602">
        <ele>1018.654</ele>
        <time>2011-06-15T11:02:02Z</time>
      </trkpt>
      <trkpt lat="35.249612331390381" lon="24.001049995422363">
        <ele>1019.615</ele>
        <time>2011-06-15T11:02:10Z</time>
      </trkpt>
      <trkpt lat="35.249655246734619" lon="24.001092910766602">
        <ele>1018.654</ele>
        <time>2011-06-15T11:02:27Z</time>
      </trkpt>
      <trkpt lat="35.249698162078857" lon="24.001114368438721">
        <ele>1019.615</ele>
        <time>2011-06-15T11:02:38Z</time>
      </trkpt>
      <trkpt lat="35.249762535095215" lon="24.001114368438721">
        <ele>1018.654</ele>
        <time>2011-06-15T11:02:44Z</time>
      </trkpt>
      <trkpt lat="35.249783992767334" lon="24.001092910766602">
        <ele>1017.693</ele>
        <time>2011-06-15T11:02:47Z</time>
      </trkpt>
      <trkpt lat="35.249826908111572" lon="24.001028537750244">
        <ele>1017.693</ele>
        <time>2011-06-15T11:02:58Z</time>
      </trkpt>
      <trkpt lat="35.249869823455811" lon="24.000985622406006">
        <ele>1019.135</ele>
        <time>2011-06-15T11:03:07Z</time>
      </trkpt>
      <trkpt lat="35.249977111816406" lon="24.000964164733887">
        <ele>1017.693</ele>
        <time>2011-06-15T11:03:18Z</time>
      </trkpt>
      <trkpt lat="35.249977111816406" lon="24.000942707061768">
        <ele>1016.251</ele>
        <time>2011-06-15T11:03:21Z</time>
      </trkpt>
      <trkpt lat="35.250084400177002" lon="24.000899791717529">
        <ele>1013.367</ele>
        <time>2011-06-15T11:03:32Z</time>
      </trkpt>
      <trkpt lat="35.250148773193359" lon="24.000899791717529">
        <ele>1011.444</ele>
        <time>2011-06-15T11:03:41Z</time>
      </trkpt>
      <trkpt lat="35.250234603881836" lon="24.00087833404541">
        <ele>1010.9640000000001</ele>
        <time>2011-06-15T11:03:50Z</time>
      </trkpt>
      <trkpt lat="35.250234603881836" lon="24.000899791717529">
        <ele>1010.9640000000001</ele>
        <time>2011-06-15T11:03:53Z</time>
      </trkpt>
      <trkpt lat="35.250256061553955" lon="24.000899791717529">
        <ele>1010.9640000000001</ele>
        <time>2011-06-15T11:03:55Z</time>
      </trkpt>
      <trkpt lat="35.250320434570313" lon="24.000899791717529">
        <ele>1011.444</ele>
        <time>2011-06-15T11:04:05Z</time>
      </trkpt>
      <trkpt lat="35.250449180603027" lon="24.000921249389648">
        <ele>1010.4829999999999</ele>
        <time>2011-06-15T11:04:23Z</time>
      </trkpt>
      <trkpt lat="35.250535011291504" lon="24.000899791717529">
        <ele>1004.235</ele>
        <time>2011-06-15T11:04:52Z</time>
      </trkpt>
      <trkpt lat="35.25062084197998" lon="24.000899791717529">
        <ele>1003.273</ele>
        <time>2011-06-15T11:05:07Z</time>
      </trkpt>
      <trkpt lat="35.25062084197998" lon="24.000899791717529">
        <ele>1003.273</ele>
        <time>2011-06-15T11:05:08Z</time>
      </trkpt>
      <trkpt lat="35.250706672668457" lon="24.000921249389648">
        <ele>1002.792</ele>
        <time>2011-06-15T11:05:17Z</time>
      </trkpt>
      <trkpt lat="35.250728130340576" lon="24.000921249389648">
        <ele>1001.35</ele>
        <time>2011-06-15T11:05:22Z</time>
      </trkpt>
      <trkpt lat="35.250813961029053" lon="24.000942707061768">
        <ele>997.505</ele>
        <time>2011-06-15T11:05:32Z</time>
      </trkpt>
      <trkpt lat="35.250835418701172" lon="24.000942707061768">
        <ele>997.024</ele>
        <time>2011-06-15T11:05:33Z</time>
      </trkpt>
      <trkpt lat="35.250899791717529" lon="24.000964164733887">
        <ele>996.06299999999999</ele>
        <time>2011-06-15T11:05:40Z</time>
      </trkpt>
      <trkpt lat="35.250942707061768" lon="24.001007080078125">
        <ele>995.10199999999998</ele>
        <time>2011-06-15T11:05:46Z</time>
      </trkpt>
      <trkpt lat="35.251028537750244" lon="24.001049995422363">
        <ele>994.62099999999998</ele>
        <time>2011-06-15T11:05:54Z</time>
      </trkpt>
      <trkpt lat="35.251071453094482" lon="24.001028537750244">
        <ele>995.10199999999998</ele>
        <time>2011-06-15T11:05:59Z</time>
      </trkpt>
      <trkpt lat="35.251157283782959" lon="24.001028537750244">
        <ele>995.10199999999998</ele>
        <time>2011-06-15T11:06:09Z</time>
      </trkpt>
      <trkpt lat="35.251221656799316" lon="24.001028537750244">
        <ele>995.10199999999998</ele>
        <time>2011-06-15T11:06:19Z</time>
      </trkpt>
      <trkpt lat="35.251243114471436" lon="24.001028537750244">
        <ele>995.10199999999998</ele>
        <time>2011-06-15T11:06:21Z</time>
      </trkpt>
      <trkpt lat="35.251328945159912" lon="24.000921249389648">
        <ele>998.46600000000001</ele>
        <time>2011-06-15T11:06:30Z</time>
      </trkpt>
      <trkpt lat="35.251414775848389" lon="24.00087833404541">
        <ele>998.947</ele>
        <time>2011-06-15T11:06:42Z</time>
      </trkpt>
      <trkpt lat="35.251479148864746" lon="24.000728130340576">
        <ele>1005.196</ele>
        <time>2011-06-15T11:07:08Z</time>
      </trkpt>
      <trkpt lat="35.251436233520508" lon="24.000706672668457">
        <ele>1004.715</ele>
        <time>2011-06-15T11:07:41Z</time>
      </trkpt>
      <trkpt lat="35.251436233520508" lon="24.000685214996338">
        <ele>1005.196</ele>
        <time>2011-06-15T11:08:01Z</time>
      </trkpt>
      <trkpt lat="35.251457691192627" lon="24.000728130340576">
        <ele>1001.35</ele>
        <time>2011-06-15T11:08:33Z</time>
      </trkpt>
      <trkpt lat="35.251500606536865" lon="24.000706672668457">
        <ele>1002.792</ele>
        <time>2011-06-15T11:08:46Z</time>
      </trkpt>
      <trkpt lat="35.251543521881104" lon="24.0006422996521">
        <ele>1005.196</ele>
        <time>2011-06-15T11:08:55Z</time>
      </trkpt>
      <trkpt lat="35.251586437225342" lon="24.000577926635742">
        <ele>1007.599</ele>
        <time>2011-06-15T11:09:09Z</time>
      </trkpt>
      <trkpt lat="35.251650810241699" lon="24.000556468963623">
        <ele>1009.0410000000001</ele>
        <time>2011-06-15T11:09:27Z</time>
      </trkpt>
      <trkpt lat="35.251586437225342" lon="24.00038480758667">
        <ele>1009.522</ele>
        <time>2011-06-15T11:09:55Z</time>
      </trkpt>
      <trkpt lat="35.251586437225342" lon="24.000449180603027">
        <ele>1010.002</ele>
        <time>2011-06-15T11:10:10Z</time>
      </trkpt>
      <trkpt lat="35.251693725585938" lon="24.000513553619385">
        <ele>1010.4829999999999</ele>
        <time>2011-06-15T11:10:28Z</time>
      </trkpt>
      <trkpt lat="35.251736640930176" lon="24.000513553619385">
        <ele>1010.4829999999999</ele>
        <time>2011-06-15T11:11:55Z</time>
      </trkpt>
      <trkpt lat="35.251264572143555" lon="24.000577926635742">
        <ele>1050.8579999999999</ele>
        <time>2011-06-15T11:12:41Z</time>
      </trkpt>
      <trkpt lat="35.251307487487793" lon="24.000556468963623">
        <ele>1047.0129999999999</ele>
        <time>2011-06-15T11:12:59Z</time>
      </trkpt>
      <trkpt lat="35.251286029815674" lon="24.000556468963623">
        <ele>1047.9739999999999</ele>
        <time>2011-06-15T11:13:08Z</time>
      </trkpt>
      <trkpt lat="35.251264572143555" lon="24.000513553619385">
        <ele>1050.8579999999999</ele>
        <time>2011-06-15T11:13:38Z</time>
      </trkpt>
      <trkpt lat="35.251479148864746" lon="24.000449180603027">
        <ele>1032.1130000000001</ele>
        <time>2011-06-15T11:13:47Z</time>
      </trkpt>
      <trkpt lat="35.251564979553223" lon="24.000449180603027">
        <ele>1022.98</ele>
        <time>2011-06-15T11:14:16Z</time>
      </trkpt>
      <trkpt lat="35.251586437225342" lon="24.000427722930908">
        <ele>1021.058</ele>
        <time>2011-06-15T11:14:31Z</time>
      </trkpt>
      <trkpt lat="35.251586437225342" lon="24.000406265258789">
        <ele>1021.058</ele>
        <time>2011-06-15T11:14:35Z</time>
      </trkpt>
      <trkpt lat="35.251586437225342" lon="24.000341892242432">
        <ele>1021.058</ele>
        <time>2011-06-15T11:14:44Z</time>
      </trkpt>
      <trkpt lat="35.251586437225342" lon="24.000298976898193">
        <ele>1022.019</ele>
        <time>2011-06-15T11:14:54Z</time>
      </trkpt>
      <trkpt lat="35.25162935256958" lon="24.000256061553955">
        <ele>1018.654</ele>
        <time>2011-06-15T11:15:52Z</time>
      </trkpt>
      <trkpt lat="35.25162935256958" lon="24.000298976898193">
        <ele>1017.212</ele>
        <time>2011-06-15T11:16:02Z</time>
      </trkpt>
      <trkpt lat="35.25162935256958" lon="24.000277519226074">
        <ele>1012.4059999999999</ele>
        <time>2011-06-15T11:16:27Z</time>
      </trkpt>
      <trkpt lat="35.25162935256958" lon="24.000298976898193">
        <ele>1012.4059999999999</ele>
        <time>2011-06-15T11:16:37Z</time>
      </trkpt>
      <trkpt lat="35.25162935256958" lon="24.000320434570313">
        <ele>1013.847</ele>
        <time>2011-06-15T11:16:41Z</time>
      </trkpt>
      <trkpt lat="35.251607894897461" lon="24.00038480758667">
        <ele>1016.251</ele>
        <time>2011-06-15T11:16:47Z</time>
      </trkpt>
      <trkpt lat="35.251672267913818" lon="24.000427722930908">
        <ele>1017.693</ele>
        <time>2011-06-15T11:16:58Z</time>
      </trkpt>
      <trkpt lat="35.251693725585938" lon="24.000427722930908">
        <ele>1017.693</ele>
        <time>2011-06-15T11:17:00Z</time>
      </trkpt>
      <trkpt lat="35.251758098602295" lon="24.000427722930908">
        <ele>1017.693</ele>
        <time>2011-06-15T11:17:10Z</time>
      </trkpt>
      <trkpt lat="35.251693725585938" lon="24.000363349914551">
        <ele>1017.212</ele>
        <time>2011-06-15T11:17:22Z</time>
      </trkpt>
      <trkpt lat="35.251693725585938" lon="24.000256061553955">
        <ele>1017.693</ele>
        <time>2011-06-15T11:17:34Z</time>
      </trkpt>
      <trkpt lat="35.251758098602295" lon="24.000170230865479">
        <ele>1018.654</ele>
        <time>2011-06-15T11:17:56Z</time>
      </trkpt>
      <trkpt lat="35.251736640930176" lon="24.000170230865479">
        <ele>1017.693</ele>
        <time>2011-06-15T11:18:13Z</time>
      </trkpt>
      <trkpt lat="35.251693725585938" lon="24.000256061553955">
        <ele>1016.731</ele>
        <time>2011-06-15T11:18:21Z</time>
      </trkpt>
      <trkpt lat="35.251607894897461" lon="24.000363349914551">
        <ele>1019.135</ele>
        <time>2011-06-15T11:18:33Z</time>
      </trkpt>
      <trkpt lat="35.251586437225342" lon="24.000427722930908">
        <ele>1018.173</ele>
        <time>2011-06-15T11:18:42Z</time>
      </trkpt>
      <trkpt lat="35.251586437225342" lon="24.000406265258789">
        <ele>1017.693</ele>
        <time>2011-06-15T11:18:56Z</time>
      </trkpt>
      <trkpt lat="35.251564979553223" lon="24.00038480758667">
        <ele>1016.731</ele>
        <time>2011-06-15T11:19:10Z</time>
      </trkpt>
      <trkpt lat="35.251564979553223" lon="24.00038480758667">
        <ele>1017.212</ele>
        <time>2011-06-15T11:19:11Z</time>
      </trkpt>
      <trkpt lat="35.251522064208984" lon="24.000363349914551">
        <ele>1017.212</ele>
        <time>2011-06-15T11:19:14Z</time>
      </trkpt>
      <trkpt lat="35.251479148864746" lon="24.000298976898193">
        <ele>1018.173</ele>
        <time>2011-06-15T11:19:22Z</time>
      </trkpt>
      <trkpt lat="35.25139331817627" lon="24.000256061553955">
        <ele>1018.654</ele>
        <time>2011-06-15T11:19:32Z</time>
      </trkpt>
      <trkpt lat="35.25137186050415" lon="24.000234603881836">
        <ele>1017.693</ele>
        <time>2011-06-15T11:19:57Z</time>
      </trkpt>
      <trkpt lat="35.251350402832031" lon="24.000148773193359">
        <ele>1020.096</ele>
        <time>2011-06-15T11:20:21Z</time>
      </trkpt>
      <trkpt lat="35.251307487487793" lon="24.000148773193359">
        <ele>1016.731</ele>
        <time>2011-06-15T11:21:45Z</time>
      </trkpt>
      <trkpt lat="35.251328945159912" lon="24.000170230865479">
        <ele>1017.693</ele>
        <time>2011-06-15T11:22:03Z</time>
      </trkpt>
      <trkpt lat="35.251436233520508" lon="24.000148773193359">
        <ele>1001.831</ele>
        <time>2011-06-15T11:26:14Z</time>
      </trkpt>
      <trkpt lat="35.251328945159912" lon="24.000062942504883">
        <ele>1000.87</ele>
        <time>2011-06-15T11:26:27Z</time>
      </trkpt>
      <trkpt lat="35.251200199127197" lon="24.000084400177002">
        <ele>1005.677</ele>
        <time>2011-06-15T11:26:38Z</time>
      </trkpt>
      <trkpt lat="35.251200199127197" lon="24.000020027160645">
        <ele>1003.754</ele>
        <time>2011-06-15T11:26:54Z</time>
      </trkpt>
      <trkpt lat="35.251200199127197" lon="23.999998569488525">
        <ele>1003.273</ele>
        <time>2011-06-15T11:26:59Z</time>
      </trkpt>
      <trkpt lat="35.251200199127197" lon="23.999934196472168">
        <ele>999.428</ele>
        <time>2011-06-15T11:27:08Z</time>
      </trkpt>
      <trkpt lat="35.251178741455078" lon="23.999912738800049">
        <ele>999.428</ele>
        <time>2011-06-15T11:27:13Z</time>
      </trkpt>
      <trkpt lat="35.251092910766602" lon="23.999934196472168">
        <ele>1008.08</ele>
        <time>2011-06-15T11:27:30Z</time>
      </trkpt>
      <trkpt lat="35.251092910766602" lon="23.999826908111572">
        <ele>1007.1180000000001</ele>
        <time>2011-06-15T11:27:44Z</time>
      </trkpt>
      <trkpt lat="35.251049995422363" lon="23.999741077423096">
        <ele>1009.0410000000001</ele>
        <time>2011-06-15T11:27:54Z</time>
      </trkpt>
      <trkpt lat="35.251049995422363" lon="23.9996337890625">
        <ele>1011.444</ele>
        <time>2011-06-15T11:28:08Z</time>
      </trkpt>
      <trkpt lat="35.251028537750244" lon="23.999526500701904">
        <ele>1010.4829999999999</ele>
        <time>2011-06-15T11:28:21Z</time>
      </trkpt>
      <trkpt lat="35.251007080078125" lon="23.999505043029785">
        <ele>1010.4829999999999</ele>
        <time>2011-06-15T11:28:23Z</time>
      </trkpt>
      <trkpt lat="35.251007080078125" lon="23.999462127685547">
        <ele>1010.4829999999999</ele>
        <time>2011-06-15T11:28:25Z</time>
      </trkpt>
      <trkpt lat="35.251049995422363" lon="23.999290466308594">
        <ele>1003.754</ele>
        <time>2011-06-15T11:28:48Z</time>
      </trkpt>
      <trkpt lat="35.251049995422363" lon="23.999269008636475">
        <ele>1002.792</ele>
        <time>2011-06-15T11:28:53Z</time>
      </trkpt>
      <trkpt lat="35.251028537750244" lon="23.999183177947998">
        <ele>1005.677</ele>
        <time>2011-06-15T11:29:03Z</time>
      </trkpt>
      <trkpt lat="35.251028537750244" lon="23.999161720275879">
        <ele>1006.157</ele>
        <time>2011-06-15T11:29:08Z</time>
      </trkpt>
      <trkpt lat="35.250964164733887" lon="23.999075889587402">
        <ele>1008.08</ele>
        <time>2011-06-15T11:29:16Z</time>
      </trkpt>
      <trkpt lat="35.250964164733887" lon="23.999054431915283">
        <ele>1007.599</ele>
        <time>2011-06-15T11:29:19Z</time>
      </trkpt>
      <trkpt lat="35.250942707061768" lon="23.998990058898926">
        <ele>1004.235</ele>
        <time>2011-06-15T11:29:28Z</time>
      </trkpt>
      <trkpt lat="35.250964164733887" lon="23.998904228210449">
        <ele>999.90800000000002</ele>
        <time>2011-06-15T11:29:41Z</time>
      </trkpt>
      <trkpt lat="35.250964164733887" lon="23.998818397521973">
        <ele>998.46600000000001</ele>
        <time>2011-06-15T11:29:49Z</time>
      </trkpt>
      <trkpt lat="35.250921249389648" lon="23.998775482177734">
        <ele>996.54399999999998</ele>
        <time>2011-06-15T11:29:56Z</time>
      </trkpt>
      <trkpt lat="35.250921249389648" lon="23.998732566833496">
        <ele>996.54399999999998</ele>
        <time>2011-06-15T11:29:58Z</time>
      </trkpt>
      <trkpt lat="35.250899791717529" lon="23.998689651489258">
        <ele>995.10199999999998</ele>
        <time>2011-06-15T11:30:01Z</time>
      </trkpt>
      <trkpt lat="35.250899791717529" lon="23.99864673614502">
        <ele>992.21799999999996</ele>
        <time>2011-06-15T11:30:09Z</time>
      </trkpt>
      <trkpt lat="35.250856876373291" lon="23.998603820800781">
        <ele>988.85400000000004</ele>
        <time>2011-06-15T11:30:16Z</time>
      </trkpt>
      <trkpt lat="35.250813961029053" lon="23.998539447784424">
        <ele>985.00800000000004</ele>
        <time>2011-06-15T11:30:23Z</time>
      </trkpt>
      <trkpt lat="35.250792503356934" lon="23.998496532440186">
        <ele>979.24000000000001</ele>
        <time>2011-06-15T11:30:29Z</time>
      </trkpt>
      <trkpt lat="35.250792503356934" lon="23.998410701751709">
        <ele>973.47199999999998</ele>
        <time>2011-06-15T11:30:39Z</time>
      </trkpt>
      <trkpt lat="35.250771045684814" lon="23.998367786407471">
        <ele>972.51099999999997</ele>
        <time>2011-06-15T11:30:43Z</time>
      </trkpt>
      <trkpt lat="35.250771045684814" lon="23.998303413391113">
        <ele>972.02999999999997</ele>
        <time>2011-06-15T11:30:49Z</time>
      </trkpt>
      <trkpt lat="35.250749588012695" lon="23.998260498046875">
        <ele>970.10699999999997</ele>
        <time>2011-06-15T11:30:54Z</time>
      </trkpt>
      <trkpt lat="35.250728130340576" lon="23.998196125030518">
        <ele>961.45600000000002</ele>
        <time>2011-06-15T11:31:06Z</time>
      </trkpt>
      <trkpt lat="35.250685214996338" lon="23.998153209686279">
        <ele>960.97500000000002</ele>
        <time>2011-06-15T11:31:18Z</time>
      </trkpt>
      <trkpt lat="35.250663757324219" lon="23.99813175201416">
        <ele>960.01400000000001</ele>
        <time>2011-06-15T11:31:20Z</time>
      </trkpt>
      <trkpt lat="35.250663757324219" lon="23.998110294342041">
        <ele>957.13</ele>
        <time>2011-06-15T11:31:25Z</time>
      </trkpt>
      <trkpt lat="35.2506422996521" lon="23.998045921325684">
        <ele>953.28399999999999</ele>
        <time>2011-06-15T11:31:34Z</time>
      </trkpt>
      <trkpt lat="35.2506422996521" lon="23.997981548309326">
        <ele>949.91999999999996</ele>
        <time>2011-06-15T11:31:43Z</time>
      </trkpt>
      <trkpt lat="35.25062084197998" lon="23.99789571762085">
        <ele>946.07500000000005</ele>
        <time>2011-06-15T11:31:51Z</time>
      </trkpt>
      <trkpt lat="35.25062084197998" lon="23.99787425994873">
        <ele>945.59400000000005</ele>
        <time>2011-06-15T11:31:53Z</time>
      </trkpt>
      <trkpt lat="35.250599384307861" lon="23.99787425994873">
        <ele>945.11300000000006</ele>
        <time>2011-06-15T11:31:55Z</time>
      </trkpt>
      <trkpt lat="35.250599384307861" lon="23.997745513916016">
        <ele>943.19100000000003</ele>
        <time>2011-06-15T11:32:04Z</time>
      </trkpt>
      <trkpt lat="35.250556468963623" lon="23.99763822555542">
        <ele>940.30700000000002</ele>
        <time>2011-06-15T11:32:13Z</time>
      </trkpt>
      <trkpt lat="35.250513553619385" lon="23.997488021850586">
        <ele>935.01999999999998</ele>
        <time>2011-06-15T11:32:24Z</time>
      </trkpt>
      <trkpt lat="35.250492095947266" lon="23.997294902801514">
        <ele>924.44500000000005</ele>
        <time>2011-06-15T11:32:46Z</time>
      </trkpt>
      <trkpt lat="35.250492095947266" lon="23.997251987457275">
        <ele>923.48400000000004</ele>
        <time>2011-06-15T11:32:49Z</time>
      </trkpt>
      <trkpt lat="35.250492095947266" lon="23.997230529785156">
        <ele>922.04200000000003</ele>
        <time>2011-06-15T11:32:52Z</time>
      </trkpt>
      <trkpt lat="35.250492095947266" lon="23.997187614440918">
        <ele>921.08000000000004</ele>
        <time>2011-06-15T11:32:55Z</time>
      </trkpt>
      <trkpt lat="35.250470638275146" lon="23.99714469909668">
        <ele>920.60000000000002</ele>
        <time>2011-06-15T11:32:57Z</time>
      </trkpt>
      <trkpt lat="35.250470638275146" lon="23.997080326080322">
        <ele>918.19600000000003</ele>
        <time>2011-06-15T11:33:13Z</time>
      </trkpt>
      <trkpt lat="35.250449180603027" lon="23.997058868408203">
        <ele>917.71600000000001</ele>
        <time>2011-06-15T11:33:17Z</time>
      </trkpt>
      <trkpt lat="35.250406265258789" lon="23.996973037719727">
        <ele>916.274</ele>
        <time>2011-06-15T11:33:27Z</time>
      </trkpt>
      <trkpt lat="35.250406265258789" lon="23.996865749359131">
        <ele>912.428</ele>
        <time>2011-06-15T11:33:37Z</time>
      </trkpt>
      <trkpt lat="35.25038480758667" lon="23.996822834014893">
        <ele>910.50599999999997</ele>
        <time>2011-06-15T11:33:44Z</time>
      </trkpt>
      <trkpt lat="35.250341892242432" lon="23.996715545654297">
        <ele>903.77700000000004</ele>
        <time>2011-06-15T11:33:59Z</time>
      </trkpt>
      <trkpt lat="35.250320434570313" lon="23.99662971496582">
        <ele>901.37300000000005</ele>
        <time>2011-06-15T11:34:09Z</time>
      </trkpt>
      <trkpt lat="35.250277519226074" lon="23.99662971496582">
        <ele>899.93100000000004</ele>
        <time>2011-06-15T11:34:24Z</time>
      </trkpt>
      <trkpt lat="35.250256061553955" lon="23.996586799621582">
        <ele>900.41200000000003</ele>
        <time>2011-06-15T11:34:27Z</time>
      </trkpt>
      <trkpt lat="35.250234603881836" lon="23.996565341949463">
        <ele>900.41200000000003</ele>
        <time>2011-06-15T11:34:33Z</time>
      </trkpt>
      <trkpt lat="35.250234603881836" lon="23.996565341949463">
        <ele>899.93100000000004</ele>
        <time>2011-06-15T11:34:36Z</time>
      </trkpt>
      <trkpt lat="35.250191688537598" lon="23.996500968933105">
        <ele>899.45100000000002</ele>
        <time>2011-06-15T11:34:43Z</time>
      </trkpt>
      <trkpt lat="35.250148773193359" lon="23.996415138244629">
        <ele>899.93100000000004</ele>
        <time>2011-06-15T11:34:51Z</time>
      </trkpt>
      <trkpt lat="35.250148773193359" lon="23.996307849884033">
        <ele>898.00900000000001</ele>
        <time>2011-06-15T11:35:01Z</time>
      </trkpt>
      <trkpt lat="35.25012731552124" lon="23.996264934539795">
        <ele>897.52800000000002</ele>
        <time>2011-06-15T11:35:05Z</time>
      </trkpt>
      <trkpt lat="35.250105857849121" lon="23.996200561523438">
        <ele>892.72199999999998</ele>
        <time>2011-06-15T11:35:15Z</time>
      </trkpt>
      <trkpt lat="35.250084400177002" lon="23.996157646179199">
        <ele>891.279</ele>
        <time>2011-06-15T11:35:24Z</time>
      </trkpt>
      <trkpt lat="35.250062942504883" lon="23.996157646179199">
        <ele>890.31799999999998</ele>
        <time>2011-06-15T11:35:27Z</time>
      </trkpt>
      <trkpt lat="35.250041484832764" lon="23.996114730834961">
        <ele>888.39599999999996</ele>
        <time>2011-06-15T11:35:34Z</time>
      </trkpt>
      <trkpt lat="35.250020027160645" lon="23.996093273162842">
        <ele>887.91499999999996</ele>
        <time>2011-06-15T11:35:38Z</time>
      </trkpt>
      <trkpt lat="35.249998569488525" lon="23.996050357818604">
        <ele>887.91499999999996</ele>
        <time>2011-06-15T11:35:41Z</time>
      </trkpt>
      <trkpt lat="35.249998569488525" lon="23.996050357818604">
        <ele>887.43399999999997</ele>
        <time>2011-06-15T11:35:43Z</time>
      </trkpt>
      <trkpt lat="35.249977111816406" lon="23.995985984802246">
        <ele>887.43399999999997</ele>
        <time>2011-06-15T11:35:51Z</time>
      </trkpt>
      <trkpt lat="35.249955654144287" lon="23.99590015411377">
        <ele>886.47299999999996</ele>
        <time>2011-06-15T11:35:59Z</time>
      </trkpt>
      <trkpt lat="35.249912738800049" lon="23.99587869644165">
        <ele>886.47299999999996</ele>
        <time>2011-06-15T11:36:07Z</time>
      </trkpt>
      <trkpt lat="35.24989128112793" lon="23.99590015411377">
        <ele>886.47299999999996</ele>
        <time>2011-06-15T11:36:10Z</time>
      </trkpt>
      <trkpt lat="35.249934196472168" lon="23.995792865753174">
        <ele>883.58900000000006</ele>
        <time>2011-06-15T11:36:23Z</time>
      </trkpt>
      <trkpt lat="35.249934196472168" lon="23.995792865753174">
        <ele>884.54999999999995</ele>
        <time>2011-06-15T11:36:26Z</time>
      </trkpt>
      <trkpt lat="35.249934196472168" lon="23.995749950408936">
        <ele>887.43399999999997</ele>
        <time>2011-06-15T11:36:34Z</time>
      </trkpt>
      <trkpt lat="35.249848365783691" lon="23.99564266204834">
        <ele>888.87599999999998</ele>
        <time>2011-06-15T11:37:06Z</time>
      </trkpt>
      <trkpt lat="35.249805450439453" lon="23.995621204376221">
        <ele>885.99199999999996</ele>
        <time>2011-06-15T11:37:16Z</time>
      </trkpt>
      <trkpt lat="35.249805450439453" lon="23.995621204376221">
        <ele>885.51099999999997</ele>
        <time>2011-06-15T11:37:17Z</time>
      </trkpt>
      <trkpt lat="35.249741077423096" lon="23.995578289031982">
        <ele>884.07000000000005</ele>
        <time>2011-06-15T11:37:25Z</time>
      </trkpt>
      <trkpt lat="35.249698162078857" lon="23.995578289031982">
        <ele>883.58900000000006</ele>
        <time>2011-06-15T11:37:29Z</time>
      </trkpt>
      <trkpt lat="35.249655246734619" lon="23.995556831359863">
        <ele>883.10799999999995</ele>
        <time>2011-06-15T11:37:34Z</time>
      </trkpt>
      <trkpt lat="35.249655246734619" lon="23.995556831359863">
        <ele>882.14700000000005</ele>
        <time>2011-06-15T11:37:37Z</time>
      </trkpt>
      <trkpt lat="35.249590873718262" lon="23.995492458343506">
        <ele>880.70500000000004</ele>
        <time>2011-06-15T11:37:48Z</time>
      </trkpt>
      <trkpt lat="35.249547958374023" lon="23.995428085327148">
        <ele>879.26300000000003</ele>
        <time>2011-06-15T11:37:59Z</time>
      </trkpt>
      <trkpt lat="35.249505043029785" lon="23.99538516998291">
        <ele>873.976</ele>
        <time>2011-06-15T11:38:14Z</time>
      </trkpt>
      <trkpt lat="35.249440670013428" lon="23.995320796966553">
        <ele>870.13</ele>
        <time>2011-06-15T11:38:33Z</time>
      </trkpt>
      <trkpt lat="35.249397754669189" lon="23.995256423950195">
        <ele>870.13</ele>
        <time>2011-06-15T11:38:44Z</time>
      </trkpt>
      <trkpt lat="35.249354839324951" lon="23.995213508605957">
        <ele>869.16899999999998</ele>
        <time>2011-06-15T11:38:55Z</time>
      </trkpt>
      <trkpt lat="35.249354839324951" lon="23.995170593261719">
        <ele>866.76599999999996</ele>
        <time>2011-06-15T11:39:08Z</time>
      </trkpt>
      <trkpt lat="35.249333381652832" lon="23.9951491355896">
        <ele>866.28499999999997</ele>
        <time>2011-06-15T11:39:12Z</time>
      </trkpt>
      <trkpt lat="35.249290466308594" lon="23.995106220245361">
        <ele>867.72699999999998</ele>
        <time>2011-06-15T11:39:21Z</time>
      </trkpt>
      <trkpt lat="35.249269008636475" lon="23.995084762573242">
        <ele>867.72699999999998</ele>
        <time>2011-06-15T11:39:28Z</time>
      </trkpt>
      <trkpt lat="35.249269008636475" lon="23.995041847229004">
        <ele>865.80499999999995</ele>
        <time>2011-06-15T11:39:37Z</time>
      </trkpt>
      <trkpt lat="35.249226093292236" lon="23.995020389556885">
        <ele>865.32399999999996</ele>
        <time>2011-06-15T11:39:41Z</time>
      </trkpt>
      <trkpt lat="35.249226093292236" lon="23.994977474212646">
        <ele>863.88199999999995</ele>
        <time>2011-06-15T11:39:49Z</time>
      </trkpt>
      <trkpt lat="35.249269008636475" lon="23.994913101196289">
        <ele>863.40099999999995</ele>
        <time>2011-06-15T11:40:23Z</time>
      </trkpt>
      <trkpt lat="35.249311923980713" lon="23.994870185852051">
        <ele>865.32399999999996</ele>
        <time>2011-06-15T11:40:31Z</time>
      </trkpt>
      <trkpt lat="35.249333381652832" lon="23.994848728179932">
        <ele>867.72699999999998</ele>
        <time>2011-06-15T11:40:48Z</time>
      </trkpt>
      <trkpt lat="35.249333381652832" lon="23.994805812835693">
        <ele>869.16899999999998</ele>
        <time>2011-06-15T11:40:58Z</time>
      </trkpt>
      <trkpt lat="35.249290466308594" lon="23.994698524475098">
        <ele>874.93700000000001</ele>
        <time>2011-06-15T11:41:30Z</time>
      </trkpt>
      <trkpt lat="35.249269008636475" lon="23.994677066802979">
        <ele>875.41700000000003</ele>
        <time>2011-06-15T11:41:32Z</time>
      </trkpt>
      <trkpt lat="35.249247550964355" lon="23.99463415145874">
        <ele>876.86000000000001</ele>
        <time>2011-06-15T11:41:40Z</time>
      </trkpt>
      <trkpt lat="35.249226093292236" lon="23.994569778442383">
        <ele>878.30200000000002</ele>
        <time>2011-06-15T11:41:54Z</time>
      </trkpt>
      <trkpt lat="35.249161720275879" lon="23.994462490081787">
        <ele>880.22400000000005</ele>
        <time>2011-06-15T11:42:27Z</time>
      </trkpt>
      <trkpt lat="35.249118804931641" lon="23.994441032409668">
        <ele>879.26300000000003</ele>
        <time>2011-06-15T11:42:36Z</time>
      </trkpt>
      <trkpt lat="35.249118804931641" lon="23.994441032409668">
        <ele>878.78200000000004</ele>
        <time>2011-06-15T11:42:37Z</time>
      </trkpt>
      <trkpt lat="35.249097347259521" lon="23.99439811706543">
        <ele>876.37900000000002</ele>
        <time>2011-06-15T11:42:49Z</time>
      </trkpt>
      <trkpt lat="35.249054431915283" lon="23.994355201721191">
        <ele>872.53399999999999</ele>
        <time>2011-06-15T11:42:58Z</time>
      </trkpt>
      <trkpt lat="35.249011516571045" lon="23.994290828704834">
        <ele>868.68799999999999</ele>
        <time>2011-06-15T11:43:14Z</time>
      </trkpt>
      <trkpt lat="35.248990058898926" lon="23.994269371032715">
        <ele>865.32399999999996</ele>
        <time>2011-06-15T11:43:31Z</time>
      </trkpt>
      <trkpt lat="35.248968601226807" lon="23.994226455688477">
        <ele>863.40099999999995</ele>
        <time>2011-06-15T11:43:47Z</time>
      </trkpt>
      <trkpt lat="35.248990058898926" lon="23.994140625">
        <ele>862.44000000000005</ele>
        <time>2011-06-15T11:43:58Z</time>
      </trkpt>
      <trkpt lat="35.248968601226807" lon="23.994119167327881">
        <ele>863.40099999999995</ele>
        <time>2011-06-15T11:44:00Z</time>
      </trkpt>
      <trkpt lat="35.248990058898926" lon="23.994076251983643">
        <ele>864.84299999999996</ele>
        <time>2011-06-15T11:44:08Z</time>
      </trkpt>
      <trkpt lat="35.248968601226807" lon="23.994054794311523">
        <ele>865.80499999999995</ele>
        <time>2011-06-15T11:44:15Z</time>
      </trkpt>
      <trkpt lat="35.248968601226807" lon="23.993968963623047">
        <ele>865.80499999999995</ele>
        <time>2011-06-15T11:44:25Z</time>
      </trkpt>
      <trkpt lat="35.248968601226807" lon="23.99388313293457">
        <ele>863.40099999999995</ele>
        <time>2011-06-15T11:44:39Z</time>
      </trkpt>
      <trkpt lat="35.248947143554688" lon="23.993775844573975">
        <ele>862.44000000000005</ele>
        <time>2011-06-15T11:44:50Z</time>
      </trkpt>
      <trkpt lat="35.248947143554688" lon="23.993732929229736">
        <ele>861.95899999999995</ele>
        <time>2011-06-15T11:45:07Z</time>
      </trkpt>
      <trkpt lat="35.248968601226807" lon="23.993668556213379">
        <ele>862.44000000000005</ele>
        <time>2011-06-15T11:45:17Z</time>
      </trkpt>
      <trkpt lat="35.248990058898926" lon="23.993625640869141">
        <ele>863.40099999999995</ele>
        <time>2011-06-15T11:45:35Z</time>
      </trkpt>
      <trkpt lat="35.248990058898926" lon="23.993539810180664">
        <ele>863.88199999999995</ele>
        <time>2011-06-15T11:45:45Z</time>
      </trkpt>
      <trkpt lat="35.248990058898926" lon="23.993518352508545">
        <ele>863.88199999999995</ele>
        <time>2011-06-15T11:45:46Z</time>
      </trkpt>
      <trkpt lat="35.248968601226807" lon="23.993432521820068">
        <ele>860.03700000000003</ele>
        <time>2011-06-15T11:45:57Z</time>
      </trkpt>
      <trkpt lat="35.248968601226807" lon="23.993368148803711">
        <ele>860.03700000000003</ele>
        <time>2011-06-15T11:46:07Z</time>
      </trkpt>
      <trkpt lat="35.248990058898926" lon="23.993346691131592">
        <ele>859.55600000000004</ele>
        <time>2011-06-15T11:46:09Z</time>
      </trkpt>
      <trkpt lat="35.248968601226807" lon="23.993282318115234">
        <ele>859.55600000000004</ele>
        <time>2011-06-15T11:46:13Z</time>
      </trkpt>
      <trkpt lat="35.248990058898926" lon="23.993217945098877">
        <ele>859.07500000000005</ele>
        <time>2011-06-15T11:46:19Z</time>
      </trkpt>
      <trkpt lat="35.248990058898926" lon="23.99315357208252">
        <ele>860.99800000000005</ele>
        <time>2011-06-15T11:46:33Z</time>
      </trkpt>
      <trkpt lat="35.249011516571045" lon="23.993175029754639">
        <ele>860.51700000000005</ele>
        <time>2011-06-15T11:46:37Z</time>
      </trkpt>
      <trkpt lat="35.249054431915283" lon="23.993217945098877">
        <ele>863.40099999999995</ele>
        <time>2011-06-15T11:46:49Z</time>
      </trkpt>
      <trkpt lat="35.249075889587402" lon="23.993282318115234">
        <ele>866.28499999999997</ele>
        <time>2011-06-15T11:46:58Z</time>
      </trkpt>
      <trkpt lat="35.249097347259521" lon="23.993303775787354">
        <ele>872.53399999999999</ele>
        <time>2011-06-15T11:47:19Z</time>
      </trkpt>
      <trkpt lat="35.249118804931641" lon="23.993260860443115">
        <ele>874.93700000000001</ele>
        <time>2011-06-15T11:47:37Z</time>
      </trkpt>
      <trkpt lat="35.249097347259521" lon="23.993325233459473">
        <ele>878.30200000000002</ele>
        <time>2011-06-15T11:47:52Z</time>
      </trkpt>
      <trkpt lat="35.24914026260376" lon="23.993368148803711">
        <ele>878.78200000000004</ele>
        <time>2011-06-15T11:48:05Z</time>
      </trkpt>
      <trkpt lat="35.249161720275879" lon="23.993411064147949">
        <ele>879.26300000000003</ele>
        <time>2011-06-15T11:48:16Z</time>
      </trkpt>
      <trkpt lat="35.249161720275879" lon="23.993475437164307">
        <ele>879.74400000000003</ele>
        <time>2011-06-15T11:48:33Z</time>
      </trkpt>
      <trkpt lat="35.249183177947998" lon="23.993518352508545">
        <ele>880.70500000000004</ele>
        <time>2011-06-15T11:48:38Z</time>
      </trkpt>
      <trkpt lat="35.249183177947998" lon="23.993561267852783">
        <ele>881.18600000000004</ele>
        <time>2011-06-15T11:48:40Z</time>
      </trkpt>
      <trkpt lat="35.249226093292236" lon="23.993539810180664">
        <ele>883.58900000000006</ele>
        <time>2011-06-15T11:48:55Z</time>
      </trkpt>
      <trkpt lat="35.249247550964355" lon="23.993539810180664">
        <ele>884.07000000000005</ele>
        <time>2011-06-15T11:48:58Z</time>
      </trkpt>
      <trkpt lat="35.249311923980713" lon="23.993539810180664">
        <ele>886.47299999999996</ele>
        <time>2011-06-15T11:49:07Z</time>
      </trkpt>
      <trkpt lat="35.249354839324951" lon="23.993604183197021">
        <ele>888.87599999999998</ele>
        <time>2011-06-15T11:49:28Z</time>
      </trkpt>
      <trkpt lat="35.249354839324951" lon="23.993625640869141">
        <ele>888.87599999999998</ele>
        <time>2011-06-15T11:49:31Z</time>
      </trkpt>
      <trkpt lat="35.249419212341309" lon="23.99364709854126">
        <ele>887.91499999999996</ele>
        <time>2011-06-15T11:49:42Z</time>
      </trkpt>
      <trkpt lat="35.249440670013428" lon="23.993668556213379">
        <ele>887.43399999999997</ele>
        <time>2011-06-15T11:49:43Z</time>
      </trkpt>
      <trkpt lat="35.249483585357666" lon="23.993690013885498">
        <ele>886.47299999999996</ele>
        <time>2011-06-15T11:49:51Z</time>
      </trkpt>
      <trkpt lat="35.249569416046143" lon="23.993754386901855">
        <ele>885.03099999999995</ele>
        <time>2011-06-15T11:50:03Z</time>
      </trkpt>
      <trkpt lat="35.249676704406738" lon="23.993775844573975">
        <ele>881.66600000000005</ele>
        <time>2011-06-15T11:50:19Z</time>
      </trkpt>
      <trkpt lat="35.249762535095215" lon="23.993775844573975">
        <ele>879.74400000000003</ele>
        <time>2011-06-15T11:50:32Z</time>
      </trkpt>
      <trkpt lat="35.249826908111572" lon="23.993732929229736">
        <ele>879.74400000000003</ele>
        <time>2011-06-15T11:51:03Z</time>
      </trkpt>
      <trkpt lat="35.24989128112793" lon="23.993754386901855">
        <ele>879.74400000000003</ele>
        <time>2011-06-15T11:51:15Z</time>
      </trkpt>
      <trkpt lat="35.249977111816406" lon="23.993840217590332">
        <ele>877.82100000000003</ele>
        <time>2011-06-15T11:51:50Z</time>
      </trkpt>
      <trkpt lat="35.250020027160645" lon="23.993926048278809">
        <ele>876.37900000000002</ele>
        <time>2011-06-15T11:52:16Z</time>
      </trkpt>
      <trkpt lat="35.250062942504883" lon="23.993990421295166">
        <ele>874.93700000000001</ele>
        <time>2011-06-15T11:52:25Z</time>
      </trkpt>
      <trkpt lat="35.250084400177002" lon="23.994011878967285">
        <ele>873.976</ele>
        <time>2011-06-15T11:52:41Z</time>
      </trkpt>
      <trkpt lat="35.250084400177002" lon="23.994054794311523">
        <ele>874.93700000000001</ele>
        <time>2011-06-15T11:52:49Z</time>
      </trkpt>
      <trkpt lat="35.25012731552124" lon="23.994076251983643">
        <ele>874.93700000000001</ele>
        <time>2011-06-15T11:52:58Z</time>
      </trkpt>
      <trkpt lat="35.250170230865479" lon="23.994033336639404">
        <ele>874.45600000000002</ele>
        <time>2011-06-15T11:55:35Z</time>
      </trkpt>
      <trkpt lat="35.250148773193359" lon="23.994033336639404">
        <ele>870.61099999999999</ele>
        <time>2011-06-15T11:55:48Z</time>
      </trkpt>
      <trkpt lat="35.25012731552124" lon="23.994097709655762">
        <ele>866.28499999999997</ele>
        <time>2011-06-15T11:56:06Z</time>
      </trkpt>
      <trkpt lat="35.250084400177002" lon="23.993947505950928">
        <ele>869.16899999999998</ele>
        <time>2011-06-15T11:56:31Z</time>
      </trkpt>
      <trkpt lat="35.250105857849121" lon="23.993968963623047">
        <ele>869.16899999999998</ele>
        <time>2011-06-15T11:56:33Z</time>
      </trkpt>
      <trkpt lat="35.25012731552124" lon="23.993947505950928">
        <ele>869.64999999999998</ele>
        <time>2011-06-15T11:56:40Z</time>
      </trkpt>
      <trkpt lat="35.25012731552124" lon="23.993926048278809">
        <ele>871.09199999999998</ele>
        <time>2011-06-15T11:56:45Z</time>
      </trkpt>
      <trkpt lat="35.25012731552124" lon="23.993904590606689">
        <ele>871.09199999999998</ele>
        <time>2011-06-15T11:56:47Z</time>
      </trkpt>
      <trkpt lat="35.250084400177002" lon="23.99388313293457">
        <ele>869.16899999999998</ele>
        <time>2011-06-15T11:56:51Z</time>
      </trkpt>
      <trkpt lat="35.250062942504883" lon="23.993861675262451">
        <ele>866.76599999999996</ele>
        <time>2011-06-15T11:56:55Z</time>
      </trkpt>
      <trkpt lat="35.25012731552124" lon="23.993861675262451">
        <ele>859.07500000000005</ele>
        <time>2011-06-15T11:57:07Z</time>
      </trkpt>
      <trkpt lat="35.250191688537598" lon="23.993861675262451">
        <ele>855.71100000000001</ele>
        <time>2011-06-15T11:57:20Z</time>
      </trkpt>
      <trkpt lat="35.250256061553955" lon="23.993904590606689">
        <ele>852.827</ele>
        <time>2011-06-15T11:57:36Z</time>
      </trkpt>
      <trkpt lat="35.250298976898193" lon="23.993947505950928">
        <ele>851.86500000000001</ele>
        <time>2011-06-15T11:57:47Z</time>
      </trkpt>
      <trkpt lat="35.25038480758667" lon="23.993968963623047">
        <ele>852.827</ele>
        <time>2011-06-15T11:58:05Z</time>
      </trkpt>
      <trkpt lat="35.250492095947266" lon="23.994011878967285">
        <ele>850.904</ele>
        <time>2011-06-15T11:58:22Z</time>
      </trkpt>
      <trkpt lat="35.250535011291504" lon="23.994011878967285">
        <ele>847.05899999999997</ele>
        <time>2011-06-15T11:58:32Z</time>
      </trkpt>
      <trkpt lat="35.250599384307861" lon="23.993968963623047">
        <ele>845.13599999999997</ele>
        <time>2011-06-15T11:58:40Z</time>
      </trkpt>
      <trkpt lat="35.250685214996338" lon="23.993926048278809">
        <ele>844.17499999999995</ele>
        <time>2011-06-15T11:58:58Z</time>
      </trkpt>
      <trkpt lat="35.250728130340576" lon="23.993861675262451">
        <ele>844.17499999999995</ele>
        <time>2011-06-15T11:59:07Z</time>
      </trkpt>
      <trkpt lat="35.250792503356934" lon="23.993840217590332">
        <ele>844.17499999999995</ele>
        <time>2011-06-15T11:59:20Z</time>
      </trkpt>
      <trkpt lat="35.250856876373291" lon="23.99388313293457">
        <ele>841.77099999999996</ele>
        <time>2011-06-15T11:59:29Z</time>
      </trkpt>
      <trkpt lat="35.25087833404541" lon="23.993947505950928">
        <ele>837.92600000000004</ele>
        <time>2011-06-15T11:59:49Z</time>
      </trkpt>
      <trkpt lat="35.25087833404541" lon="23.993968963623047">
        <ele>837.44600000000003</ele>
        <time>2011-06-15T11:59:51Z</time>
      </trkpt>
      <trkpt lat="35.250921249389648" lon="23.993947505950928">
        <ele>835.52300000000002</ele>
        <time>2011-06-15T11:59:57Z</time>
      </trkpt>
      <trkpt lat="35.250964164733887" lon="23.993990421295166">
        <ele>835.04200000000003</ele>
        <time>2011-06-15T12:00:06Z</time>
      </trkpt>
      <trkpt lat="35.251028537750244" lon="23.994054794311523">
        <ele>833.12</ele>
        <time>2011-06-15T12:00:15Z</time>
      </trkpt>
      <trkpt lat="35.251049995422363" lon="23.994097709655762">
        <ele>832.63900000000001</ele>
        <time>2011-06-15T12:00:19Z</time>
      </trkpt>
      <trkpt lat="35.251071453094482" lon="23.994140625">
        <ele>831.678</ele>
        <time>2011-06-15T12:00:24Z</time>
      </trkpt>
      <trkpt lat="35.251157283782959" lon="23.994204998016357">
        <ele>829.274</ele>
        <time>2011-06-15T12:00:35Z</time>
      </trkpt>
      <trkpt lat="35.251200199127197" lon="23.994247913360596">
        <ele>828.31299999999999</ele>
        <time>2011-06-15T12:00:43Z</time>
      </trkpt>
      <trkpt lat="35.251286029815674" lon="23.994290828704834">
        <ele>826.87099999999998</ele>
        <time>2011-06-15T12:00:54Z</time>
      </trkpt>
      <trkpt lat="35.251307487487793" lon="23.994290828704834">
        <ele>826.87099999999998</ele>
        <time>2011-06-15T12:00:55Z</time>
      </trkpt>
      <trkpt lat="35.251350402832031" lon="23.994290828704834">
        <ele>826.87099999999998</ele>
        <time>2011-06-15T12:01:00Z</time>
      </trkpt>
      <trkpt lat="35.251436233520508" lon="23.994290828704834">
        <ele>827.35199999999998</ele>
        <time>2011-06-15T12:01:12Z</time>
      </trkpt>
      <trkpt lat="35.251500606536865" lon="23.99439811706543">
        <ele>827.35199999999998</ele>
        <time>2011-06-15T12:01:38Z</time>
      </trkpt>
      <trkpt lat="35.251586437225342" lon="23.994483947753906">
        <ele>827.35199999999998</ele>
        <time>2011-06-15T12:01:46Z</time>
      </trkpt>
      <trkpt lat="35.251693725585938" lon="23.994612693786621">
        <ele>827.35199999999998</ele>
        <time>2011-06-15T12:02:04Z</time>
      </trkpt>
      <trkpt lat="35.251865386962891" lon="23.994762897491455">
        <ele>827.35199999999998</ele>
        <time>2011-06-15T12:02:17Z</time>
      </trkpt>
      <trkpt lat="35.251865386962891" lon="23.994784355163574">
        <ele>826.87099999999998</ele>
        <time>2011-06-15T12:02:23Z</time>
      </trkpt>
      <trkpt lat="35.252058506011963" lon="23.994934558868408">
        <ele>826.87099999999998</ele>
        <time>2011-06-15T12:02:47Z</time>
      </trkpt>
      <trkpt lat="35.252079963684082" lon="23.994913101196289">
        <ele>826.38999999999999</ele>
        <time>2011-06-15T12:03:07Z</time>
      </trkpt>
      <trkpt lat="35.252058506011963" lon="23.99489164352417">
        <ele>826.38999999999999</ele>
        <time>2011-06-15T12:03:18Z</time>
      </trkpt>
      <trkpt lat="35.252015590667725" lon="23.994655609130859">
        <ele>827.35199999999998</ele>
        <time>2011-06-15T12:03:38Z</time>
      </trkpt>
      <trkpt lat="35.251951217651367" lon="23.994677066802979">
        <ele>826.38999999999999</ele>
        <time>2011-06-15T12:04:09Z</time>
      </trkpt>
      <trkpt lat="35.251908302307129" lon="23.99463415145874">
        <ele>826.38999999999999</ele>
        <time>2011-06-15T12:04:21Z</time>
      </trkpt>
      <trkpt lat="35.25188684463501" lon="23.994591236114502">
        <ele>826.38999999999999</ele>
        <time>2011-06-15T12:04:32Z</time>
      </trkpt>
      <trkpt lat="35.251865386962891" lon="23.994548320770264">
        <ele>826.38999999999999</ele>
        <time>2011-06-15T12:04:43Z</time>
      </trkpt>
      <trkpt lat="35.25188684463501" lon="23.994569778442383">
        <ele>826.38999999999999</ele>
        <time>2011-06-15T12:04:48Z</time>
      </trkpt>
      <trkpt lat="35.251951217651367" lon="23.994612693786621">
        <ele>826.38999999999999</ele>
        <time>2011-06-15T12:04:53Z</time>
      </trkpt>
      <trkpt lat="35.251994132995605" lon="23.994612693786621">
        <ele>826.38999999999999</ele>
        <time>2011-06-15T12:05:01Z</time>
      </trkpt>
      <trkpt lat="35.251994132995605" lon="23.994591236114502">
        <ele>826.38999999999999</ele>
        <time>2011-06-15T12:05:06Z</time>
      </trkpt>
      <trkpt lat="35.252015590667725" lon="23.994548320770264">
        <ele>826.38999999999999</ele>
        <time>2011-06-15T12:05:09Z</time>
      </trkpt>
      <trkpt lat="35.252037048339844" lon="23.994526863098145">
        <ele>826.38999999999999</ele>
        <time>2011-06-15T12:05:18Z</time>
      </trkpt>
      <trkpt lat="35.252037048339844" lon="23.994505405426025">
        <ele>826.38999999999999</ele>
        <time>2011-06-15T12:05:23Z</time>
      </trkpt>
      <trkpt lat="35.252058506011963" lon="23.994505405426025">
        <ele>826.38999999999999</ele>
        <time>2011-06-15T12:05:32Z</time>
      </trkpt>
      <trkpt lat="35.252058506011963" lon="23.994441032409668">
        <ele>826.38999999999999</ele>
        <time>2011-06-15T12:06:10Z</time>
      </trkpt>
      <trkpt lat="35.252830982208252" lon="23.994183540344238">
        <ele>826.87099999999998</ele>
        <time>2011-06-15T12:10:32Z</time>
      </trkpt>
      <trkpt lat="35.252809524536133" lon="23.994162082672119">
        <ele>826.87099999999998</ele>
        <time>2011-06-15T12:10:34Z</time>
      </trkpt>
      <trkpt lat="35.252809524536133" lon="23.994011878967285">
        <ele>832.15800000000002</ele>
        <time>2011-06-15T12:10:39Z</time>
      </trkpt>
      <trkpt lat="35.252809524536133" lon="23.993926048278809">
        <ele>833.60000000000002</ele>
        <time>2011-06-15T12:10:48Z</time>
      </trkpt>
      <trkpt lat="35.25287389755249" lon="23.993990421295166">
        <ele>829.274</ele>
        <time>2011-06-15T12:11:43Z</time>
      </trkpt>
      <trkpt lat="35.252981185913086" lon="23.993947505950928">
        <ele>830.23599999999999</ele>
        <time>2011-06-15T12:12:33Z</time>
      </trkpt>
      <trkpt lat="35.253024101257324" lon="23.993968963623047">
        <ele>829.755</ele>
        <time>2011-06-15T12:12:45Z</time>
      </trkpt>
      <trkpt lat="35.253045558929443" lon="23.993947505950928">
        <ele>832.15800000000002</ele>
        <time>2011-06-15T12:13:01Z</time>
      </trkpt>
      <trkpt lat="35.253067016601563" lon="23.993904590606689">
        <ele>832.15800000000002</ele>
        <time>2011-06-15T12:13:06Z</time>
      </trkpt>
      <trkpt lat="35.253088474273682" lon="23.993754386901855">
        <ele>831.678</ele>
        <time>2011-06-15T12:13:15Z</time>
      </trkpt>
      <trkpt lat="35.253109931945801" lon="23.993690013885498">
        <ele>831.678</ele>
        <time>2011-06-15T12:13:28Z</time>
      </trkpt>
      <trkpt lat="35.25313138961792" lon="23.99364709854126">
        <ele>831.197</ele>
        <time>2011-06-15T12:13:32Z</time>
      </trkpt>
      <trkpt lat="35.253152847290039" lon="23.993625640869141">
        <ele>830.71699999999998</ele>
        <time>2011-06-15T12:13:34Z</time>
      </trkpt>
      <trkpt lat="35.253217220306396" lon="23.993668556213379">
        <ele>832.63900000000001</ele>
        <time>2011-06-15T12:13:51Z</time>
      </trkpt>
      <trkpt lat="35.253217220306396" lon="23.993604183197021">
        <ele>833.60000000000002</ele>
        <time>2011-06-15T12:14:05Z</time>
      </trkpt>
      <trkpt lat="35.253260135650635" lon="23.993561267852783">
        <ele>831.197</ele>
        <time>2011-06-15T12:14:58Z</time>
      </trkpt>
      <trkpt lat="35.253260135650635" lon="23.993582725524902">
        <ele>830.23599999999999</ele>
        <time>2011-06-15T12:15:03Z</time>
      </trkpt>
      <trkpt lat="35.253281593322754" lon="23.993561267852783">
        <ele>829.755</ele>
        <time>2011-06-15T12:15:10Z</time>
      </trkpt>
      <trkpt lat="35.253324508666992" lon="23.993496894836426">
        <ele>832.15800000000002</ele>
        <time>2011-06-15T12:15:21Z</time>
      </trkpt>
      <trkpt lat="35.253345966339111" lon="23.993432521820068">
        <ele>833.60000000000002</ele>
        <time>2011-06-15T12:15:27Z</time>
      </trkpt>
      <trkpt lat="35.253345966339111" lon="23.993411064147949">
        <ele>833.60000000000002</ele>
        <time>2011-06-15T12:15:29Z</time>
      </trkpt>
      <trkpt lat="35.253238677978516" lon="23.993346691131592">
        <ele>832.15800000000002</ele>
        <time>2011-06-15T12:15:50Z</time>
      </trkpt>
      <trkpt lat="35.253217220306396" lon="23.993303775787354">
        <ele>827.83199999999999</ele>
        <time>2011-06-15T12:16:12Z</time>
      </trkpt>
      <trkpt lat="35.253217220306396" lon="23.993282318115234">
        <ele>824.94799999999998</ele>
        <time>2011-06-15T12:16:29Z</time>
      </trkpt>
      <trkpt lat="35.253217220306396" lon="23.993239402770996">
        <ele>819.66099999999994</ele>
        <time>2011-06-15T12:17:07Z</time>
      </trkpt>
      <trkpt lat="35.253217220306396" lon="23.993175029754639">
        <ele>820.14200000000005</ele>
        <time>2011-06-15T12:17:21Z</time>
      </trkpt>
      <trkpt lat="35.253195762634277" lon="23.993046283721924">
        <ele>822.06399999999996</ele>
        <time>2011-06-15T12:17:44Z</time>
      </trkpt>
      <trkpt lat="35.253174304962158" lon="23.993003368377686">
        <ele>822.06399999999996</ele>
        <time>2011-06-15T12:17:52Z</time>
      </trkpt>
      <trkpt lat="35.253152847290039" lon="23.992938995361328">
        <ele>821.58399999999995</ele>
        <time>2011-06-15T12:18:01Z</time>
      </trkpt>
      <trkpt lat="35.253195762634277" lon="23.992960453033447">
        <ele>814.37400000000002</ele>
        <time>2011-06-15T12:18:23Z</time>
      </trkpt>
      <trkpt lat="35.253195762634277" lon="23.992917537689209">
        <ele>818.21900000000005</ele>
        <time>2011-06-15T12:18:37Z</time>
      </trkpt>
      <trkpt lat="35.253217220306396" lon="23.992960453033447">
        <ele>814.85500000000002</ele>
        <time>2011-06-15T12:19:14Z</time>
      </trkpt>
      <trkpt lat="35.253195762634277" lon="23.992938995361328">
        <ele>814.37400000000002</ele>
        <time>2011-06-15T12:19:31Z</time>
      </trkpt>
      <trkpt lat="35.253281593322754" lon="23.992853164672852">
        <ele>814.85500000000002</ele>
        <time>2011-06-15T12:20:08Z</time>
      </trkpt>
      <trkpt lat="35.253324508666992" lon="23.992853164672852">
        <ele>808.60599999999999</ele>
        <time>2011-06-15T12:21:03Z</time>
      </trkpt>
      <trkpt lat="35.253410339355469" lon="23.992960453033447">
        <ele>801.39599999999996</ele>
        <time>2011-06-15T12:21:17Z</time>
      </trkpt>
      <trkpt lat="35.253410339355469" lon="23.992960453033447">
        <ele>800.91600000000005</ele>
        <time>2011-06-15T12:21:41Z</time>
      </trkpt>
      <trkpt lat="35.253410339355469" lon="23.992960453033447">
        <ele>797.07000000000005</ele>
        <time>2011-06-15T12:22:37Z</time>
      </trkpt>
      <trkpt lat="35.25338888168335" lon="23.992917537689209">
        <ele>797.55100000000004</ele>
        <time>2011-06-15T12:22:54Z</time>
      </trkpt>
      <trkpt lat="35.25336742401123" lon="23.99289608001709">
        <ele>798.99300000000005</ele>
        <time>2011-06-15T12:23:04Z</time>
      </trkpt>
      <trkpt lat="35.253345966339111" lon="23.992853164672852">
        <ele>798.03200000000004</ele>
        <time>2011-06-15T12:23:20Z</time>
      </trkpt>
      <trkpt lat="35.253345966339111" lon="23.992853164672852">
        <ele>795.62800000000004</ele>
        <time>2011-06-15T12:23:29Z</time>
      </trkpt>
      <trkpt lat="35.25336742401123" lon="23.992831707000732">
        <ele>795.14700000000005</ele>
        <time>2011-06-15T12:23:50Z</time>
      </trkpt>
      <trkpt lat="35.25338888168335" lon="23.992788791656494">
        <ele>790.822</ele>
        <time>2011-06-15T12:24:07Z</time>
      </trkpt>
      <trkpt lat="35.25336742401123" lon="23.992745876312256">
        <ele>786.49599999999998</ele>
        <time>2011-06-15T12:24:30Z</time>
      </trkpt>
      <trkpt lat="35.25336742401123" lon="23.992702960968018">
        <ele>784.57299999999998</ele>
        <time>2011-06-15T12:24:42Z</time>
      </trkpt>
      <trkpt lat="35.25338888168335" lon="23.992660045623779">
        <ele>781.68899999999996</ele>
        <time>2011-06-15T12:24:59Z</time>
      </trkpt>
      <trkpt lat="35.25338888168335" lon="23.992617130279541">
        <ele>781.20899999999995</ele>
        <time>2011-06-15T12:25:19Z</time>
      </trkpt>
      <trkpt lat="35.253303050994873" lon="23.992574214935303">
        <ele>779.28599999999994</ele>
        <time>2011-06-15T12:25:46Z</time>
      </trkpt>
      <trkpt lat="35.253238677978516" lon="23.992531299591064">
        <ele>777.84400000000005</ele>
        <time>2011-06-15T12:25:54Z</time>
      </trkpt>
      <trkpt lat="35.253217220306396" lon="23.992531299591064">
        <ele>777.36300000000006</ele>
        <time>2011-06-15T12:25:55Z</time>
      </trkpt>
      <trkpt lat="35.253195762634277" lon="23.992531299591064">
        <ele>774.47900000000004</ele>
        <time>2011-06-15T12:26:01Z</time>
      </trkpt>
      <trkpt lat="35.253217220306396" lon="23.992531299591064">
        <ele>772.07600000000002</ele>
        <time>2011-06-15T12:26:04Z</time>
      </trkpt>
      <trkpt lat="35.253217220306396" lon="23.992552757263184">
        <ele>763.42399999999998</ele>
        <time>2011-06-15T12:26:15Z</time>
      </trkpt>
      <trkpt lat="35.253195762634277" lon="23.992595672607422">
        <ele>756.21400000000006</ele>
        <time>2011-06-15T12:26:27Z</time>
      </trkpt>
      <trkpt lat="35.253217220306396" lon="23.992574214935303">
        <ele>755.25300000000004</ele>
        <time>2011-06-15T12:26:30Z</time>
      </trkpt>
      <trkpt lat="35.253260135650635" lon="23.992552757263184">
        <ele>752.85000000000002</ele>
        <time>2011-06-15T12:26:41Z</time>
      </trkpt>
      <trkpt lat="35.253281593322754" lon="23.992531299591064">
        <ele>750.92700000000002</ele>
        <time>2011-06-15T12:26:54Z</time>
      </trkpt>
      <trkpt lat="35.253303050994873" lon="23.992509841918945">
        <ele>749.96600000000001</ele>
        <time>2011-06-15T12:27:03Z</time>
      </trkpt>
      <trkpt lat="35.253324508666992" lon="23.99240255355835">
        <ele>751.40800000000002</ele>
        <time>2011-06-15T12:27:22Z</time>
      </trkpt>
      <trkpt lat="35.253303050994873" lon="23.992338180541992">
        <ele>751.88800000000003</ele>
        <time>2011-06-15T12:27:31Z</time>
      </trkpt>
      <trkpt lat="35.253303050994873" lon="23.992295265197754">
        <ele>748.524</ele>
        <time>2011-06-15T12:28:04Z</time>
      </trkpt>
      <trkpt lat="35.253324508666992" lon="23.992295265197754">
        <ele>749.48500000000001</ele>
        <time>2011-06-15T12:28:17Z</time>
      </trkpt>
      <trkpt lat="35.253324508666992" lon="23.992295265197754">
        <ele>749.48500000000001</ele>
        <time>2011-06-15T12:28:22Z</time>
      </trkpt>
      <trkpt lat="35.253431797027588" lon="23.992273807525635">
        <ele>747.08199999999999</ele>
        <time>2011-06-15T12:28:34Z</time>
      </trkpt>
      <trkpt lat="35.253517627716064" lon="23.992187976837158">
        <ele>741.79399999999998</ele>
        <time>2011-06-15T12:29:01Z</time>
      </trkpt>
      <trkpt lat="35.253539085388184" lon="23.992123603820801">
        <ele>739.87199999999996</ele>
        <time>2011-06-15T12:29:14Z</time>
      </trkpt>
      <trkpt lat="35.253560543060303" lon="23.992080688476563">
        <ele>737.94899999999996</ele>
        <time>2011-06-15T12:29:26Z</time>
      </trkpt>
      <trkpt lat="35.253560543060303" lon="23.992102146148682">
        <ele>741.31399999999996</ele>
        <time>2011-06-15T12:29:54Z</time>
      </trkpt>
      <trkpt lat="35.253560543060303" lon="23.992080688476563">
        <ele>742.27499999999998</ele>
        <time>2011-06-15T12:29:58Z</time>
      </trkpt>
      <trkpt lat="35.253582000732422" lon="23.992037773132324">
        <ele>742.75599999999997</ele>
        <time>2011-06-15T12:30:01Z</time>
      </trkpt>
      <trkpt lat="35.253560543060303" lon="23.992037773132324">
        <ele>743.23599999999999</ele>
        <time>2011-06-15T12:30:04Z</time>
      </trkpt>
      <trkpt lat="35.253496170043945" lon="23.992016315460205">
        <ele>737.46900000000005</ele>
        <time>2011-06-15T12:30:15Z</time>
      </trkpt>
      <trkpt lat="35.253431797027588" lon="23.991994857788086">
        <ele>732.18100000000004</ele>
        <time>2011-06-15T12:30:28Z</time>
      </trkpt>
      <trkpt lat="35.25336742401123" lon="23.991951942443848">
        <ele>723.52999999999997</ele>
        <time>2011-06-15T12:30:41Z</time>
      </trkpt>
      <trkpt lat="35.253345966339111" lon="23.991930484771729">
        <ele>722.56799999999998</ele>
        <time>2011-06-15T12:30:43Z</time>
      </trkpt>
      <trkpt lat="35.253324508666992" lon="23.991909027099609">
        <ele>721.12599999999998</ele>
        <time>2011-06-15T12:30:46Z</time>
      </trkpt>
      <trkpt lat="35.253260135650635" lon="23.991909027099609">
        <ele>715.35799999999995</ele>
        <time>2011-06-15T12:30:55Z</time>
      </trkpt>
      <trkpt lat="35.253238677978516" lon="23.991930484771729">
        <ele>703.82299999999998</ele>
        <time>2011-06-15T12:31:06Z</time>
      </trkpt>
      <trkpt lat="35.253174304962158" lon="23.991951942443848">
        <ele>701.41899999999998</ele>
        <time>2011-06-15T12:31:21Z</time>
      </trkpt>
      <trkpt lat="35.25313138961792" lon="23.991951942443848">
        <ele>699.97699999999998</ele>
        <time>2011-06-15T12:31:26Z</time>
      </trkpt>
      <trkpt lat="35.253067016601563" lon="23.991973400115967">
        <ele>694.69000000000005</ele>
        <time>2011-06-15T12:31:37Z</time>
      </trkpt>
      <trkpt lat="35.253045558929443" lon="23.991973400115967">
        <ele>694.20899999999995</ele>
        <time>2011-06-15T12:31:39Z</time>
      </trkpt>
      <trkpt lat="35.252981185913086" lon="23.991951942443848">
        <ele>691.80600000000004</ele>
        <time>2011-06-15T12:31:49Z</time>
      </trkpt>
      <trkpt lat="35.252981185913086" lon="23.991951942443848">
        <ele>690.36400000000003</ele>
        <time>2011-06-15T12:31:56Z</time>
      </trkpt>
      <trkpt lat="35.252916812896729" lon="23.991973400115967">
        <ele>691.80600000000004</ele>
        <time>2011-06-15T12:32:06Z</time>
      </trkpt>
      <trkpt lat="35.25287389755249" lon="23.991994857788086">
        <ele>696.13199999999995</ele>
        <time>2011-06-15T12:32:27Z</time>
      </trkpt>
      <trkpt lat="35.25263786315918" lon="23.992123603820801">
        <ele>710.55200000000002</ele>
        <time>2011-06-15T12:34:25Z</time>
      </trkpt>
      <trkpt lat="35.252830982208252" lon="23.992037773132324">
        <ele>727.85500000000002</ele>
        <time>2011-06-15T12:37:19Z</time>
      </trkpt>
      <trkpt lat="35.252723693847656" lon="23.991930484771729">
        <ele>727.375</ele>
        <time>2011-06-15T12:38:25Z</time>
      </trkpt>
      <trkpt lat="35.252659320831299" lon="23.991909027099609">
        <ele>723.04899999999998</ele>
        <time>2011-06-15T12:38:30Z</time>
      </trkpt>
      <trkpt lat="35.252573490142822" lon="23.991866111755371">
        <ele>719.20399999999995</ele>
        <time>2011-06-15T12:38:40Z</time>
      </trkpt>
      <trkpt lat="35.252530574798584" lon="23.991844654083252">
        <ele>719.20399999999995</ele>
        <time>2011-06-15T12:38:48Z</time>
      </trkpt>
      <trkpt lat="35.252466201782227" lon="23.991866111755371">
        <ele>718.24199999999996</ele>
        <time>2011-06-15T12:38:56Z</time>
      </trkpt>
      <trkpt lat="35.252423286437988" lon="23.992016315460205">
        <ele>713.43600000000004</ele>
        <time>2011-06-15T12:39:14Z</time>
      </trkpt>
      <trkpt lat="35.252401828765869" lon="23.992016315460205">
        <ele>712.95500000000004</ele>
        <time>2011-06-15T12:39:16Z</time>
      </trkpt>
      <trkpt lat="35.25238037109375" lon="23.992037773132324">
        <ele>712.47400000000005</ele>
        <time>2011-06-15T12:39:18Z</time>
      </trkpt>
      <trkpt lat="35.252315998077393" lon="23.992059230804443">
        <ele>710.07100000000003</ele>
        <time>2011-06-15T12:39:24Z</time>
      </trkpt>
      <trkpt lat="35.252273082733154" lon="23.992059230804443">
        <ele>709.11000000000001</ele>
        <time>2011-06-15T12:39:27Z</time>
      </trkpt>
      <trkpt lat="35.252187252044678" lon="23.992016315460205">
        <ele>706.226</ele>
        <time>2011-06-15T12:39:35Z</time>
      </trkpt>
      <trkpt lat="35.25212287902832" lon="23.991909027099609">
        <ele>703.34199999999998</ele>
        <time>2011-06-15T12:39:43Z</time>
      </trkpt>
      <trkpt lat="35.252101421356201" lon="23.991909027099609">
        <ele>703.82299999999998</ele>
        <time>2011-06-15T12:39:45Z</time>
      </trkpt>
      <trkpt lat="35.252037048339844" lon="23.991994857788086">
        <ele>701.41899999999998</ele>
        <time>2011-06-15T12:39:55Z</time>
      </trkpt>
      <trkpt lat="35.251994132995605" lon="23.991994857788086">
        <ele>697.57399999999996</ele>
        <time>2011-06-15T12:40:04Z</time>
      </trkpt>
      <trkpt lat="35.252015590667725" lon="23.992016315460205">
        <ele>697.09299999999996</ele>
        <time>2011-06-15T12:40:06Z</time>
      </trkpt>
      <trkpt lat="35.251994132995605" lon="23.992037773132324">
        <ele>694.20899999999995</ele>
        <time>2011-06-15T12:40:11Z</time>
      </trkpt>
      <trkpt lat="35.251951217651367" lon="23.992037773132324">
        <ele>688.92200000000003</ele>
        <time>2011-06-15T12:40:18Z</time>
      </trkpt>
      <trkpt lat="35.251929759979248" lon="23.992037773132324">
        <ele>686.03800000000001</ele>
        <time>2011-06-15T12:40:22Z</time>
      </trkpt>
      <trkpt lat="35.25188684463501" lon="23.992059230804443">
        <ele>683.63499999999999</ele>
        <time>2011-06-15T12:40:27Z</time>
      </trkpt>
      <trkpt lat="35.251822471618652" lon="23.992037773132324">
        <ele>681.71199999999999</ele>
        <time>2011-06-15T12:40:36Z</time>
      </trkpt>
      <trkpt lat="35.251822471618652" lon="23.992037773132324">
        <ele>682.19299999999998</ele>
        <time>2011-06-15T12:40:38Z</time>
      </trkpt>
      <trkpt lat="35.251801013946533" lon="23.992059230804443">
        <ele>682.673</ele>
        <time>2011-06-15T12:40:42Z</time>
      </trkpt>
      <trkpt lat="35.251779556274414" lon="23.992016315460205">
        <ele>683.154</ele>
        <time>2011-06-15T12:40:46Z</time>
      </trkpt>
      <trkpt lat="35.251736640930176" lon="23.991994857788086">
        <ele>684.11500000000001</ele>
        <time>2011-06-15T12:40:49Z</time>
      </trkpt>
      <trkpt lat="35.251693725585938" lon="23.991994857788086">
        <ele>684.11500000000001</ele>
        <time>2011-06-15T12:40:57Z</time>
      </trkpt>
      <trkpt lat="35.251650810241699" lon="23.991951942443848">
        <ele>682.673</ele>
        <time>2011-06-15T12:41:07Z</time>
      </trkpt>
      <trkpt lat="35.251607894897461" lon="23.991909027099609">
        <ele>679.78899999999999</ele>
        <time>2011-06-15T12:41:21Z</time>
      </trkpt>
      <trkpt lat="35.251586437225342" lon="23.991866111755371">
        <ele>678.82799999999997</ele>
        <time>2011-06-15T12:41:29Z</time>
      </trkpt>
      <trkpt lat="35.251522064208984" lon="23.991780281066895">
        <ele>668.73400000000004</ele>
        <time>2011-06-15T12:41:48Z</time>
      </trkpt>
      <trkpt lat="35.251500606536865" lon="23.991801738739014">
        <ele>658.15999999999997</ele>
        <time>2011-06-15T12:42:03Z</time>
      </trkpt>
      <trkpt lat="35.25139331817627" lon="23.991737365722656">
        <ele>650.46900000000005</ele>
        <time>2011-06-15T12:42:14Z</time>
      </trkpt>
      <trkpt lat="35.25137186050415" lon="23.991737365722656">
        <ele>646.62400000000002</ele>
        <time>2011-06-15T12:42:25Z</time>
      </trkpt>
      <trkpt lat="35.251328945159912" lon="23.991737365722656">
        <ele>646.14300000000003</ele>
        <time>2011-06-15T12:42:34Z</time>
      </trkpt>
      <trkpt lat="35.251307487487793" lon="23.991737365722656">
        <ele>642.298</ele>
        <time>2011-06-15T12:42:43Z</time>
      </trkpt>
      <trkpt lat="35.251286029815674" lon="23.991758823394775">
        <ele>640.85599999999999</ele>
        <time>2011-06-15T12:42:47Z</time>
      </trkpt>
      <trkpt lat="35.251243114471436" lon="23.991672992706299">
        <ele>645.18200000000002</ele>
        <time>2011-06-15T12:43:02Z</time>
      </trkpt>
      <trkpt lat="35.251243114471436" lon="23.99165153503418">
        <ele>645.66300000000001</ele>
        <time>2011-06-15T12:43:04Z</time>
      </trkpt>
      <trkpt lat="35.251178741455078" lon="23.991565704345703">
        <ele>646.62400000000002</ele>
        <time>2011-06-15T12:43:16Z</time>
      </trkpt>
      <trkpt lat="35.25113582611084" lon="23.991501331329346">
        <ele>644.221</ele>
        <time>2011-06-15T12:43:40Z</time>
      </trkpt>
      <trkpt lat="35.251114368438721" lon="23.991522789001465">
        <ele>643.74000000000001</ele>
        <time>2011-06-15T12:43:43Z</time>
      </trkpt>
      <trkpt lat="35.251092910766602" lon="23.991522789001465">
        <ele>642.298</ele>
        <time>2011-06-15T12:43:49Z</time>
      </trkpt>
      <trkpt lat="35.251071453094482" lon="23.991501331329346">
        <ele>641.33699999999999</ele>
        <time>2011-06-15T12:43:58Z</time>
      </trkpt>
      <trkpt lat="35.251049995422363" lon="23.991522789001465">
        <ele>641.81700000000001</ele>
        <time>2011-06-15T12:44:00Z</time>
      </trkpt>
      <trkpt lat="35.251007080078125" lon="23.991501331329346">
        <ele>641.81700000000001</ele>
        <time>2011-06-15T12:44:07Z</time>
      </trkpt>
      <trkpt lat="35.251028537750244" lon="23.991501331329346">
        <ele>641.33699999999999</ele>
        <time>2011-06-15T12:44:08Z</time>
      </trkpt>
      <trkpt lat="35.251007080078125" lon="23.991501331329346">
        <ele>639.89499999999998</ele>
        <time>2011-06-15T12:44:12Z</time>
      </trkpt>
      <trkpt lat="35.250964164733887" lon="23.991479873657227">
        <ele>637.49099999999999</ele>
        <time>2011-06-15T12:44:21Z</time>
      </trkpt>
      <trkpt lat="35.250942707061768" lon="23.991501331329346">
        <ele>636.52999999999997</ele>
        <time>2011-06-15T12:44:24Z</time>
      </trkpt>
      <trkpt lat="35.250899791717529" lon="23.991522789001465">
        <ele>635.56899999999996</ele>
        <time>2011-06-15T12:44:28Z</time>
      </trkpt>
      <trkpt lat="35.250856876373291" lon="23.991565704345703">
        <ele>634.60699999999997</ele>
        <time>2011-06-15T12:44:34Z</time>
      </trkpt>
      <trkpt lat="35.250835418701172" lon="23.991608619689941">
        <ele>632.20399999999995</ele>
        <time>2011-06-15T12:44:42Z</time>
      </trkpt>
      <trkpt lat="35.250792503356934" lon="23.991587162017822">
        <ele>628.84000000000003</ele>
        <time>2011-06-15T12:44:57Z</time>
      </trkpt>
      <trkpt lat="35.250792503356934" lon="23.991565704345703">
        <ele>627.87800000000004</ele>
        <time>2011-06-15T12:44:58Z</time>
      </trkpt>
      <trkpt lat="35.250728130340576" lon="23.991587162017822">
        <ele>624.99400000000003</ele>
        <time>2011-06-15T12:45:07Z</time>
      </trkpt>
      <trkpt lat="35.250663757324219" lon="23.991522789001465">
        <ele>621.63</ele>
        <time>2011-06-15T12:45:15Z</time>
      </trkpt>
      <trkpt lat="35.25062084197998" lon="23.991522789001465">
        <ele>612.49699999999996</ele>
        <time>2011-06-15T12:45:24Z</time>
      </trkpt>
      <trkpt lat="35.25062084197998" lon="23.991522789001465">
        <ele>611.05499999999995</ele>
        <time>2011-06-15T12:45:26Z</time>
      </trkpt>
      <trkpt lat="35.250577926635742" lon="23.991544246673584">
        <ele>606.72900000000004</ele>
        <time>2011-06-15T12:45:34Z</time>
      </trkpt>
      <trkpt lat="35.250556468963623" lon="23.991587162017822">
        <ele>605.28700000000003</ele>
        <time>2011-06-15T12:45:37Z</time>
      </trkpt>
      <trkpt lat="35.250556468963623" lon="23.991587162017822">
        <ele>601.44200000000001</ele>
        <time>2011-06-15T12:45:53Z</time>
      </trkpt>
      <trkpt lat="35.250513553619385" lon="23.991565704345703">
        <ele>599.51900000000001</ele>
        <time>2011-06-15T12:46:01Z</time>
      </trkpt>
      <trkpt lat="35.250470638275146" lon="23.991522789001465">
        <ele>597.59699999999998</ele>
        <time>2011-06-15T12:46:10Z</time>
      </trkpt>
      <trkpt lat="35.250449180603027" lon="23.991522789001465">
        <ele>597.11599999999999</ele>
        <time>2011-06-15T12:46:11Z</time>
      </trkpt>
      <trkpt lat="35.250449180603027" lon="23.991501331329346">
        <ele>596.63499999999999</ele>
        <time>2011-06-15T12:46:13Z</time>
      </trkpt>
      <trkpt lat="35.250427722930908" lon="23.991501331329346">
        <ele>592.78999999999996</ele>
        <time>2011-06-15T12:46:21Z</time>
      </trkpt>
      <trkpt lat="35.25038480758667" lon="23.991479873657227">
        <ele>590.86699999999996</ele>
        <time>2011-06-15T12:46:31Z</time>
      </trkpt>
      <trkpt lat="35.250256061553955" lon="23.991351127624512">
        <ele>588.46400000000006</ele>
        <time>2011-06-15T12:47:18Z</time>
      </trkpt>
      <trkpt lat="35.250170230865479" lon="23.991286754608154">
        <ele>588.46400000000006</ele>
        <time>2011-06-15T12:47:33Z</time>
      </trkpt>
      <trkpt lat="35.250148773193359" lon="23.991286754608154">
        <ele>588.46400000000006</ele>
        <time>2011-06-15T12:47:34Z</time>
      </trkpt>
      <trkpt lat="35.25012731552124" lon="23.991243839263916">
        <ele>586.54200000000003</ele>
        <time>2011-06-15T12:47:40Z</time>
      </trkpt>
      <trkpt lat="35.25012731552124" lon="23.991243839263916">
        <ele>586.54200000000003</ele>
        <time>2011-06-15T12:47:42Z</time>
      </trkpt>
      <trkpt lat="35.250084400177002" lon="23.991200923919678">
        <ele>588.46400000000006</ele>
        <time>2011-06-15T12:47:48Z</time>
      </trkpt>
      <trkpt lat="35.249998569488525" lon="23.991115093231201">
        <ele>588.94500000000005</ele>
        <time>2011-06-15T12:48:08Z</time>
      </trkpt>
      <trkpt lat="35.249955654144287" lon="23.991072177886963">
        <ele>588.94500000000005</ele>
        <time>2011-06-15T12:48:14Z</time>
      </trkpt>
      <trkpt lat="35.249912738800049" lon="23.991007804870605">
        <ele>588.46400000000006</ele>
        <time>2011-06-15T12:48:17Z</time>
      </trkpt>
      <trkpt lat="35.249826908111572" lon="23.990814685821533">
        <ele>587.98299999999995</ele>
        <time>2011-06-15T12:48:26Z</time>
      </trkpt>
      <trkpt lat="35.249741077423096" lon="23.990793228149414">
        <ele>587.98299999999995</ele>
        <time>2011-06-15T12:48:34Z</time>
      </trkpt>
      <trkpt lat="35.249741077423096" lon="23.990793228149414">
        <ele>587.50300000000004</ele>
        <time>2011-06-15T12:48:40Z</time>
      </trkpt>
      <trkpt lat="35.249676704406738" lon="23.99064302444458">
        <ele>587.98299999999995</ele>
        <time>2011-06-15T12:48:54Z</time>
      </trkpt>
      <trkpt lat="35.249590873718262" lon="23.990535736083984">
        <ele>587.98299999999995</ele>
        <time>2011-06-15T12:49:06Z</time>
      </trkpt>
      <trkpt lat="35.249590873718262" lon="23.990535736083984">
        <ele>590.38699999999994</ele>
        <time>2011-06-15T12:49:21Z</time>
      </trkpt>
      <trkpt lat="35.249547958374023" lon="23.990728855133057">
        <ele>587.02200000000005</ele>
        <time>2011-06-15T12:49:29Z</time>
      </trkpt>
      <trkpt lat="35.249505043029785" lon="23.99064302444458">
        <ele>583.65700000000004</ele>
        <time>2011-06-15T12:49:38Z</time>
      </trkpt>
      <trkpt lat="35.249505043029785" lon="23.990664482116699">
        <ele>585.58000000000004</ele>
        <time>2011-06-15T12:49:46Z</time>
      </trkpt>
      <trkpt lat="35.249483585357666" lon="23.990707397460937">
        <ele>585.58000000000004</ele>
        <time>2011-06-15T12:49:54Z</time>
      </trkpt>
      <trkpt lat="35.249462127685547" lon="23.990707397460937">
        <ele>585.58000000000004</ele>
        <time>2011-06-15T12:49:56Z</time>
      </trkpt>
      <trkpt lat="35.249462127685547" lon="23.990621566772461">
        <ele>583.65700000000004</ele>
        <time>2011-06-15T12:50:09Z</time>
      </trkpt>
      <trkpt lat="35.249462127685547" lon="23.990621566772461">
        <ele>583.65700000000004</ele>
        <time>2011-06-15T12:50:10Z</time>
      </trkpt>
      <trkpt lat="35.249440670013428" lon="23.990578651428223">
        <ele>583.65700000000004</ele>
        <time>2011-06-15T12:50:18Z</time>
      </trkpt>
      <trkpt lat="35.249419212341309" lon="23.990492820739746">
        <ele>586.06100000000004</ele>
        <time>2011-06-15T12:50:27Z</time>
      </trkpt>
      <trkpt lat="35.249397754669189" lon="23.99040699005127">
        <ele>590.86699999999996</ele>
        <time>2011-06-15T12:50:37Z</time>
      </trkpt>
      <trkpt lat="35.249397754669189" lon="23.99038553237915">
        <ele>590.86699999999996</ele>
        <time>2011-06-15T12:50:41Z</time>
      </trkpt>
      <trkpt lat="35.249419212341309" lon="23.990364074707031">
        <ele>590.86699999999996</ele>
        <time>2011-06-15T12:50:43Z</time>
      </trkpt>
      <trkpt lat="35.249397754669189" lon="23.990321159362793">
        <ele>589.90599999999995</ele>
        <time>2011-06-15T12:50:49Z</time>
      </trkpt>
      <trkpt lat="35.249333381652832" lon="23.990235328674316">
        <ele>589.42600000000004</ele>
        <time>2011-06-15T12:50:59Z</time>
      </trkpt>
      <trkpt lat="35.249247550964355" lon="23.990042209625244">
        <ele>589.42600000000004</ele>
        <time>2011-06-15T12:51:13Z</time>
      </trkpt>
      <trkpt lat="35.249226093292236" lon="23.990042209625244">
        <ele>589.42600000000004</ele>
        <time>2011-06-15T12:51:14Z</time>
      </trkpt>
      <trkpt lat="35.249183177947998" lon="23.989977836608887">
        <ele>589.42600000000004</ele>
        <time>2011-06-15T12:51:22Z</time>
      </trkpt>
      <trkpt lat="35.249161720275879" lon="23.989956378936768">
        <ele>589.42600000000004</ele>
        <time>2011-06-15T12:51:24Z</time>
      </trkpt>
      <trkpt lat="35.249097347259521" lon="23.98989200592041">
        <ele>588.94500000000005</ele>
        <time>2011-06-15T12:51:32Z</time>
      </trkpt>
      <trkpt lat="35.249075889587402" lon="23.98989200592041">
        <ele>588.94500000000005</ele>
        <time>2011-06-15T12:51:36Z</time>
      </trkpt>
      <trkpt lat="35.249032974243164" lon="23.98989200592041">
        <ele>588.46400000000006</ele>
        <time>2011-06-15T12:51:40Z</time>
      </trkpt>
      <trkpt lat="35.249011516571045" lon="23.989913463592529">
        <ele>588.46400000000006</ele>
        <time>2011-06-15T12:51:42Z</time>
      </trkpt>
      <trkpt lat="35.248990058898926" lon="23.989913463592529">
        <ele>588.46400000000006</ele>
        <time>2011-06-15T12:51:44Z</time>
      </trkpt>
      <trkpt lat="35.248947143554688" lon="23.989934921264648">
        <ele>588.46400000000006</ele>
        <time>2011-06-15T12:51:51Z</time>
      </trkpt>
      <trkpt lat="35.248925685882568" lon="23.989913463592529">
        <ele>587.98299999999995</ele>
        <time>2011-06-15T12:51:53Z</time>
      </trkpt>
      <trkpt lat="35.248839855194092" lon="23.98989200592041">
        <ele>587.98299999999995</ele>
        <time>2011-06-15T12:52:01Z</time>
      </trkpt>
      <trkpt lat="35.248775482177734" lon="23.989913463592529">
        <ele>587.50300000000004</ele>
        <time>2011-06-15T12:52:11Z</time>
      </trkpt>
      <trkpt lat="35.248732566833496" lon="23.989913463592529">
        <ele>587.50300000000004</ele>
        <time>2011-06-15T12:52:21Z</time>
      </trkpt>
      <trkpt lat="35.248689651489258" lon="23.989934921264648">
        <ele>587.50300000000004</ele>
        <time>2011-06-15T12:52:31Z</time>
      </trkpt>
      <trkpt lat="35.248689651489258" lon="23.989934921264648">
        <ele>587.02200000000005</ele>
        <time>2011-06-15T12:52:40Z</time>
      </trkpt>
      <trkpt lat="35.24864673614502" lon="23.989956378936768">
        <ele>587.02200000000005</ele>
        <time>2011-06-15T12:52:45Z</time>
      </trkpt>
      <trkpt lat="35.248603820800781" lon="23.989956378936768">
        <ele>587.02200000000005</ele>
        <time>2011-06-15T12:52:51Z</time>
      </trkpt>
      <trkpt lat="35.248560905456543" lon="23.989977836608887">
        <ele>587.02200000000005</ele>
        <time>2011-06-15T12:52:56Z</time>
      </trkpt>
      <trkpt lat="35.248560905456543" lon="23.989999294281006">
        <ele>587.02200000000005</ele>
        <time>2011-06-15T12:52:59Z</time>
      </trkpt>
      <trkpt lat="35.248560905456543" lon="23.990085124969482">
        <ele>587.02200000000005</ele>
        <time>2011-06-15T12:53:06Z</time>
      </trkpt>
      <trkpt lat="35.248517990112305" lon="23.990042209625244">
        <ele>586.54200000000003</ele>
        <time>2011-06-15T12:53:15Z</time>
      </trkpt>
      <trkpt lat="35.248496532440186" lon="23.990042209625244">
        <ele>586.54200000000003</ele>
        <time>2011-06-15T12:53:16Z</time>
      </trkpt>
      <trkpt lat="35.248475074768066" lon="23.989999294281006">
        <ele>586.54200000000003</ele>
        <time>2011-06-15T12:53:19Z</time>
      </trkpt>
      <trkpt lat="35.248453617095947" lon="23.990020751953125">
        <ele>586.54200000000003</ele>
        <time>2011-06-15T12:53:22Z</time>
      </trkpt>
      <trkpt lat="35.248367786407471" lon="23.989934921264648">
        <ele>586.06100000000004</ele>
        <time>2011-06-15T12:53:29Z</time>
      </trkpt>
      <trkpt lat="35.248324871063232" lon="23.989913463592529">
        <ele>585.58000000000004</ele>
        <time>2011-06-15T12:53:32Z</time>
      </trkpt>
      <trkpt lat="35.248239040374756" lon="23.989827632904053">
        <ele>585.58000000000004</ele>
        <time>2011-06-15T12:53:44Z</time>
      </trkpt>
      <trkpt lat="35.248174667358398" lon="23.989870548248291">
        <ele>585.10000000000002</ele>
        <time>2011-06-15T12:53:51Z</time>
      </trkpt>
      <trkpt lat="35.248110294342041" lon="23.989870548248291">
        <ele>584.61900000000003</ele>
        <time>2011-06-15T12:54:05Z</time>
      </trkpt>
      <trkpt lat="35.248045921325684" lon="23.989849090576172">
        <ele>584.61900000000003</ele>
        <time>2011-06-15T12:54:11Z</time>
      </trkpt>
      <trkpt lat="35.248024463653564" lon="23.989827632904053">
        <ele>584.61900000000003</ele>
        <time>2011-06-15T12:54:14Z</time>
      </trkpt>
      <trkpt lat="35.248003005981445" lon="23.989806175231934">
        <ele>584.13800000000003</ele>
        <time>2011-06-15T12:54:17Z</time>
      </trkpt>
      <trkpt lat="35.247960090637207" lon="23.989741802215576">
        <ele>584.13800000000003</ele>
        <time>2011-06-15T12:54:21Z</time>
      </trkpt>
      <trkpt lat="35.24787425994873" lon="23.989677429199219">
        <ele>583.65700000000004</ele>
        <time>2011-06-15T12:54:27Z</time>
      </trkpt>
      <trkpt lat="35.24787425994873" lon="23.989677429199219">
        <ele>583.65700000000004</ele>
        <time>2011-06-15T12:54:28Z</time>
      </trkpt>
      <trkpt lat="35.247809886932373" lon="23.989677429199219">
        <ele>583.65700000000004</ele>
        <time>2011-06-15T12:54:34Z</time>
      </trkpt>
      <trkpt lat="35.247788429260254" lon="23.989677429199219">
        <ele>583.17700000000002</ele>
        <time>2011-06-15T12:54:37Z</time>
      </trkpt>
      <trkpt lat="35.247702598571777" lon="23.9896559715271">
        <ele>582.69600000000003</ele>
        <time>2011-06-15T12:54:49Z</time>
      </trkpt>
      <trkpt lat="35.247659683227539" lon="23.989613056182861">
        <ele>582.69600000000003</ele>
        <time>2011-06-15T12:54:57Z</time>
      </trkpt>
      <trkpt lat="35.24763822555542" lon="23.98963451385498">
        <ele>582.69600000000003</ele>
        <time>2011-06-15T12:55:00Z</time>
      </trkpt>
      <trkpt lat="35.247595310211182" lon="23.98963451385498">
        <ele>582.21600000000001</ele>
        <time>2011-06-15T12:55:03Z</time>
      </trkpt>
      <trkpt lat="35.247530937194824" lon="23.9896559715271">
        <ele>582.21600000000001</ele>
        <time>2011-06-15T12:55:08Z</time>
      </trkpt>
      <trkpt lat="35.247488021850586" lon="23.989677429199219">
        <ele>581.73500000000001</ele>
        <time>2011-06-15T12:55:18Z</time>
      </trkpt>
      <trkpt lat="35.247402191162109" lon="23.989999294281006">
        <ele>609.61300000000006</ele>
        <time>2011-06-15T12:55:34Z</time>
      </trkpt>
      <trkpt lat="35.247595310211182" lon="23.990128040313721">
        <ele>641.81700000000001</ele>
        <time>2011-06-15T12:55:45Z</time>
      </trkpt>
      <trkpt lat="35.247552394866943" lon="23.990063667297363">
        <ele>642.779</ele>
        <time>2011-06-15T12:55:48Z</time>
      </trkpt>
      <trkpt lat="35.247445106506348" lon="23.989913463592529">
        <ele>652.87300000000005</ele>
        <time>2011-06-15T12:56:00Z</time>
      </trkpt>
      <trkpt lat="35.247337818145752" lon="23.98989200592041">
        <ele>655.75699999999995</ele>
        <time>2011-06-15T12:56:09Z</time>
      </trkpt>
      <trkpt lat="35.247251987457275" lon="23.989956378936768">
        <ele>659.12099999999998</ele>
        <time>2011-06-15T12:56:18Z</time>
      </trkpt>
      <trkpt lat="35.247209072113037" lon="23.989934921264648">
        <ele>661.524</ele>
        <time>2011-06-15T12:56:23Z</time>
      </trkpt>
      <trkpt lat="35.247187614440918" lon="23.989934921264648">
        <ele>662.96600000000001</ele>
        <time>2011-06-15T12:56:25Z</time>
      </trkpt>
      <trkpt lat="35.247123241424561" lon="23.989934921264648">
        <ele>675.46299999999997</ele>
        <time>2011-06-15T12:56:38Z</time>
      </trkpt>
      <trkpt lat="35.247080326080322" lon="23.989956378936768">
        <ele>677.86699999999996</ele>
        <time>2011-06-15T12:56:42Z</time>
      </trkpt>
      <trkpt lat="35.246951580047607" lon="23.98989200592041">
        <ele>680.75099999999998</ele>
        <time>2011-06-15T12:56:54Z</time>
      </trkpt>
      <trkpt lat="35.246908664703369" lon="23.989870548248291">
        <ele>680.75099999999998</ele>
        <time>2011-06-15T12:56:57Z</time>
      </trkpt>
      <trkpt lat="35.246844291687012" lon="23.989849090576172">
        <ele>680.26999999999998</ele>
        <time>2011-06-15T12:57:06Z</time>
      </trkpt>
      <trkpt lat="35.246801376342773" lon="23.989870548248291">
        <ele>679.30899999999997</ele>
        <time>2011-06-15T12:57:18Z</time>
      </trkpt>
      <trkpt lat="35.246930122375488" lon="23.989934921264648">
        <ele>675.94399999999996</ele>
        <time>2011-06-15T12:57:21Z</time>
      </trkpt>
      <trkpt lat="35.24688720703125" lon="23.989913463592529">
        <ele>673.54100000000005</ele>
        <time>2011-06-15T12:57:24Z</time>
      </trkpt>
      <trkpt lat="35.246801376342773" lon="23.989849090576172">
        <ele>667.29200000000003</ele>
        <time>2011-06-15T12:57:32Z</time>
      </trkpt>
      <trkpt lat="35.246758460998535" lon="23.989849090576172">
        <ele>662.48599999999999</ele>
        <time>2011-06-15T12:57:36Z</time>
      </trkpt>
      <trkpt lat="35.246737003326416" lon="23.989827632904053">
        <ele>659.12099999999998</ele>
        <time>2011-06-15T12:57:39Z</time>
      </trkpt>
      <trkpt lat="35.246694087982178" lon="23.989827632904053">
        <ele>655.27599999999995</ele>
        <time>2011-06-15T12:57:42Z</time>
      </trkpt>
      <trkpt lat="35.246672630310059" lon="23.989827632904053">
        <ele>647.58500000000004</ele>
        <time>2011-06-15T12:57:46Z</time>
      </trkpt>
      <trkpt lat="35.246672630310059" lon="23.989827632904053">
        <ele>643.25900000000001</ele>
        <time>2011-06-15T12:57:48Z</time>
      </trkpt>
      <trkpt lat="35.246608257293701" lon="23.989849090576172">
        <ele>629.32000000000005</ele>
        <time>2011-06-15T12:57:57Z</time>
      </trkpt>
      <trkpt lat="35.246586799621582" lon="23.989827632904053">
        <ele>626.91700000000003</ele>
        <time>2011-06-15T12:57:59Z</time>
      </trkpt>
      <trkpt lat="35.246479511260986" lon="23.989741802215576">
        <ele>612.97799999999995</ele>
        <time>2011-06-15T12:58:13Z</time>
      </trkpt>
      <trkpt lat="35.246458053588867" lon="23.989720344543457">
        <ele>610.09400000000005</ele>
        <time>2011-06-15T12:58:20Z</time>
      </trkpt>
      <trkpt lat="35.246372222900391" lon="23.989698886871338">
        <ele>612.49699999999996</ele>
        <time>2011-06-15T12:58:31Z</time>
      </trkpt>
      <trkpt lat="35.246329307556152" lon="23.989677429199219">
        <ele>614.41999999999996</ele>
        <time>2011-06-15T12:58:36Z</time>
      </trkpt>
      <trkpt lat="35.246286392211914" lon="23.989741802215576">
        <ele>614.89999999999998</ele>
        <time>2011-06-15T12:58:42Z</time>
      </trkpt>
      <trkpt lat="35.246243476867676" lon="23.989806175231934">
        <ele>613.93899999999996</ele>
        <time>2011-06-15T12:58:51Z</time>
      </trkpt>
      <trkpt lat="35.24613618850708" lon="23.989827632904053">
        <ele>608.17100000000005</ele>
        <time>2011-06-15T12:59:01Z</time>
      </trkpt>
      <trkpt lat="35.246114730834961" lon="23.989849090576172">
        <ele>605.28700000000003</ele>
        <time>2011-06-15T12:59:06Z</time>
      </trkpt>
      <trkpt lat="35.246114730834961" lon="23.989806175231934">
        <ele>602.40300000000002</ele>
        <time>2011-06-15T12:59:18Z</time>
      </trkpt>
      <trkpt lat="35.246071815490723" lon="23.989849090576172">
        <ele>601.44200000000001</ele>
        <time>2011-06-15T12:59:24Z</time>
      </trkpt>
      <trkpt lat="35.246050357818604" lon="23.989849090576172">
        <ele>591.82899999999995</ele>
        <time>2011-06-15T12:59:34Z</time>
      </trkpt>
      <trkpt lat="35.246028900146484" lon="23.989870548248291">
        <ele>591.34799999999996</ele>
        <time>2011-06-15T12:59:42Z</time>
      </trkpt>
      <trkpt lat="35.246050357818604" lon="23.989827632904053">
        <ele>590.86699999999996</ele>
        <time>2011-06-15T12:59:52Z</time>
      </trkpt>
      <trkpt lat="35.246050357818604" lon="23.989827632904053">
        <ele>590.86699999999996</ele>
        <time>2011-06-15T12:59:53Z</time>
      </trkpt>
      <trkpt lat="35.246007442474365" lon="23.989849090576172">
        <ele>590.86699999999996</ele>
        <time>2011-06-15T13:00:06Z</time>
      </trkpt>
      <trkpt lat="35.245835781097412" lon="23.989849090576172">
        <ele>590.38699999999994</ele>
        <time>2011-06-15T13:00:32Z</time>
      </trkpt>
      <trkpt lat="35.245749950408936" lon="23.989870548248291">
        <ele>585.10000000000002</ele>
        <time>2011-06-15T13:00:46Z</time>
      </trkpt>
      <trkpt lat="35.245664119720459" lon="23.989806175231934">
        <ele>580.29300000000001</ele>
        <time>2011-06-15T13:01:02Z</time>
      </trkpt>
      <trkpt lat="35.245599746704102" lon="23.989827632904053">
        <ele>573.56399999999996</ele>
        <time>2011-06-15T13:01:15Z</time>
      </trkpt>
      <trkpt lat="35.245513916015625" lon="23.989806175231934">
        <ele>564.43100000000004</ele>
        <time>2011-06-15T13:01:28Z</time>
      </trkpt>
      <trkpt lat="35.245406627655029" lon="23.989913463592529">
        <ele>560.10500000000002</ele>
        <time>2011-06-15T13:01:47Z</time>
      </trkpt>
      <trkpt lat="35.245363712310791" lon="23.989956378936768">
        <ele>560.10500000000002</ele>
        <time>2011-06-15T13:01:54Z</time>
      </trkpt>
      <trkpt lat="35.245320796966553" lon="23.990085124969482">
        <ele>547.12699999999995</ele>
        <time>2011-06-15T13:02:01Z</time>
      </trkpt>
      <trkpt lat="35.245256423950195" lon="23.99014949798584">
        <ele>535.59199999999998</ele>
        <time>2011-06-15T13:02:08Z</time>
      </trkpt>
      <trkpt lat="35.245234966278076" lon="23.990213871002197">
        <ele>533.66899999999998</ele>
        <time>2011-06-15T13:02:16Z</time>
      </trkpt>
      <trkpt lat="35.24512767791748" lon="23.990192413330078">
        <ele>532.22699999999998</ele>
        <time>2011-06-15T13:02:27Z</time>
      </trkpt>
      <trkpt lat="35.245084762573242" lon="23.990192413330078">
        <ele>531.74599999999998</ele>
        <time>2011-06-15T13:02:34Z</time>
      </trkpt>
      <trkpt lat="35.245041847229004" lon="23.990235328674316">
        <ele>530.78499999999997</ele>
        <time>2011-06-15T13:02:39Z</time>
      </trkpt>
      <trkpt lat="35.244998931884766" lon="23.990278244018555">
        <ele>538.95600000000002</ele>
        <time>2011-06-15T13:02:50Z</time>
      </trkpt>
      <trkpt lat="35.24489164352417" lon="23.990342617034912">
        <ele>523.57500000000005</ele>
        <time>2011-06-15T13:02:59Z</time>
      </trkpt>
      <trkpt lat="35.24489164352417" lon="23.990342617034912">
        <ele>523.09500000000003</ele>
        <time>2011-06-15T13:03:01Z</time>
      </trkpt>
      <trkpt lat="35.244827270507813" lon="23.99040699005127">
        <ele>517.327</ele>
        <time>2011-06-15T13:03:09Z</time>
      </trkpt>
      <trkpt lat="35.244805812835693" lon="23.99040699005127">
        <ele>516.36500000000001</ele>
        <time>2011-06-15T13:03:10Z</time>
      </trkpt>
      <trkpt lat="35.244784355163574" lon="23.990428447723389">
        <ele>509.15499999999997</ele>
        <time>2011-06-15T13:03:15Z</time>
      </trkpt>
      <trkpt lat="35.244762897491455" lon="23.990449905395508">
        <ele>492.81299999999999</ele>
        <time>2011-06-15T13:03:23Z</time>
      </trkpt>
      <trkpt lat="35.244762897491455" lon="23.990449905395508">
        <ele>488.96800000000002</ele>
        <time>2011-06-15T13:03:26Z</time>
      </trkpt>
      <trkpt lat="35.244698524475098" lon="23.990449905395508">
        <ele>469.74099999999999</ele>
        <time>2011-06-15T13:03:36Z</time>
      </trkpt>
      <trkpt lat="35.244698524475098" lon="23.990449905395508">
        <ele>465.416</ele>
        <time>2011-06-15T13:03:37Z</time>
      </trkpt>
      <trkpt lat="35.244655609130859" lon="23.990557193756104">
        <ele>453.88</ele>
        <time>2011-06-15T13:03:45Z</time>
      </trkpt>
      <trkpt lat="35.244655609130859" lon="23.990600109100342">
        <ele>451.95699999999999</ele>
        <time>2011-06-15T13:03:48Z</time>
      </trkpt>
      <trkpt lat="35.24463415145874" lon="23.990600109100342">
        <ele>449.07299999999998</ele>
        <time>2011-06-15T13:03:50Z</time>
      </trkpt>
      <trkpt lat="35.244612693786621" lon="23.990621566772461">
        <ele>445.22800000000001</ele>
        <time>2011-06-15T13:03:55Z</time>
      </trkpt>
      <trkpt lat="35.244569778442383" lon="23.99064302444458">
        <ele>444.26600000000002</ele>
        <time>2011-06-15T13:04:05Z</time>
      </trkpt>
      <trkpt lat="35.244526863098145" lon="23.990707397460937">
        <ele>444.26600000000002</ele>
        <time>2011-06-15T13:04:15Z</time>
      </trkpt>
      <trkpt lat="35.244441032409668" lon="23.990793228149414">
        <ele>438.01799999999997</ele>
        <time>2011-06-15T13:04:26Z</time>
      </trkpt>
      <trkpt lat="35.244355201721191" lon="23.990879058837891">
        <ele>426.00099999999998</ele>
        <time>2011-06-15T13:04:37Z</time>
      </trkpt>
      <trkpt lat="35.244269371032715" lon="23.990793228149414">
        <ele>416.86900000000003</ele>
        <time>2011-06-15T13:04:53Z</time>
      </trkpt>
      <trkpt lat="35.244226455688477" lon="23.990793228149414">
        <ele>413.50400000000002</ele>
        <time>2011-06-15T13:04:57Z</time>
      </trkpt>
      <trkpt lat="35.244226455688477" lon="23.990793228149414">
        <ele>406.29399999999998</ele>
        <time>2011-06-15T13:05:07Z</time>
      </trkpt>
      <trkpt lat="35.244183540344238" lon="23.990814685821533">
        <ele>398.60399999999998</ele>
        <time>2011-06-15T13:05:14Z</time>
      </trkpt>
      <trkpt lat="35.244162082672119" lon="23.990836143493652">
        <ele>395.72000000000003</ele>
        <time>2011-06-15T13:05:16Z</time>
      </trkpt>
      <trkpt lat="35.244119167327881" lon="23.990857601165771">
        <ele>388.50999999999999</ele>
        <time>2011-06-15T13:05:30Z</time>
      </trkpt>
      <trkpt lat="35.244076251983643" lon="23.990879058837891">
        <ele>386.10700000000003</ele>
        <time>2011-06-15T13:05:37Z</time>
      </trkpt>
      <trkpt lat="35.244011878967285" lon="23.99090051651001">
        <ele>382.74200000000002</ele>
        <time>2011-06-15T13:05:50Z</time>
      </trkpt>
      <trkpt lat="35.243947505950928" lon="23.990879058837891">
        <ele>381.78100000000001</ele>
        <time>2011-06-15T13:05:55Z</time>
      </trkpt>
      <trkpt lat="35.243904590606689" lon="23.990836143493652">
        <ele>380.81900000000002</ele>
        <time>2011-06-15T13:05:58Z</time>
      </trkpt>
      <trkpt lat="35.243861675262451" lon="23.990836143493652">
        <ele>379.858</ele>
        <time>2011-06-15T13:06:07Z</time>
      </trkpt>
      <trkpt lat="35.243818759918213" lon="23.990771770477295">
        <ele>381.30000000000001</ele>
        <time>2011-06-15T13:06:17Z</time>
      </trkpt>
      <trkpt lat="35.243775844573975" lon="23.990750312805176">
        <ele>383.22300000000001</ele>
        <time>2011-06-15T13:06:23Z</time>
      </trkpt>
      <trkpt lat="35.243711471557617" lon="23.990728855133057">
        <ele>388.99099999999999</ele>
        <time>2011-06-15T13:06:33Z</time>
      </trkpt>
      <trkpt lat="35.243668556213379" lon="23.990707397460937">
        <ele>392.83600000000001</ele>
        <time>2011-06-15T13:06:41Z</time>
      </trkpt>
      <trkpt lat="35.243604183197021" lon="23.990707397460937">
        <ele>395.23899999999998</ele>
        <time>2011-06-15T13:06:48Z</time>
      </trkpt>
      <trkpt lat="35.243496894836426" lon="23.990664482116699">
        <ele>396.20100000000002</ele>
        <time>2011-06-15T13:06:53Z</time>
      </trkpt>
      <trkpt lat="35.243411064147949" lon="23.990685939788818">
        <ele>396.68099999999998</ele>
        <time>2011-06-15T13:06:59Z</time>
      </trkpt>
      <trkpt lat="35.243260860443115" lon="23.990557193756104">
        <ele>386.58699999999999</ele>
        <time>2011-06-15T13:07:11Z</time>
      </trkpt>
      <trkpt lat="35.243175029754639" lon="23.990449905395508">
        <ele>369.76400000000001</ele>
        <time>2011-06-15T13:07:19Z</time>
      </trkpt>
      <trkpt lat="35.243089199066162" lon="23.99038553237915">
        <ele>352.94099999999997</ele>
        <time>2011-06-15T13:07:29Z</time>
      </trkpt>
      <trkpt lat="35.243089199066162" lon="23.990364074707031">
        <ele>351.98000000000002</ele>
        <time>2011-06-15T13:07:33Z</time>
      </trkpt>
      <trkpt lat="35.243003368377686" lon="23.990342617034912">
        <ele>348.61500000000001</ele>
        <time>2011-06-15T13:07:37Z</time>
      </trkpt>
      <trkpt lat="35.242981910705566" lon="23.990321159362793">
        <ele>349.577</ele>
        <time>2011-06-15T13:07:39Z</time>
      </trkpt>
      <trkpt lat="35.242917537689209" lon="23.990256786346436">
        <ele>347.173</ele>
        <time>2011-06-15T13:07:46Z</time>
      </trkpt>
      <trkpt lat="35.242917537689209" lon="23.990170955657959">
        <ele>339.96300000000002</ele>
        <time>2011-06-15T13:08:03Z</time>
      </trkpt>
      <trkpt lat="35.242874622344971" lon="23.99014949798584">
        <ele>337.56</ele>
        <time>2011-06-15T13:08:06Z</time>
      </trkpt>
      <trkpt lat="35.242810249328613" lon="23.990085124969482">
        <ele>332.27300000000002</ele>
        <time>2011-06-15T13:08:14Z</time>
      </trkpt>
      <trkpt lat="35.242788791656494" lon="23.990085124969482">
        <ele>329.87</ele>
        <time>2011-06-15T13:08:18Z</time>
      </trkpt>
      <trkpt lat="35.242724418640137" lon="23.990063667297363">
        <ele>327.46600000000001</ele>
        <time>2011-06-15T13:08:25Z</time>
      </trkpt>
      <trkpt lat="35.242702960968018" lon="23.990042209625244">
        <ele>326.505</ele>
        <time>2011-06-15T13:08:27Z</time>
      </trkpt>
      <trkpt lat="35.242660045623779" lon="23.989977836608887">
        <ele>319.77600000000001</ele>
        <time>2011-06-15T13:08:37Z</time>
      </trkpt>
      <trkpt lat="35.242617130279541" lon="23.989977836608887">
        <ele>317.37200000000001</ele>
        <time>2011-06-15T13:08:47Z</time>
      </trkpt>
      <trkpt lat="35.242531299591064" lon="23.989956378936768">
        <ele>312.08499999999998</ele>
        <time>2011-06-15T13:08:55Z</time>
      </trkpt>
      <trkpt lat="35.242509841918945" lon="23.989956378936768">
        <ele>308.72000000000003</ele>
        <time>2011-06-15T13:09:00Z</time>
      </trkpt>
      <trkpt lat="35.242466926574707" lon="23.989934921264648">
        <ele>305.83699999999999</ele>
        <time>2011-06-15T13:09:05Z</time>
      </trkpt>
      <trkpt lat="35.242445468902588" lon="23.989913463592529">
        <ele>304.875</ele>
        <time>2011-06-15T13:09:07Z</time>
      </trkpt>
      <trkpt lat="35.242445468902588" lon="23.989913463592529">
        <ele>303.91399999999999</ele>
        <time>2011-06-15T13:09:09Z</time>
      </trkpt>
      <trkpt lat="35.24238109588623" lon="23.989870548248291">
        <ele>301.51100000000002</ele>
        <time>2011-06-15T13:09:16Z</time>
      </trkpt>
      <trkpt lat="35.24238109588623" lon="23.989870548248291">
        <ele>301.02999999999997</ele>
        <time>2011-06-15T13:09:18Z</time>
      </trkpt>
      <trkpt lat="35.242316722869873" lon="23.989827632904053">
        <ele>298.14600000000002</ele>
        <time>2011-06-15T13:09:27Z</time>
      </trkpt>
      <trkpt lat="35.242295265197754" lon="23.989741802215576">
        <ele>295.74299999999999</ele>
        <time>2011-06-15T13:09:35Z</time>
      </trkpt>
      <trkpt lat="35.242273807525635" lon="23.989720344543457">
        <ele>294.78100000000001</ele>
        <time>2011-06-15T13:09:41Z</time>
      </trkpt>
      <trkpt lat="35.242209434509277" lon="23.9896559715271">
        <ele>293.339</ele>
        <time>2011-06-15T13:09:50Z</time>
      </trkpt>
      <trkpt lat="35.24214506149292" lon="23.989570140838623">
        <ele>289.01400000000001</ele>
        <time>2011-06-15T13:09:59Z</time>
      </trkpt>
      <trkpt lat="35.242123603820801" lon="23.989548683166504">
        <ele>288.05200000000002</ele>
        <time>2011-06-15T13:10:01Z</time>
      </trkpt>
      <trkpt lat="35.242080688476563" lon="23.989505767822266">
        <ele>284.20699999999999</ele>
        <time>2011-06-15T13:10:08Z</time>
      </trkpt>
      <trkpt lat="35.242016315460205" lon="23.989441394805908">
        <ele>280.36200000000002</ele>
        <time>2011-06-15T13:10:16Z</time>
      </trkpt>
      <trkpt lat="35.241994857788086" lon="23.989419937133789">
        <ele>278.92000000000002</ele>
        <time>2011-06-15T13:10:19Z</time>
      </trkpt>
      <trkpt lat="35.241909027099609" lon="23.98939847946167">
        <ele>278.43900000000002</ele>
        <time>2011-06-15T13:10:26Z</time>
      </trkpt>
      <trkpt lat="35.241844654083252" lon="23.989355564117432">
        <ele>277.47800000000001</ele>
        <time>2011-06-15T13:10:36Z</time>
      </trkpt>
      <trkpt lat="35.241801738739014" lon="23.989291191101074">
        <ele>275.07400000000001</ele>
        <time>2011-06-15T13:10:46Z</time>
      </trkpt>
      <trkpt lat="35.241737365722656" lon="23.989269733428955">
        <ele>274.113</ele>
        <time>2011-06-15T13:10:53Z</time>
      </trkpt>
      <trkpt lat="35.241715908050537" lon="23.989226818084717">
        <ele>273.15199999999999</ele>
        <time>2011-06-15T13:10:56Z</time>
      </trkpt>
      <trkpt lat="35.24165153503418" lon="23.989162445068359">
        <ele>273.63200000000001</ele>
        <time>2011-06-15T13:11:03Z</time>
      </trkpt>
      <trkpt lat="35.241630077362061" lon="23.989162445068359">
        <ele>273.63200000000001</ele>
        <time>2011-06-15T13:11:05Z</time>
      </trkpt>
      <trkpt lat="35.241587162017822" lon="23.989162445068359">
        <ele>273.63200000000001</ele>
        <time>2011-06-15T13:11:08Z</time>
      </trkpt>
      <trkpt lat="35.241522789001465" lon="23.98914098739624">
        <ele>271.70999999999998</ele>
        <time>2011-06-15T13:11:17Z</time>
      </trkpt>
      <trkpt lat="35.241479873657227" lon="23.989098072052002">
        <ele>271.22899999999998</ele>
        <time>2011-06-15T13:11:22Z</time>
      </trkpt>
      <trkpt lat="35.24139404296875" lon="23.989033699035645">
        <ele>269.30700000000002</ele>
        <time>2011-06-15T13:11:29Z</time>
      </trkpt>
      <trkpt lat="35.241351127624512" lon="23.988969326019287">
        <ele>267.86500000000001</ele>
        <time>2011-06-15T13:11:36Z</time>
      </trkpt>
      <trkpt lat="35.241351127624512" lon="23.988947868347168">
        <ele>267.38400000000001</ele>
        <time>2011-06-15T13:11:37Z</time>
      </trkpt>
      <trkpt lat="35.241308212280273" lon="23.988883495330811">
        <ele>266.90300000000002</ele>
        <time>2011-06-15T13:11:47Z</time>
      </trkpt>
      <trkpt lat="35.241286754608154" lon="23.988862037658691">
        <ele>266.90300000000002</ele>
        <time>2011-06-15T13:11:48Z</time>
      </trkpt>
      <trkpt lat="35.241286754608154" lon="23.988840579986572">
        <ele>266.90300000000002</ele>
        <time>2011-06-15T13:11:50Z</time>
      </trkpt>
      <trkpt lat="35.241243839263916" lon="23.988840579986572">
        <ele>266.90300000000002</ele>
        <time>2011-06-15T13:11:52Z</time>
      </trkpt>
      <trkpt lat="35.241222381591797" lon="23.988819122314453">
        <ele>266.90300000000002</ele>
        <time>2011-06-15T13:11:55Z</time>
      </trkpt>
      <trkpt lat="35.241158008575439" lon="23.988797664642334">
        <ele>266.90300000000002</ele>
        <time>2011-06-15T13:12:02Z</time>
      </trkpt>
      <trkpt lat="35.24113655090332" lon="23.988797664642334">
        <ele>266.42200000000003</ele>
        <time>2011-06-15T13:12:04Z</time>
      </trkpt>
      <trkpt lat="35.241050720214844" lon="23.988733291625977">
        <ele>265.46100000000001</ele>
        <time>2011-06-15T13:12:16Z</time>
      </trkpt>
      <trkpt lat="35.241029262542725" lon="23.988711833953857">
        <ele>265.46100000000001</ele>
        <time>2011-06-15T13:12:19Z</time>
      </trkpt>
      <trkpt lat="35.240964889526367" lon="23.988733291625977">
        <ele>264.98099999999999</ele>
        <time>2011-06-15T13:12:26Z</time>
      </trkpt>
      <trkpt lat="35.240921974182129" lon="23.988690376281738">
        <ele>264.01900000000001</ele>
        <time>2011-06-15T13:12:31Z</time>
      </trkpt>
      <trkpt lat="35.240836143493652" lon="23.9886474609375">
        <ele>262.577</ele>
        <time>2011-06-15T13:12:36Z</time>
      </trkpt>
      <trkpt lat="35.240814685821533" lon="23.988626003265381">
        <ele>262.09699999999998</ele>
        <time>2011-06-15T13:12:38Z</time>
      </trkpt>
      <trkpt lat="35.240793228149414" lon="23.988604545593262">
        <ele>261.61599999999999</ele>
        <time>2011-06-15T13:12:41Z</time>
      </trkpt>
      <trkpt lat="35.240750312805176" lon="23.988604545593262">
        <ele>260.17399999999998</ele>
        <time>2011-06-15T13:12:45Z</time>
      </trkpt>
      <trkpt lat="35.240707397460937" lon="23.988604545593262">
        <ele>258.25099999999998</ele>
        <time>2011-06-15T13:12:49Z</time>
      </trkpt>
      <trkpt lat="35.24064302444458" lon="23.988626003265381">
        <ele>256.80900000000003</ele>
        <time>2011-06-15T13:12:56Z</time>
      </trkpt>
      <trkpt lat="35.240557193756104" lon="23.9886474609375">
        <ele>256.80900000000003</ele>
        <time>2011-06-15T13:13:04Z</time>
      </trkpt>
      <trkpt lat="35.240535736083984" lon="23.9886474609375">
        <ele>256.80900000000003</ele>
        <time>2011-06-15T13:13:05Z</time>
      </trkpt>
      <trkpt lat="35.240471363067627" lon="23.988626003265381">
        <ele>256.32900000000001</ele>
        <time>2011-06-15T13:13:12Z</time>
      </trkpt>
      <trkpt lat="35.24040699005127" lon="23.9886474609375">
        <ele>255.84800000000001</ele>
        <time>2011-06-15T13:13:18Z</time>
      </trkpt>
      <trkpt lat="35.240321159362793" lon="23.9886474609375">
        <ele>257.77100000000002</ele>
        <time>2011-06-15T13:13:29Z</time>
      </trkpt>
      <trkpt lat="35.240256786346436" lon="23.988626003265381">
        <ele>259.69299999999998</ele>
        <time>2011-06-15T13:13:37Z</time>
      </trkpt>
      <trkpt lat="35.240213871002197" lon="23.988626003265381">
        <ele>260.17399999999998</ele>
        <time>2011-06-15T13:13:40Z</time>
      </trkpt>
      <trkpt lat="35.24014949798584" lon="23.988561630249023">
        <ele>260.17399999999998</ele>
        <time>2011-06-15T13:13:45Z</time>
      </trkpt>
      <trkpt lat="35.240042209625244" lon="23.988497257232666">
        <ele>257.77100000000002</ele>
        <time>2011-06-15T13:13:53Z</time>
      </trkpt>
      <trkpt lat="35.239999294281006" lon="23.988497257232666">
        <ele>254.887</ele>
        <time>2011-06-15T13:13:58Z</time>
      </trkpt>
      <trkpt lat="35.239977836608887" lon="23.988475799560547">
        <ele>253.92500000000001</ele>
        <time>2011-06-15T13:14:00Z</time>
      </trkpt>
      <trkpt lat="35.239956378936768" lon="23.988432884216309">
        <ele>249.59899999999999</ele>
        <time>2011-06-15T13:14:07Z</time>
      </trkpt>
      <trkpt lat="35.23989200592041" lon="23.988368511199951">
        <ele>247.67699999999999</ele>
        <time>2011-06-15T13:14:16Z</time>
      </trkpt>
      <trkpt lat="35.239784717559814" lon="23.988282680511475">
        <ele>245.273</ele>
        <time>2011-06-15T13:14:28Z</time>
      </trkpt>
      <trkpt lat="35.239698886871338" lon="23.988196849822998">
        <ele>244.31200000000001</ele>
        <time>2011-06-15T13:14:38Z</time>
      </trkpt>
      <trkpt lat="35.239591598510742" lon="23.988132476806641">
        <ele>244.31200000000001</ele>
        <time>2011-06-15T13:14:46Z</time>
      </trkpt>
      <trkpt lat="35.239527225494385" lon="23.988089561462402">
        <ele>244.31200000000001</ele>
        <time>2011-06-15T13:14:54Z</time>
      </trkpt>
      <trkpt lat="35.239462852478027" lon="23.988068103790283">
        <ele>245.273</ele>
        <time>2011-06-15T13:15:05Z</time>
      </trkpt>
      <trkpt lat="35.239419937133789" lon="23.988046646118164">
        <ele>245.273</ele>
        <time>2011-06-15T13:15:08Z</time>
      </trkpt>
      <trkpt lat="35.23939847946167" lon="23.988025188446045">
        <ele>244.79300000000001</ele>
        <time>2011-06-15T13:15:13Z</time>
      </trkpt>
      <trkpt lat="35.239334106445313" lon="23.987960815429688">
        <ele>245.75399999999999</ele>
        <time>2011-06-15T13:15:20Z</time>
      </trkpt>
      <trkpt lat="35.239291191101074" lon="23.987960815429688">
        <ele>247.196</ele>
        <time>2011-06-15T13:15:25Z</time>
      </trkpt>
      <trkpt lat="35.239248275756836" lon="23.987939357757568">
        <ele>247.67699999999999</ele>
        <time>2011-06-15T13:15:30Z</time>
      </trkpt>
      <trkpt lat="35.23914098739624" lon="23.987853527069092">
        <ele>249.59899999999999</ele>
        <time>2011-06-15T13:15:38Z</time>
      </trkpt>
      <trkpt lat="35.239076614379883" lon="23.987767696380615">
        <ele>250.08000000000001</ele>
        <time>2011-06-15T13:15:49Z</time>
      </trkpt>
      <trkpt lat="35.239033699035645" lon="23.987574577331543">
        <ele>230.37299999999999</ele>
        <time>2011-06-15T13:15:54Z</time>
      </trkpt>
      <trkpt lat="35.239012241363525" lon="23.987553119659424">
        <ele>224.60499999999999</ele>
        <time>2011-06-15T13:16:00Z</time>
      </trkpt>
      <trkpt lat="35.238969326019287" lon="23.987510204315186">
        <ele>220.279</ele>
        <time>2011-06-15T13:16:04Z</time>
      </trkpt>
      <trkpt lat="35.23890495300293" lon="23.987467288970947">
        <ele>216.434</ele>
        <time>2011-06-15T13:16:09Z</time>
      </trkpt>
      <trkpt lat="35.238797664642334" lon="23.98740291595459">
        <ele>212.108</ele>
        <time>2011-06-15T13:16:18Z</time>
      </trkpt>
      <trkpt lat="35.238754749298096" lon="23.987360000610352">
        <ele>210.666</ele>
        <time>2011-06-15T13:16:22Z</time>
      </trkpt>
      <trkpt lat="35.238733291625977" lon="23.987338542938232">
        <ele>208.26300000000001</ele>
        <time>2011-06-15T13:16:25Z</time>
      </trkpt>
      <trkpt lat="35.238733291625977" lon="23.987317085266113">
        <ele>205.85900000000001</ele>
        <time>2011-06-15T13:16:28Z</time>
      </trkpt>
      <trkpt lat="35.2386474609375" lon="23.987274169921875">
        <ele>202.495</ele>
        <time>2011-06-15T13:16:38Z</time>
      </trkpt>
      <trkpt lat="35.238518714904785" lon="23.987209796905518">
        <ele>199.13</ele>
        <time>2011-06-15T13:16:47Z</time>
      </trkpt>
      <trkpt lat="35.238475799560547" lon="23.987188339233398">
        <ele>195.76599999999999</ele>
        <time>2011-06-15T13:16:55Z</time>
      </trkpt>
      <trkpt lat="35.23838996887207" lon="23.98714542388916">
        <ele>190.47800000000001</ele>
        <time>2011-06-15T13:17:08Z</time>
      </trkpt>
      <trkpt lat="35.238347053527832" lon="23.98714542388916">
        <ele>188.07499999999999</ele>
        <time>2011-06-15T13:17:15Z</time>
      </trkpt>
      <trkpt lat="35.238304138183594" lon="23.987188339233398">
        <ele>186.15199999999999</ele>
        <time>2011-06-15T13:17:22Z</time>
      </trkpt>
      <trkpt lat="35.238261222839355" lon="23.987166881561279">
        <ele>184.71100000000001</ele>
        <time>2011-06-15T13:17:25Z</time>
      </trkpt>
      <trkpt lat="35.23815393447876" lon="23.987102508544922">
        <ele>182.78800000000001</ele>
        <time>2011-06-15T13:17:35Z</time>
      </trkpt>
      <trkpt lat="35.238132476806641" lon="23.987081050872803">
        <ele>182.78800000000001</ele>
        <time>2011-06-15T13:17:37Z</time>
      </trkpt>
      <trkpt lat="35.238068103790283" lon="23.986973762512207">
        <ele>180.86500000000001</ele>
        <time>2011-06-15T13:17:47Z</time>
      </trkpt>
      <trkpt lat="35.238046646118164" lon="23.986952304840088">
        <ele>181.346</ele>
        <time>2011-06-15T13:17:49Z</time>
      </trkpt>
      <trkpt lat="35.238025188446045" lon="23.986930847167969">
        <ele>181.82599999999999</ele>
        <time>2011-06-15T13:17:51Z</time>
      </trkpt>
      <trkpt lat="35.238003730773926" lon="23.98688793182373">
        <ele>180.86500000000001</ele>
        <time>2011-06-15T13:17:54Z</time>
      </trkpt>
      <trkpt lat="35.237960815429688" lon="23.986866474151611">
        <ele>177.02000000000001</ele>
        <time>2011-06-15T13:18:03Z</time>
      </trkpt>
      <trkpt lat="35.237939357757568" lon="23.986866474151611">
        <ele>176.059</ele>
        <time>2011-06-15T13:18:05Z</time>
      </trkpt>
      <trkpt lat="35.237917900085449" lon="23.98688793182373">
        <ele>174.136</ele>
        <time>2011-06-15T13:18:11Z</time>
      </trkpt>
      <trkpt lat="35.237810611724854" lon="23.986845016479492">
        <ele>168.84899999999999</ele>
        <time>2011-06-15T13:18:20Z</time>
      </trkpt>
      <trkpt lat="35.237746238708496" lon="23.986845016479492">
        <ele>166.92599999999999</ele>
        <time>2011-06-15T13:18:26Z</time>
      </trkpt>
      <trkpt lat="35.237703323364258" lon="23.986780643463135">
        <ele>166.92599999999999</ele>
        <time>2011-06-15T13:18:34Z</time>
      </trkpt>
      <trkpt lat="35.23766040802002" lon="23.986737728118896">
        <ele>166.92599999999999</ele>
        <time>2011-06-15T13:18:41Z</time>
      </trkpt>
      <trkpt lat="35.237574577331543" lon="23.986673355102539">
        <ele>166.92599999999999</ele>
        <time>2011-06-15T13:18:51Z</time>
      </trkpt>
      <trkpt lat="35.237531661987305" lon="23.986673355102539">
        <ele>164.042</ele>
        <time>2011-06-15T13:18:58Z</time>
      </trkpt>
      <trkpt lat="35.237467288970947" lon="23.98665189743042">
        <ele>159.23500000000001</ele>
        <time>2011-06-15T13:19:08Z</time>
      </trkpt>
      <trkpt lat="35.237445831298828" lon="23.98665189743042">
        <ele>159.23500000000001</ele>
        <time>2011-06-15T13:19:09Z</time>
      </trkpt>
      <trkpt lat="35.237445831298828" lon="23.986630439758301">
        <ele>158.274</ele>
        <time>2011-06-15T13:19:11Z</time>
      </trkpt>
      <trkpt lat="35.237381458282471" lon="23.986566066741943">
        <ele>155.87100000000001</ele>
        <time>2011-06-15T13:19:19Z</time>
      </trkpt>
      <trkpt lat="35.237360000610352" lon="23.986566066741943">
        <ele>154.91</ele>
        <time>2011-06-15T13:19:22Z</time>
      </trkpt>
      <trkpt lat="35.237338542938232" lon="23.986544609069824">
        <ele>153.46799999999999</ele>
        <time>2011-06-15T13:19:24Z</time>
      </trkpt>
      <trkpt lat="35.237274169921875" lon="23.986501693725586">
        <ele>150.10300000000001</ele>
        <time>2011-06-15T13:19:34Z</time>
      </trkpt>
      <trkpt lat="35.237274169921875" lon="23.986480236053467">
        <ele>149.62200000000001</ele>
        <time>2011-06-15T13:19:35Z</time>
      </trkpt>
      <trkpt lat="35.237231254577637" lon="23.986437320709229">
        <ele>148.18000000000001</ele>
        <time>2011-06-15T13:19:40Z</time>
      </trkpt>
      <trkpt lat="35.237209796905518" lon="23.986372947692871">
        <ele>146.25800000000001</ele>
        <time>2011-06-15T13:19:47Z</time>
      </trkpt>
      <trkpt lat="35.237209796905518" lon="23.986287117004395">
        <ele>145.29599999999999</ele>
        <time>2011-06-15T13:19:55Z</time>
      </trkpt>
      <trkpt lat="35.237102508544922" lon="23.986222743988037">
        <ele>144.33500000000001</ele>
        <time>2011-06-15T13:20:06Z</time>
      </trkpt>
      <trkpt lat="35.236995220184326" lon="23.986201286315918">
        <ele>143.374</ele>
        <time>2011-06-15T13:20:15Z</time>
      </trkpt>
      <trkpt lat="35.236973762512207" lon="23.986179828643799">
        <ele>142.893</ele>
        <time>2011-06-15T13:20:17Z</time>
      </trkpt>
      <trkpt lat="35.236930847167969" lon="23.986201286315918">
        <ele>140.97</ele>
        <time>2011-06-15T13:20:21Z</time>
      </trkpt>
      <trkpt lat="35.236823558807373" lon="23.986179828643799">
        <ele>139.048</ele>
        <time>2011-06-15T13:20:31Z</time>
      </trkpt>
      <trkpt lat="35.236780643463135" lon="23.98615837097168">
        <ele>138.08699999999999</ele>
        <time>2011-06-15T13:20:36Z</time>
      </trkpt>
      <trkpt lat="35.236759185791016" lon="23.98615837097168">
        <ele>137.60599999999999</ele>
        <time>2011-06-15T13:20:38Z</time>
      </trkpt>
      <trkpt lat="35.236673355102539" lon="23.986115455627441">
        <ele>135.68299999999999</ele>
        <time>2011-06-15T13:20:48Z</time>
      </trkpt>
      <trkpt lat="35.236608982086182" lon="23.986072540283203">
        <ele>134.72200000000001</ele>
        <time>2011-06-15T13:20:57Z</time>
      </trkpt>
      <trkpt lat="35.236587524414063" lon="23.986072540283203">
        <ele>134.24100000000001</ele>
        <time>2011-06-15T13:20:58Z</time>
      </trkpt>
      <trkpt lat="35.236587524414063" lon="23.986072540283203">
        <ele>133.75999999999999</ele>
        <time>2011-06-15T13:21:00Z</time>
      </trkpt>
      <trkpt lat="35.236566066741943" lon="23.986072540283203">
        <ele>133.28</ele>
        <time>2011-06-15T13:21:02Z</time>
      </trkpt>
      <trkpt lat="35.236523151397705" lon="23.986072540283203">
        <ele>128.47300000000001</ele>
        <time>2011-06-15T13:21:13Z</time>
      </trkpt>
      <trkpt lat="35.236501693725586" lon="23.986072540283203">
        <ele>127.512</ele>
        <time>2011-06-15T13:21:15Z</time>
      </trkpt>
      <trkpt lat="35.236458778381348" lon="23.986051082611084">
        <ele>125.589</ele>
        <time>2011-06-15T13:21:18Z</time>
      </trkpt>
      <trkpt lat="35.236437320709229" lon="23.986029624938965">
        <ele>124.14700000000001</ele>
        <time>2011-06-15T13:21:21Z</time>
      </trkpt>
      <trkpt lat="35.23639440536499" lon="23.985986709594727">
        <ele>124.14700000000001</ele>
        <time>2011-06-15T13:21:26Z</time>
      </trkpt>
      <trkpt lat="35.236330032348633" lon="23.985943794250488">
        <ele>125.10899999999999</ele>
        <time>2011-06-15T13:21:36Z</time>
      </trkpt>
      <trkpt lat="35.236308574676514" lon="23.98590087890625">
        <ele>125.10899999999999</ele>
        <time>2011-06-15T13:21:41Z</time>
      </trkpt>
      <trkpt lat="35.236287117004395" lon="23.985857963562012">
        <ele>125.589</ele>
        <time>2011-06-15T13:21:43Z</time>
      </trkpt>
      <trkpt lat="35.236244201660156" lon="23.985857963562012">
        <ele>126.06999999999999</ele>
        <time>2011-06-15T13:21:46Z</time>
      </trkpt>
      <trkpt lat="35.236222743988037" lon="23.985836505889893">
        <ele>126.06999999999999</ele>
        <time>2011-06-15T13:21:49Z</time>
      </trkpt>
      <trkpt lat="35.236179828643799" lon="23.985815048217773">
        <ele>125.589</ele>
        <time>2011-06-15T13:21:54Z</time>
      </trkpt>
      <trkpt lat="35.236136913299561" lon="23.985793590545654">
        <ele>124.628</ele>
        <time>2011-06-15T13:22:00Z</time>
      </trkpt>
      <trkpt lat="35.236115455627441" lon="23.985772132873535">
        <ele>124.628</ele>
        <time>2011-06-15T13:22:03Z</time>
      </trkpt>
      <trkpt lat="35.236072540283203" lon="23.985750675201416">
        <ele>124.628</ele>
        <time>2011-06-15T13:22:07Z</time>
      </trkpt>
      <trkpt lat="35.236029624938965" lon="23.985707759857178">
        <ele>124.14700000000001</ele>
        <time>2011-06-15T13:22:14Z</time>
      </trkpt>
      <trkpt lat="35.235986709594727" lon="23.985686302185059">
        <ele>125.10899999999999</ele>
        <time>2011-06-15T13:22:17Z</time>
      </trkpt>
      <trkpt lat="35.235922336578369" lon="23.98564338684082">
        <ele>128.47300000000001</ele>
        <time>2011-06-15T13:22:24Z</time>
      </trkpt>
      <trkpt lat="35.235879421234131" lon="23.98564338684082">
        <ele>129.435</ele>
        <time>2011-06-15T13:22:27Z</time>
      </trkpt>
      <trkpt lat="35.235815048217773" lon="23.98564338684082">
        <ele>131.83799999999999</ele>
        <time>2011-06-15T13:22:33Z</time>
      </trkpt>
      <trkpt lat="35.235772132873535" lon="23.98564338684082">
        <ele>133.28</ele>
        <time>2011-06-15T13:22:37Z</time>
      </trkpt>
      <trkpt lat="35.235729217529297" lon="23.985621929168701">
        <ele>132.79900000000001</ele>
        <time>2011-06-15T13:22:43Z</time>
      </trkpt>
      <trkpt lat="35.235686302185059" lon="23.985579013824463">
        <ele>131.83799999999999</ele>
        <time>2011-06-15T13:22:48Z</time>
      </trkpt>
      <trkpt lat="35.235600471496582" lon="23.985557556152344">
        <ele>128.95400000000001</ele>
        <time>2011-06-15T13:22:57Z</time>
      </trkpt>
      <trkpt lat="35.235536098480225" lon="23.985514640808105">
        <ele>126.551</ele>
        <time>2011-06-15T13:23:03Z</time>
      </trkpt>
      <trkpt lat="35.235471725463867" lon="23.985471725463867">
        <ele>123.667</ele>
        <time>2011-06-15T13:23:13Z</time>
      </trkpt>
      <trkpt lat="35.235342979431152" lon="23.985493183135986">
        <ele>120.30200000000001</ele>
        <time>2011-06-15T13:23:25Z</time>
      </trkpt>
      <trkpt lat="35.235342979431152" lon="23.985493183135986">
        <ele>119.821</ele>
        <time>2011-06-15T13:23:26Z</time>
      </trkpt>
      <trkpt lat="35.235300064086914" lon="23.985493183135986">
        <ele>118.86</ele>
        <time>2011-06-15T13:23:30Z</time>
      </trkpt>
      <trkpt lat="35.235235691070557" lon="23.985428810119629">
        <ele>114.054</ele>
        <time>2011-06-15T13:23:42Z</time>
      </trkpt>
      <trkpt lat="35.235192775726318" lon="23.985428810119629">
        <ele>110.68899999999999</ele>
        <time>2011-06-15T13:23:49Z</time>
      </trkpt>
      <trkpt lat="35.235171318054199" lon="23.985385894775391">
        <ele>109.247</ele>
        <time>2011-06-15T13:23:53Z</time>
      </trkpt>
      <trkpt lat="35.235128402709961" lon="23.985385894775391">
        <ele>108.76600000000001</ele>
        <time>2011-06-15T13:23:56Z</time>
      </trkpt>
      <trkpt lat="35.235085487365723" lon="23.985385894775391">
        <ele>108.286</ele>
        <time>2011-06-15T13:23:59Z</time>
      </trkpt>
      <trkpt lat="35.234999656677246" lon="23.985364437103271">
        <ele>109.247</ele>
        <time>2011-06-15T13:24:04Z</time>
      </trkpt>
      <trkpt lat="35.23491382598877" lon="23.985342979431152">
        <ele>109.72799999999999</ele>
        <time>2011-06-15T13:24:14Z</time>
      </trkpt>
      <trkpt lat="35.234849452972412" lon="23.985300064086914">
        <ele>109.247</ele>
        <time>2011-06-15T13:24:21Z</time>
      </trkpt>
      <trkpt lat="35.234827995300293" lon="23.985364437103271">
        <ele>109.72799999999999</ele>
        <time>2011-06-15T13:24:25Z</time>
      </trkpt>
      <trkpt lat="35.234763622283936" lon="23.985385894775391">
        <ele>109.72799999999999</ele>
        <time>2011-06-15T13:24:33Z</time>
      </trkpt>
      <trkpt lat="35.234720706939697" lon="23.985385894775391">
        <ele>109.247</ele>
        <time>2011-06-15T13:24:36Z</time>
      </trkpt>
      <trkpt lat="35.234634876251221" lon="23.985471725463867">
        <ele>108.286</ele>
        <time>2011-06-15T13:24:48Z</time>
      </trkpt>
      <trkpt lat="35.234591960906982" lon="23.985471725463867">
        <ele>107.80500000000001</ele>
        <time>2011-06-15T13:24:53Z</time>
      </trkpt>
      <trkpt lat="35.234527587890625" lon="23.985557556152344">
        <ele>106.363</ele>
        <time>2011-06-15T13:25:00Z</time>
      </trkpt>
      <trkpt lat="35.234463214874268" lon="23.985579013824463">
        <ele>105.402</ele>
        <time>2011-06-15T13:25:05Z</time>
      </trkpt>
      <trkpt lat="35.23439884185791" lon="23.985579013824463">
        <ele>102.03700000000001</ele>
        <time>2011-06-15T13:25:13Z</time>
      </trkpt>
      <trkpt lat="35.234355926513672" lon="23.985664844512939">
        <ele>96.269000000000005</ele>
        <time>2011-06-15T13:25:21Z</time>
      </trkpt>
      <trkpt lat="35.234313011169434" lon="23.985750675201416">
        <ele>94.346999999999994</ele>
        <time>2011-06-15T13:25:29Z</time>
      </trkpt>
      <trkpt lat="35.234291553497314" lon="23.985772132873535">
        <ele>93.385000000000005</ele>
        <time>2011-06-15T13:25:32Z</time>
      </trkpt>
      <trkpt lat="35.234227180480957" lon="23.985793590545654">
        <ele>92.905000000000001</ele>
        <time>2011-06-15T13:25:41Z</time>
      </trkpt>
      <trkpt lat="35.234227180480957" lon="23.985793590545654">
        <ele>92.424000000000007</ele>
        <time>2011-06-15T13:25:42Z</time>
      </trkpt>
      <trkpt lat="35.234205722808838" lon="23.985857963562012">
        <ele>91.462999999999994</ele>
        <time>2011-06-15T13:25:50Z</time>
      </trkpt>
      <trkpt lat="35.2341628074646" lon="23.985922336578369">
        <ele>88.578999999999994</ele>
        <time>2011-06-15T13:25:57Z</time>
      </trkpt>
      <trkpt lat="35.234098434448242" lon="23.985943794250488">
        <ele>85.694999999999993</ele>
        <time>2011-06-15T13:26:04Z</time>
      </trkpt>
      <trkpt lat="35.234012603759766" lon="23.985986709594727">
        <ele>79.927000000000007</ele>
        <time>2011-06-15T13:26:14Z</time>
      </trkpt>
      <trkpt lat="35.233926773071289" lon="23.986072540283203">
        <ele>74.640000000000001</ele>
        <time>2011-06-15T13:26:27Z</time>
      </trkpt>
      <trkpt lat="35.23390531539917" lon="23.986093997955322">
        <ele>74.640000000000001</ele>
        <time>2011-06-15T13:26:30Z</time>
      </trkpt>
      <trkpt lat="35.233840942382812" lon="23.986136913299561">
        <ele>74.159000000000006</ele>
        <time>2011-06-15T13:26:38Z</time>
      </trkpt>
      <trkpt lat="35.233798027038574" lon="23.986179828643799">
        <ele>73.677999999999997</ele>
        <time>2011-06-15T13:26:43Z</time>
      </trkpt>
      <trkpt lat="35.233733654022217" lon="23.986222743988037">
        <ele>73.677999999999997</ele>
        <time>2011-06-15T13:26:53Z</time>
      </trkpt>
      <trkpt lat="35.233690738677979" lon="23.986244201660156">
        <ele>73.197999999999993</ele>
        <time>2011-06-15T13:26:57Z</time>
      </trkpt>
      <trkpt lat="35.233669281005859" lon="23.986244201660156">
        <ele>73.197999999999993</ele>
        <time>2011-06-15T13:26:59Z</time>
      </trkpt>
      <trkpt lat="35.233626365661621" lon="23.986222743988037">
        <ele>73.197999999999993</ele>
        <time>2011-06-15T13:27:01Z</time>
      </trkpt>
      <trkpt lat="35.233583450317383" lon="23.986244201660156">
        <ele>72.716999999999999</ele>
        <time>2011-06-15T13:27:06Z</time>
      </trkpt>
      <trkpt lat="35.233540534973145" lon="23.986287117004395">
        <ele>72.716999999999999</ele>
        <time>2011-06-15T13:27:09Z</time>
      </trkpt>
      <trkpt lat="35.233454704284668" lon="23.986244201660156">
        <ele>72.716999999999999</ele>
        <time>2011-06-15T13:27:15Z</time>
      </trkpt>
      <trkpt lat="35.23341178894043" lon="23.986201286315918">
        <ele>72.716999999999999</ele>
        <time>2011-06-15T13:27:20Z</time>
      </trkpt>
      <trkpt lat="35.233390331268311" lon="23.98615837097168">
        <ele>72.716999999999999</ele>
        <time>2011-06-15T13:27:22Z</time>
      </trkpt>
      <trkpt lat="35.233325958251953" lon="23.986115455627441">
        <ele>71.275000000000006</ele>
        <time>2011-06-15T13:27:30Z</time>
      </trkpt>
      <trkpt lat="35.233283042907715" lon="23.986029624938965">
        <ele>68.872</ele>
        <time>2011-06-15T13:27:39Z</time>
      </trkpt>
      <trkpt lat="35.233261585235596" lon="23.986008167266846">
        <ele>68.391000000000005</ele>
        <time>2011-06-15T13:27:46Z</time>
      </trkpt>
      <trkpt lat="35.233197212219238" lon="23.985965251922607">
        <ele>67.909999999999997</ele>
        <time>2011-06-15T13:27:55Z</time>
      </trkpt>
      <trkpt lat="35.233132839202881" lon="23.985965251922607">
        <ele>66.948999999999998</ele>
        <time>2011-06-15T13:28:01Z</time>
      </trkpt>
      <trkpt lat="35.233025550842285" lon="23.986115455627441">
        <ele>65.507000000000005</ele>
        <time>2011-06-15T13:28:15Z</time>
      </trkpt>
      <trkpt lat="35.232939720153809" lon="23.98615837097168">
        <ele>69.832999999999998</ele>
        <time>2011-06-15T13:28:26Z</time>
      </trkpt>
      <trkpt lat="35.232875347137451" lon="23.986179828643799">
        <ele>73.677999999999997</ele>
        <time>2011-06-15T13:28:34Z</time>
      </trkpt>
      <trkpt lat="35.232832431793213" lon="23.986179828643799">
        <ele>75.600999999999999</ele>
        <time>2011-06-15T13:28:38Z</time>
      </trkpt>
      <trkpt lat="35.232768058776855" lon="23.986136913299561">
        <ele>76.081000000000003</ele>
        <time>2011-06-15T13:28:43Z</time>
      </trkpt>
      <trkpt lat="35.232725143432617" lon="23.986115455627441">
        <ele>78.484999999999999</ele>
        <time>2011-06-15T13:28:47Z</time>
      </trkpt>
      <trkpt lat="35.23266077041626" lon="23.986136913299561">
        <ele>81.369</ele>
        <time>2011-06-15T13:28:54Z</time>
      </trkpt>
      <trkpt lat="35.232553482055664" lon="23.986093997955322">
        <ele>82.811000000000007</ele>
        <time>2011-06-15T13:29:02Z</time>
      </trkpt>
      <trkpt lat="35.232532024383545" lon="23.986072540283203">
        <ele>83.290999999999997</ele>
        <time>2011-06-15T13:29:05Z</time>
      </trkpt>
      <trkpt lat="35.232446193695068" lon="23.986072540283203">
        <ele>85.213999999999999</ele>
        <time>2011-06-15T13:29:12Z</time>
      </trkpt>
      <trkpt lat="35.232424736022949" lon="23.986072540283203">
        <ele>86.656000000000006</ele>
        <time>2011-06-15T13:29:17Z</time>
      </trkpt>
      <trkpt lat="35.232338905334473" lon="23.986029624938965">
        <ele>85.694999999999993</ele>
        <time>2011-06-15T13:29:23Z</time>
      </trkpt>
      <trkpt lat="35.232295989990234" lon="23.986051082611084">
        <ele>84.733000000000004</ele>
        <time>2011-06-15T13:29:26Z</time>
      </trkpt>
      <trkpt lat="35.232253074645996" lon="23.986008167266846">
        <ele>83.290999999999997</ele>
        <time>2011-06-15T13:29:30Z</time>
      </trkpt>
      <trkpt lat="35.232210159301758" lon="23.986029624938965">
        <ele>80.406999999999996</ele>
        <time>2011-06-15T13:29:36Z</time>
      </trkpt>
      <trkpt lat="35.23216724395752" lon="23.986008167266846">
        <ele>78.004000000000005</ele>
        <time>2011-06-15T13:29:40Z</time>
      </trkpt>
      <trkpt lat="35.232038497924805" lon="23.98590087890625">
        <ele>70.313000000000002</ele>
        <time>2011-06-15T13:29:49Z</time>
      </trkpt>
      <trkpt lat="35.231952667236328" lon="23.985836505889893">
        <ele>68.872</ele>
        <time>2011-06-15T13:29:54Z</time>
      </trkpt>
      <trkpt lat="35.231845378875732" lon="23.985686302185059">
        <ele>65.025999999999996</ele>
        <time>2011-06-15T13:29:59Z</time>
      </trkpt>
      <trkpt lat="35.231716632843018" lon="23.985686302185059">
        <ele>63.103999999999999</ele>
        <time>2011-06-15T13:30:07Z</time>
      </trkpt>
      <trkpt lat="35.231695175170898" lon="23.985686302185059">
        <ele>63.103999999999999</ele>
        <time>2011-06-15T13:30:10Z</time>
      </trkpt>
      <trkpt lat="35.231587886810303" lon="23.985686302185059">
        <ele>63.584000000000003</ele>
        <time>2011-06-15T13:30:18Z</time>
      </trkpt>
      <trkpt lat="35.231480598449707" lon="23.985621929168701">
        <ele>57.335999999999999</ele>
        <time>2011-06-15T13:30:33Z</time>
      </trkpt>
      <trkpt lat="35.231437683105469" lon="23.985600471496582">
        <ele>56.375</ele>
        <time>2011-06-15T13:30:36Z</time>
      </trkpt>
      <trkpt lat="35.231330394744873" lon="23.985536098480225">
        <ele>55.893999999999998</ele>
        <time>2011-06-15T13:30:44Z</time>
      </trkpt>
      <trkpt lat="35.231244564056396" lon="23.985536098480225">
        <ele>56.854999999999997</ele>
        <time>2011-06-15T13:30:52Z</time>
      </trkpt>
      <trkpt lat="35.231201648712158" lon="23.985536098480225">
        <ele>56.854999999999997</ele>
        <time>2011-06-15T13:30:54Z</time>
      </trkpt>
      <trkpt lat="35.23115873336792" lon="23.985514640808105">
        <ele>57.817</ele>
        <time>2011-06-15T13:30:59Z</time>
      </trkpt>
      <trkpt lat="35.231029987335205" lon="23.985493183135986">
        <ele>58.777999999999999</ele>
        <time>2011-06-15T13:31:08Z</time>
      </trkpt>
      <trkpt lat="35.230965614318848" lon="23.985621929168701">
        <ele>58.296999999999997</ele>
        <time>2011-06-15T13:31:18Z</time>
      </trkpt>
      <trkpt lat="35.23090124130249" lon="23.985772132873535">
        <ele>57.817</ele>
        <time>2011-06-15T13:31:26Z</time>
      </trkpt>
      <trkpt lat="35.23090124130249" lon="23.985815048217773">
        <ele>57.817</ele>
        <time>2011-06-15T13:31:28Z</time>
      </trkpt>
      <trkpt lat="35.230922698974609" lon="23.985879421234131">
        <ele>57.817</ele>
        <time>2011-06-15T13:31:31Z</time>
      </trkpt>
      <trkpt lat="35.230879783630371" lon="23.985922336578369">
        <ele>56.854999999999997</ele>
        <time>2011-06-15T13:31:38Z</time>
      </trkpt>
      <trkpt lat="35.230836868286133" lon="23.985986709594727">
        <ele>54.932000000000002</ele>
        <time>2011-06-15T13:31:47Z</time>
      </trkpt>
      <trkpt lat="35.230836868286133" lon="23.986008167266846">
        <ele>54.451999999999998</ele>
        <time>2011-06-15T13:31:50Z</time>
      </trkpt>
      <trkpt lat="35.23090124130249" lon="23.986630439758301">
        <ele>50.125999999999998</ele>
        <time>2011-06-15T13:32:05Z</time>
      </trkpt>
      <trkpt lat="35.230772495269775" lon="23.987016677856445">
        <ele>48.203000000000003</ele>
        <time>2011-06-15T13:32:12Z</time>
      </trkpt>
      <trkpt lat="35.230600833892822" lon="23.986866474151611">
        <ele>52.529000000000003</ele>
        <time>2011-06-15T13:32:18Z</time>
      </trkpt>
      <trkpt lat="35.230579376220703" lon="23.98688793182373">
        <ele>53.970999999999997</ele>
        <time>2011-06-15T13:32:25Z</time>
      </trkpt>
      <trkpt lat="35.230472087860107" lon="23.986823558807373">
        <ele>57.335999999999999</ele>
        <time>2011-06-15T13:32:34Z</time>
      </trkpt>
      <trkpt lat="35.23040771484375" lon="23.986716270446777">
        <ele>53.970999999999997</ele>
        <time>2011-06-15T13:32:40Z</time>
      </trkpt>
      <trkpt lat="35.230364799499512" lon="23.986587524414063">
        <ele>47.722999999999999</ele>
        <time>2011-06-15T13:32:42Z</time>
      </trkpt>
      <trkpt lat="35.230278968811035" lon="23.986523151397705">
        <ele>39.551000000000002</ele>
        <time>2011-06-15T13:32:50Z</time>
      </trkpt>
      <trkpt lat="35.230171680450439" lon="23.98639440536499">
        <ele>33.302999999999997</ele>
        <time>2011-06-15T13:32:59Z</time>
      </trkpt>
      <trkpt lat="35.23015022277832" lon="23.986351490020752">
        <ele>32.341999999999999</ele>
        <time>2011-06-15T13:33:04Z</time>
      </trkpt>
      <trkpt lat="35.23015022277832" lon="23.986330032348633">
        <ele>31.861000000000001</ele>
        <time>2011-06-15T13:33:06Z</time>
      </trkpt>
      <trkpt lat="35.230193138122559" lon="23.986287117004395">
        <ele>28.495999999999999</ele>
        <time>2011-06-15T13:33:11Z</time>
      </trkpt>
      <trkpt lat="35.230214595794678" lon="23.986244201660156">
        <ele>26.574000000000002</ele>
        <time>2011-06-15T13:33:16Z</time>
      </trkpt>
      <trkpt lat="35.230236053466797" lon="23.986222743988037">
        <ele>26.574000000000002</ele>
        <time>2011-06-15T13:33:20Z</time>
      </trkpt>
      <trkpt lat="35.230236053466797" lon="23.986201286315918">
        <ele>26.574000000000002</ele>
        <time>2011-06-15T13:33:22Z</time>
      </trkpt>
      <trkpt lat="35.230236053466797" lon="23.98615837097168">
        <ele>27.053999999999998</ele>
        <time>2011-06-15T13:33:25Z</time>
      </trkpt>
      <trkpt lat="35.230214595794678" lon="23.986136913299561">
        <ele>27.535</ele>
        <time>2011-06-15T13:33:27Z</time>
      </trkpt>
      <trkpt lat="35.230193138122559" lon="23.986115455627441">
        <ele>28.015999999999998</ele>
        <time>2011-06-15T13:33:29Z</time>
      </trkpt>
      <trkpt lat="35.230128765106201" lon="23.986072540283203">
        <ele>28.977</ele>
        <time>2011-06-15T13:33:39Z</time>
      </trkpt>
      <trkpt lat="35.230128765106201" lon="23.986072540283203">
        <ele>26.093</ele>
        <time>2011-06-15T13:33:43Z</time>
      </trkpt>
      <trkpt lat="35.230128765106201" lon="23.986115455627441">
        <ele>23.209</ele>
        <time>2011-06-15T13:33:52Z</time>
      </trkpt>
      <trkpt lat="35.23015022277832" lon="23.986093997955322">
        <ele>22.248000000000001</ele>
        <time>2011-06-15T13:33:59Z</time>
      </trkpt>
      <trkpt lat="35.23015022277832" lon="23.986051082611084">
        <ele>21.766999999999999</ele>
        <time>2011-06-15T13:34:03Z</time>
      </trkpt>
      <trkpt lat="35.23015022277832" lon="23.985965251922607">
        <ele>20.806000000000001</ele>
        <time>2011-06-15T13:34:09Z</time>
      </trkpt>
      <trkpt lat="35.23015022277832" lon="23.985943794250488">
        <ele>20.324999999999999</ele>
        <time>2011-06-15T13:34:11Z</time>
      </trkpt>
      <trkpt lat="35.23015022277832" lon="23.98590087890625">
        <ele>19.844000000000001</ele>
        <time>2011-06-15T13:34:15Z</time>
      </trkpt>
      <trkpt lat="35.230128765106201" lon="23.985836505889893">
        <ele>19.844000000000001</ele>
        <time>2011-06-15T13:34:24Z</time>
      </trkpt>
      <trkpt lat="35.230128765106201" lon="23.985750675201416">
        <ele>19.364000000000001</ele>
        <time>2011-06-15T13:34:36Z</time>
      </trkpt>
      <trkpt lat="35.23015022277832" lon="23.985686302185059">
        <ele>19.364000000000001</ele>
        <time>2011-06-15T13:34:41Z</time>
      </trkpt>
      <trkpt lat="35.23015022277832" lon="23.98564338684082">
        <ele>19.364000000000001</ele>
        <time>2011-06-15T13:34:44Z</time>
      </trkpt>
      <trkpt lat="35.23015022277832" lon="23.985579013824463">
        <ele>18.882999999999999</ele>
        <time>2011-06-15T13:34:51Z</time>
      </trkpt>
      <trkpt lat="35.23015022277832" lon="23.985536098480225">
        <ele>18.882999999999999</ele>
        <time>2011-06-15T13:34:54Z</time>
      </trkpt>
      <trkpt lat="35.230171680450439" lon="23.985364437103271">
        <ele>15.518000000000001</ele>
        <time>2011-06-15T13:35:03Z</time>
      </trkpt>
      <trkpt lat="35.230171680450439" lon="23.985257148742676">
        <ele>15.038</ele>
        <time>2011-06-15T13:35:11Z</time>
      </trkpt>
      <trkpt lat="35.23015022277832" lon="23.98514986038208">
        <ele>14.557</ele>
        <time>2011-06-15T13:35:19Z</time>
      </trkpt>
      <trkpt lat="35.230107307434082" lon="23.985128402709961">
        <ele>13.596</ele>
        <time>2011-06-15T13:35:24Z</time>
      </trkpt>
      <trkpt lat="35.230085849761963" lon="23.985021114349365">
        <ele>11.673</ele>
        <time>2011-06-15T13:35:33Z</time>
      </trkpt>
      <trkpt lat="35.230085849761963" lon="23.984978199005127">
        <ele>10.231</ele>
        <time>2011-06-15T13:35:37Z</time>
      </trkpt>
      <trkpt lat="35.230107307434082" lon="23.984956741333008">
        <ele>8.308999999999999</ele>
        <time>2011-06-15T13:35:42Z</time>
      </trkpt>
      <trkpt lat="35.230085849761963" lon="23.98489236831665">
        <ele>6.866</ele>
        <time>2011-06-15T13:35:46Z</time>
      </trkpt>
      <trkpt lat="35.230085849761963" lon="23.984849452972412">
        <ele>4.463</ele>
        <time>2011-06-15T13:35:50Z</time>
      </trkpt>
      <trkpt lat="35.230085849761963" lon="23.984849452972412">
        <ele>4.463</ele>
        <time>2011-06-15T13:35:51Z</time>
      </trkpt>
      <trkpt lat="35.230107307434082" lon="23.984785079956055">
        <ele>-1.305</ele>
        <time>2011-06-15T13:35:58Z</time>
      </trkpt>
      <trkpt lat="35.230085849761963" lon="23.984763622283936">
        <ele>-1.785</ele>
        <time>2011-06-15T13:35:59Z</time>
      </trkpt>
      <trkpt lat="35.230128765106201" lon="23.98465633392334">
        <ele>-5.15</ele>
        <time>2011-06-15T13:36:07Z</time>
      </trkpt>
      <trkpt lat="35.230128765106201" lon="23.984634876251221">
        <ele>-5.63</ele>
        <time>2011-06-15T13:36:08Z</time>
      </trkpt>
      <trkpt lat="35.230171680450439" lon="23.984527587890625">
        <ele>-7.553</ele>
        <time>2011-06-15T13:36:15Z</time>
      </trkpt>
      <trkpt lat="35.230193138122559" lon="23.984463214874268">
        <ele>-8.515000000000001</ele>
        <time>2011-06-15T13:36:20Z</time>
      </trkpt>
      <trkpt lat="35.230214595794678" lon="23.98439884185791">
        <ele>-10.917999999999999</ele>
        <time>2011-06-15T13:36:24Z</time>
      </trkpt>
      <trkpt lat="35.230257511138916" lon="23.984270095825195">
        <ele>-15.244</ele>
        <time>2011-06-15T13:36:32Z</time>
      </trkpt>
      <trkpt lat="35.230278968811035" lon="23.984205722808838">
        <ele>-17.646999999999998</ele>
        <time>2011-06-15T13:36:36Z</time>
      </trkpt>
      <trkpt lat="35.230300426483154" lon="23.98414134979248">
        <ele>-18.608000000000001</ele>
        <time>2011-06-15T13:36:40Z</time>
      </trkpt>
      <trkpt lat="35.230300426483154" lon="23.984119892120361">
        <ele>-18.608000000000001</ele>
        <time>2011-06-15T13:36:42Z</time>
      </trkpt>
      <trkpt lat="35.230321884155273" lon="23.984098434448242">
        <ele>-18.608000000000001</ele>
        <time>2011-06-15T13:36:44Z</time>
      </trkpt>
      <trkpt lat="35.230321884155273" lon="23.984034061431885">
        <ele>-18.128</ele>
        <time>2011-06-15T13:36:48Z</time>
      </trkpt>
      <trkpt lat="35.230343341827393" lon="23.983969688415527">
        <ele>-16.686</ele>
        <time>2011-06-15T13:36:52Z</time>
      </trkpt>
      <trkpt lat="35.230386257171631" lon="23.983862400054932">
        <ele>-15.724</ele>
        <time>2011-06-15T13:37:00Z</time>
      </trkpt>
      <trkpt lat="35.23040771484375" lon="23.983840942382812">
        <ele>-15.244</ele>
        <time>2011-06-15T13:37:02Z</time>
      </trkpt>
      <trkpt lat="35.230429172515869" lon="23.983798027038574">
        <ele>-14.763</ele>
        <time>2011-06-15T13:37:04Z</time>
      </trkpt>
      <trkpt lat="35.230429172515869" lon="23.983755111694336">
        <ele>-14.763</ele>
        <time>2011-06-15T13:37:08Z</time>
      </trkpt>
      <trkpt lat="35.230450630187988" lon="23.983712196350098">
        <ele>-14.282</ele>
        <time>2011-06-15T13:37:11Z</time>
      </trkpt>
      <trkpt lat="35.230450630187988" lon="23.983690738677979">
        <ele>-13.802</ele>
        <time>2011-06-15T13:37:13Z</time>
      </trkpt>
      <trkpt lat="35.230450630187988" lon="23.98364782333374">
        <ele>-14.282</ele>
        <time>2011-06-15T13:37:16Z</time>
      </trkpt>
      <trkpt lat="35.230493545532227" lon="23.983497619628906">
        <ele>-16.204999999999998</ele>
        <time>2011-06-15T13:37:27Z</time>
      </trkpt>
      <trkpt lat="35.230493545532227" lon="23.983476161956787">
        <ele>-17.646999999999998</ele>
        <time>2011-06-15T13:37:30Z</time>
      </trkpt>
      <trkpt lat="35.230536460876465" lon="23.983325958251953">
        <ele>-18.128</ele>
        <time>2011-06-15T13:37:40Z</time>
      </trkpt>
      <trkpt lat="35.230557918548584" lon="23.983197212219238">
        <ele>-17.646999999999998</ele>
        <time>2011-06-15T13:37:49Z</time>
      </trkpt>
      <trkpt lat="35.230579376220703" lon="23.983154296875">
        <ele>-17.166</ele>
        <time>2011-06-15T13:37:54Z</time>
      </trkpt>
      <trkpt lat="35.230600833892822" lon="23.983004093170166">
        <ele>-16.204999999999998</ele>
        <time>2011-06-15T13:38:03Z</time>
      </trkpt>
      <trkpt lat="35.230643749237061" lon="23.982918262481689">
        <ele>-14.763</ele>
        <time>2011-06-15T13:38:08Z</time>
      </trkpt>
      <trkpt lat="35.23066520690918" lon="23.982810974121094">
        <ele>-12.84</ele>
        <time>2011-06-15T13:38:14Z</time>
      </trkpt>
      <trkpt lat="35.23066520690918" lon="23.982789516448975">
        <ele>-12.359999999999999</ele>
        <time>2011-06-15T13:38:16Z</time>
      </trkpt>
      <trkpt lat="35.230686664581299" lon="23.982682228088379">
        <ele>-10.917999999999999</ele>
        <time>2011-06-15T13:38:25Z</time>
      </trkpt>
      <trkpt lat="35.230686664581299" lon="23.982682228088379">
        <ele>-11.879</ele>
        <time>2011-06-15T13:38:27Z</time>
      </trkpt>
      <trkpt lat="35.230729579925537" lon="23.982574939727783">
        <ele>-14.763</ele>
        <time>2011-06-15T13:38:33Z</time>
      </trkpt>
      <trkpt lat="35.230729579925537" lon="23.982532024383545">
        <ele>-14.763</ele>
        <time>2011-06-15T13:38:36Z</time>
      </trkpt>
      <trkpt lat="35.230815410614014" lon="23.982381820678711">
        <ele>-14.282</ele>
        <time>2011-06-15T13:38:46Z</time>
      </trkpt>
      <trkpt lat="35.230815410614014" lon="23.982317447662354">
        <ele>-14.763</ele>
        <time>2011-06-15T13:38:50Z</time>
      </trkpt>
      <trkpt lat="35.230858325958252" lon="23.982188701629639">
        <ele>-12.84</ele>
        <time>2011-06-15T13:39:00Z</time>
      </trkpt>
      <trkpt lat="35.230879783630371" lon="23.982102870941162">
        <ele>-10.917999999999999</ele>
        <time>2011-06-15T13:39:04Z</time>
      </trkpt>
      <trkpt lat="35.230879783630371" lon="23.982017040252686">
        <ele>-7.553</ele>
        <time>2011-06-15T13:39:11Z</time>
      </trkpt>
      <trkpt lat="35.23090124130249" lon="23.981952667236328">
        <ele>-5.15</ele>
        <time>2011-06-15T13:39:15Z</time>
      </trkpt>
      <trkpt lat="35.23090124130249" lon="23.98190975189209">
        <ele>-4.189</ele>
        <time>2011-06-15T13:39:17Z</time>
      </trkpt>
      <trkpt lat="35.230922698974609" lon="23.981781005859375">
        <ele>-1.785</ele>
        <time>2011-06-15T13:39:24Z</time>
      </trkpt>
      <trkpt lat="35.230987071990967" lon="23.98165225982666">
        <ele>3.021</ele>
        <time>2011-06-15T13:39:33Z</time>
      </trkpt>
      <trkpt lat="35.231029987335205" lon="23.981480598449707">
        <ele>3.983</ele>
        <time>2011-06-15T13:39:42Z</time>
      </trkpt>
      <trkpt lat="35.231029987335205" lon="23.981459140777588">
        <ele>3.983</ele>
        <time>2011-06-15T13:39:43Z</time>
      </trkpt>
      <trkpt lat="35.231029987335205" lon="23.98141622543335">
        <ele>3.983</ele>
        <time>2011-06-15T13:39:47Z</time>
      </trkpt>
      <trkpt lat="35.231029987335205" lon="23.981351852416992">
        <ele>3.983</ele>
        <time>2011-06-15T13:39:51Z</time>
      </trkpt>
      <trkpt lat="35.231029987335205" lon="23.981330394744873">
        <ele>4.463</ele>
        <time>2011-06-15T13:39:53Z</time>
      </trkpt>
      <trkpt lat="35.231051445007324" lon="23.981223106384277">
        <ele>4.463</ele>
        <time>2011-06-15T13:40:00Z</time>
      </trkpt>
      <trkpt lat="35.231072902679443" lon="23.981115818023682">
        <ele>4.463</ele>
        <time>2011-06-15T13:40:07Z</time>
      </trkpt>
      <trkpt lat="35.231094360351563" lon="23.981029987335205">
        <ele>5.425</ele>
        <time>2011-06-15T13:40:12Z</time>
      </trkpt>
      <trkpt lat="35.231094360351563" lon="23.980987071990967">
        <ele>4.944</ele>
        <time>2011-06-15T13:40:15Z</time>
      </trkpt>
      <trkpt lat="35.231094360351563" lon="23.980965614318848">
        <ele>4.944</ele>
        <time>2011-06-15T13:40:17Z</time>
      </trkpt>
      <trkpt lat="35.231137275695801" lon="23.980836868286133">
        <ele>3.983</ele>
        <time>2011-06-15T13:40:25Z</time>
      </trkpt>
      <trkpt lat="35.231137275695801" lon="23.980772495269775">
        <ele>3.021</ele>
        <time>2011-06-15T13:40:29Z</time>
      </trkpt>
      <trkpt lat="35.23115873336792" lon="23.98066520690918">
        <ele>1.579</ele>
        <time>2011-06-15T13:40:35Z</time>
      </trkpt>
      <trkpt lat="35.23115873336792" lon="23.980600833892822">
        <ele>1.099</ele>
        <time>2011-06-15T13:40:40Z</time>
      </trkpt>
      <trkpt lat="35.231180191040039" lon="23.980579376220703">
        <ele>1.099</ele>
        <time>2011-06-15T13:40:42Z</time>
      </trkpt>
      <trkpt lat="35.231201648712158" lon="23.980493545532227">
        <ele>0.618</ele>
        <time>2011-06-15T13:40:47Z</time>
      </trkpt>
      <trkpt lat="35.231223106384277" lon="23.980429172515869">
        <ele>0.137</ele>
        <time>2011-06-15T13:40:52Z</time>
      </trkpt>
      <trkpt lat="35.231244564056396" lon="23.980364799499512">
        <ele>0.618</ele>
        <time>2011-06-15T13:40:56Z</time>
      </trkpt>
      <trkpt lat="35.231266021728516" lon="23.980321884155273">
        <ele>1.099</ele>
        <time>2011-06-15T13:40:59Z</time>
      </trkpt>
      <trkpt lat="35.231287479400635" lon="23.980257511138916">
        <ele>1.579</ele>
        <time>2011-06-15T13:41:03Z</time>
      </trkpt>
      <trkpt lat="35.231308937072754" lon="23.980193138122559">
        <ele>2.541</ele>
        <time>2011-06-15T13:41:07Z</time>
      </trkpt>
      <trkpt lat="35.231308937072754" lon="23.98015022277832">
        <ele>2.541</ele>
        <time>2011-06-15T13:41:10Z</time>
      </trkpt>
      <trkpt lat="35.231330394744873" lon="23.98015022277832">
        <ele>2.541</ele>
        <time>2011-06-15T13:41:12Z</time>
      </trkpt>
      <trkpt lat="35.231330394744873" lon="23.980021476745605">
        <ele>1.579</ele>
        <time>2011-06-15T13:41:21Z</time>
      </trkpt>
      <trkpt lat="35.231351852416992" lon="23.979935646057129">
        <ele>2.06</ele>
        <time>2011-06-15T13:41:26Z</time>
      </trkpt>
      <trkpt lat="35.231373310089111" lon="23.979742527008057">
        <ele>2.541</ele>
        <time>2011-06-15T13:41:37Z</time>
      </trkpt>
      <trkpt lat="35.231373310089111" lon="23.979699611663818">
        <ele>2.06</ele>
        <time>2011-06-15T13:41:40Z</time>
      </trkpt>
      <trkpt lat="35.231373310089111" lon="23.97965669631958">
        <ele>2.06</ele>
        <time>2011-06-15T13:41:43Z</time>
      </trkpt>
      <trkpt lat="35.231373310089111" lon="23.979570865631104">
        <ele>3.021</ele>
        <time>2011-06-15T13:41:50Z</time>
      </trkpt>
      <trkpt lat="35.231351852416992" lon="23.979463577270508">
        <ele>4.463</ele>
        <time>2011-06-15T13:41:56Z</time>
      </trkpt>
      <trkpt lat="35.231373310089111" lon="23.979356288909912">
        <ele>4.463</ele>
        <time>2011-06-15T13:42:04Z</time>
      </trkpt>
      <trkpt lat="35.231351852416992" lon="23.979334831237793">
        <ele>5.425</ele>
        <time>2011-06-15T13:42:06Z</time>
      </trkpt>
      <trkpt lat="35.231351852416992" lon="23.97916316986084">
        <ele>7.347</ele>
        <time>2011-06-15T13:42:17Z</time>
      </trkpt>
      <trkpt lat="35.231330394744873" lon="23.979077339172363">
        <ele>10.712</ele>
        <time>2011-06-15T13:42:24Z</time>
      </trkpt>
      <trkpt lat="35.231330394744873" lon="23.979034423828125">
        <ele>13.596</ele>
        <time>2011-06-15T13:42:27Z</time>
      </trkpt>
      <trkpt lat="35.231330394744873" lon="23.978841304779053">
        <ele>17.440999999999999</ele>
        <time>2011-06-15T13:42:38Z</time>
      </trkpt>
      <trkpt lat="35.231308937072754" lon="23.978755474090576">
        <ele>16.48</ele>
        <time>2011-06-15T13:42:44Z</time>
      </trkpt>
      <trkpt lat="35.231287479400635" lon="23.978712558746338">
        <ele>15.518000000000001</ele>
        <time>2011-06-15T13:42:47Z</time>
      </trkpt>
      <trkpt lat="35.231287479400635" lon="23.97864818572998">
        <ele>15.038</ele>
        <time>2011-06-15T13:42:51Z</time>
      </trkpt>
      <trkpt lat="35.231244564056396" lon="23.978497982025146">
        <ele>11.193</ele>
        <time>2011-06-15T13:43:00Z</time>
      </trkpt>
      <trkpt lat="35.231223106384277" lon="23.97841215133667">
        <ele>9.750999999999999</ele>
        <time>2011-06-15T13:43:06Z</time>
      </trkpt>
      <trkpt lat="35.231201648712158" lon="23.978261947631836">
        <ele>8.308999999999999</ele>
        <time>2011-06-15T13:43:15Z</time>
      </trkpt>
      <trkpt lat="35.231201648712158" lon="23.978219032287598">
        <ele>6.866</ele>
        <time>2011-06-15T13:43:18Z</time>
      </trkpt>
      <trkpt lat="35.231137275695801" lon="23.978133201599121">
        <ele>4.463</ele>
        <time>2011-06-15T13:43:27Z</time>
      </trkpt>
      <trkpt lat="35.231094360351563" lon="23.978068828582764">
        <ele>3.021</ele>
        <time>2011-06-15T13:43:32Z</time>
      </trkpt>
      <trkpt lat="35.231072902679443" lon="23.977982997894287">
        <ele>1.579</ele>
        <time>2011-06-15T13:43:37Z</time>
      </trkpt>
      <trkpt lat="35.231051445007324" lon="23.977940082550049">
        <ele>0.618</ele>
        <time>2011-06-15T13:43:40Z</time>
      </trkpt>
      <trkpt lat="35.231051445007324" lon="23.977897167205811">
        <ele>0.137</ele>
        <time>2011-06-15T13:43:43Z</time>
      </trkpt>
      <trkpt lat="35.231029987335205" lon="23.977854251861572">
        <ele>-1.785</ele>
        <time>2011-06-15T13:43:48Z</time>
      </trkpt>
      <trkpt lat="35.231029987335205" lon="23.977746963500977">
        <ele>-3.708</ele>
        <time>2011-06-15T13:43:55Z</time>
      </trkpt>
      <trkpt lat="35.231029987335205" lon="23.977682590484619">
        <ele>-3.227</ele>
        <time>2011-06-15T13:43:58Z</time>
      </trkpt>
      <trkpt lat="35.231008529663086" lon="23.977553844451904">
        <ele>-4.189</ele>
        <time>2011-06-15T13:44:06Z</time>
      </trkpt>
      <trkpt lat="35.230987071990967" lon="23.977489471435547">
        <ele>-5.15</ele>
        <time>2011-06-15T13:44:11Z</time>
      </trkpt>
      <trkpt lat="35.230944156646729" lon="23.97740364074707">
        <ele>-6.592</ele>
        <time>2011-06-15T13:44:18Z</time>
      </trkpt>
      <trkpt lat="35.230922698974609" lon="23.977253437042236">
        <ele>-8.515000000000001</ele>
        <time>2011-06-15T13:44:27Z</time>
      </trkpt>
      <trkpt lat="35.230922698974609" lon="23.977231979370117">
        <ele>-9.476000000000001</ele>
        <time>2011-06-15T13:44:29Z</time>
      </trkpt>
      <trkpt lat="35.230922698974609" lon="23.977210521697998">
        <ele>-9.957000000000001</ele>
        <time>2011-06-15T13:44:31Z</time>
      </trkpt>
      <trkpt lat="35.230922698974609" lon="23.97716760635376">
        <ele>-12.359999999999999</ele>
        <time>2011-06-15T13:44:34Z</time>
      </trkpt>
      <trkpt lat="35.230922698974609" lon="23.977038860321045">
        <ele>-15.724</ele>
        <time>2011-06-15T13:44:41Z</time>
      </trkpt>
      <trkpt lat="35.230922698974609" lon="23.976974487304687">
        <ele>-16.686</ele>
        <time>2011-06-15T13:44:45Z</time>
      </trkpt>
      <trkpt lat="35.23090124130249" lon="23.976931571960449">
        <ele>-17.646999999999998</ele>
        <time>2011-06-15T13:44:49Z</time>
      </trkpt>
      <trkpt lat="35.230922698974609" lon="23.976867198944092">
        <ele>-17.646999999999998</ele>
        <time>2011-06-15T13:44:53Z</time>
      </trkpt>
      <trkpt lat="35.23090124130249" lon="23.976802825927734">
        <ele>-18.128</ele>
        <time>2011-06-15T13:44:58Z</time>
      </trkpt>
      <trkpt lat="35.230879783630371" lon="23.976781368255615">
        <ele>-18.608000000000001</ele>
        <time>2011-06-15T13:45:00Z</time>
      </trkpt>
      <trkpt lat="35.230858325958252" lon="23.976695537567139">
        <ele>-19.088999999999999</ele>
        <time>2011-06-15T13:45:06Z</time>
      </trkpt>
      <trkpt lat="35.230858325958252" lon="23.976631164550781">
        <ele>-17.166</ele>
        <time>2011-06-15T13:45:11Z</time>
      </trkpt>
      <trkpt lat="35.230815410614014" lon="23.976523876190186">
        <ele>-15.244</ele>
        <time>2011-06-15T13:45:18Z</time>
      </trkpt>
      <trkpt lat="35.230793952941895" lon="23.976352214813232">
        <ele>-11.879</ele>
        <time>2011-06-15T13:45:29Z</time>
      </trkpt>
      <trkpt lat="35.230793952941895" lon="23.976352214813232">
        <ele>-11.398</ele>
        <time>2011-06-15T13:45:30Z</time>
      </trkpt>
      <trkpt lat="35.230793952941895" lon="23.976287841796875">
        <ele>-11.398</ele>
        <time>2011-06-15T13:45:33Z</time>
      </trkpt>
      <trkpt lat="35.230793952941895" lon="23.976137638092041">
        <ele>-12.84</ele>
        <time>2011-06-15T13:45:41Z</time>
      </trkpt>
      <trkpt lat="35.230793952941895" lon="23.976073265075684">
        <ele>-14.282</ele>
        <time>2011-06-15T13:45:46Z</time>
      </trkpt>
      <trkpt lat="35.230729579925537" lon="23.975965976715088">
        <ele>-15.244</ele>
        <time>2011-06-15T13:45:56Z</time>
      </trkpt>
      <trkpt lat="35.230729579925537" lon="23.97590160369873">
        <ele>-13.802</ele>
        <time>2011-06-15T13:46:00Z</time>
      </trkpt>
      <trkpt lat="35.230708122253418" lon="23.975815773010254">
        <ele>-11.398</ele>
        <time>2011-06-15T13:46:06Z</time>
      </trkpt>
      <trkpt lat="35.230708122253418" lon="23.975751399993896">
        <ele>-11.398</ele>
        <time>2011-06-15T13:46:10Z</time>
      </trkpt>
      <trkpt lat="35.230686664581299" lon="23.975601196289063">
        <ele>-11.879</ele>
        <time>2011-06-15T13:46:17Z</time>
      </trkpt>
      <trkpt lat="35.230686664581299" lon="23.975472450256348">
        <ele>-11.398</ele>
        <time>2011-06-15T13:46:24Z</time>
      </trkpt>
      <trkpt lat="35.23066520690918" lon="23.975365161895752">
        <ele>-10.436999999999999</ele>
        <time>2011-06-15T13:46:31Z</time>
      </trkpt>
      <trkpt lat="35.23066520690918" lon="23.975300788879395">
        <ele>-10.436999999999999</ele>
        <time>2011-06-15T13:46:35Z</time>
      </trkpt>
      <trkpt lat="35.230643749237061" lon="23.97517204284668">
        <ele>-9.476000000000001</ele>
        <time>2011-06-15T13:46:43Z</time>
      </trkpt>
      <trkpt lat="35.230643749237061" lon="23.975107669830322">
        <ele>-8.515000000000001</ele>
        <time>2011-06-15T13:46:49Z</time>
      </trkpt>
      <trkpt lat="35.230622291564941" lon="23.975064754486084">
        <ele>-8.515000000000001</ele>
        <time>2011-06-15T13:46:52Z</time>
      </trkpt>
      <trkpt lat="35.230622291564941" lon="23.975021839141846">
        <ele>-8.994999999999999</ele>
        <time>2011-06-15T13:46:56Z</time>
      </trkpt>
      <trkpt lat="35.230622291564941" lon="23.974957466125488">
        <ele>-8.994999999999999</ele>
        <time>2011-06-15T13:47:01Z</time>
      </trkpt>
      <trkpt lat="35.230622291564941" lon="23.974828720092773">
        <ele>-8.994999999999999</ele>
        <time>2011-06-15T13:47:09Z</time>
      </trkpt>
      <trkpt lat="35.230622291564941" lon="23.974807262420654">
        <ele>-9.476000000000001</ele>
        <time>2011-06-15T13:47:11Z</time>
      </trkpt>
      <trkpt lat="35.23066520690918" lon="23.974635601043701">
        <ele>-8.994999999999999</ele>
        <time>2011-06-15T13:47:20Z</time>
      </trkpt>
      <trkpt lat="35.230686664581299" lon="23.974592685699463">
        <ele>-8.515000000000001</ele>
        <time>2011-06-15T13:47:23Z</time>
      </trkpt>
      <trkpt lat="35.230686664581299" lon="23.974571228027344">
        <ele>-7.553</ele>
        <time>2011-06-15T13:47:26Z</time>
      </trkpt>
      <trkpt lat="35.230686664581299" lon="23.974463939666748">
        <ele>-8.515000000000001</ele>
        <time>2011-06-15T13:47:34Z</time>
      </trkpt>
      <trkpt lat="35.230686664581299" lon="23.974442481994629">
        <ele>-8.515000000000001</ele>
        <time>2011-06-15T13:47:35Z</time>
      </trkpt>
      <trkpt lat="35.230686664581299" lon="23.974399566650391">
        <ele>-8.034000000000001</ele>
        <time>2011-06-15T13:47:38Z</time>
      </trkpt>
      <trkpt lat="35.230686664581299" lon="23.974249362945557">
        <ele>-8.034000000000001</ele>
        <time>2011-06-15T13:47:46Z</time>
      </trkpt>
      <trkpt lat="35.230708122253418" lon="23.974184989929199">
        <ele>-8.515000000000001</ele>
        <time>2011-06-15T13:47:51Z</time>
      </trkpt>
      <trkpt lat="35.230686664581299" lon="23.974142074584961">
        <ele>-8.994999999999999</ele>
        <time>2011-06-15T13:47:54Z</time>
      </trkpt>
      <trkpt lat="35.230708122253418" lon="23.974056243896484">
        <ele>-11.398</ele>
        <time>2011-06-15T13:48:00Z</time>
      </trkpt>
      <trkpt lat="35.230686664581299" lon="23.973948955535889">
        <ele>-11.398</ele>
        <time>2011-06-15T13:48:08Z</time>
      </trkpt>
      <trkpt lat="35.230686664581299" lon="23.97390604019165">
        <ele>-11.398</ele>
        <time>2011-06-15T13:48:10Z</time>
      </trkpt>
      <trkpt lat="35.230686664581299" lon="23.973841667175293">
        <ele>-10.917999999999999</ele>
        <time>2011-06-15T13:48:16Z</time>
      </trkpt>
      <trkpt lat="35.230729579925537" lon="23.973777294158936">
        <ele>-9.957000000000001</ele>
        <time>2011-06-15T13:48:24Z</time>
      </trkpt>
      <trkpt lat="35.230729579925537" lon="23.973755836486816">
        <ele>-9.476000000000001</ele>
        <time>2011-06-15T13:48:27Z</time>
      </trkpt>
      <trkpt lat="35.230751037597656" lon="23.973691463470459">
        <ele>-8.034000000000001</ele>
        <time>2011-06-15T13:48:31Z</time>
      </trkpt>
      <trkpt lat="35.230751037597656" lon="23.973627090454102">
        <ele>-6.111</ele>
        <time>2011-06-15T13:48:36Z</time>
      </trkpt>
      <trkpt lat="35.230772495269775" lon="23.973562717437744">
        <ele>-3.227</ele>
        <time>2011-06-15T13:48:43Z</time>
      </trkpt>
      <trkpt lat="35.230751037597656" lon="23.973541259765625">
        <ele>-2.747</ele>
        <time>2011-06-15T13:48:44Z</time>
      </trkpt>
      <trkpt lat="35.230729579925537" lon="23.973455429077148">
        <ele>0.618</ele>
        <time>2011-06-15T13:48:52Z</time>
      </trkpt>
      <trkpt lat="35.230708122253418" lon="23.973391056060791">
        <ele>-0.343</ele>
        <time>2011-06-15T13:48:57Z</time>
      </trkpt>
      <trkpt lat="35.230686664581299" lon="23.973262310028076">
        <ele>-2.747</ele>
        <time>2011-06-15T13:49:08Z</time>
      </trkpt>
      <trkpt lat="35.230708122253418" lon="23.9731764793396">
        <ele>-4.669</ele>
        <time>2011-06-15T13:49:15Z</time>
      </trkpt>
      <trkpt lat="35.230708122253418" lon="23.97315502166748">
        <ele>-4.669</ele>
        <time>2011-06-15T13:49:17Z</time>
      </trkpt>
      <trkpt lat="35.230772495269775" lon="23.973069190979004">
        <ele>-4.189</ele>
        <time>2011-06-15T13:49:25Z</time>
      </trkpt>
      <trkpt lat="35.230772495269775" lon="23.972983360290527">
        <ele>-3.227</ele>
        <time>2011-06-15T13:49:30Z</time>
      </trkpt>
      <trkpt lat="35.230751037597656" lon="23.97291898727417">
        <ele>-2.266</ele>
        <time>2011-06-15T13:49:34Z</time>
      </trkpt>
      <trkpt lat="35.230793952941895" lon="23.972790241241455">
        <ele>-1.785</ele>
        <time>2011-06-15T13:49:42Z</time>
      </trkpt>
      <trkpt lat="35.230815410614014" lon="23.972768783569336">
        <ele>-1.785</ele>
        <time>2011-06-15T13:49:43Z</time>
      </trkpt>
      <trkpt lat="35.230879783630371" lon="23.972682952880859">
        <ele>-1.785</ele>
        <time>2011-06-15T13:49:48Z</time>
      </trkpt>
      <trkpt lat="35.230879783630371" lon="23.972575664520264">
        <ele>-0.824</ele>
        <time>2011-06-15T13:49:56Z</time>
      </trkpt>
      <trkpt lat="35.230879783630371" lon="23.972446918487549">
        <ele>2.06</ele>
        <time>2011-06-15T13:50:02Z</time>
      </trkpt>
      <trkpt lat="35.230879783630371" lon="23.97242546081543">
        <ele>3.021</ele>
        <time>2011-06-15T13:50:04Z</time>
      </trkpt>
      <trkpt lat="35.230879783630371" lon="23.972361087799072">
        <ele>5.425</ele>
        <time>2011-06-15T13:50:08Z</time>
      </trkpt>
      <trkpt lat="35.230879783630371" lon="23.972339630126953">
        <ele>6.386</ele>
        <time>2011-06-15T13:50:10Z</time>
      </trkpt>
      <trkpt lat="35.230858325958252" lon="23.972275257110596">
        <ele>11.193</ele>
        <time>2011-06-15T13:50:15Z</time>
      </trkpt>
      <trkpt lat="35.230815410614014" lon="23.972146511077881">
        <ele>15.518000000000001</ele>
        <time>2011-06-15T13:50:24Z</time>
      </trkpt>
      <trkpt lat="35.230815410614014" lon="23.972039222717285">
        <ele>13.596</ele>
        <time>2011-06-15T13:50:32Z</time>
      </trkpt>
      <trkpt lat="35.230836868286133" lon="23.972017765045166">
        <ele>10.231</ele>
        <time>2011-06-15T13:50:41Z</time>
      </trkpt>
    </trkseg>
  </trk>

</gpx>